<?xml version="1.0" encoding="UTF-8" standalone="no" ?>
<gpx xmlns="http://www.topografix.com/GPX/1/1" xmlns:xsi="http://www.w3.org/2001/XMLSchema-instance" xsi:schemaLocation="http://www.topografix.com/GPX/1/1 http://www.topografix.com/GPX/1/1/gpx.xsd" version="1.1" creator="VisuGPX - https://www.visugpx.com">
  <metadata>
    <name>cancon castelnaud de gratecambe</name>
    <desc><![CDATA[circuit facile sans trop de déniveler ]]></desc>
  </metadata>
  <trk>
    <name><![CDATA[Sequence 1]]></name>
    <trkseg>
      <trkpt lat="44.53622" lon="0.62463">
        <ele>139</ele>
        <time>2015-11-29T08:04:51Z</time>
      </trkpt>
      <trkpt lat="44.53623" lon="0.62449">
        <ele>157</ele>
        <time>2015-11-29T08:04:57Z</time>
      </trkpt>
      <trkpt lat="44.53624" lon="0.62449">
        <ele>158</ele>
        <time>2015-11-29T08:04:58Z</time>
      </trkpt>
      <trkpt lat="44.53623" lon="0.62449">
        <ele>165</ele>
        <time>2015-11-29T08:05:03Z</time>
      </trkpt>
      <trkpt lat="44.53623" lon="0.62448">
        <ele>165</ele>
        <time>2015-11-29T08:05:08Z</time>
      </trkpt>
      <trkpt lat="44.53623" lon="0.62448">
        <ele>165</ele>
        <time>2015-11-29T08:05:09Z</time>
      </trkpt>
      <trkpt lat="44.53623" lon="0.62448">
        <ele>165</ele>
        <time>2015-11-29T08:05:12Z</time>
      </trkpt>
      <trkpt lat="44.53622" lon="0.62449">
        <ele>165</ele>
        <time>2015-11-29T08:05:15Z</time>
      </trkpt>
      <trkpt lat="44.53622" lon="0.62449">
        <ele>164</ele>
        <time>2015-11-29T08:05:18Z</time>
      </trkpt>
      <trkpt lat="44.53622" lon="0.62449">
        <ele>164</ele>
        <time>2015-11-29T08:05:21Z</time>
      </trkpt>
      <trkpt lat="44.53622" lon="0.62448">
        <ele>164</ele>
        <time>2015-11-29T08:05:24Z</time>
      </trkpt>
      <trkpt lat="44.53621" lon="0.62448">
        <ele>164</ele>
        <time>2015-11-29T08:05:27Z</time>
      </trkpt>
      <trkpt lat="44.53621" lon="0.62448">
        <ele>164</ele>
        <time>2015-11-29T08:05:30Z</time>
      </trkpt>
      <trkpt lat="44.53621" lon="0.62448">
        <ele>163</ele>
        <time>2015-11-29T08:05:33Z</time>
      </trkpt>
      <trkpt lat="44.53621" lon="0.62448">
        <ele>163</ele>
        <time>2015-11-29T08:05:36Z</time>
      </trkpt>
      <trkpt lat="44.53622" lon="0.62448">
        <ele>163</ele>
        <time>2015-11-29T08:05:41Z</time>
      </trkpt>
      <trkpt lat="44.53622" lon="0.62448">
        <ele>163</ele>
        <time>2015-11-29T08:05:42Z</time>
      </trkpt>
      <trkpt lat="44.53622" lon="0.62448">
        <ele>163</ele>
        <time>2015-11-29T08:05:45Z</time>
      </trkpt>
      <trkpt lat="44.53622" lon="0.62448">
        <ele>163</ele>
        <time>2015-11-29T08:05:48Z</time>
      </trkpt>
      <trkpt lat="44.53622" lon="0.62448">
        <ele>163</ele>
        <time>2015-11-29T08:05:51Z</time>
      </trkpt>
      <trkpt lat="44.53622" lon="0.62448">
        <ele>163</ele>
        <time>2015-11-29T08:05:54Z</time>
      </trkpt>
      <trkpt lat="44.53622" lon="0.62449">
        <ele>163</ele>
        <time>2015-11-29T08:05:57Z</time>
      </trkpt>
      <trkpt lat="44.53622" lon="0.62449">
        <ele>163</ele>
        <time>2015-11-29T08:06:00Z</time>
      </trkpt>
      <trkpt lat="44.53622" lon="0.62449">
        <ele>163</ele>
        <time>2015-11-29T08:06:03Z</time>
      </trkpt>
      <trkpt lat="44.53622" lon="0.62449">
        <ele>163</ele>
        <time>2015-11-29T08:06:06Z</time>
      </trkpt>
      <trkpt lat="44.53622" lon="0.62449">
        <ele>163</ele>
        <time>2015-11-29T08:06:09Z</time>
      </trkpt>
      <trkpt lat="44.53622" lon="0.62449">
        <ele>163</ele>
        <time>2015-11-29T08:06:12Z</time>
      </trkpt>
      <trkpt lat="44.53622" lon="0.62449">
        <ele>163</ele>
        <time>2015-11-29T08:06:15Z</time>
      </trkpt>
      <trkpt lat="44.53622" lon="0.62449">
        <ele>163</ele>
        <time>2015-11-29T08:06:18Z</time>
      </trkpt>
      <trkpt lat="44.53622" lon="0.62449">
        <ele>163</ele>
        <time>2015-11-29T08:06:21Z</time>
      </trkpt>
      <trkpt lat="44.53622" lon="0.62449">
        <ele>163</ele>
        <time>2015-11-29T08:06:24Z</time>
      </trkpt>
      <trkpt lat="44.53622" lon="0.62449">
        <ele>163</ele>
        <time>2015-11-29T08:06:27Z</time>
      </trkpt>
      <trkpt lat="44.53622" lon="0.62449">
        <ele>163</ele>
        <time>2015-11-29T08:06:30Z</time>
      </trkpt>
      <trkpt lat="44.53622" lon="0.62448">
        <ele>163</ele>
        <time>2015-11-29T08:06:33Z</time>
      </trkpt>
      <trkpt lat="44.5362" lon="0.6245">
        <ele>164</ele>
        <time>2015-11-29T08:06:36Z</time>
      </trkpt>
      <trkpt lat="44.53629" lon="0.6246">
        <ele>158</ele>
        <time>2015-11-29T08:06:41Z</time>
      </trkpt>
      <trkpt lat="44.53629" lon="0.62465">
        <ele>154</ele>
        <time>2015-11-29T08:06:48Z</time>
      </trkpt>
      <trkpt lat="44.53629" lon="0.62462">
        <ele>154</ele>
        <time>2015-11-29T08:06:55Z</time>
      </trkpt>
      <trkpt lat="44.53629" lon="0.62463">
        <ele>154</ele>
        <time>2015-11-29T08:06:56Z</time>
      </trkpt>
      <trkpt lat="44.53629" lon="0.62464">
        <ele>155</ele>
        <time>2015-11-29T08:07:01Z</time>
      </trkpt>
      <trkpt lat="44.53629" lon="0.62464">
        <ele>155</ele>
        <time>2015-11-29T08:07:04Z</time>
      </trkpt>
      <trkpt lat="44.53629" lon="0.62464">
        <ele>155</ele>
        <time>2015-11-29T08:07:07Z</time>
      </trkpt>
      <trkpt lat="44.53629" lon="0.62464">
        <ele>155</ele>
        <time>2015-11-29T08:07:10Z</time>
      </trkpt>
      <trkpt lat="44.53628" lon="0.62464">
        <ele>156</ele>
        <time>2015-11-29T08:07:13Z</time>
      </trkpt>
      <trkpt lat="44.53628" lon="0.62463">
        <ele>156</ele>
        <time>2015-11-29T08:07:16Z</time>
      </trkpt>
      <trkpt lat="44.53628" lon="0.62463">
        <ele>156</ele>
        <time>2015-11-29T08:07:19Z</time>
      </trkpt>
      <trkpt lat="44.53628" lon="0.62463">
        <ele>156</ele>
        <time>2015-11-29T08:07:23Z</time>
      </trkpt>
      <trkpt lat="44.53628" lon="0.62463">
        <ele>156</ele>
        <time>2015-11-29T08:07:25Z</time>
      </trkpt>
      <trkpt lat="44.53628" lon="0.62463">
        <ele>156</ele>
        <time>2015-11-29T08:07:28Z</time>
      </trkpt>
      <trkpt lat="44.53628" lon="0.62463">
        <ele>156</ele>
        <time>2015-11-29T08:07:32Z</time>
      </trkpt>
      <trkpt lat="44.53628" lon="0.62463">
        <ele>156</ele>
        <time>2015-11-29T08:07:34Z</time>
      </trkpt>
      <trkpt lat="44.53628" lon="0.62463">
        <ele>156</ele>
        <time>2015-11-29T08:07:37Z</time>
      </trkpt>
      <trkpt lat="44.53628" lon="0.62463">
        <ele>156</ele>
        <time>2015-11-29T08:07:40Z</time>
      </trkpt>
      <trkpt lat="44.53628" lon="0.62463">
        <ele>156</ele>
        <time>2015-11-29T08:07:43Z</time>
      </trkpt>
      <trkpt lat="44.53628" lon="0.62464">
        <ele>156</ele>
        <time>2015-11-29T08:07:46Z</time>
      </trkpt>
      <trkpt lat="44.53628" lon="0.62464">
        <ele>156</ele>
        <time>2015-11-29T08:07:49Z</time>
      </trkpt>
      <trkpt lat="44.53631" lon="0.62464">
        <ele>152</ele>
        <time>2015-11-29T08:07:52Z</time>
      </trkpt>
      <trkpt lat="44.53631" lon="0.62467">
        <ele>150</ele>
        <time>2015-11-29T08:07:57Z</time>
      </trkpt>
      <trkpt lat="44.53631" lon="0.62469">
        <ele>149</ele>
        <time>2015-11-29T08:08:04Z</time>
      </trkpt>
      <trkpt lat="44.53631" lon="0.62469">
        <ele>149</ele>
        <time>2015-11-29T08:08:05Z</time>
      </trkpt>
      <trkpt lat="44.53631" lon="0.62468">
        <ele>149</ele>
        <time>2015-11-29T08:08:08Z</time>
      </trkpt>
      <trkpt lat="44.53631" lon="0.62469">
        <ele>149</ele>
        <time>2015-11-29T08:08:11Z</time>
      </trkpt>
      <trkpt lat="44.53631" lon="0.62469">
        <ele>149</ele>
        <time>2015-11-29T08:08:14Z</time>
      </trkpt>
      <trkpt lat="44.53631" lon="0.62468">
        <ele>148</ele>
        <time>2015-11-29T08:08:17Z</time>
      </trkpt>
      <trkpt lat="44.53631" lon="0.62468">
        <ele>148</ele>
        <time>2015-11-29T08:08:20Z</time>
      </trkpt>
      <trkpt lat="44.5363" lon="0.62468">
        <ele>148</ele>
        <time>2015-11-29T08:08:23Z</time>
      </trkpt>
      <trkpt lat="44.53631" lon="0.62468">
        <ele>148</ele>
        <time>2015-11-29T08:08:26Z</time>
      </trkpt>
      <trkpt lat="44.5363" lon="0.62468">
        <ele>148</ele>
        <time>2015-11-29T08:08:29Z</time>
      </trkpt>
      <trkpt lat="44.5363" lon="0.62468">
        <ele>148</ele>
        <time>2015-11-29T08:08:32Z</time>
      </trkpt>
      <trkpt lat="44.5363" lon="0.62469">
        <ele>149</ele>
        <time>2015-11-29T08:08:35Z</time>
      </trkpt>
      <trkpt lat="44.53628" lon="0.62473">
        <ele>149</ele>
        <time>2015-11-29T08:08:40Z</time>
      </trkpt>
      <trkpt lat="44.53628" lon="0.62474">
        <ele>150</ele>
        <time>2015-11-29T08:08:43Z</time>
      </trkpt>
      <trkpt lat="44.53627" lon="0.62475">
        <ele>151</ele>
        <time>2015-11-29T08:08:48Z</time>
      </trkpt>
      <trkpt lat="44.53627" lon="0.62475">
        <ele>151</ele>
        <time>2015-11-29T08:08:52Z</time>
      </trkpt>
      <trkpt lat="44.53627" lon="0.62474">
        <ele>151</ele>
        <time>2015-11-29T08:08:54Z</time>
      </trkpt>
      <trkpt lat="44.53628" lon="0.62474">
        <ele>151</ele>
        <time>2015-11-29T08:08:58Z</time>
      </trkpt>
      <trkpt lat="44.53628" lon="0.62473">
        <ele>151</ele>
        <time>2015-11-29T08:09:00Z</time>
      </trkpt>
      <trkpt lat="44.53628" lon="0.62473">
        <ele>151</ele>
        <time>2015-11-29T08:09:03Z</time>
      </trkpt>
      <trkpt lat="44.53628" lon="0.62473">
        <ele>151</ele>
        <time>2015-11-29T08:09:06Z</time>
      </trkpt>
      <trkpt lat="44.53628" lon="0.62473">
        <ele>151</ele>
        <time>2015-11-29T08:09:09Z</time>
      </trkpt>
      <trkpt lat="44.53628" lon="0.62473">
        <ele>151</ele>
        <time>2015-11-29T08:09:14Z</time>
      </trkpt>
      <trkpt lat="44.53628" lon="0.62473">
        <ele>151</ele>
        <time>2015-11-29T08:09:15Z</time>
      </trkpt>
      <trkpt lat="44.53628" lon="0.62473">
        <ele>151</ele>
        <time>2015-11-29T08:09:18Z</time>
      </trkpt>
      <trkpt lat="44.53628" lon="0.62473">
        <ele>151</ele>
        <time>2015-11-29T08:09:21Z</time>
      </trkpt>
      <trkpt lat="44.53628" lon="0.62473">
        <ele>151</ele>
        <time>2015-11-29T08:09:24Z</time>
      </trkpt>
      <trkpt lat="44.53628" lon="0.62473">
        <ele>151</ele>
        <time>2015-11-29T08:09:27Z</time>
      </trkpt>
      <trkpt lat="44.53628" lon="0.62473">
        <ele>151</ele>
        <time>2015-11-29T08:09:30Z</time>
      </trkpt>
      <trkpt lat="44.53628" lon="0.62473">
        <ele>151</ele>
        <time>2015-11-29T08:09:33Z</time>
      </trkpt>
      <trkpt lat="44.53628" lon="0.62473">
        <ele>151</ele>
        <time>2015-11-29T08:09:36Z</time>
      </trkpt>
      <trkpt lat="44.53628" lon="0.62473">
        <ele>151</ele>
        <time>2015-11-29T08:09:39Z</time>
      </trkpt>
      <trkpt lat="44.53628" lon="0.62473">
        <ele>151</ele>
        <time>2015-11-29T08:09:42Z</time>
      </trkpt>
      <trkpt lat="44.53628" lon="0.62473">
        <ele>151</ele>
        <time>2015-11-29T08:09:45Z</time>
      </trkpt>
      <trkpt lat="44.53628" lon="0.62473">
        <ele>151</ele>
        <time>2015-11-29T08:09:49Z</time>
      </trkpt>
      <trkpt lat="44.53628" lon="0.62473">
        <ele>151</ele>
        <time>2015-11-29T08:09:51Z</time>
      </trkpt>
      <trkpt lat="44.53628" lon="0.62473">
        <ele>151</ele>
        <time>2015-11-29T08:09:54Z</time>
      </trkpt>
      <trkpt lat="44.53628" lon="0.62473">
        <ele>151</ele>
        <time>2015-11-29T08:09:57Z</time>
      </trkpt>
      <trkpt lat="44.53628" lon="0.62473">
        <ele>151</ele>
        <time>2015-11-29T08:10:00Z</time>
      </trkpt>
      <trkpt lat="44.53628" lon="0.62473">
        <ele>152</ele>
        <time>2015-11-29T08:10:03Z</time>
      </trkpt>
      <trkpt lat="44.53628" lon="0.62473">
        <ele>152</ele>
        <time>2015-11-29T08:10:06Z</time>
      </trkpt>
      <trkpt lat="44.53628" lon="0.62473">
        <ele>152</ele>
        <time>2015-11-29T08:10:09Z</time>
      </trkpt>
      <trkpt lat="44.53628" lon="0.62473">
        <ele>152</ele>
        <time>2015-11-29T08:10:14Z</time>
      </trkpt>
      <trkpt lat="44.53628" lon="0.62473">
        <ele>152</ele>
        <time>2015-11-29T08:10:15Z</time>
      </trkpt>
      <trkpt lat="44.53628" lon="0.62473">
        <ele>152</ele>
        <time>2015-11-29T08:10:18Z</time>
      </trkpt>
      <trkpt lat="44.53628" lon="0.62473">
        <ele>152</ele>
        <time>2015-11-29T08:10:21Z</time>
      </trkpt>
      <trkpt lat="44.53628" lon="0.62472">
        <ele>152</ele>
        <time>2015-11-29T08:10:24Z</time>
      </trkpt>
      <trkpt lat="44.53628" lon="0.62473">
        <ele>152</ele>
        <time>2015-11-29T08:10:27Z</time>
      </trkpt>
      <trkpt lat="44.53628" lon="0.62473">
        <ele>152</ele>
        <time>2015-11-29T08:10:30Z</time>
      </trkpt>
      <trkpt lat="44.53628" lon="0.62472">
        <ele>152</ele>
        <time>2015-11-29T08:10:33Z</time>
      </trkpt>
      <trkpt lat="44.53628" lon="0.62472">
        <ele>152</ele>
        <time>2015-11-29T08:10:36Z</time>
      </trkpt>
      <trkpt lat="44.53628" lon="0.62472">
        <ele>152</ele>
        <time>2015-11-29T08:10:39Z</time>
      </trkpt>
      <trkpt lat="44.53628" lon="0.62472">
        <ele>152</ele>
        <time>2015-11-29T08:10:42Z</time>
      </trkpt>
      <trkpt lat="44.53628" lon="0.62472">
        <ele>152</ele>
        <time>2015-11-29T08:10:45Z</time>
      </trkpt>
      <trkpt lat="44.53628" lon="0.62472">
        <ele>152</ele>
        <time>2015-11-29T08:10:48Z</time>
      </trkpt>
      <trkpt lat="44.53628" lon="0.62472">
        <ele>152</ele>
        <time>2015-11-29T08:10:51Z</time>
      </trkpt>
      <trkpt lat="44.53628" lon="0.62472">
        <ele>152</ele>
        <time>2015-11-29T08:10:54Z</time>
      </trkpt>
      <trkpt lat="44.53628" lon="0.62472">
        <ele>152</ele>
        <time>2015-11-29T08:10:57Z</time>
      </trkpt>
      <trkpt lat="44.53628" lon="0.62472">
        <ele>152</ele>
        <time>2015-11-29T08:11:01Z</time>
      </trkpt>
      <trkpt lat="44.53628" lon="0.62472">
        <ele>152</ele>
        <time>2015-11-29T08:11:03Z</time>
      </trkpt>
      <trkpt lat="44.53628" lon="0.62471">
        <ele>152</ele>
        <time>2015-11-29T08:11:07Z</time>
      </trkpt>
      <trkpt lat="44.53629" lon="0.62471">
        <ele>151</ele>
        <time>2015-11-29T08:11:09Z</time>
      </trkpt>
      <trkpt lat="44.5363" lon="0.62471">
        <ele>151</ele>
        <time>2015-11-29T08:11:14Z</time>
      </trkpt>
      <trkpt lat="44.5363" lon="0.62471">
        <ele>151</ele>
        <time>2015-11-29T08:11:17Z</time>
      </trkpt>
      <trkpt lat="44.5363" lon="0.62471">
        <ele>151</ele>
        <time>2015-11-29T08:11:20Z</time>
      </trkpt>
      <trkpt lat="44.5363" lon="0.62471">
        <ele>151</ele>
        <time>2015-11-29T08:11:23Z</time>
      </trkpt>
      <trkpt lat="44.5363" lon="0.62471">
        <ele>151</ele>
        <time>2015-11-29T08:11:26Z</time>
      </trkpt>
      <trkpt lat="44.5363" lon="0.62471">
        <ele>151</ele>
        <time>2015-11-29T08:11:29Z</time>
      </trkpt>
      <trkpt lat="44.5363" lon="0.62471">
        <ele>151</ele>
        <time>2015-11-29T08:11:31Z</time>
      </trkpt>
      <trkpt lat="44.5363" lon="0.62471">
        <ele>151</ele>
        <time>2015-11-29T08:11:34Z</time>
      </trkpt>
      <trkpt lat="44.5363" lon="0.6247">
        <ele>151</ele>
        <time>2015-11-29T08:11:37Z</time>
      </trkpt>
      <trkpt lat="44.5363" lon="0.6247">
        <ele>151</ele>
        <time>2015-11-29T08:11:40Z</time>
      </trkpt>
      <trkpt lat="44.5363" lon="0.6247">
        <ele>151</ele>
        <time>2015-11-29T08:11:43Z</time>
      </trkpt>
      <trkpt lat="44.5363" lon="0.6247">
        <ele>151</ele>
        <time>2015-11-29T08:11:46Z</time>
      </trkpt>
      <trkpt lat="44.5363" lon="0.6247">
        <ele>151</ele>
        <time>2015-11-29T08:11:49Z</time>
      </trkpt>
      <trkpt lat="44.5363" lon="0.6247">
        <ele>151</ele>
        <time>2015-11-29T08:11:52Z</time>
      </trkpt>
      <trkpt lat="44.5363" lon="0.6247">
        <ele>151</ele>
        <time>2015-11-29T08:11:55Z</time>
      </trkpt>
      <trkpt lat="44.5363" lon="0.6247">
        <ele>151</ele>
        <time>2015-11-29T08:11:59Z</time>
      </trkpt>
      <trkpt lat="44.5363" lon="0.6247">
        <ele>151</ele>
        <time>2015-11-29T08:12:01Z</time>
      </trkpt>
      <trkpt lat="44.5363" lon="0.6247">
        <ele>151</ele>
        <time>2015-11-29T08:12:04Z</time>
      </trkpt>
      <trkpt lat="44.5363" lon="0.6247">
        <ele>151</ele>
        <time>2015-11-29T08:12:06Z</time>
      </trkpt>
      <trkpt lat="44.5363" lon="0.6247">
        <ele>151</ele>
        <time>2015-11-29T08:12:09Z</time>
      </trkpt>
      <trkpt lat="44.5363" lon="0.6247">
        <ele>151</ele>
        <time>2015-11-29T08:12:12Z</time>
      </trkpt>
      <trkpt lat="44.5363" lon="0.6247">
        <ele>151</ele>
        <time>2015-11-29T08:12:15Z</time>
      </trkpt>
      <trkpt lat="44.5363" lon="0.6247">
        <ele>145</ele>
        <time>2015-11-29T08:12:18Z</time>
      </trkpt>
      <trkpt lat="44.5363" lon="0.6247">
        <ele>148</ele>
        <time>2015-11-29T08:12:21Z</time>
      </trkpt>
      <trkpt lat="44.5363" lon="0.6247">
        <ele>149</ele>
        <time>2015-11-29T08:12:24Z</time>
      </trkpt>
      <trkpt lat="44.5363" lon="0.6247">
        <ele>150</ele>
        <time>2015-11-29T08:12:27Z</time>
      </trkpt>
      <trkpt lat="44.5363" lon="0.6247">
        <ele>150</ele>
        <time>2015-11-29T08:12:30Z</time>
      </trkpt>
      <trkpt lat="44.5363" lon="0.6247">
        <ele>150</ele>
        <time>2015-11-29T08:12:33Z</time>
      </trkpt>
      <trkpt lat="44.5363" lon="0.6247">
        <ele>151</ele>
        <time>2015-11-29T08:12:36Z</time>
      </trkpt>
      <trkpt lat="44.5363" lon="0.6247">
        <ele>151</ele>
        <time>2015-11-29T08:12:39Z</time>
      </trkpt>
      <trkpt lat="44.5363" lon="0.6247">
        <ele>151</ele>
        <time>2015-11-29T08:12:42Z</time>
      </trkpt>
      <trkpt lat="44.5363" lon="0.6247">
        <ele>151</ele>
        <time>2015-11-29T08:12:45Z</time>
      </trkpt>
      <trkpt lat="44.5363" lon="0.6247">
        <ele>151</ele>
        <time>2015-11-29T08:12:48Z</time>
      </trkpt>
      <trkpt lat="44.5363" lon="0.6247">
        <ele>151</ele>
        <time>2015-11-29T08:12:51Z</time>
      </trkpt>
      <trkpt lat="44.5363" lon="0.6247">
        <ele>151</ele>
        <time>2015-11-29T08:12:54Z</time>
      </trkpt>
      <trkpt lat="44.5363" lon="0.6247">
        <ele>151</ele>
        <time>2015-11-29T08:12:57Z</time>
      </trkpt>
      <trkpt lat="44.5363" lon="0.6247">
        <ele>151</ele>
        <time>2015-11-29T08:13:00Z</time>
      </trkpt>
      <trkpt lat="44.5363" lon="0.6247">
        <ele>151</ele>
        <time>2015-11-29T08:13:03Z</time>
      </trkpt>
      <trkpt lat="44.5363" lon="0.6247">
        <ele>151</ele>
        <time>2015-11-29T08:13:06Z</time>
      </trkpt>
      <trkpt lat="44.5363" lon="0.6247">
        <ele>151</ele>
        <time>2015-11-29T08:13:09Z</time>
      </trkpt>
      <trkpt lat="44.5363" lon="0.6247">
        <ele>151</ele>
        <time>2015-11-29T08:13:12Z</time>
      </trkpt>
      <trkpt lat="44.5363" lon="0.6247">
        <ele>151</ele>
        <time>2015-11-29T08:13:15Z</time>
      </trkpt>
      <trkpt lat="44.5363" lon="0.6247">
        <ele>151</ele>
        <time>2015-11-29T08:13:18Z</time>
      </trkpt>
      <trkpt lat="44.5363" lon="0.6247">
        <ele>151</ele>
        <time>2015-11-29T08:13:21Z</time>
      </trkpt>
      <trkpt lat="44.5363" lon="0.6247">
        <ele>151</ele>
        <time>2015-11-29T08:13:24Z</time>
      </trkpt>
      <trkpt lat="44.5363" lon="0.6247">
        <ele>151</ele>
        <time>2015-11-29T08:13:29Z</time>
      </trkpt>
      <trkpt lat="44.5363" lon="0.6247">
        <ele>151</ele>
        <time>2015-11-29T08:13:30Z</time>
      </trkpt>
      <trkpt lat="44.5363" lon="0.6247">
        <ele>151</ele>
        <time>2015-11-29T08:13:33Z</time>
      </trkpt>
      <trkpt lat="44.5363" lon="0.6247">
        <ele>151</ele>
        <time>2015-11-29T08:13:36Z</time>
      </trkpt>
      <trkpt lat="44.5363" lon="0.6247">
        <ele>151</ele>
        <time>2015-11-29T08:13:39Z</time>
      </trkpt>
      <trkpt lat="44.5363" lon="0.6247">
        <ele>151</ele>
        <time>2015-11-29T08:13:42Z</time>
      </trkpt>
      <trkpt lat="44.5363" lon="0.6247">
        <ele>151</ele>
        <time>2015-11-29T08:13:45Z</time>
      </trkpt>
      <trkpt lat="44.5363" lon="0.6247">
        <ele>151</ele>
        <time>2015-11-29T08:13:48Z</time>
      </trkpt>
      <trkpt lat="44.5363" lon="0.6247">
        <ele>151</ele>
        <time>2015-11-29T08:13:51Z</time>
      </trkpt>
      <trkpt lat="44.5363" lon="0.6247">
        <ele>151</ele>
        <time>2015-11-29T08:13:54Z</time>
      </trkpt>
      <trkpt lat="44.5363" lon="0.6247">
        <ele>151</ele>
        <time>2015-11-29T08:13:57Z</time>
      </trkpt>
      <trkpt lat="44.5363" lon="0.6247">
        <ele>151</ele>
        <time>2015-11-29T08:14:01Z</time>
      </trkpt>
      <trkpt lat="44.5363" lon="0.6247">
        <ele>151</ele>
        <time>2015-11-29T08:14:03Z</time>
      </trkpt>
      <trkpt lat="44.5363" lon="0.6247">
        <ele>151</ele>
        <time>2015-11-29T08:14:06Z</time>
      </trkpt>
      <trkpt lat="44.5363" lon="0.6247">
        <ele>151</ele>
        <time>2015-11-29T08:14:09Z</time>
      </trkpt>
      <trkpt lat="44.5363" lon="0.6247">
        <ele>151</ele>
        <time>2015-11-29T08:14:12Z</time>
      </trkpt>
      <trkpt lat="44.5363" lon="0.62469">
        <ele>150</ele>
        <time>2015-11-29T08:14:17Z</time>
      </trkpt>
      <trkpt lat="44.5363" lon="0.62469">
        <ele>150</ele>
        <time>2015-11-29T08:14:18Z</time>
      </trkpt>
      <trkpt lat="44.53629" lon="0.62469">
        <ele>150</ele>
        <time>2015-11-29T08:14:21Z</time>
      </trkpt>
      <trkpt lat="44.53629" lon="0.62469">
        <ele>149</ele>
        <time>2015-11-29T08:14:24Z</time>
      </trkpt>
      <trkpt lat="44.53629" lon="0.62469">
        <ele>149</ele>
        <time>2015-11-29T08:14:28Z</time>
      </trkpt>
      <trkpt lat="44.53629" lon="0.62469">
        <ele>149</ele>
        <time>2015-11-29T08:14:30Z</time>
      </trkpt>
      <trkpt lat="44.53629" lon="0.62469">
        <ele>149</ele>
        <time>2015-11-29T08:14:33Z</time>
      </trkpt>
      <trkpt lat="44.53629" lon="0.62469">
        <ele>149</ele>
        <time>2015-11-29T08:14:36Z</time>
      </trkpt>
      <trkpt lat="44.53629" lon="0.62469">
        <ele>149</ele>
        <time>2015-11-29T08:14:39Z</time>
      </trkpt>
      <trkpt lat="44.53629" lon="0.62469">
        <ele>149</ele>
        <time>2015-11-29T08:14:41Z</time>
      </trkpt>
      <trkpt lat="44.53629" lon="0.62469">
        <ele>149</ele>
        <time>2015-11-29T08:14:44Z</time>
      </trkpt>
      <trkpt lat="44.53629" lon="0.62469">
        <ele>149</ele>
        <time>2015-11-29T08:14:47Z</time>
      </trkpt>
      <trkpt lat="44.53629" lon="0.62469">
        <ele>149</ele>
        <time>2015-11-29T08:14:50Z</time>
      </trkpt>
      <trkpt lat="44.53629" lon="0.62469">
        <ele>149</ele>
        <time>2015-11-29T08:14:53Z</time>
      </trkpt>
      <trkpt lat="44.53629" lon="0.62469">
        <ele>149</ele>
        <time>2015-11-29T08:14:56Z</time>
      </trkpt>
      <trkpt lat="44.53629" lon="0.62469">
        <ele>149</ele>
        <time>2015-11-29T08:14:59Z</time>
      </trkpt>
      <trkpt lat="44.53629" lon="0.62469">
        <ele>149</ele>
        <time>2015-11-29T08:15:02Z</time>
      </trkpt>
      <trkpt lat="44.53629" lon="0.62469">
        <ele>149</ele>
        <time>2015-11-29T08:15:04Z</time>
      </trkpt>
      <trkpt lat="44.53629" lon="0.62469">
        <ele>149</ele>
        <time>2015-11-29T08:15:09Z</time>
      </trkpt>
      <trkpt lat="44.53629" lon="0.62469">
        <ele>149</ele>
        <time>2015-11-29T08:15:10Z</time>
      </trkpt>
      <trkpt lat="44.53629" lon="0.62469">
        <ele>149</ele>
        <time>2015-11-29T08:15:13Z</time>
      </trkpt>
      <trkpt lat="44.53629" lon="0.62469">
        <ele>149</ele>
        <time>2015-11-29T08:15:15Z</time>
      </trkpt>
      <trkpt lat="44.53629" lon="0.62469">
        <ele>149</ele>
        <time>2015-11-29T08:15:18Z</time>
      </trkpt>
      <trkpt lat="44.53629" lon="0.62469">
        <ele>149</ele>
        <time>2015-11-29T08:15:23Z</time>
      </trkpt>
      <trkpt lat="44.53629" lon="0.62469">
        <ele>149</ele>
        <time>2015-11-29T08:15:24Z</time>
      </trkpt>
      <trkpt lat="44.53629" lon="0.62469">
        <ele>149</ele>
        <time>2015-11-29T08:15:28Z</time>
      </trkpt>
      <trkpt lat="44.53629" lon="0.62469">
        <ele>149</ele>
        <time>2015-11-29T08:15:30Z</time>
      </trkpt>
      <trkpt lat="44.53629" lon="0.62469">
        <ele>149</ele>
        <time>2015-11-29T08:15:33Z</time>
      </trkpt>
      <trkpt lat="44.53629" lon="0.62469">
        <ele>149</ele>
        <time>2015-11-29T08:15:36Z</time>
      </trkpt>
      <trkpt lat="44.53629" lon="0.62469">
        <ele>149</ele>
        <time>2015-11-29T08:15:38Z</time>
      </trkpt>
      <trkpt lat="44.53631" lon="0.62472">
        <ele>150</ele>
        <time>2015-11-29T08:15:41Z</time>
      </trkpt>
      <trkpt lat="44.53638" lon="0.62476">
        <ele>150</ele>
        <time>2015-11-29T08:15:45Z</time>
      </trkpt>
      <trkpt lat="44.53641" lon="0.62463">
        <ele>152</ele>
        <time>2015-11-29T08:15:50Z</time>
      </trkpt>
      <trkpt lat="44.53636" lon="0.6246">
        <ele>156</ele>
        <time>2015-11-29T08:15:55Z</time>
      </trkpt>
      <trkpt lat="44.53634" lon="0.62461">
        <ele>157</ele>
        <time>2015-11-29T08:15:59Z</time>
      </trkpt>
      <trkpt lat="44.53634" lon="0.62462">
        <ele>159</ele>
        <time>2015-11-29T08:16:04Z</time>
      </trkpt>
      <trkpt lat="44.53634" lon="0.62461">
        <ele>159</ele>
        <time>2015-11-29T08:16:07Z</time>
      </trkpt>
      <trkpt lat="44.53634" lon="0.62461">
        <ele>159</ele>
        <time>2015-11-29T08:16:10Z</time>
      </trkpt>
      <trkpt lat="44.53634" lon="0.62461">
        <ele>159</ele>
        <time>2015-11-29T08:16:13Z</time>
      </trkpt>
      <trkpt lat="44.53634" lon="0.62461">
        <ele>159</ele>
        <time>2015-11-29T08:16:16Z</time>
      </trkpt>
      <trkpt lat="44.53634" lon="0.62461">
        <ele>159</ele>
        <time>2015-11-29T08:16:18Z</time>
      </trkpt>
      <trkpt lat="44.53634" lon="0.62461">
        <ele>159</ele>
        <time>2015-11-29T08:16:21Z</time>
      </trkpt>
      <trkpt lat="44.53634" lon="0.62461">
        <ele>159</ele>
        <time>2015-11-29T08:16:24Z</time>
      </trkpt>
      <trkpt lat="44.53634" lon="0.62461">
        <ele>159</ele>
        <time>2015-11-29T08:16:26Z</time>
      </trkpt>
      <trkpt lat="44.53634" lon="0.62461">
        <ele>159</ele>
        <time>2015-11-29T08:16:29Z</time>
      </trkpt>
      <trkpt lat="44.53634" lon="0.62461">
        <ele>159</ele>
        <time>2015-11-29T08:16:32Z</time>
      </trkpt>
      <trkpt lat="44.53634" lon="0.62461">
        <ele>159</ele>
        <time>2015-11-29T08:16:35Z</time>
      </trkpt>
      <trkpt lat="44.53633" lon="0.62461">
        <ele>159</ele>
        <time>2015-11-29T08:16:38Z</time>
      </trkpt>
      <trkpt lat="44.53631" lon="0.62461">
        <ele>161</ele>
        <time>2015-11-29T08:16:43Z</time>
      </trkpt>
      <trkpt lat="44.53622" lon="0.62472">
        <ele>160</ele>
        <time>2015-11-29T08:16:50Z</time>
      </trkpt>
      <trkpt lat="44.53623" lon="0.62479">
        <ele>161</ele>
        <time>2015-11-29T08:16:52Z</time>
      </trkpt>
      <trkpt lat="44.5363" lon="0.6249">
        <ele>162</ele>
        <time>2015-11-29T08:16:55Z</time>
      </trkpt>
      <trkpt lat="44.53642" lon="0.62505">
        <ele>158</ele>
        <time>2015-11-29T08:17:01Z</time>
      </trkpt>
      <trkpt lat="44.53644" lon="0.62527">
        <ele>160</ele>
        <time>2015-11-29T08:17:05Z</time>
      </trkpt>
      <trkpt lat="44.53644" lon="0.62554">
        <ele>157</ele>
        <time>2015-11-29T08:17:10Z</time>
      </trkpt>
      <trkpt lat="44.53653" lon="0.62576">
        <ele>154</ele>
        <time>2015-11-29T08:17:17Z</time>
      </trkpt>
      <trkpt lat="44.53665" lon="0.62578">
        <ele>154</ele>
        <time>2015-11-29T08:17:20Z</time>
      </trkpt>
      <trkpt lat="44.53685" lon="0.62609">
        <ele>151</ele>
        <time>2015-11-29T08:17:25Z</time>
      </trkpt>
      <trkpt lat="44.53719" lon="0.6264">
        <ele>151</ele>
        <time>2015-11-29T08:17:32Z</time>
      </trkpt>
      <trkpt lat="44.53752" lon="0.62644">
        <ele>150</ele>
        <time>2015-11-29T08:17:37Z</time>
      </trkpt>
      <trkpt lat="44.53764" lon="0.62645">
        <ele>151</ele>
        <time>2015-11-29T08:17:39Z</time>
      </trkpt>
      <trkpt lat="44.53786" lon="0.62645">
        <ele>149</ele>
        <time>2015-11-29T08:17:43Z</time>
      </trkpt>
      <trkpt lat="44.53814" lon="0.62639">
        <ele>144</ele>
        <time>2015-11-29T08:17:48Z</time>
      </trkpt>
      <trkpt lat="44.53847" lon="0.62632">
        <ele>142</ele>
        <time>2015-11-29T08:17:53Z</time>
      </trkpt>
      <trkpt lat="44.53877" lon="0.62625">
        <ele>139</ele>
        <time>2015-11-29T08:17:58Z</time>
      </trkpt>
      <trkpt lat="44.53906" lon="0.62624">
        <ele>135</ele>
        <time>2015-11-29T08:18:03Z</time>
      </trkpt>
      <trkpt lat="44.53933" lon="0.62621">
        <ele>134</ele>
        <time>2015-11-29T08:18:08Z</time>
      </trkpt>
      <trkpt lat="44.53961" lon="0.62613">
        <ele>132</ele>
        <time>2015-11-29T08:18:17Z</time>
      </trkpt>
      <trkpt lat="44.53975" lon="0.62615">
        <ele>133</ele>
        <time>2015-11-29T08:18:21Z</time>
      </trkpt>
      <trkpt lat="44.53983" lon="0.62612">
        <ele>132</ele>
        <time>2015-11-29T08:18:23Z</time>
      </trkpt>
      <trkpt lat="44.53998" lon="0.62598">
        <ele>130</ele>
        <time>2015-11-29T08:18:28Z</time>
      </trkpt>
      <trkpt lat="44.54012" lon="0.62617">
        <ele>129</ele>
        <time>2015-11-29T08:18:33Z</time>
      </trkpt>
      <trkpt lat="44.54029" lon="0.62645">
        <ele>126</ele>
        <time>2015-11-29T08:18:38Z</time>
      </trkpt>
      <trkpt lat="44.54044" lon="0.62674">
        <ele>123</ele>
        <time>2015-11-29T08:18:43Z</time>
      </trkpt>
      <trkpt lat="44.5406" lon="0.62703">
        <ele>120</ele>
        <time>2015-11-29T08:18:48Z</time>
      </trkpt>
      <trkpt lat="44.54068" lon="0.62722">
        <ele>120</ele>
        <time>2015-11-29T08:18:53Z</time>
      </trkpt>
      <trkpt lat="44.54083" lon="0.62735">
        <ele>120</ele>
        <time>2015-11-29T08:18:58Z</time>
      </trkpt>
      <trkpt lat="44.54132" lon="0.62712">
        <ele>123</ele>
        <time>2015-11-29T08:19:07Z</time>
      </trkpt>
      <trkpt lat="44.54136" lon="0.62708">
        <ele>124</ele>
        <time>2015-11-29T08:19:08Z</time>
      </trkpt>
      <trkpt lat="44.54151" lon="0.62692">
        <ele>126</ele>
        <time>2015-11-29T08:19:13Z</time>
      </trkpt>
      <trkpt lat="44.54164" lon="0.62683">
        <ele>129</ele>
        <time>2015-11-29T08:19:18Z</time>
      </trkpt>
      <trkpt lat="44.5417" lon="0.62695">
        <ele>129</ele>
        <time>2015-11-29T08:19:23Z</time>
      </trkpt>
      <trkpt lat="44.54175" lon="0.6271">
        <ele>129</ele>
        <time>2015-11-29T08:19:28Z</time>
      </trkpt>
      <trkpt lat="44.5418" lon="0.62729">
        <ele>130</ele>
        <time>2015-11-29T08:19:33Z</time>
      </trkpt>
      <trkpt lat="44.54189" lon="0.62751">
        <ele>130</ele>
        <time>2015-11-29T08:19:38Z</time>
      </trkpt>
      <trkpt lat="44.542" lon="0.62773">
        <ele>128</ele>
        <time>2015-11-29T08:19:43Z</time>
      </trkpt>
      <trkpt lat="44.54212" lon="0.6279">
        <ele>129</ele>
        <time>2015-11-29T08:19:48Z</time>
      </trkpt>
      <trkpt lat="44.54225" lon="0.62802">
        <ele>130</ele>
        <time>2015-11-29T08:19:53Z</time>
      </trkpt>
      <trkpt lat="44.54239" lon="0.62813">
        <ele>132</ele>
        <time>2015-11-29T08:19:58Z</time>
      </trkpt>
      <trkpt lat="44.54251" lon="0.62824">
        <ele>132</ele>
        <time>2015-11-29T08:20:03Z</time>
      </trkpt>
      <trkpt lat="44.54261" lon="0.62834">
        <ele>134</ele>
        <time>2015-11-29T08:20:08Z</time>
      </trkpt>
      <trkpt lat="44.54272" lon="0.62843">
        <ele>135</ele>
        <time>2015-11-29T08:20:13Z</time>
      </trkpt>
      <trkpt lat="44.54283" lon="0.62852">
        <ele>135</ele>
        <time>2015-11-29T08:20:18Z</time>
      </trkpt>
      <trkpt lat="44.54292" lon="0.62862">
        <ele>136</ele>
        <time>2015-11-29T08:20:23Z</time>
      </trkpt>
      <trkpt lat="44.54302" lon="0.62868">
        <ele>135</ele>
        <time>2015-11-29T08:20:28Z</time>
      </trkpt>
      <trkpt lat="44.54311" lon="0.62878">
        <ele>134</ele>
        <time>2015-11-29T08:20:33Z</time>
      </trkpt>
      <trkpt lat="44.54324" lon="0.6289">
        <ele>133</ele>
        <time>2015-11-29T08:20:38Z</time>
      </trkpt>
      <trkpt lat="44.54336" lon="0.62904">
        <ele>131</ele>
        <time>2015-11-29T08:20:43Z</time>
      </trkpt>
      <trkpt lat="44.54348" lon="0.62916">
        <ele>130</ele>
        <time>2015-11-29T08:20:48Z</time>
      </trkpt>
      <trkpt lat="44.54368" lon="0.62938">
        <ele>127</ele>
        <time>2015-11-29T08:20:54Z</time>
      </trkpt>
      <trkpt lat="44.54382" lon="0.62956">
        <ele>125</ele>
        <time>2015-11-29T08:20:58Z</time>
      </trkpt>
      <trkpt lat="44.54403" lon="0.6298">
        <ele>124</ele>
        <time>2015-11-29T08:21:03Z</time>
      </trkpt>
      <trkpt lat="44.54427" lon="0.63005">
        <ele>122</ele>
        <time>2015-11-29T08:21:08Z</time>
      </trkpt>
      <trkpt lat="44.54453" lon="0.63047">
        <ele>123</ele>
        <time>2015-11-29T08:21:16Z</time>
      </trkpt>
      <trkpt lat="44.54459" lon="0.6306">
        <ele>122</ele>
        <time>2015-11-29T08:21:18Z</time>
      </trkpt>
      <trkpt lat="44.54474" lon="0.63086">
        <ele>122</ele>
        <time>2015-11-29T08:21:23Z</time>
      </trkpt>
      <trkpt lat="44.54486" lon="0.63112">
        <ele>123</ele>
        <time>2015-11-29T08:21:28Z</time>
      </trkpt>
      <trkpt lat="44.545" lon="0.63136">
        <ele>124</ele>
        <time>2015-11-29T08:21:33Z</time>
      </trkpt>
      <trkpt lat="44.54524" lon="0.63173">
        <ele>120</ele>
        <time>2015-11-29T08:21:41Z</time>
      </trkpt>
      <trkpt lat="44.54519" lon="0.63177">
        <ele>116</ele>
        <time>2015-11-29T08:21:46Z</time>
      </trkpt>
      <trkpt lat="44.54515" lon="0.63184">
        <ele>116</ele>
        <time>2015-11-29T08:21:48Z</time>
      </trkpt>
      <trkpt lat="44.54503" lon="0.63199">
        <ele>116</ele>
        <time>2015-11-29T08:21:54Z</time>
      </trkpt>
      <trkpt lat="44.54495" lon="0.63211">
        <ele>116</ele>
        <time>2015-11-29T08:21:58Z</time>
      </trkpt>
      <trkpt lat="44.54481" lon="0.63226">
        <ele>117</ele>
        <time>2015-11-29T08:22:04Z</time>
      </trkpt>
      <trkpt lat="44.54475" lon="0.63231">
        <ele>117</ele>
        <time>2015-11-29T08:22:08Z</time>
      </trkpt>
      <trkpt lat="44.54468" lon="0.6324">
        <ele>118</ele>
        <time>2015-11-29T08:22:13Z</time>
      </trkpt>
      <trkpt lat="44.54458" lon="0.63253">
        <ele>118</ele>
        <time>2015-11-29T08:22:18Z</time>
      </trkpt>
      <trkpt lat="44.54445" lon="0.63272">
        <ele>118</ele>
        <time>2015-11-29T08:22:24Z</time>
      </trkpt>
      <trkpt lat="44.54434" lon="0.63288">
        <ele>118</ele>
        <time>2015-11-29T08:22:28Z</time>
      </trkpt>
      <trkpt lat="44.5442" lon="0.63308">
        <ele>119</ele>
        <time>2015-11-29T08:22:33Z</time>
      </trkpt>
      <trkpt lat="44.54404" lon="0.63328">
        <ele>119</ele>
        <time>2015-11-29T08:22:38Z</time>
      </trkpt>
      <trkpt lat="44.54388" lon="0.6335">
        <ele>118</ele>
        <time>2015-11-29T08:22:43Z</time>
      </trkpt>
      <trkpt lat="44.54374" lon="0.63376">
        <ele>118</ele>
        <time>2015-11-29T08:22:48Z</time>
      </trkpt>
      <trkpt lat="44.54366" lon="0.63408">
        <ele>120</ele>
        <time>2015-11-29T08:22:53Z</time>
      </trkpt>
      <trkpt lat="44.54363" lon="0.63444">
        <ele>119</ele>
        <time>2015-11-29T08:22:58Z</time>
      </trkpt>
      <trkpt lat="44.54357" lon="0.63475">
        <ele>121</ele>
        <time>2015-11-29T08:23:03Z</time>
      </trkpt>
      <trkpt lat="44.54349" lon="0.63508">
        <ele>121</ele>
        <time>2015-11-29T08:23:08Z</time>
      </trkpt>
      <trkpt lat="44.54341" lon="0.63542">
        <ele>120</ele>
        <time>2015-11-29T08:23:13Z</time>
      </trkpt>
      <trkpt lat="44.54333" lon="0.63577">
        <ele>119</ele>
        <time>2015-11-29T08:23:18Z</time>
      </trkpt>
      <trkpt lat="44.54326" lon="0.63611">
        <ele>118</ele>
        <time>2015-11-29T08:23:23Z</time>
      </trkpt>
      <trkpt lat="44.54318" lon="0.63646">
        <ele>117</ele>
        <time>2015-11-29T08:23:28Z</time>
      </trkpt>
      <trkpt lat="44.5431" lon="0.6368">
        <ele>116</ele>
        <time>2015-11-29T08:23:33Z</time>
      </trkpt>
      <trkpt lat="44.54304" lon="0.63714">
        <ele>117</ele>
        <time>2015-11-29T08:23:38Z</time>
      </trkpt>
      <trkpt lat="44.54297" lon="0.63744">
        <ele>115</ele>
        <time>2015-11-29T08:23:43Z</time>
      </trkpt>
      <trkpt lat="44.54294" lon="0.63777">
        <ele>116</ele>
        <time>2015-11-29T08:23:48Z</time>
      </trkpt>
      <trkpt lat="44.54309" lon="0.63818">
        <ele>116</ele>
        <time>2015-11-29T08:23:56Z</time>
      </trkpt>
      <trkpt lat="44.54313" lon="0.63825">
        <ele>117</ele>
        <time>2015-11-29T08:23:58Z</time>
      </trkpt>
      <trkpt lat="44.54324" lon="0.63839">
        <ele>115</ele>
        <time>2015-11-29T08:24:03Z</time>
      </trkpt>
      <trkpt lat="44.54334" lon="0.6385">
        <ele>114</ele>
        <time>2015-11-29T08:24:09Z</time>
      </trkpt>
      <trkpt lat="44.54324" lon="0.6385">
        <ele>113</ele>
        <time>2015-11-29T08:24:13Z</time>
      </trkpt>
      <trkpt lat="44.54314" lon="0.63853">
        <ele>112</ele>
        <time>2015-11-29T08:24:18Z</time>
      </trkpt>
      <trkpt lat="44.54316" lon="0.63869">
        <ele>111</ele>
        <time>2015-11-29T08:24:23Z</time>
      </trkpt>
      <trkpt lat="44.54311" lon="0.63847">
        <ele>109</ele>
        <time>2015-11-29T08:24:28Z</time>
      </trkpt>
      <trkpt lat="44.54301" lon="0.63814">
        <ele>108</ele>
        <time>2015-11-29T08:24:33Z</time>
      </trkpt>
      <trkpt lat="44.54288" lon="0.63786">
        <ele>107</ele>
        <time>2015-11-29T08:24:38Z</time>
      </trkpt>
      <trkpt lat="44.54274" lon="0.63764">
        <ele>107</ele>
        <time>2015-11-29T08:24:43Z</time>
      </trkpt>
      <trkpt lat="44.54257" lon="0.63746">
        <ele>108</ele>
        <time>2015-11-29T08:24:48Z</time>
      </trkpt>
      <trkpt lat="44.54239" lon="0.63728">
        <ele>109</ele>
        <time>2015-11-29T08:24:53Z</time>
      </trkpt>
      <trkpt lat="44.54221" lon="0.63712">
        <ele>109</ele>
        <time>2015-11-29T08:24:58Z</time>
      </trkpt>
      <trkpt lat="44.54204" lon="0.63695">
        <ele>112</ele>
        <time>2015-11-29T08:25:03Z</time>
      </trkpt>
      <trkpt lat="44.54188" lon="0.63677">
        <ele>113</ele>
        <time>2015-11-29T08:25:08Z</time>
      </trkpt>
      <trkpt lat="44.54178" lon="0.63659">
        <ele>113</ele>
        <time>2015-11-29T08:25:13Z</time>
      </trkpt>
      <trkpt lat="44.54162" lon="0.63671">
        <ele>111</ele>
        <time>2015-11-29T08:25:18Z</time>
      </trkpt>
      <trkpt lat="44.54143" lon="0.63694">
        <ele>110</ele>
        <time>2015-11-29T08:25:23Z</time>
      </trkpt>
      <trkpt lat="44.54122" lon="0.63719">
        <ele>113</ele>
        <time>2015-11-29T08:25:28Z</time>
      </trkpt>
      <trkpt lat="44.54104" lon="0.63736">
        <ele>116</ele>
        <time>2015-11-29T08:25:33Z</time>
      </trkpt>
      <trkpt lat="44.54086" lon="0.63752">
        <ele>117</ele>
        <time>2015-11-29T08:25:38Z</time>
      </trkpt>
      <trkpt lat="44.5407" lon="0.63767">
        <ele>117</ele>
        <time>2015-11-29T08:25:43Z</time>
      </trkpt>
      <trkpt lat="44.54052" lon="0.63776">
        <ele>116</ele>
        <time>2015-11-29T08:25:48Z</time>
      </trkpt>
      <trkpt lat="44.54043" lon="0.63793">
        <ele>117</ele>
        <time>2015-11-29T08:25:53Z</time>
      </trkpt>
      <trkpt lat="44.54043" lon="0.63827">
        <ele>115</ele>
        <time>2015-11-29T08:26:00Z</time>
      </trkpt>
      <trkpt lat="44.54042" lon="0.63843">
        <ele>117</ele>
        <time>2015-11-29T08:26:03Z</time>
      </trkpt>
      <trkpt lat="44.54042" lon="0.63872">
        <ele>118</ele>
        <time>2015-11-29T08:26:08Z</time>
      </trkpt>
      <trkpt lat="44.54043" lon="0.639">
        <ele>119</ele>
        <time>2015-11-29T08:26:13Z</time>
      </trkpt>
      <trkpt lat="44.54041" lon="0.6393">
        <ele>119</ele>
        <time>2015-11-29T08:26:18Z</time>
      </trkpt>
      <trkpt lat="44.5403" lon="0.63955">
        <ele>118</ele>
        <time>2015-11-29T08:26:23Z</time>
      </trkpt>
      <trkpt lat="44.54021" lon="0.63978">
        <ele>120</ele>
        <time>2015-11-29T08:26:28Z</time>
      </trkpt>
      <trkpt lat="44.54011" lon="0.63997">
        <ele>119</ele>
        <time>2015-11-29T08:26:33Z</time>
      </trkpt>
      <trkpt lat="44.54004" lon="0.64006">
        <ele>120</ele>
        <time>2015-11-29T08:26:38Z</time>
      </trkpt>
      <trkpt lat="44.5401" lon="0.64019">
        <ele>119</ele>
        <time>2015-11-29T08:26:43Z</time>
      </trkpt>
      <trkpt lat="44.54017" lon="0.64031">
        <ele>117</ele>
        <time>2015-11-29T08:26:48Z</time>
      </trkpt>
      <trkpt lat="44.54025" lon="0.64044">
        <ele>115</ele>
        <time>2015-11-29T08:26:53Z</time>
      </trkpt>
      <trkpt lat="44.54033" lon="0.64057">
        <ele>116</ele>
        <time>2015-11-29T08:26:58Z</time>
      </trkpt>
      <trkpt lat="44.54041" lon="0.64071">
        <ele>117</ele>
        <time>2015-11-29T08:27:03Z</time>
      </trkpt>
      <trkpt lat="44.54047" lon="0.64084">
        <ele>118</ele>
        <time>2015-11-29T08:27:08Z</time>
      </trkpt>
      <trkpt lat="44.54054" lon="0.64097">
        <ele>120</ele>
        <time>2015-11-29T08:27:13Z</time>
      </trkpt>
      <trkpt lat="44.54062" lon="0.64111">
        <ele>122</ele>
        <time>2015-11-29T08:27:18Z</time>
      </trkpt>
      <trkpt lat="44.5407" lon="0.64125">
        <ele>124</ele>
        <time>2015-11-29T08:27:23Z</time>
      </trkpt>
      <trkpt lat="44.54079" lon="0.64144">
        <ele>125</ele>
        <time>2015-11-29T08:27:29Z</time>
      </trkpt>
      <trkpt lat="44.54083" lon="0.64161">
        <ele>122</ele>
        <time>2015-11-29T08:27:33Z</time>
      </trkpt>
      <trkpt lat="44.54073" lon="0.64182">
        <ele>122</ele>
        <time>2015-11-29T08:27:40Z</time>
      </trkpt>
      <trkpt lat="44.54068" lon="0.64187">
        <ele>121</ele>
        <time>2015-11-29T08:27:43Z</time>
      </trkpt>
      <trkpt lat="44.5406" lon="0.64195">
        <ele>123</ele>
        <time>2015-11-29T08:27:48Z</time>
      </trkpt>
      <trkpt lat="44.54055" lon="0.64204">
        <ele>125</ele>
        <time>2015-11-29T08:27:53Z</time>
      </trkpt>
      <trkpt lat="44.54051" lon="0.64217">
        <ele>126</ele>
        <time>2015-11-29T08:27:58Z</time>
      </trkpt>
      <trkpt lat="44.54043" lon="0.64227">
        <ele>127</ele>
        <time>2015-11-29T08:28:03Z</time>
      </trkpt>
      <trkpt lat="44.54037" lon="0.64235">
        <ele>127</ele>
        <time>2015-11-29T08:28:08Z</time>
      </trkpt>
      <trkpt lat="44.54028" lon="0.64245">
        <ele>128</ele>
        <time>2015-11-29T08:28:13Z</time>
      </trkpt>
      <trkpt lat="44.5402" lon="0.64255">
        <ele>127</ele>
        <time>2015-11-29T08:28:18Z</time>
      </trkpt>
      <trkpt lat="44.54012" lon="0.64263">
        <ele>127</ele>
        <time>2015-11-29T08:28:23Z</time>
      </trkpt>
      <trkpt lat="44.54006" lon="0.64272">
        <ele>126</ele>
        <time>2015-11-29T08:28:28Z</time>
      </trkpt>
      <trkpt lat="44.54" lon="0.64281">
        <ele>126</ele>
        <time>2015-11-29T08:28:33Z</time>
      </trkpt>
      <trkpt lat="44.53995" lon="0.64293">
        <ele>126</ele>
        <time>2015-11-29T08:28:38Z</time>
      </trkpt>
      <trkpt lat="44.53986" lon="0.64302">
        <ele>127</ele>
        <time>2015-11-29T08:28:43Z</time>
      </trkpt>
      <trkpt lat="44.53977" lon="0.64312">
        <ele>128</ele>
        <time>2015-11-29T08:28:48Z</time>
      </trkpt>
      <trkpt lat="44.53966" lon="0.64323">
        <ele>130</ele>
        <time>2015-11-29T08:28:53Z</time>
      </trkpt>
      <trkpt lat="44.53956" lon="0.64332">
        <ele>131</ele>
        <time>2015-11-29T08:28:58Z</time>
      </trkpt>
      <trkpt lat="44.53945" lon="0.64342">
        <ele>131</ele>
        <time>2015-11-29T08:29:03Z</time>
      </trkpt>
      <trkpt lat="44.53933" lon="0.64357">
        <ele>130</ele>
        <time>2015-11-29T08:29:08Z</time>
      </trkpt>
      <trkpt lat="44.53921" lon="0.64367">
        <ele>129</ele>
        <time>2015-11-29T08:29:13Z</time>
      </trkpt>
      <trkpt lat="44.53906" lon="0.64365">
        <ele>129</ele>
        <time>2015-11-29T08:29:18Z</time>
      </trkpt>
      <trkpt lat="44.53886" lon="0.64364">
        <ele>128</ele>
        <time>2015-11-29T08:29:23Z</time>
      </trkpt>
      <trkpt lat="44.53869" lon="0.64372">
        <ele>127</ele>
        <time>2015-11-29T08:29:28Z</time>
      </trkpt>
      <trkpt lat="44.53854" lon="0.64386">
        <ele>128</ele>
        <time>2015-11-29T08:29:33Z</time>
      </trkpt>
      <trkpt lat="44.53841" lon="0.64404">
        <ele>128</ele>
        <time>2015-11-29T08:29:38Z</time>
      </trkpt>
      <trkpt lat="44.53829" lon="0.64421">
        <ele>130</ele>
        <time>2015-11-29T08:29:43Z</time>
      </trkpt>
      <trkpt lat="44.53807" lon="0.64434">
        <ele>131</ele>
        <time>2015-11-29T08:29:50Z</time>
      </trkpt>
      <trkpt lat="44.53797" lon="0.6444">
        <ele>131</ele>
        <time>2015-11-29T08:29:53Z</time>
      </trkpt>
      <trkpt lat="44.53784" lon="0.6445">
        <ele>131</ele>
        <time>2015-11-29T08:29:58Z</time>
      </trkpt>
      <trkpt lat="44.53769" lon="0.64458">
        <ele>132</ele>
        <time>2015-11-29T08:30:03Z</time>
      </trkpt>
      <trkpt lat="44.53755" lon="0.64466">
        <ele>133</ele>
        <time>2015-11-29T08:30:08Z</time>
      </trkpt>
      <trkpt lat="44.53744" lon="0.64475">
        <ele>133</ele>
        <time>2015-11-29T08:30:13Z</time>
      </trkpt>
      <trkpt lat="44.53752" lon="0.64508">
        <ele>132</ele>
        <time>2015-11-29T08:30:20Z</time>
      </trkpt>
      <trkpt lat="44.53754" lon="0.6452">
        <ele>133</ele>
        <time>2015-11-29T08:30:23Z</time>
      </trkpt>
      <trkpt lat="44.53758" lon="0.6454">
        <ele>132</ele>
        <time>2015-11-29T08:30:28Z</time>
      </trkpt>
      <trkpt lat="44.53764" lon="0.6456">
        <ele>128</ele>
        <time>2015-11-29T08:30:33Z</time>
      </trkpt>
      <trkpt lat="44.53776" lon="0.64585">
        <ele>127</ele>
        <time>2015-11-29T08:30:38Z</time>
      </trkpt>
      <trkpt lat="44.53788" lon="0.64611">
        <ele>126</ele>
        <time>2015-11-29T08:30:43Z</time>
      </trkpt>
      <trkpt lat="44.53806" lon="0.64656">
        <ele>122</ele>
        <time>2015-11-29T08:30:52Z</time>
      </trkpt>
      <trkpt lat="44.5381" lon="0.64661">
        <ele>122</ele>
        <time>2015-11-29T08:30:53Z</time>
      </trkpt>
      <trkpt lat="44.53822" lon="0.64681">
        <ele>120</ele>
        <time>2015-11-29T08:30:58Z</time>
      </trkpt>
      <trkpt lat="44.53827" lon="0.64705">
        <ele>117</ele>
        <time>2015-11-29T08:31:03Z</time>
      </trkpt>
      <trkpt lat="44.53833" lon="0.64725">
        <ele>116</ele>
        <time>2015-11-29T08:31:08Z</time>
      </trkpt>
      <trkpt lat="44.53841" lon="0.64743">
        <ele>117</ele>
        <time>2015-11-29T08:31:13Z</time>
      </trkpt>
      <trkpt lat="44.53854" lon="0.6475">
        <ele>115</ele>
        <time>2015-11-29T08:31:18Z</time>
      </trkpt>
      <trkpt lat="44.53871" lon="0.64739">
        <ele>116</ele>
        <time>2015-11-29T08:31:23Z</time>
      </trkpt>
      <trkpt lat="44.53891" lon="0.64725">
        <ele>117</ele>
        <time>2015-11-29T08:31:28Z</time>
      </trkpt>
      <trkpt lat="44.53911" lon="0.6471">
        <ele>118</ele>
        <time>2015-11-29T08:31:33Z</time>
      </trkpt>
      <trkpt lat="44.53933" lon="0.64694">
        <ele>118</ele>
        <time>2015-11-29T08:31:38Z</time>
      </trkpt>
      <trkpt lat="44.53954" lon="0.64677">
        <ele>117</ele>
        <time>2015-11-29T08:31:43Z</time>
      </trkpt>
      <trkpt lat="44.53974" lon="0.64676">
        <ele>117</ele>
        <time>2015-11-29T08:31:48Z</time>
      </trkpt>
      <trkpt lat="44.53994" lon="0.64695">
        <ele>118</ele>
        <time>2015-11-29T08:31:53Z</time>
      </trkpt>
      <trkpt lat="44.54016" lon="0.64715">
        <ele>118</ele>
        <time>2015-11-29T08:31:58Z</time>
      </trkpt>
      <trkpt lat="44.54037" lon="0.6474">
        <ele>117</ele>
        <time>2015-11-29T08:32:03Z</time>
      </trkpt>
      <trkpt lat="44.54055" lon="0.64764">
        <ele>116</ele>
        <time>2015-11-29T08:32:08Z</time>
      </trkpt>
      <trkpt lat="44.54077" lon="0.64788">
        <ele>117</ele>
        <time>2015-11-29T08:32:14Z</time>
      </trkpt>
      <trkpt lat="44.54097" lon="0.64797">
        <ele>115</ele>
        <time>2015-11-29T08:32:18Z</time>
      </trkpt>
      <trkpt lat="44.54126" lon="0.64802">
        <ele>112</ele>
        <time>2015-11-29T08:32:23Z</time>
      </trkpt>
      <trkpt lat="44.54153" lon="0.64799">
        <ele>111</ele>
        <time>2015-11-29T08:32:28Z</time>
      </trkpt>
      <trkpt lat="44.54173" lon="0.64801">
        <ele>111</ele>
        <time>2015-11-29T08:32:33Z</time>
      </trkpt>
      <trkpt lat="44.54171" lon="0.64819">
        <ele>110</ele>
        <time>2015-11-29T08:32:38Z</time>
      </trkpt>
      <trkpt lat="44.54183" lon="0.64855">
        <ele>108</ele>
        <time>2015-11-29T08:32:46Z</time>
      </trkpt>
      <trkpt lat="44.54199" lon="0.64848">
        <ele>105</ele>
        <time>2015-11-29T08:32:50Z</time>
      </trkpt>
      <trkpt lat="44.54212" lon="0.64843">
        <ele>104</ele>
        <time>2015-11-29T08:32:53Z</time>
      </trkpt>
      <trkpt lat="44.54236" lon="0.64848">
        <ele>101</ele>
        <time>2015-11-29T08:32:58Z</time>
      </trkpt>
      <trkpt lat="44.54256" lon="0.64871">
        <ele>100</ele>
        <time>2015-11-29T08:33:03Z</time>
      </trkpt>
      <trkpt lat="44.54249" lon="0.64897">
        <ele>100</ele>
        <time>2015-11-29T08:33:08Z</time>
      </trkpt>
      <trkpt lat="44.54242" lon="0.64916">
        <ele>98</ele>
        <time>2015-11-29T08:33:13Z</time>
      </trkpt>
      <trkpt lat="44.54241" lon="0.64925">
        <ele>96</ele>
        <time>2015-11-29T08:33:18Z</time>
      </trkpt>
      <trkpt lat="44.54242" lon="0.64938">
        <ele>97</ele>
        <time>2015-11-29T08:33:23Z</time>
      </trkpt>
      <trkpt lat="44.54243" lon="0.64953">
        <ele>97</ele>
        <time>2015-11-29T08:33:28Z</time>
      </trkpt>
      <trkpt lat="44.54244" lon="0.64966">
        <ele>95</ele>
        <time>2015-11-29T08:33:33Z</time>
      </trkpt>
      <trkpt lat="44.54245" lon="0.64977">
        <ele>96</ele>
        <time>2015-11-29T08:33:38Z</time>
      </trkpt>
      <trkpt lat="44.54245" lon="0.6498">
        <ele>97</ele>
        <time>2015-11-29T08:33:43Z</time>
      </trkpt>
      <trkpt lat="44.54245" lon="0.6498">
        <ele>98</ele>
        <time>2015-11-29T08:33:48Z</time>
      </trkpt>
      <trkpt lat="44.54245" lon="0.6498">
        <ele>98</ele>
        <time>2015-11-29T08:33:51Z</time>
      </trkpt>
      <trkpt lat="44.54245" lon="0.6498">
        <ele>98</ele>
        <time>2015-11-29T08:33:56Z</time>
      </trkpt>
      <trkpt lat="44.54245" lon="0.6498">
        <ele>98</ele>
        <time>2015-11-29T08:33:57Z</time>
      </trkpt>
      <trkpt lat="44.54245" lon="0.6498">
        <ele>98</ele>
        <time>2015-11-29T08:34:00Z</time>
      </trkpt>
      <trkpt lat="44.54244" lon="0.64982">
        <ele>99</ele>
        <time>2015-11-29T08:34:04Z</time>
      </trkpt>
      <trkpt lat="44.54244" lon="0.64986">
        <ele>98</ele>
        <time>2015-11-29T08:34:06Z</time>
      </trkpt>
      <trkpt lat="44.54242" lon="0.64993">
        <ele>97</ele>
        <time>2015-11-29T08:34:15Z</time>
      </trkpt>
      <trkpt lat="44.54243" lon="0.64992">
        <ele>97</ele>
        <time>2015-11-29T08:34:16Z</time>
      </trkpt>
      <trkpt lat="44.54243" lon="0.64993">
        <ele>96</ele>
        <time>2015-11-29T08:34:19Z</time>
      </trkpt>
      <trkpt lat="44.54242" lon="0.64993">
        <ele>96</ele>
        <time>2015-11-29T08:34:23Z</time>
      </trkpt>
      <trkpt lat="44.54242" lon="0.64993">
        <ele>96</ele>
        <time>2015-11-29T08:34:25Z</time>
      </trkpt>
      <trkpt lat="44.54242" lon="0.64993">
        <ele>96</ele>
        <time>2015-11-29T08:34:28Z</time>
      </trkpt>
      <trkpt lat="44.54242" lon="0.64993">
        <ele>96</ele>
        <time>2015-11-29T08:34:31Z</time>
      </trkpt>
      <trkpt lat="44.54242" lon="0.64993">
        <ele>96</ele>
        <time>2015-11-29T08:34:34Z</time>
      </trkpt>
      <trkpt lat="44.54242" lon="0.64993">
        <ele>96</ele>
        <time>2015-11-29T08:34:37Z</time>
      </trkpt>
      <trkpt lat="44.54242" lon="0.64993">
        <ele>96</ele>
        <time>2015-11-29T08:34:40Z</time>
      </trkpt>
      <trkpt lat="44.54242" lon="0.64993">
        <ele>96</ele>
        <time>2015-11-29T08:34:43Z</time>
      </trkpt>
      <trkpt lat="44.54242" lon="0.64993">
        <ele>96</ele>
        <time>2015-11-29T08:34:46Z</time>
      </trkpt>
      <trkpt lat="44.54242" lon="0.64993">
        <ele>96</ele>
        <time>2015-11-29T08:34:49Z</time>
      </trkpt>
      <trkpt lat="44.54242" lon="0.64993">
        <ele>96</ele>
        <time>2015-11-29T08:34:52Z</time>
      </trkpt>
      <trkpt lat="44.54242" lon="0.64993">
        <ele>96</ele>
        <time>2015-11-29T08:34:55Z</time>
      </trkpt>
      <trkpt lat="44.54242" lon="0.64993">
        <ele>96</ele>
        <time>2015-11-29T08:34:58Z</time>
      </trkpt>
      <trkpt lat="44.54242" lon="0.64995">
        <ele>97</ele>
        <time>2015-11-29T08:35:01Z</time>
      </trkpt>
      <trkpt lat="44.5424" lon="0.65003">
        <ele>96</ele>
        <time>2015-11-29T08:35:06Z</time>
      </trkpt>
      <trkpt lat="44.54236" lon="0.6502">
        <ele>96</ele>
        <time>2015-11-29T08:35:11Z</time>
      </trkpt>
      <trkpt lat="44.54237" lon="0.65044">
        <ele>97</ele>
        <time>2015-11-29T08:35:16Z</time>
      </trkpt>
      <trkpt lat="44.54239" lon="0.65064">
        <ele>98</ele>
        <time>2015-11-29T08:35:21Z</time>
      </trkpt>
      <trkpt lat="44.54247" lon="0.65086">
        <ele>97</ele>
        <time>2015-11-29T08:35:26Z</time>
      </trkpt>
      <trkpt lat="44.54254" lon="0.65108">
        <ele>98</ele>
        <time>2015-11-29T08:35:31Z</time>
      </trkpt>
      <trkpt lat="44.54256" lon="0.65124">
        <ele>98</ele>
        <time>2015-11-29T08:35:36Z</time>
      </trkpt>
      <trkpt lat="44.54263" lon="0.65132">
        <ele>99</ele>
        <time>2015-11-29T08:35:41Z</time>
      </trkpt>
      <trkpt lat="44.54279" lon="0.65141">
        <ele>101</ele>
        <time>2015-11-29T08:35:48Z</time>
      </trkpt>
      <trkpt lat="44.54287" lon="0.65144">
        <ele>100</ele>
        <time>2015-11-29T08:35:51Z</time>
      </trkpt>
      <trkpt lat="44.54303" lon="0.65153">
        <ele>100</ele>
        <time>2015-11-29T08:35:56Z</time>
      </trkpt>
      <trkpt lat="44.54319" lon="0.65159">
        <ele>100</ele>
        <time>2015-11-29T08:36:01Z</time>
      </trkpt>
      <trkpt lat="44.54333" lon="0.65164">
        <ele>102</ele>
        <time>2015-11-29T08:36:06Z</time>
      </trkpt>
      <trkpt lat="44.54346" lon="0.6517">
        <ele>105</ele>
        <time>2015-11-29T08:36:11Z</time>
      </trkpt>
      <trkpt lat="44.54359" lon="0.65173">
        <ele>106</ele>
        <time>2015-11-29T08:36:16Z</time>
      </trkpt>
      <trkpt lat="44.54373" lon="0.65176">
        <ele>106</ele>
        <time>2015-11-29T08:36:21Z</time>
      </trkpt>
      <trkpt lat="44.54391" lon="0.65182">
        <ele>106</ele>
        <time>2015-11-29T08:36:29Z</time>
      </trkpt>
      <trkpt lat="44.54397" lon="0.65185">
        <ele>106</ele>
        <time>2015-11-29T08:36:32Z</time>
      </trkpt>
      <trkpt lat="44.54406" lon="0.65189">
        <ele>107</ele>
        <time>2015-11-29T08:36:36Z</time>
      </trkpt>
      <trkpt lat="44.54417" lon="0.65192">
        <ele>106</ele>
        <time>2015-11-29T08:36:41Z</time>
      </trkpt>
      <trkpt lat="44.54426" lon="0.65196">
        <ele>108</ele>
        <time>2015-11-29T08:36:46Z</time>
      </trkpt>
      <trkpt lat="44.54434" lon="0.65201">
        <ele>109</ele>
        <time>2015-11-29T08:36:51Z</time>
      </trkpt>
      <trkpt lat="44.54442" lon="0.65204">
        <ele>110</ele>
        <time>2015-11-29T08:36:56Z</time>
      </trkpt>
      <trkpt lat="44.54455" lon="0.6521">
        <ele>112</ele>
        <time>2015-11-29T08:37:04Z</time>
      </trkpt>
      <trkpt lat="44.54458" lon="0.65211">
        <ele>112</ele>
        <time>2015-11-29T08:37:06Z</time>
      </trkpt>
      <trkpt lat="44.54465" lon="0.65212">
        <ele>112</ele>
        <time>2015-11-29T08:37:11Z</time>
      </trkpt>
      <trkpt lat="44.54471" lon="0.65215">
        <ele>112</ele>
        <time>2015-11-29T08:37:16Z</time>
      </trkpt>
      <trkpt lat="44.54477" lon="0.65218">
        <ele>113</ele>
        <time>2015-11-29T08:37:21Z</time>
      </trkpt>
      <trkpt lat="44.54483" lon="0.65221">
        <ele>113</ele>
        <time>2015-11-29T08:37:26Z</time>
      </trkpt>
      <trkpt lat="44.5449" lon="0.65224">
        <ele>114</ele>
        <time>2015-11-29T08:37:31Z</time>
      </trkpt>
      <trkpt lat="44.54497" lon="0.65226">
        <ele>114</ele>
        <time>2015-11-29T08:37:36Z</time>
      </trkpt>
      <trkpt lat="44.54504" lon="0.65229">
        <ele>114</ele>
        <time>2015-11-29T08:37:41Z</time>
      </trkpt>
      <trkpt lat="44.54511" lon="0.65233">
        <ele>114</ele>
        <time>2015-11-29T08:37:46Z</time>
      </trkpt>
      <trkpt lat="44.54518" lon="0.65237">
        <ele>114</ele>
        <time>2015-11-29T08:37:51Z</time>
      </trkpt>
      <trkpt lat="44.54525" lon="0.6524">
        <ele>115</ele>
        <time>2015-11-29T08:37:56Z</time>
      </trkpt>
      <trkpt lat="44.54532" lon="0.65242">
        <ele>116</ele>
        <time>2015-11-29T08:38:01Z</time>
      </trkpt>
      <trkpt lat="44.5454" lon="0.65244">
        <ele>116</ele>
        <time>2015-11-29T08:38:06Z</time>
      </trkpt>
      <trkpt lat="44.54547" lon="0.65245">
        <ele>117</ele>
        <time>2015-11-29T08:38:11Z</time>
      </trkpt>
      <trkpt lat="44.54554" lon="0.65246">
        <ele>118</ele>
        <time>2015-11-29T08:38:16Z</time>
      </trkpt>
      <trkpt lat="44.5456" lon="0.65244">
        <ele>119</ele>
        <time>2015-11-29T08:38:21Z</time>
      </trkpt>
      <trkpt lat="44.54567" lon="0.65241">
        <ele>119</ele>
        <time>2015-11-29T08:38:26Z</time>
      </trkpt>
      <trkpt lat="44.54574" lon="0.6524">
        <ele>119</ele>
        <time>2015-11-29T08:38:31Z</time>
      </trkpt>
      <trkpt lat="44.5458" lon="0.65238">
        <ele>121</ele>
        <time>2015-11-29T08:38:36Z</time>
      </trkpt>
      <trkpt lat="44.54586" lon="0.65237">
        <ele>122</ele>
        <time>2015-11-29T08:38:41Z</time>
      </trkpt>
      <trkpt lat="44.54592" lon="0.65237">
        <ele>123</ele>
        <time>2015-11-29T08:38:46Z</time>
      </trkpt>
      <trkpt lat="44.54598" lon="0.65235">
        <ele>123</ele>
        <time>2015-11-29T08:38:51Z</time>
      </trkpt>
      <trkpt lat="44.54605" lon="0.65234">
        <ele>123</ele>
        <time>2015-11-29T08:38:56Z</time>
      </trkpt>
      <trkpt lat="44.54611" lon="0.65235">
        <ele>123</ele>
        <time>2015-11-29T08:39:01Z</time>
      </trkpt>
      <trkpt lat="44.54618" lon="0.65235">
        <ele>123</ele>
        <time>2015-11-29T08:39:06Z</time>
      </trkpt>
      <trkpt lat="44.54626" lon="0.65232">
        <ele>122</ele>
        <time>2015-11-29T08:39:11Z</time>
      </trkpt>
      <trkpt lat="44.54631" lon="0.65232">
        <ele>122</ele>
        <time>2015-11-29T08:39:16Z</time>
      </trkpt>
      <trkpt lat="44.54636" lon="0.65228">
        <ele>122</ele>
        <time>2015-11-29T08:39:21Z</time>
      </trkpt>
      <trkpt lat="44.54637" lon="0.65226">
        <ele>123</ele>
        <time>2015-11-29T08:39:26Z</time>
      </trkpt>
      <trkpt lat="44.54638" lon="0.65225">
        <ele>123</ele>
        <time>2015-11-29T08:39:29Z</time>
      </trkpt>
      <trkpt lat="44.54639" lon="0.65223">
        <ele>123</ele>
        <time>2015-11-29T08:39:34Z</time>
      </trkpt>
      <trkpt lat="44.54639" lon="0.65223">
        <ele>123</ele>
        <time>2015-11-29T08:39:37Z</time>
      </trkpt>
      <trkpt lat="44.54639" lon="0.65223">
        <ele>123</ele>
        <time>2015-11-29T08:39:40Z</time>
      </trkpt>
      <trkpt lat="44.54639" lon="0.65223">
        <ele>123</ele>
        <time>2015-11-29T08:39:43Z</time>
      </trkpt>
      <trkpt lat="44.54641" lon="0.65221">
        <ele>123</ele>
        <time>2015-11-29T08:39:46Z</time>
      </trkpt>
      <trkpt lat="44.5465" lon="0.65213">
        <ele>122</ele>
        <time>2015-11-29T08:39:51Z</time>
      </trkpt>
      <trkpt lat="44.54653" lon="0.65194">
        <ele>121</ele>
        <time>2015-11-29T08:39:56Z</time>
      </trkpt>
      <trkpt lat="44.54652" lon="0.65175">
        <ele>119</ele>
        <time>2015-11-29T08:40:01Z</time>
      </trkpt>
      <trkpt lat="44.54652" lon="0.65154">
        <ele>118</ele>
        <time>2015-11-29T08:40:06Z</time>
      </trkpt>
      <trkpt lat="44.54651" lon="0.65134">
        <ele>118</ele>
        <time>2015-11-29T08:40:11Z</time>
      </trkpt>
      <trkpt lat="44.54654" lon="0.65123">
        <ele>117</ele>
        <time>2015-11-29T08:40:16Z</time>
      </trkpt>
      <trkpt lat="44.54673" lon="0.65127">
        <ele>116</ele>
        <time>2015-11-29T08:40:21Z</time>
      </trkpt>
      <trkpt lat="44.54696" lon="0.65141">
        <ele>117</ele>
        <time>2015-11-29T08:40:26Z</time>
      </trkpt>
      <trkpt lat="44.54745" lon="0.65168">
        <ele>111</ele>
        <time>2015-11-29T08:40:34Z</time>
      </trkpt>
      <trkpt lat="44.5478" lon="0.65181">
        <ele>109</ele>
        <time>2015-11-29T08:40:40Z</time>
      </trkpt>
      <trkpt lat="44.54787" lon="0.65181">
        <ele>109</ele>
        <time>2015-11-29T08:40:41Z</time>
      </trkpt>
      <trkpt lat="44.54814" lon="0.65179">
        <ele>106</ele>
        <time>2015-11-29T08:40:46Z</time>
      </trkpt>
      <trkpt lat="44.5484" lon="0.65185">
        <ele>106</ele>
        <time>2015-11-29T08:40:51Z</time>
      </trkpt>
      <trkpt lat="44.54864" lon="0.65192">
        <ele>103</ele>
        <time>2015-11-29T08:40:56Z</time>
      </trkpt>
      <trkpt lat="44.54886" lon="0.65199">
        <ele>102</ele>
        <time>2015-11-29T08:41:01Z</time>
      </trkpt>
      <trkpt lat="44.54916" lon="0.65209">
        <ele>100</ele>
        <time>2015-11-29T08:41:07Z</time>
      </trkpt>
      <trkpt lat="44.5494" lon="0.65219">
        <ele>100</ele>
        <time>2015-11-29T08:41:11Z</time>
      </trkpt>
      <trkpt lat="44.54972" lon="0.65242">
        <ele>97</ele>
        <time>2015-11-29T08:41:17Z</time>
      </trkpt>
      <trkpt lat="44.5498" lon="0.65271">
        <ele>95</ele>
        <time>2015-11-29T08:41:21Z</time>
      </trkpt>
      <trkpt lat="44.55024" lon="0.65309">
        <ele>93</ele>
        <time>2015-11-29T08:41:30Z</time>
      </trkpt>
      <trkpt lat="44.55028" lon="0.65312">
        <ele>94</ele>
        <time>2015-11-29T08:41:31Z</time>
      </trkpt>
      <trkpt lat="44.55053" lon="0.65328">
        <ele>97</ele>
        <time>2015-11-29T08:41:39Z</time>
      </trkpt>
      <trkpt lat="44.55057" lon="0.65332">
        <ele>97</ele>
        <time>2015-11-29T08:41:41Z</time>
      </trkpt>
      <trkpt lat="44.55063" lon="0.6534">
        <ele>99</ele>
        <time>2015-11-29T08:41:46Z</time>
      </trkpt>
      <trkpt lat="44.55068" lon="0.65351">
        <ele>104</ele>
        <time>2015-11-29T08:41:52Z</time>
      </trkpt>
      <trkpt lat="44.55078" lon="0.65354">
        <ele>103</ele>
        <time>2015-11-29T08:41:57Z</time>
      </trkpt>
      <trkpt lat="44.55085" lon="0.65356">
        <ele>103</ele>
        <time>2015-11-29T08:42:02Z</time>
      </trkpt>
      <trkpt lat="44.5509" lon="0.6536">
        <ele>104</ele>
        <time>2015-11-29T08:42:06Z</time>
      </trkpt>
      <trkpt lat="44.55096" lon="0.65366">
        <ele>103</ele>
        <time>2015-11-29T08:42:11Z</time>
      </trkpt>
      <trkpt lat="44.55104" lon="0.65373">
        <ele>103</ele>
        <time>2015-11-29T08:42:18Z</time>
      </trkpt>
      <trkpt lat="44.55107" lon="0.65379">
        <ele>102</ele>
        <time>2015-11-29T08:42:22Z</time>
      </trkpt>
      <trkpt lat="44.55111" lon="0.65388">
        <ele>102</ele>
        <time>2015-11-29T08:42:26Z</time>
      </trkpt>
      <trkpt lat="44.55123" lon="0.65401">
        <ele>103</ele>
        <time>2015-11-29T08:42:31Z</time>
      </trkpt>
      <trkpt lat="44.55135" lon="0.65411">
        <ele>102</ele>
        <time>2015-11-29T08:42:36Z</time>
      </trkpt>
      <trkpt lat="44.55136" lon="0.65413">
        <ele>104</ele>
        <time>2015-11-29T08:42:41Z</time>
      </trkpt>
      <trkpt lat="44.55138" lon="0.6541">
        <ele>105</ele>
        <time>2015-11-29T08:42:48Z</time>
      </trkpt>
      <trkpt lat="44.55139" lon="0.65409">
        <ele>105</ele>
        <time>2015-11-29T08:42:49Z</time>
      </trkpt>
      <trkpt lat="44.55144" lon="0.65398">
        <ele>105</ele>
        <time>2015-11-29T08:42:54Z</time>
      </trkpt>
      <trkpt lat="44.5515" lon="0.65387">
        <ele>105</ele>
        <time>2015-11-29T08:42:59Z</time>
      </trkpt>
      <trkpt lat="44.5515" lon="0.654">
        <ele>104</ele>
        <time>2015-11-29T08:43:04Z</time>
      </trkpt>
      <trkpt lat="44.55153" lon="0.65427">
        <ele>101</ele>
        <time>2015-11-29T08:43:09Z</time>
      </trkpt>
      <trkpt lat="44.55163" lon="0.65459">
        <ele>98</ele>
        <time>2015-11-29T08:43:14Z</time>
      </trkpt>
      <trkpt lat="44.55185" lon="0.655">
        <ele>94</ele>
        <time>2015-11-29T08:43:19Z</time>
      </trkpt>
      <trkpt lat="44.55203" lon="0.65534">
        <ele>92</ele>
        <time>2015-11-29T08:43:24Z</time>
      </trkpt>
      <trkpt lat="44.55211" lon="0.65555">
        <ele>92</ele>
        <time>2015-11-29T08:43:29Z</time>
      </trkpt>
      <trkpt lat="44.55223" lon="0.65577">
        <ele>97</ele>
        <time>2015-11-29T08:43:34Z</time>
      </trkpt>
      <trkpt lat="44.55236" lon="0.65599">
        <ele>97</ele>
        <time>2015-11-29T08:43:39Z</time>
      </trkpt>
      <trkpt lat="44.55255" lon="0.65625">
        <ele>96</ele>
        <time>2015-11-29T08:43:47Z</time>
      </trkpt>
      <trkpt lat="44.55261" lon="0.65629">
        <ele>97</ele>
        <time>2015-11-29T08:43:49Z</time>
      </trkpt>
      <trkpt lat="44.55265" lon="0.65642">
        <ele>96</ele>
        <time>2015-11-29T08:43:54Z</time>
      </trkpt>
      <trkpt lat="44.55269" lon="0.65652">
        <ele>98</ele>
        <time>2015-11-29T08:43:59Z</time>
      </trkpt>
      <trkpt lat="44.55269" lon="0.65652">
        <ele>101</ele>
        <time>2015-11-29T08:44:04Z</time>
      </trkpt>
      <trkpt lat="44.55268" lon="0.65652">
        <ele>101</ele>
        <time>2015-11-29T08:44:07Z</time>
      </trkpt>
      <trkpt lat="44.55268" lon="0.65652">
        <ele>101</ele>
        <time>2015-11-29T08:44:10Z</time>
      </trkpt>
      <trkpt lat="44.55267" lon="0.65652">
        <ele>101</ele>
        <time>2015-11-29T08:44:13Z</time>
      </trkpt>
      <trkpt lat="44.55267" lon="0.65652">
        <ele>101</ele>
        <time>2015-11-29T08:44:16Z</time>
      </trkpt>
      <trkpt lat="44.55267" lon="0.65652">
        <ele>101</ele>
        <time>2015-11-29T08:44:19Z</time>
      </trkpt>
      <trkpt lat="44.55267" lon="0.65652">
        <ele>101</ele>
        <time>2015-11-29T08:44:22Z</time>
      </trkpt>
      <trkpt lat="44.55267" lon="0.65652">
        <ele>101</ele>
        <time>2015-11-29T08:44:25Z</time>
      </trkpt>
      <trkpt lat="44.55267" lon="0.65652">
        <ele>101</ele>
        <time>2015-11-29T08:44:28Z</time>
      </trkpt>
      <trkpt lat="44.55269" lon="0.65653">
        <ele>100</ele>
        <time>2015-11-29T08:44:33Z</time>
      </trkpt>
      <trkpt lat="44.55272" lon="0.65656">
        <ele>98</ele>
        <time>2015-11-29T08:44:34Z</time>
      </trkpt>
      <trkpt lat="44.55273" lon="0.65656">
        <ele>97</ele>
        <time>2015-11-29T08:44:40Z</time>
      </trkpt>
      <trkpt lat="44.55272" lon="0.65656">
        <ele>98</ele>
        <time>2015-11-29T08:44:42Z</time>
      </trkpt>
      <trkpt lat="44.55277" lon="0.65657">
        <ele>99</ele>
        <time>2015-11-29T08:44:47Z</time>
      </trkpt>
      <trkpt lat="44.55278" lon="0.65659">
        <ele>98</ele>
        <time>2015-11-29T08:44:50Z</time>
      </trkpt>
      <trkpt lat="44.5528" lon="0.65658">
        <ele>98</ele>
        <time>2015-11-29T08:44:55Z</time>
      </trkpt>
      <trkpt lat="44.5528" lon="0.65658">
        <ele>97</ele>
        <time>2015-11-29T08:44:58Z</time>
      </trkpt>
      <trkpt lat="44.5528" lon="0.65658">
        <ele>97</ele>
        <time>2015-11-29T08:45:01Z</time>
      </trkpt>
      <trkpt lat="44.5528" lon="0.65661">
        <ele>97</ele>
        <time>2015-11-29T08:45:04Z</time>
      </trkpt>
      <trkpt lat="44.55282" lon="0.65668">
        <ele>99</ele>
        <time>2015-11-29T08:45:09Z</time>
      </trkpt>
      <trkpt lat="44.55286" lon="0.65674">
        <ele>103</ele>
        <time>2015-11-29T08:45:14Z</time>
      </trkpt>
      <trkpt lat="44.55291" lon="0.6568">
        <ele>102</ele>
        <time>2015-11-29T08:45:19Z</time>
      </trkpt>
      <trkpt lat="44.55291" lon="0.65694">
        <ele>101</ele>
        <time>2015-11-29T08:45:24Z</time>
      </trkpt>
      <trkpt lat="44.55292" lon="0.65711">
        <ele>103</ele>
        <time>2015-11-29T08:45:29Z</time>
      </trkpt>
      <trkpt lat="44.55294" lon="0.65734">
        <ele>104</ele>
        <time>2015-11-29T08:45:35Z</time>
      </trkpt>
      <trkpt lat="44.55295" lon="0.65747">
        <ele>106</ele>
        <time>2015-11-29T08:45:39Z</time>
      </trkpt>
      <trkpt lat="44.55307" lon="0.65766">
        <ele>104</ele>
        <time>2015-11-29T08:45:48Z</time>
      </trkpt>
      <trkpt lat="44.55308" lon="0.65768">
        <ele>104</ele>
        <time>2015-11-29T08:45:49Z</time>
      </trkpt>
      <trkpt lat="44.55314" lon="0.6578">
        <ele>103</ele>
        <time>2015-11-29T08:45:54Z</time>
      </trkpt>
      <trkpt lat="44.55319" lon="0.65791">
        <ele>103</ele>
        <time>2015-11-29T08:45:59Z</time>
      </trkpt>
      <trkpt lat="44.55325" lon="0.65804">
        <ele>103</ele>
        <time>2015-11-29T08:46:04Z</time>
      </trkpt>
      <trkpt lat="44.55332" lon="0.65814">
        <ele>102</ele>
        <time>2015-11-29T08:46:09Z</time>
      </trkpt>
      <trkpt lat="44.55338" lon="0.65827">
        <ele>103</ele>
        <time>2015-11-29T08:46:14Z</time>
      </trkpt>
      <trkpt lat="44.55343" lon="0.65836">
        <ele>104</ele>
        <time>2015-11-29T08:46:19Z</time>
      </trkpt>
      <trkpt lat="44.55351" lon="0.65846">
        <ele>105</ele>
        <time>2015-11-29T08:46:26Z</time>
      </trkpt>
      <trkpt lat="44.55353" lon="0.65851">
        <ele>105</ele>
        <time>2015-11-29T08:46:29Z</time>
      </trkpt>
      <trkpt lat="44.55357" lon="0.65859">
        <ele>104</ele>
        <time>2015-11-29T08:46:34Z</time>
      </trkpt>
      <trkpt lat="44.55361" lon="0.65867">
        <ele>106</ele>
        <time>2015-11-29T08:46:39Z</time>
      </trkpt>
      <trkpt lat="44.55367" lon="0.65875">
        <ele>107</ele>
        <time>2015-11-29T08:46:45Z</time>
      </trkpt>
      <trkpt lat="44.55372" lon="0.6588">
        <ele>107</ele>
        <time>2015-11-29T08:46:49Z</time>
      </trkpt>
      <trkpt lat="44.55376" lon="0.65887">
        <ele>107</ele>
        <time>2015-11-29T08:46:54Z</time>
      </trkpt>
      <trkpt lat="44.5538" lon="0.65894">
        <ele>108</ele>
        <time>2015-11-29T08:46:59Z</time>
      </trkpt>
      <trkpt lat="44.55384" lon="0.65899">
        <ele>110</ele>
        <time>2015-11-29T08:47:04Z</time>
      </trkpt>
      <trkpt lat="44.55389" lon="0.65896">
        <ele>110</ele>
        <time>2015-11-29T08:47:09Z</time>
      </trkpt>
      <trkpt lat="44.55396" lon="0.65889">
        <ele>110</ele>
        <time>2015-11-29T08:47:15Z</time>
      </trkpt>
      <trkpt lat="44.55402" lon="0.65884">
        <ele>110</ele>
        <time>2015-11-29T08:47:19Z</time>
      </trkpt>
      <trkpt lat="44.55407" lon="0.6588">
        <ele>111</ele>
        <time>2015-11-29T08:47:24Z</time>
      </trkpt>
      <trkpt lat="44.55411" lon="0.65876">
        <ele>112</ele>
        <time>2015-11-29T08:47:29Z</time>
      </trkpt>
      <trkpt lat="44.55416" lon="0.65869">
        <ele>113</ele>
        <time>2015-11-29T08:47:34Z</time>
      </trkpt>
      <trkpt lat="44.55421" lon="0.65863">
        <ele>114</ele>
        <time>2015-11-29T08:47:39Z</time>
      </trkpt>
      <trkpt lat="44.55425" lon="0.6586">
        <ele>114</ele>
        <time>2015-11-29T08:47:44Z</time>
      </trkpt>
      <trkpt lat="44.55429" lon="0.65855">
        <ele>116</ele>
        <time>2015-11-29T08:47:49Z</time>
      </trkpt>
      <trkpt lat="44.55434" lon="0.65852">
        <ele>116</ele>
        <time>2015-11-29T08:47:54Z</time>
      </trkpt>
      <trkpt lat="44.5544" lon="0.65847">
        <ele>117</ele>
        <time>2015-11-29T08:47:59Z</time>
      </trkpt>
      <trkpt lat="44.55446" lon="0.65843">
        <ele>117</ele>
        <time>2015-11-29T08:48:04Z</time>
      </trkpt>
      <trkpt lat="44.55448" lon="0.6585">
        <ele>118</ele>
        <time>2015-11-29T08:48:09Z</time>
      </trkpt>
      <trkpt lat="44.55448" lon="0.6586">
        <ele>119</ele>
        <time>2015-11-29T08:48:14Z</time>
      </trkpt>
      <trkpt lat="44.55449" lon="0.65869">
        <ele>121</ele>
        <time>2015-11-29T08:48:19Z</time>
      </trkpt>
      <trkpt lat="44.55451" lon="0.65879">
        <ele>122</ele>
        <time>2015-11-29T08:48:24Z</time>
      </trkpt>
      <trkpt lat="44.55453" lon="0.65888">
        <ele>123</ele>
        <time>2015-11-29T08:48:29Z</time>
      </trkpt>
      <trkpt lat="44.55455" lon="0.659">
        <ele>124</ele>
        <time>2015-11-29T08:48:34Z</time>
      </trkpt>
      <trkpt lat="44.55458" lon="0.65909">
        <ele>125</ele>
        <time>2015-11-29T08:48:39Z</time>
      </trkpt>
      <trkpt lat="44.55461" lon="0.65918">
        <ele>126</ele>
        <time>2015-11-29T08:48:44Z</time>
      </trkpt>
      <trkpt lat="44.55465" lon="0.6593">
        <ele>126</ele>
        <time>2015-11-29T08:48:49Z</time>
      </trkpt>
      <trkpt lat="44.55469" lon="0.65945">
        <ele>126</ele>
        <time>2015-11-29T08:48:54Z</time>
      </trkpt>
      <trkpt lat="44.55474" lon="0.65961">
        <ele>127</ele>
        <time>2015-11-29T08:48:59Z</time>
      </trkpt>
      <trkpt lat="44.5548" lon="0.65977">
        <ele>127</ele>
        <time>2015-11-29T08:49:04Z</time>
      </trkpt>
      <trkpt lat="44.55486" lon="0.65996">
        <ele>128</ele>
        <time>2015-11-29T08:49:09Z</time>
      </trkpt>
      <trkpt lat="44.55488" lon="0.66017">
        <ele>127</ele>
        <time>2015-11-29T08:49:14Z</time>
      </trkpt>
      <trkpt lat="44.55486" lon="0.66037">
        <ele>127</ele>
        <time>2015-11-29T08:49:19Z</time>
      </trkpt>
      <trkpt lat="44.55481" lon="0.66053">
        <ele>126</ele>
        <time>2015-11-29T08:49:24Z</time>
      </trkpt>
      <trkpt lat="44.55474" lon="0.66067">
        <ele>125</ele>
        <time>2015-11-29T08:49:29Z</time>
      </trkpt>
      <trkpt lat="44.55464" lon="0.66082">
        <ele>125</ele>
        <time>2015-11-29T08:49:34Z</time>
      </trkpt>
      <trkpt lat="44.55454" lon="0.66099">
        <ele>125</ele>
        <time>2015-11-29T08:49:39Z</time>
      </trkpt>
      <trkpt lat="44.55443" lon="0.66114">
        <ele>126</ele>
        <time>2015-11-29T08:49:44Z</time>
      </trkpt>
      <trkpt lat="44.55432" lon="0.66128">
        <ele>126</ele>
        <time>2015-11-29T08:49:49Z</time>
      </trkpt>
      <trkpt lat="44.55423" lon="0.66143">
        <ele>127</ele>
        <time>2015-11-29T08:49:54Z</time>
      </trkpt>
      <trkpt lat="44.55415" lon="0.66158">
        <ele>129</ele>
        <time>2015-11-29T08:49:59Z</time>
      </trkpt>
      <trkpt lat="44.5541" lon="0.66178">
        <ele>130</ele>
        <time>2015-11-29T08:50:04Z</time>
      </trkpt>
      <trkpt lat="44.55405" lon="0.66199">
        <ele>131</ele>
        <time>2015-11-29T08:50:09Z</time>
      </trkpt>
      <trkpt lat="44.554" lon="0.66221">
        <ele>131</ele>
        <time>2015-11-29T08:50:14Z</time>
      </trkpt>
      <trkpt lat="44.55396" lon="0.66243">
        <ele>132</ele>
        <time>2015-11-29T08:50:19Z</time>
      </trkpt>
      <trkpt lat="44.55391" lon="0.66265">
        <ele>133</ele>
        <time>2015-11-29T08:50:24Z</time>
      </trkpt>
      <trkpt lat="44.55387" lon="0.66287">
        <ele>134</ele>
        <time>2015-11-29T08:50:29Z</time>
      </trkpt>
      <trkpt lat="44.55383" lon="0.66308">
        <ele>133</ele>
        <time>2015-11-29T08:50:34Z</time>
      </trkpt>
      <trkpt lat="44.55378" lon="0.66329">
        <ele>133</ele>
        <time>2015-11-29T08:50:39Z</time>
      </trkpt>
      <trkpt lat="44.55373" lon="0.66353">
        <ele>133</ele>
        <time>2015-11-29T08:50:44Z</time>
      </trkpt>
      <trkpt lat="44.55366" lon="0.66385">
        <ele>131</ele>
        <time>2015-11-29T08:50:49Z</time>
      </trkpt>
      <trkpt lat="44.55358" lon="0.66425">
        <ele>129</ele>
        <time>2015-11-29T08:50:54Z</time>
      </trkpt>
      <trkpt lat="44.5535" lon="0.66457">
        <ele>130</ele>
        <time>2015-11-29T08:50:59Z</time>
      </trkpt>
      <trkpt lat="44.55345" lon="0.66478">
        <ele>130</ele>
        <time>2015-11-29T08:51:04Z</time>
      </trkpt>
      <trkpt lat="44.55349" lon="0.66494">
        <ele>131</ele>
        <time>2015-11-29T08:51:09Z</time>
      </trkpt>
      <trkpt lat="44.55364" lon="0.66499">
        <ele>132</ele>
        <time>2015-11-29T08:51:14Z</time>
      </trkpt>
      <trkpt lat="44.5538" lon="0.66504">
        <ele>133</ele>
        <time>2015-11-29T08:51:19Z</time>
      </trkpt>
      <trkpt lat="44.55397" lon="0.66508">
        <ele>134</ele>
        <time>2015-11-29T08:51:24Z</time>
      </trkpt>
      <trkpt lat="44.55415" lon="0.66514">
        <ele>135</ele>
        <time>2015-11-29T08:51:29Z</time>
      </trkpt>
      <trkpt lat="44.55433" lon="0.66519">
        <ele>137</ele>
        <time>2015-11-29T08:51:34Z</time>
      </trkpt>
      <trkpt lat="44.55454" lon="0.66525">
        <ele>138</ele>
        <time>2015-11-29T08:51:39Z</time>
      </trkpt>
      <trkpt lat="44.55475" lon="0.66532">
        <ele>138</ele>
        <time>2015-11-29T08:51:44Z</time>
      </trkpt>
      <trkpt lat="44.55499" lon="0.66539">
        <ele>139</ele>
        <time>2015-11-29T08:51:49Z</time>
      </trkpt>
      <trkpt lat="44.55523" lon="0.66546">
        <ele>140</ele>
        <time>2015-11-29T08:51:54Z</time>
      </trkpt>
      <trkpt lat="44.55546" lon="0.66553">
        <ele>142</ele>
        <time>2015-11-29T08:51:59Z</time>
      </trkpt>
      <trkpt lat="44.5557" lon="0.6656">
        <ele>143</ele>
        <time>2015-11-29T08:52:04Z</time>
      </trkpt>
      <trkpt lat="44.55594" lon="0.66568">
        <ele>146</ele>
        <time>2015-11-29T08:52:09Z</time>
      </trkpt>
      <trkpt lat="44.55621" lon="0.66575">
        <ele>146</ele>
        <time>2015-11-29T08:52:14Z</time>
      </trkpt>
      <trkpt lat="44.55648" lon="0.66584">
        <ele>145</ele>
        <time>2015-11-29T08:52:19Z</time>
      </trkpt>
      <trkpt lat="44.55672" lon="0.6659">
        <ele>145</ele>
        <time>2015-11-29T08:52:24Z</time>
      </trkpt>
      <trkpt lat="44.55698" lon="0.66597">
        <ele>146</ele>
        <time>2015-11-29T08:52:29Z</time>
      </trkpt>
      <trkpt lat="44.55724" lon="0.66605">
        <ele>146</ele>
        <time>2015-11-29T08:52:34Z</time>
      </trkpt>
      <trkpt lat="44.55748" lon="0.66613">
        <ele>147</ele>
        <time>2015-11-29T08:52:39Z</time>
      </trkpt>
      <trkpt lat="44.55771" lon="0.66619">
        <ele>148</ele>
        <time>2015-11-29T08:52:44Z</time>
      </trkpt>
      <trkpt lat="44.55793" lon="0.66627">
        <ele>150</ele>
        <time>2015-11-29T08:52:49Z</time>
      </trkpt>
      <trkpt lat="44.55816" lon="0.66634">
        <ele>151</ele>
        <time>2015-11-29T08:52:54Z</time>
      </trkpt>
      <trkpt lat="44.55836" lon="0.66639">
        <ele>152</ele>
        <time>2015-11-29T08:52:59Z</time>
      </trkpt>
      <trkpt lat="44.55855" lon="0.66637">
        <ele>150</ele>
        <time>2015-11-29T08:53:04Z</time>
      </trkpt>
      <trkpt lat="44.5587" lon="0.66641">
        <ele>149</ele>
        <time>2015-11-29T08:53:09Z</time>
      </trkpt>
      <trkpt lat="44.55883" lon="0.66647">
        <ele>150</ele>
        <time>2015-11-29T08:53:14Z</time>
      </trkpt>
      <trkpt lat="44.55892" lon="0.66653">
        <ele>150</ele>
        <time>2015-11-29T08:53:19Z</time>
      </trkpt>
      <trkpt lat="44.55887" lon="0.66665">
        <ele>152</ele>
        <time>2015-11-29T08:53:24Z</time>
      </trkpt>
      <trkpt lat="44.55876" lon="0.6668">
        <ele>153</ele>
        <time>2015-11-29T08:53:29Z</time>
      </trkpt>
      <trkpt lat="44.55867" lon="0.66693">
        <ele>150</ele>
        <time>2015-11-29T08:53:34Z</time>
      </trkpt>
      <trkpt lat="44.5586" lon="0.66715">
        <ele>148</ele>
        <time>2015-11-29T08:53:39Z</time>
      </trkpt>
      <trkpt lat="44.55853" lon="0.66739">
        <ele>148</ele>
        <time>2015-11-29T08:53:44Z</time>
      </trkpt>
      <trkpt lat="44.55845" lon="0.66769">
        <ele>148</ele>
        <time>2015-11-29T08:53:51Z</time>
      </trkpt>
      <trkpt lat="44.5584" lon="0.66781">
        <ele>148</ele>
        <time>2015-11-29T08:53:54Z</time>
      </trkpt>
      <trkpt lat="44.55831" lon="0.66807">
        <ele>148</ele>
        <time>2015-11-29T08:53:59Z</time>
      </trkpt>
      <trkpt lat="44.55826" lon="0.66834">
        <ele>143</ele>
        <time>2015-11-29T08:54:04Z</time>
      </trkpt>
      <trkpt lat="44.55818" lon="0.66866">
        <ele>147</ele>
        <time>2015-11-29T08:54:10Z</time>
      </trkpt>
      <trkpt lat="44.55805" lon="0.66905">
        <ele>147</ele>
        <time>2015-11-29T08:54:16Z</time>
      </trkpt>
      <trkpt lat="44.55797" lon="0.66928">
        <ele>146</ele>
        <time>2015-11-29T08:54:19Z</time>
      </trkpt>
      <trkpt lat="44.55787" lon="0.66967">
        <ele>145</ele>
        <time>2015-11-29T08:54:24Z</time>
      </trkpt>
      <trkpt lat="44.5578" lon="0.66995">
        <ele>145</ele>
        <time>2015-11-29T08:54:29Z</time>
      </trkpt>
      <trkpt lat="44.55773" lon="0.67024">
        <ele>146</ele>
        <time>2015-11-29T08:54:34Z</time>
      </trkpt>
      <trkpt lat="44.55766" lon="0.6705">
        <ele>146</ele>
        <time>2015-11-29T08:54:39Z</time>
      </trkpt>
      <trkpt lat="44.55759" lon="0.67081">
        <ele>146</ele>
        <time>2015-11-29T08:54:44Z</time>
      </trkpt>
      <trkpt lat="44.55755" lon="0.67113">
        <ele>144</ele>
        <time>2015-11-29T08:54:49Z</time>
      </trkpt>
      <trkpt lat="44.55751" lon="0.67147">
        <ele>144</ele>
        <time>2015-11-29T08:54:54Z</time>
      </trkpt>
      <trkpt lat="44.55746" lon="0.67179">
        <ele>144</ele>
        <time>2015-11-29T08:54:59Z</time>
      </trkpt>
      <trkpt lat="44.55741" lon="0.67211">
        <ele>141</ele>
        <time>2015-11-29T08:55:04Z</time>
      </trkpt>
      <trkpt lat="44.55732" lon="0.67242">
        <ele>139</ele>
        <time>2015-11-29T08:55:09Z</time>
      </trkpt>
      <trkpt lat="44.55721" lon="0.67274">
        <ele>138</ele>
        <time>2015-11-29T08:55:14Z</time>
      </trkpt>
      <trkpt lat="44.55712" lon="0.67297">
        <ele>137</ele>
        <time>2015-11-29T08:55:19Z</time>
      </trkpt>
      <trkpt lat="44.55702" lon="0.67326">
        <ele>136</ele>
        <time>2015-11-29T08:55:24Z</time>
      </trkpt>
      <trkpt lat="44.55694" lon="0.6735">
        <ele>136</ele>
        <time>2015-11-29T08:55:29Z</time>
      </trkpt>
      <trkpt lat="44.55684" lon="0.67371">
        <ele>136</ele>
        <time>2015-11-29T08:55:34Z</time>
      </trkpt>
      <trkpt lat="44.55675" lon="0.67385">
        <ele>137</ele>
        <time>2015-11-29T08:55:39Z</time>
      </trkpt>
      <trkpt lat="44.55658" lon="0.67412">
        <ele>135</ele>
        <time>2015-11-29T08:55:47Z</time>
      </trkpt>
      <trkpt lat="44.55654" lon="0.67416">
        <ele>138</ele>
        <time>2015-11-29T08:55:49Z</time>
      </trkpt>
      <trkpt lat="44.55643" lon="0.67435">
        <ele>139</ele>
        <time>2015-11-29T08:55:54Z</time>
      </trkpt>
      <trkpt lat="44.55633" lon="0.67452">
        <ele>141</ele>
        <time>2015-11-29T08:55:59Z</time>
      </trkpt>
      <trkpt lat="44.55621" lon="0.6747">
        <ele>141</ele>
        <time>2015-11-29T08:56:04Z</time>
      </trkpt>
      <trkpt lat="44.55611" lon="0.67491">
        <ele>141</ele>
        <time>2015-11-29T08:56:09Z</time>
      </trkpt>
      <trkpt lat="44.55601" lon="0.67518">
        <ele>138</ele>
        <time>2015-11-29T08:56:14Z</time>
      </trkpt>
      <trkpt lat="44.55588" lon="0.67535">
        <ele>140</ele>
        <time>2015-11-29T08:56:19Z</time>
      </trkpt>
      <trkpt lat="44.55577" lon="0.67555">
        <ele>139</ele>
        <time>2015-11-29T08:56:24Z</time>
      </trkpt>
      <trkpt lat="44.55565" lon="0.67576">
        <ele>141</ele>
        <time>2015-11-29T08:56:29Z</time>
      </trkpt>
      <trkpt lat="44.55556" lon="0.67595">
        <ele>142</ele>
        <time>2015-11-29T08:56:34Z</time>
      </trkpt>
      <trkpt lat="44.55549" lon="0.6761">
        <ele>142</ele>
        <time>2015-11-29T08:56:39Z</time>
      </trkpt>
      <trkpt lat="44.55526" lon="0.6765">
        <ele>140</ele>
        <time>2015-11-29T08:56:47Z</time>
      </trkpt>
      <trkpt lat="44.5552" lon="0.67663">
        <ele>140</ele>
        <time>2015-11-29T08:56:49Z</time>
      </trkpt>
      <trkpt lat="44.55508" lon="0.67694">
        <ele>137</ele>
        <time>2015-11-29T08:56:54Z</time>
      </trkpt>
      <trkpt lat="44.55494" lon="0.67718">
        <ele>131</ele>
        <time>2015-11-29T08:56:59Z</time>
      </trkpt>
      <trkpt lat="44.55485" lon="0.6775">
        <ele>128</ele>
        <time>2015-11-29T08:57:04Z</time>
      </trkpt>
      <trkpt lat="44.55477" lon="0.67763">
        <ele>129</ele>
        <time>2015-11-29T08:57:09Z</time>
      </trkpt>
      <trkpt lat="44.55467" lon="0.67781">
        <ele>131</ele>
        <time>2015-11-29T08:57:14Z</time>
      </trkpt>
      <trkpt lat="44.5546" lon="0.67806">
        <ele>130</ele>
        <time>2015-11-29T08:57:19Z</time>
      </trkpt>
      <trkpt lat="44.55451" lon="0.67832">
        <ele>129</ele>
        <time>2015-11-29T08:57:24Z</time>
      </trkpt>
      <trkpt lat="44.55441" lon="0.67858">
        <ele>129</ele>
        <time>2015-11-29T08:57:29Z</time>
      </trkpt>
      <trkpt lat="44.55429" lon="0.67883">
        <ele>132</ele>
        <time>2015-11-29T08:57:34Z</time>
      </trkpt>
      <trkpt lat="44.55418" lon="0.67905">
        <ele>134</ele>
        <time>2015-11-29T08:57:39Z</time>
      </trkpt>
      <trkpt lat="44.55412" lon="0.67918">
        <ele>133</ele>
        <time>2015-11-29T08:57:44Z</time>
      </trkpt>
      <trkpt lat="44.5541" lon="0.67921">
        <ele>135</ele>
        <time>2015-11-29T08:57:49Z</time>
      </trkpt>
      <trkpt lat="44.55409" lon="0.67926">
        <ele>136</ele>
        <time>2015-11-29T08:57:54Z</time>
      </trkpt>
      <trkpt lat="44.55406" lon="0.67936">
        <ele>136</ele>
        <time>2015-11-29T08:57:59Z</time>
      </trkpt>
      <trkpt lat="44.554" lon="0.67942">
        <ele>135</ele>
        <time>2015-11-29T08:58:04Z</time>
      </trkpt>
      <trkpt lat="44.55393" lon="0.67954">
        <ele>135</ele>
        <time>2015-11-29T08:58:09Z</time>
      </trkpt>
      <trkpt lat="44.55385" lon="0.67968">
        <ele>135</ele>
        <time>2015-11-29T08:58:14Z</time>
      </trkpt>
      <trkpt lat="44.55375" lon="0.67979">
        <ele>136</ele>
        <time>2015-11-29T08:58:19Z</time>
      </trkpt>
      <trkpt lat="44.55365" lon="0.67997">
        <ele>136</ele>
        <time>2015-11-29T08:58:24Z</time>
      </trkpt>
      <trkpt lat="44.55354" lon="0.68017">
        <ele>136</ele>
        <time>2015-11-29T08:58:30Z</time>
      </trkpt>
      <trkpt lat="44.55347" lon="0.68028">
        <ele>136</ele>
        <time>2015-11-29T08:58:34Z</time>
      </trkpt>
      <trkpt lat="44.55335" lon="0.6806">
        <ele>136</ele>
        <time>2015-11-29T08:58:43Z</time>
      </trkpt>
      <trkpt lat="44.55334" lon="0.68064">
        <ele>137</ele>
        <time>2015-11-29T08:58:44Z</time>
      </trkpt>
      <trkpt lat="44.55326" lon="0.68077">
        <ele>137</ele>
        <time>2015-11-29T08:58:49Z</time>
      </trkpt>
      <trkpt lat="44.5532" lon="0.68097">
        <ele>138</ele>
        <time>2015-11-29T08:58:54Z</time>
      </trkpt>
      <trkpt lat="44.55313" lon="0.68118">
        <ele>137</ele>
        <time>2015-11-29T08:58:59Z</time>
      </trkpt>
      <trkpt lat="44.55299" lon="0.68161">
        <ele>134</ele>
        <time>2015-11-29T08:59:08Z</time>
      </trkpt>
      <trkpt lat="44.55297" lon="0.68165">
        <ele>134</ele>
        <time>2015-11-29T08:59:09Z</time>
      </trkpt>
      <trkpt lat="44.55286" lon="0.68187">
        <ele>134</ele>
        <time>2015-11-29T08:59:14Z</time>
      </trkpt>
      <trkpt lat="44.55279" lon="0.68213">
        <ele>131</ele>
        <time>2015-11-29T08:59:19Z</time>
      </trkpt>
      <trkpt lat="44.55272" lon="0.68237">
        <ele>134</ele>
        <time>2015-11-29T08:59:24Z</time>
      </trkpt>
      <trkpt lat="44.55264" lon="0.68261">
        <ele>135</ele>
        <time>2015-11-29T08:59:29Z</time>
      </trkpt>
      <trkpt lat="44.55253" lon="0.68288">
        <ele>135</ele>
        <time>2015-11-29T08:59:34Z</time>
      </trkpt>
      <trkpt lat="44.5524" lon="0.68308">
        <ele>133</ele>
        <time>2015-11-29T08:59:39Z</time>
      </trkpt>
      <trkpt lat="44.55229" lon="0.68332">
        <ele>133</ele>
        <time>2015-11-29T08:59:44Z</time>
      </trkpt>
      <trkpt lat="44.55213" lon="0.68358">
        <ele>132</ele>
        <time>2015-11-29T08:59:49Z</time>
      </trkpt>
      <trkpt lat="44.55188" lon="0.68374">
        <ele>129</ele>
        <time>2015-11-29T08:59:54Z</time>
      </trkpt>
      <trkpt lat="44.55144" lon="0.68391">
        <ele>131</ele>
        <time>2015-11-29T09:00:02Z</time>
      </trkpt>
      <trkpt lat="44.55126" lon="0.68401">
        <ele>131</ele>
        <time>2015-11-29T09:00:06Z</time>
      </trkpt>
      <trkpt lat="44.55095" lon="0.68422">
        <ele>132</ele>
        <time>2015-11-29T09:00:11Z</time>
      </trkpt>
      <trkpt lat="44.55077" lon="0.68438">
        <ele>129</ele>
        <time>2015-11-29T09:00:14Z</time>
      </trkpt>
      <trkpt lat="44.55051" lon="0.68456">
        <ele>130</ele>
        <time>2015-11-29T09:00:19Z</time>
      </trkpt>
      <trkpt lat="44.55031" lon="0.68487">
        <ele>128</ele>
        <time>2015-11-29T09:00:24Z</time>
      </trkpt>
      <trkpt lat="44.55011" lon="0.68508">
        <ele>126</ele>
        <time>2015-11-29T09:00:29Z</time>
      </trkpt>
      <trkpt lat="44.54992" lon="0.68523">
        <ele>122</ele>
        <time>2015-11-29T09:00:34Z</time>
      </trkpt>
      <trkpt lat="44.54971" lon="0.68535">
        <ele>125</ele>
        <time>2015-11-29T09:00:40Z</time>
      </trkpt>
      <trkpt lat="44.54954" lon="0.68553">
        <ele>123</ele>
        <time>2015-11-29T09:00:45Z</time>
      </trkpt>
      <trkpt lat="44.5494" lon="0.68574">
        <ele>122</ele>
        <time>2015-11-29T09:00:49Z</time>
      </trkpt>
      <trkpt lat="44.54925" lon="0.68601">
        <ele>120</ele>
        <time>2015-11-29T09:00:54Z</time>
      </trkpt>
      <trkpt lat="44.54908" lon="0.68623">
        <ele>121</ele>
        <time>2015-11-29T09:00:59Z</time>
      </trkpt>
      <trkpt lat="44.5489" lon="0.68647">
        <ele>122</ele>
        <time>2015-11-29T09:01:04Z</time>
      </trkpt>
      <trkpt lat="44.54872" lon="0.68673">
        <ele>119</ele>
        <time>2015-11-29T09:01:09Z</time>
      </trkpt>
      <trkpt lat="44.54852" lon="0.68695">
        <ele>119</ele>
        <time>2015-11-29T09:01:14Z</time>
      </trkpt>
      <trkpt lat="44.54832" lon="0.68711">
        <ele>120</ele>
        <time>2015-11-29T09:01:19Z</time>
      </trkpt>
      <trkpt lat="44.54812" lon="0.68735">
        <ele>121</ele>
        <time>2015-11-29T09:01:24Z</time>
      </trkpt>
      <trkpt lat="44.54795" lon="0.68758">
        <ele>120</ele>
        <time>2015-11-29T09:01:29Z</time>
      </trkpt>
      <trkpt lat="44.54781" lon="0.68781">
        <ele>118</ele>
        <time>2015-11-29T09:01:34Z</time>
      </trkpt>
      <trkpt lat="44.5475" lon="0.68815">
        <ele>118</ele>
        <time>2015-11-29T09:01:42Z</time>
      </trkpt>
      <trkpt lat="44.54743" lon="0.68823">
        <ele>119</ele>
        <time>2015-11-29T09:01:44Z</time>
      </trkpt>
      <trkpt lat="44.5473" lon="0.68839">
        <ele>121</ele>
        <time>2015-11-29T09:01:49Z</time>
      </trkpt>
      <trkpt lat="44.54718" lon="0.68853">
        <ele>123</ele>
        <time>2015-11-29T09:01:54Z</time>
      </trkpt>
      <trkpt lat="44.54704" lon="0.68867">
        <ele>122</ele>
        <time>2015-11-29T09:01:59Z</time>
      </trkpt>
      <trkpt lat="44.54692" lon="0.68881">
        <ele>121</ele>
        <time>2015-11-29T09:02:04Z</time>
      </trkpt>
      <trkpt lat="44.54681" lon="0.68892">
        <ele>122</ele>
        <time>2015-11-29T09:02:09Z</time>
      </trkpt>
      <trkpt lat="44.54668" lon="0.68904">
        <ele>122</ele>
        <time>2015-11-29T09:02:14Z</time>
      </trkpt>
      <trkpt lat="44.54652" lon="0.68918">
        <ele>122</ele>
        <time>2015-11-29T09:02:19Z</time>
      </trkpt>
      <trkpt lat="44.54637" lon="0.68932">
        <ele>122</ele>
        <time>2015-11-29T09:02:24Z</time>
      </trkpt>
      <trkpt lat="44.54619" lon="0.68946">
        <ele>122</ele>
        <time>2015-11-29T09:02:29Z</time>
      </trkpt>
      <trkpt lat="44.54603" lon="0.68959">
        <ele>121</ele>
        <time>2015-11-29T09:02:34Z</time>
      </trkpt>
      <trkpt lat="44.54584" lon="0.68982">
        <ele>120</ele>
        <time>2015-11-29T09:02:39Z</time>
      </trkpt>
      <trkpt lat="44.54568" lon="0.69002">
        <ele>117</ele>
        <time>2015-11-29T09:02:44Z</time>
      </trkpt>
      <trkpt lat="44.54543" lon="0.69026">
        <ele>117</ele>
        <time>2015-11-29T09:02:50Z</time>
      </trkpt>
      <trkpt lat="44.54524" lon="0.69041">
        <ele>116</ele>
        <time>2015-11-29T09:02:54Z</time>
      </trkpt>
      <trkpt lat="44.54505" lon="0.69062">
        <ele>114</ele>
        <time>2015-11-29T09:02:59Z</time>
      </trkpt>
      <trkpt lat="44.54484" lon="0.69084">
        <ele>113</ele>
        <time>2015-11-29T09:03:04Z</time>
      </trkpt>
      <trkpt lat="44.54464" lon="0.69107">
        <ele>111</ele>
        <time>2015-11-29T09:03:09Z</time>
      </trkpt>
      <trkpt lat="44.54443" lon="0.6913">
        <ele>109</ele>
        <time>2015-11-29T09:03:14Z</time>
      </trkpt>
      <trkpt lat="44.54425" lon="0.69154">
        <ele>107</ele>
        <time>2015-11-29T09:03:19Z</time>
      </trkpt>
      <trkpt lat="44.54409" lon="0.69177">
        <ele>104</ele>
        <time>2015-11-29T09:03:24Z</time>
      </trkpt>
      <trkpt lat="44.54391" lon="0.69191">
        <ele>102</ele>
        <time>2015-11-29T09:03:29Z</time>
      </trkpt>
      <trkpt lat="44.54373" lon="0.69212">
        <ele>101</ele>
        <time>2015-11-29T09:03:34Z</time>
      </trkpt>
      <trkpt lat="44.54353" lon="0.6924">
        <ele>101</ele>
        <time>2015-11-29T09:03:40Z</time>
      </trkpt>
      <trkpt lat="44.54345" lon="0.69251">
        <ele>101</ele>
        <time>2015-11-29T09:03:44Z</time>
      </trkpt>
      <trkpt lat="44.54333" lon="0.69267">
        <ele>101</ele>
        <time>2015-11-29T09:03:49Z</time>
      </trkpt>
      <trkpt lat="44.54322" lon="0.69297">
        <ele>101</ele>
        <time>2015-11-29T09:03:54Z</time>
      </trkpt>
      <trkpt lat="44.5431" lon="0.69323">
        <ele>98</ele>
        <time>2015-11-29T09:03:59Z</time>
      </trkpt>
      <trkpt lat="44.54299" lon="0.69347">
        <ele>92</ele>
        <time>2015-11-29T09:04:04Z</time>
      </trkpt>
      <trkpt lat="44.54292" lon="0.6937">
        <ele>92</ele>
        <time>2015-11-29T09:04:09Z</time>
      </trkpt>
      <trkpt lat="44.54286" lon="0.69394">
        <ele>94</ele>
        <time>2015-11-29T09:04:15Z</time>
      </trkpt>
      <trkpt lat="44.5428" lon="0.69408">
        <ele>95</ele>
        <time>2015-11-29T09:04:19Z</time>
      </trkpt>
      <trkpt lat="44.54279" lon="0.69411">
        <ele>95</ele>
        <time>2015-11-29T09:04:24Z</time>
      </trkpt>
      <trkpt lat="44.5428" lon="0.69411">
        <ele>94</ele>
        <time>2015-11-29T09:04:29Z</time>
      </trkpt>
      <trkpt lat="44.5428" lon="0.69411">
        <ele>94</ele>
        <time>2015-11-29T09:04:32Z</time>
      </trkpt>
      <trkpt lat="44.5428" lon="0.69411">
        <ele>94</ele>
        <time>2015-11-29T09:04:35Z</time>
      </trkpt>
      <trkpt lat="44.5428" lon="0.69411">
        <ele>94</ele>
        <time>2015-11-29T09:04:38Z</time>
      </trkpt>
      <trkpt lat="44.5428" lon="0.69411">
        <ele>94</ele>
        <time>2015-11-29T09:04:41Z</time>
      </trkpt>
      <trkpt lat="44.5428" lon="0.69411">
        <ele>94</ele>
        <time>2015-11-29T09:04:44Z</time>
      </trkpt>
      <trkpt lat="44.5428" lon="0.69411">
        <ele>94</ele>
        <time>2015-11-29T09:04:47Z</time>
      </trkpt>
      <trkpt lat="44.5428" lon="0.69411">
        <ele>94</ele>
        <time>2015-11-29T09:04:50Z</time>
      </trkpt>
      <trkpt lat="44.5428" lon="0.69411">
        <ele>94</ele>
        <time>2015-11-29T09:04:53Z</time>
      </trkpt>
      <trkpt lat="44.54279" lon="0.69411">
        <ele>94</ele>
        <time>2015-11-29T09:04:56Z</time>
      </trkpt>
      <trkpt lat="44.5428" lon="0.69412">
        <ele>94</ele>
        <time>2015-11-29T09:04:59Z</time>
      </trkpt>
      <trkpt lat="44.5428" lon="0.69412">
        <ele>94</ele>
        <time>2015-11-29T09:05:02Z</time>
      </trkpt>
      <trkpt lat="44.5428" lon="0.69412">
        <ele>93</ele>
        <time>2015-11-29T09:05:05Z</time>
      </trkpt>
      <trkpt lat="44.5428" lon="0.69412">
        <ele>94</ele>
        <time>2015-11-29T09:05:08Z</time>
      </trkpt>
      <trkpt lat="44.5428" lon="0.69412">
        <ele>94</ele>
        <time>2015-11-29T09:05:11Z</time>
      </trkpt>
      <trkpt lat="44.5428" lon="0.69412">
        <ele>95</ele>
        <time>2015-11-29T09:05:14Z</time>
      </trkpt>
      <trkpt lat="44.5428" lon="0.69412">
        <ele>95</ele>
        <time>2015-11-29T09:05:17Z</time>
      </trkpt>
      <trkpt lat="44.5428" lon="0.69412">
        <ele>95</ele>
        <time>2015-11-29T09:05:20Z</time>
      </trkpt>
      <trkpt lat="44.5428" lon="0.69412">
        <ele>95</ele>
        <time>2015-11-29T09:05:23Z</time>
      </trkpt>
      <trkpt lat="44.5428" lon="0.69412">
        <ele>95</ele>
        <time>2015-11-29T09:05:26Z</time>
      </trkpt>
      <trkpt lat="44.5428" lon="0.69412">
        <ele>95</ele>
        <time>2015-11-29T09:05:29Z</time>
      </trkpt>
      <trkpt lat="44.5428" lon="0.69412">
        <ele>95</ele>
        <time>2015-11-29T09:05:32Z</time>
      </trkpt>
      <trkpt lat="44.5428" lon="0.69412">
        <ele>95</ele>
        <time>2015-11-29T09:05:35Z</time>
      </trkpt>
      <trkpt lat="44.5428" lon="0.69412">
        <ele>95</ele>
        <time>2015-11-29T09:05:38Z</time>
      </trkpt>
      <trkpt lat="44.5428" lon="0.69412">
        <ele>95</ele>
        <time>2015-11-29T09:05:41Z</time>
      </trkpt>
      <trkpt lat="44.54276" lon="0.69417">
        <ele>93</ele>
        <time>2015-11-29T09:05:46Z</time>
      </trkpt>
      <trkpt lat="44.5427" lon="0.69415">
        <ele>89</ele>
        <time>2015-11-29T09:05:49Z</time>
      </trkpt>
      <trkpt lat="44.54253" lon="0.69406">
        <ele>90</ele>
        <time>2015-11-29T09:05:54Z</time>
      </trkpt>
      <trkpt lat="44.54239" lon="0.69394">
        <ele>90</ele>
        <time>2015-11-29T09:05:59Z</time>
      </trkpt>
      <trkpt lat="44.54212" lon="0.6937">
        <ele>94</ele>
        <time>2015-11-29T09:06:07Z</time>
      </trkpt>
      <trkpt lat="44.54205" lon="0.69362">
        <ele>94</ele>
        <time>2015-11-29T09:06:09Z</time>
      </trkpt>
      <trkpt lat="44.54187" lon="0.69342">
        <ele>96</ele>
        <time>2015-11-29T09:06:14Z</time>
      </trkpt>
      <trkpt lat="44.54162" lon="0.69313">
        <ele>96</ele>
        <time>2015-11-29T09:06:20Z</time>
      </trkpt>
      <trkpt lat="44.54147" lon="0.69291">
        <ele>94</ele>
        <time>2015-11-29T09:06:24Z</time>
      </trkpt>
      <trkpt lat="44.54128" lon="0.69259">
        <ele>91</ele>
        <time>2015-11-29T09:06:29Z</time>
      </trkpt>
      <trkpt lat="44.54117" lon="0.69225">
        <ele>89</ele>
        <time>2015-11-29T09:06:34Z</time>
      </trkpt>
      <trkpt lat="44.54117" lon="0.6918">
        <ele>86</ele>
        <time>2015-11-29T09:06:39Z</time>
      </trkpt>
      <trkpt lat="44.54125" lon="0.69132">
        <ele>85</ele>
        <time>2015-11-29T09:06:44Z</time>
      </trkpt>
      <trkpt lat="44.54128" lon="0.69078">
        <ele>82</ele>
        <time>2015-11-29T09:06:49Z</time>
      </trkpt>
      <trkpt lat="44.54116" lon="0.69027">
        <ele>79</ele>
        <time>2015-11-29T09:06:54Z</time>
      </trkpt>
      <trkpt lat="44.54087" lon="0.68987">
        <ele>78</ele>
        <time>2015-11-29T09:07:00Z</time>
      </trkpt>
      <trkpt lat="44.54066" lon="0.68972">
        <ele>77</ele>
        <time>2015-11-29T09:07:04Z</time>
      </trkpt>
      <trkpt lat="44.54033" lon="0.6895">
        <ele>78</ele>
        <time>2015-11-29T09:07:11Z</time>
      </trkpt>
      <trkpt lat="44.54018" lon="0.6894">
        <ele>77</ele>
        <time>2015-11-29T09:07:14Z</time>
      </trkpt>
      <trkpt lat="44.53992" lon="0.68924">
        <ele>78</ele>
        <time>2015-11-29T09:07:19Z</time>
      </trkpt>
      <trkpt lat="44.53967" lon="0.68908">
        <ele>79</ele>
        <time>2015-11-29T09:07:24Z</time>
      </trkpt>
      <trkpt lat="44.53943" lon="0.68892">
        <ele>83</ele>
        <time>2015-11-29T09:07:29Z</time>
      </trkpt>
      <trkpt lat="44.53922" lon="0.68876">
        <ele>84</ele>
        <time>2015-11-29T09:07:34Z</time>
      </trkpt>
      <trkpt lat="44.53901" lon="0.6886">
        <ele>86</ele>
        <time>2015-11-29T09:07:43Z</time>
      </trkpt>
      <trkpt lat="44.539" lon="0.6886">
        <ele>86</ele>
        <time>2015-11-29T09:07:44Z</time>
      </trkpt>
      <trkpt lat="44.53896" lon="0.68846">
        <ele>87</ele>
        <time>2015-11-29T09:07:49Z</time>
      </trkpt>
      <trkpt lat="44.53896" lon="0.68825">
        <ele>86</ele>
        <time>2015-11-29T09:07:54Z</time>
      </trkpt>
      <trkpt lat="44.53897" lon="0.68803">
        <ele>86</ele>
        <time>2015-11-29T09:07:59Z</time>
      </trkpt>
      <trkpt lat="44.53897" lon="0.6877">
        <ele>84</ele>
        <time>2015-11-29T09:08:06Z</time>
      </trkpt>
      <trkpt lat="44.53897" lon="0.68756">
        <ele>85</ele>
        <time>2015-11-29T09:08:09Z</time>
      </trkpt>
      <trkpt lat="44.53898" lon="0.68734">
        <ele>85</ele>
        <time>2015-11-29T09:08:14Z</time>
      </trkpt>
      <trkpt lat="44.539" lon="0.68716">
        <ele>87</ele>
        <time>2015-11-29T09:08:19Z</time>
      </trkpt>
      <trkpt lat="44.53902" lon="0.68697">
        <ele>88</ele>
        <time>2015-11-29T09:08:24Z</time>
      </trkpt>
      <trkpt lat="44.53903" lon="0.68672">
        <ele>88</ele>
        <time>2015-11-29T09:08:32Z</time>
      </trkpt>
      <trkpt lat="44.53904" lon="0.68662">
        <ele>87</ele>
        <time>2015-11-29T09:08:34Z</time>
      </trkpt>
      <trkpt lat="44.53903" lon="0.68642">
        <ele>87</ele>
        <time>2015-11-29T09:08:39Z</time>
      </trkpt>
      <trkpt lat="44.53906" lon="0.68619">
        <ele>87</ele>
        <time>2015-11-29T09:08:44Z</time>
      </trkpt>
      <trkpt lat="44.53908" lon="0.68591">
        <ele>86</ele>
        <time>2015-11-29T09:08:49Z</time>
      </trkpt>
      <trkpt lat="44.53908" lon="0.68561">
        <ele>85</ele>
        <time>2015-11-29T09:08:54Z</time>
      </trkpt>
      <trkpt lat="44.53888" lon="0.68538">
        <ele>87</ele>
        <time>2015-11-29T09:09:00Z</time>
      </trkpt>
      <trkpt lat="44.53871" lon="0.68534">
        <ele>88</ele>
        <time>2015-11-29T09:09:04Z</time>
      </trkpt>
      <trkpt lat="44.53857" lon="0.68553">
        <ele>89</ele>
        <time>2015-11-29T09:09:09Z</time>
      </trkpt>
      <trkpt lat="44.53845" lon="0.68573">
        <ele>89</ele>
        <time>2015-11-29T09:09:14Z</time>
      </trkpt>
      <trkpt lat="44.53829" lon="0.68587">
        <ele>90</ele>
        <time>2015-11-29T09:09:19Z</time>
      </trkpt>
      <trkpt lat="44.5381" lon="0.68595">
        <ele>91</ele>
        <time>2015-11-29T09:09:24Z</time>
      </trkpt>
      <trkpt lat="44.53792" lon="0.68604">
        <ele>92</ele>
        <time>2015-11-29T09:09:29Z</time>
      </trkpt>
      <trkpt lat="44.53776" lon="0.68614">
        <ele>93</ele>
        <time>2015-11-29T09:09:34Z</time>
      </trkpt>
      <trkpt lat="44.53761" lon="0.68625">
        <ele>94</ele>
        <time>2015-11-29T09:09:39Z</time>
      </trkpt>
      <trkpt lat="44.53747" lon="0.68635">
        <ele>96</ele>
        <time>2015-11-29T09:09:44Z</time>
      </trkpt>
      <trkpt lat="44.53736" lon="0.68641">
        <ele>97</ele>
        <time>2015-11-29T09:09:49Z</time>
      </trkpt>
      <trkpt lat="44.53731" lon="0.68654">
        <ele>97</ele>
        <time>2015-11-29T09:09:54Z</time>
      </trkpt>
      <trkpt lat="44.53736" lon="0.68676">
        <ele>96</ele>
        <time>2015-11-29T09:09:59Z</time>
      </trkpt>
      <trkpt lat="44.53724" lon="0.68684">
        <ele>96</ele>
        <time>2015-11-29T09:10:04Z</time>
      </trkpt>
      <trkpt lat="44.53708" lon="0.68685">
        <ele>98</ele>
        <time>2015-11-29T09:10:09Z</time>
      </trkpt>
      <trkpt lat="44.53693" lon="0.68687">
        <ele>99</ele>
        <time>2015-11-29T09:10:14Z</time>
      </trkpt>
      <trkpt lat="44.53676" lon="0.68692">
        <ele>100</ele>
        <time>2015-11-29T09:10:19Z</time>
      </trkpt>
      <trkpt lat="44.5366" lon="0.68696">
        <ele>100</ele>
        <time>2015-11-29T09:10:24Z</time>
      </trkpt>
      <trkpt lat="44.53642" lon="0.68699">
        <ele>101</ele>
        <time>2015-11-29T09:10:29Z</time>
      </trkpt>
      <trkpt lat="44.53622" lon="0.68699">
        <ele>102</ele>
        <time>2015-11-29T09:10:34Z</time>
      </trkpt>
      <trkpt lat="44.53603" lon="0.68701">
        <ele>103</ele>
        <time>2015-11-29T09:10:39Z</time>
      </trkpt>
      <trkpt lat="44.53584" lon="0.68702">
        <ele>103</ele>
        <time>2015-11-29T09:10:44Z</time>
      </trkpt>
      <trkpt lat="44.53568" lon="0.68709">
        <ele>104</ele>
        <time>2015-11-29T09:10:49Z</time>
      </trkpt>
      <trkpt lat="44.53551" lon="0.68715">
        <ele>104</ele>
        <time>2015-11-29T09:10:54Z</time>
      </trkpt>
      <trkpt lat="44.53531" lon="0.6873">
        <ele>106</ele>
        <time>2015-11-29T09:11:03Z</time>
      </trkpt>
      <trkpt lat="44.53528" lon="0.68732">
        <ele>106</ele>
        <time>2015-11-29T09:11:04Z</time>
      </trkpt>
      <trkpt lat="44.53515" lon="0.68735">
        <ele>107</ele>
        <time>2015-11-29T09:11:09Z</time>
      </trkpt>
      <trkpt lat="44.53505" lon="0.68737">
        <ele>108</ele>
        <time>2015-11-29T09:11:14Z</time>
      </trkpt>
      <trkpt lat="44.53499" lon="0.68734">
        <ele>108</ele>
        <time>2015-11-29T09:11:19Z</time>
      </trkpt>
      <trkpt lat="44.53492" lon="0.68726">
        <ele>108</ele>
        <time>2015-11-29T09:11:24Z</time>
      </trkpt>
      <trkpt lat="44.53485" lon="0.68718">
        <ele>107</ele>
        <time>2015-11-29T09:11:29Z</time>
      </trkpt>
      <trkpt lat="44.53479" lon="0.68709">
        <ele>108</ele>
        <time>2015-11-29T09:11:34Z</time>
      </trkpt>
      <trkpt lat="44.53474" lon="0.68703">
        <ele>108</ele>
        <time>2015-11-29T09:11:39Z</time>
      </trkpt>
      <trkpt lat="44.53468" lon="0.68696">
        <ele>106</ele>
        <time>2015-11-29T09:11:44Z</time>
      </trkpt>
      <trkpt lat="44.53463" lon="0.68687">
        <ele>107</ele>
        <time>2015-11-29T09:11:49Z</time>
      </trkpt>
      <trkpt lat="44.53458" lon="0.68679">
        <ele>107</ele>
        <time>2015-11-29T09:11:54Z</time>
      </trkpt>
      <trkpt lat="44.5345" lon="0.68672">
        <ele>109</ele>
        <time>2015-11-29T09:11:59Z</time>
      </trkpt>
      <trkpt lat="44.53441" lon="0.6867">
        <ele>110</ele>
        <time>2015-11-29T09:12:04Z</time>
      </trkpt>
      <trkpt lat="44.53427" lon="0.68677">
        <ele>112</ele>
        <time>2015-11-29T09:12:12Z</time>
      </trkpt>
      <trkpt lat="44.53424" lon="0.68681">
        <ele>114</ele>
        <time>2015-11-29T09:12:14Z</time>
      </trkpt>
      <trkpt lat="44.53415" lon="0.68689">
        <ele>115</ele>
        <time>2015-11-29T09:12:19Z</time>
      </trkpt>
      <trkpt lat="44.53406" lon="0.68696">
        <ele>116</ele>
        <time>2015-11-29T09:12:24Z</time>
      </trkpt>
      <trkpt lat="44.53397" lon="0.68703">
        <ele>117</ele>
        <time>2015-11-29T09:12:29Z</time>
      </trkpt>
      <trkpt lat="44.53387" lon="0.68713">
        <ele>117</ele>
        <time>2015-11-29T09:12:34Z</time>
      </trkpt>
      <trkpt lat="44.53379" lon="0.68724">
        <ele>119</ele>
        <time>2015-11-29T09:12:39Z</time>
      </trkpt>
      <trkpt lat="44.53379" lon="0.68743">
        <ele>119</ele>
        <time>2015-11-29T09:12:44Z</time>
      </trkpt>
      <trkpt lat="44.53376" lon="0.6876">
        <ele>121</ele>
        <time>2015-11-29T09:12:49Z</time>
      </trkpt>
      <trkpt lat="44.53372" lon="0.68773">
        <ele>123</ele>
        <time>2015-11-29T09:12:54Z</time>
      </trkpt>
      <trkpt lat="44.53366" lon="0.68781">
        <ele>122</ele>
        <time>2015-11-29T09:12:59Z</time>
      </trkpt>
      <trkpt lat="44.53361" lon="0.68794">
        <ele>122</ele>
        <time>2015-11-29T09:13:04Z</time>
      </trkpt>
      <trkpt lat="44.53356" lon="0.68805">
        <ele>122</ele>
        <time>2015-11-29T09:13:09Z</time>
      </trkpt>
      <trkpt lat="44.53347" lon="0.68819">
        <ele>121</ele>
        <time>2015-11-29T09:13:14Z</time>
      </trkpt>
      <trkpt lat="44.5334" lon="0.68836">
        <ele>122</ele>
        <time>2015-11-29T09:13:19Z</time>
      </trkpt>
      <trkpt lat="44.5333" lon="0.68853">
        <ele>123</ele>
        <time>2015-11-29T09:13:24Z</time>
      </trkpt>
      <trkpt lat="44.53309" lon="0.6888">
        <ele>123</ele>
        <time>2015-11-29T09:13:33Z</time>
      </trkpt>
      <trkpt lat="44.53307" lon="0.68883">
        <ele>123</ele>
        <time>2015-11-29T09:13:34Z</time>
      </trkpt>
      <trkpt lat="44.53298" lon="0.689">
        <ele>124</ele>
        <time>2015-11-29T09:13:39Z</time>
      </trkpt>
      <trkpt lat="44.53288" lon="0.6892">
        <ele>125</ele>
        <time>2015-11-29T09:13:44Z</time>
      </trkpt>
      <trkpt lat="44.5328" lon="0.68939">
        <ele>126</ele>
        <time>2015-11-29T09:13:49Z</time>
      </trkpt>
      <trkpt lat="44.53271" lon="0.6896">
        <ele>125</ele>
        <time>2015-11-29T09:13:54Z</time>
      </trkpt>
      <trkpt lat="44.53259" lon="0.68974">
        <ele>125</ele>
        <time>2015-11-29T09:13:59Z</time>
      </trkpt>
      <trkpt lat="44.53244" lon="0.68979">
        <ele>125</ele>
        <time>2015-11-29T09:14:04Z</time>
      </trkpt>
      <trkpt lat="44.53228" lon="0.68975">
        <ele>125</ele>
        <time>2015-11-29T09:14:09Z</time>
      </trkpt>
      <trkpt lat="44.53214" lon="0.68966">
        <ele>125</ele>
        <time>2015-11-29T09:14:14Z</time>
      </trkpt>
      <trkpt lat="44.53204" lon="0.68957">
        <ele>124</ele>
        <time>2015-11-29T09:14:19Z</time>
      </trkpt>
      <trkpt lat="44.53194" lon="0.68952">
        <ele>124</ele>
        <time>2015-11-29T09:14:24Z</time>
      </trkpt>
      <trkpt lat="44.53183" lon="0.68946">
        <ele>122</ele>
        <time>2015-11-29T09:14:29Z</time>
      </trkpt>
      <trkpt lat="44.53176" lon="0.68937">
        <ele>122</ele>
        <time>2015-11-29T09:14:34Z</time>
      </trkpt>
      <trkpt lat="44.53167" lon="0.68922">
        <ele>123</ele>
        <time>2015-11-29T09:14:40Z</time>
      </trkpt>
      <trkpt lat="44.5316" lon="0.68914">
        <ele>124</ele>
        <time>2015-11-29T09:14:44Z</time>
      </trkpt>
      <trkpt lat="44.53151" lon="0.68902">
        <ele>123</ele>
        <time>2015-11-29T09:14:49Z</time>
      </trkpt>
      <trkpt lat="44.53143" lon="0.68889">
        <ele>123</ele>
        <time>2015-11-29T09:14:54Z</time>
      </trkpt>
      <trkpt lat="44.53133" lon="0.68875">
        <ele>122</ele>
        <time>2015-11-29T09:15:00Z</time>
      </trkpt>
      <trkpt lat="44.53128" lon="0.68864">
        <ele>122</ele>
        <time>2015-11-29T09:15:04Z</time>
      </trkpt>
      <trkpt lat="44.53121" lon="0.68852">
        <ele>122</ele>
        <time>2015-11-29T09:15:09Z</time>
      </trkpt>
      <trkpt lat="44.53114" lon="0.68839">
        <ele>122</ele>
        <time>2015-11-29T09:15:14Z</time>
      </trkpt>
      <trkpt lat="44.53105" lon="0.68829">
        <ele>121</ele>
        <time>2015-11-29T09:15:19Z</time>
      </trkpt>
      <trkpt lat="44.53097" lon="0.68821">
        <ele>121</ele>
        <time>2015-11-29T09:15:24Z</time>
      </trkpt>
      <trkpt lat="44.53089" lon="0.68811">
        <ele>123</ele>
        <time>2015-11-29T09:15:29Z</time>
      </trkpt>
      <trkpt lat="44.53081" lon="0.688">
        <ele>123</ele>
        <time>2015-11-29T09:15:34Z</time>
      </trkpt>
      <trkpt lat="44.53072" lon="0.68793">
        <ele>123</ele>
        <time>2015-11-29T09:15:39Z</time>
      </trkpt>
      <trkpt lat="44.53055" lon="0.68775">
        <ele>122</ele>
        <time>2015-11-29T09:15:48Z</time>
      </trkpt>
      <trkpt lat="44.53052" lon="0.68773">
        <ele>122</ele>
        <time>2015-11-29T09:15:49Z</time>
      </trkpt>
      <trkpt lat="44.5304" lon="0.68763">
        <ele>123</ele>
        <time>2015-11-29T09:15:54Z</time>
      </trkpt>
      <trkpt lat="44.53029" lon="0.68751">
        <ele>123</ele>
        <time>2015-11-29T09:15:59Z</time>
      </trkpt>
      <trkpt lat="44.53019" lon="0.68741">
        <ele>124</ele>
        <time>2015-11-29T09:16:04Z</time>
      </trkpt>
      <trkpt lat="44.53005" lon="0.68729">
        <ele>124</ele>
        <time>2015-11-29T09:16:10Z</time>
      </trkpt>
      <trkpt lat="44.52992" lon="0.68716">
        <ele>126</ele>
        <time>2015-11-29T09:16:16Z</time>
      </trkpt>
      <trkpt lat="44.52986" lon="0.68711">
        <ele>127</ele>
        <time>2015-11-29T09:16:19Z</time>
      </trkpt>
      <trkpt lat="44.52963" lon="0.68694">
        <ele>129</ele>
        <time>2015-11-29T09:16:28Z</time>
      </trkpt>
      <trkpt lat="44.5296" lon="0.68693">
        <ele>129</ele>
        <time>2015-11-29T09:16:29Z</time>
      </trkpt>
      <trkpt lat="44.52946" lon="0.68692">
        <ele>130</ele>
        <time>2015-11-29T09:16:34Z</time>
      </trkpt>
      <trkpt lat="44.52933" lon="0.68696">
        <ele>132</ele>
        <time>2015-11-29T09:16:39Z</time>
      </trkpt>
      <trkpt lat="44.52922" lon="0.68695">
        <ele>133</ele>
        <time>2015-11-29T09:16:44Z</time>
      </trkpt>
      <trkpt lat="44.5291" lon="0.68693">
        <ele>133</ele>
        <time>2015-11-29T09:16:49Z</time>
      </trkpt>
      <trkpt lat="44.52899" lon="0.68691">
        <ele>133</ele>
        <time>2015-11-29T09:16:54Z</time>
      </trkpt>
      <trkpt lat="44.52886" lon="0.6869">
        <ele>133</ele>
        <time>2015-11-29T09:16:59Z</time>
      </trkpt>
      <trkpt lat="44.52874" lon="0.6869">
        <ele>134</ele>
        <time>2015-11-29T09:17:04Z</time>
      </trkpt>
      <trkpt lat="44.52861" lon="0.68687">
        <ele>134</ele>
        <time>2015-11-29T09:17:09Z</time>
      </trkpt>
      <trkpt lat="44.52849" lon="0.68684">
        <ele>134</ele>
        <time>2015-11-29T09:17:14Z</time>
      </trkpt>
      <trkpt lat="44.52835" lon="0.68682">
        <ele>134</ele>
        <time>2015-11-29T09:17:19Z</time>
      </trkpt>
      <trkpt lat="44.52818" lon="0.68682">
        <ele>135</ele>
        <time>2015-11-29T09:17:26Z</time>
      </trkpt>
      <trkpt lat="44.52804" lon="0.68677">
        <ele>136</ele>
        <time>2015-11-29T09:17:32Z</time>
      </trkpt>
      <trkpt lat="44.52799" lon="0.68677">
        <ele>136</ele>
        <time>2015-11-29T09:17:34Z</time>
      </trkpt>
      <trkpt lat="44.52784" lon="0.68673">
        <ele>137</ele>
        <time>2015-11-29T09:17:39Z</time>
      </trkpt>
      <trkpt lat="44.52772" lon="0.6867">
        <ele>134</ele>
        <time>2015-11-29T09:17:44Z</time>
      </trkpt>
      <trkpt lat="44.5276" lon="0.68668">
        <ele>132</ele>
        <time>2015-11-29T09:17:49Z</time>
      </trkpt>
      <trkpt lat="44.52745" lon="0.68663">
        <ele>133</ele>
        <time>2015-11-29T09:17:55Z</time>
      </trkpt>
      <trkpt lat="44.52735" lon="0.6866">
        <ele>133</ele>
        <time>2015-11-29T09:17:59Z</time>
      </trkpt>
      <trkpt lat="44.52721" lon="0.68657">
        <ele>136</ele>
        <time>2015-11-29T09:18:04Z</time>
      </trkpt>
      <trkpt lat="44.52709" lon="0.68652">
        <ele>138</ele>
        <time>2015-11-29T09:18:09Z</time>
      </trkpt>
      <trkpt lat="44.52695" lon="0.6865">
        <ele>139</ele>
        <time>2015-11-29T09:18:14Z</time>
      </trkpt>
      <trkpt lat="44.52683" lon="0.68648">
        <ele>141</ele>
        <time>2015-11-29T09:18:19Z</time>
      </trkpt>
      <trkpt lat="44.52669" lon="0.68647">
        <ele>143</ele>
        <time>2015-11-29T09:18:24Z</time>
      </trkpt>
      <trkpt lat="44.52657" lon="0.68644">
        <ele>143</ele>
        <time>2015-11-29T09:18:29Z</time>
      </trkpt>
      <trkpt lat="44.52643" lon="0.68641">
        <ele>143</ele>
        <time>2015-11-29T09:18:34Z</time>
      </trkpt>
      <trkpt lat="44.52632" lon="0.68645">
        <ele>142</ele>
        <time>2015-11-29T09:18:39Z</time>
      </trkpt>
      <trkpt lat="44.52622" lon="0.6865">
        <ele>142</ele>
        <time>2015-11-29T09:18:44Z</time>
      </trkpt>
      <trkpt lat="44.52611" lon="0.68653">
        <ele>141</ele>
        <time>2015-11-29T09:18:49Z</time>
      </trkpt>
      <trkpt lat="44.52592" lon="0.68659">
        <ele>141</ele>
        <time>2015-11-29T09:18:54Z</time>
      </trkpt>
      <trkpt lat="44.52575" lon="0.68667">
        <ele>141</ele>
        <time>2015-11-29T09:18:59Z</time>
      </trkpt>
      <trkpt lat="44.52557" lon="0.68669">
        <ele>141</ele>
        <time>2015-11-29T09:19:04Z</time>
      </trkpt>
      <trkpt lat="44.52541" lon="0.68672">
        <ele>141</ele>
        <time>2015-11-29T09:19:09Z</time>
      </trkpt>
      <trkpt lat="44.52524" lon="0.68672">
        <ele>141</ele>
        <time>2015-11-29T09:19:14Z</time>
      </trkpt>
      <trkpt lat="44.52508" lon="0.68681">
        <ele>140</ele>
        <time>2015-11-29T09:19:19Z</time>
      </trkpt>
      <trkpt lat="44.52492" lon="0.68681">
        <ele>141</ele>
        <time>2015-11-29T09:19:24Z</time>
      </trkpt>
      <trkpt lat="44.52474" lon="0.68682">
        <ele>143</ele>
        <time>2015-11-29T09:19:29Z</time>
      </trkpt>
      <trkpt lat="44.52455" lon="0.68688">
        <ele>142</ele>
        <time>2015-11-29T09:19:34Z</time>
      </trkpt>
      <trkpt lat="44.52443" lon="0.68719">
        <ele>138</ele>
        <time>2015-11-29T09:19:39Z</time>
      </trkpt>
      <trkpt lat="44.52445" lon="0.68736">
        <ele>136</ele>
        <time>2015-11-29T09:19:44Z</time>
      </trkpt>
      <trkpt lat="44.52447" lon="0.68739">
        <ele>135</ele>
        <time>2015-11-29T09:19:49Z</time>
      </trkpt>
      <trkpt lat="44.52447" lon="0.68739">
        <ele>136</ele>
        <time>2015-11-29T09:19:54Z</time>
      </trkpt>
      <trkpt lat="44.52447" lon="0.68739">
        <ele>136</ele>
        <time>2015-11-29T09:19:57Z</time>
      </trkpt>
      <trkpt lat="44.52447" lon="0.68739">
        <ele>136</ele>
        <time>2015-11-29T09:20:01Z</time>
      </trkpt>
      <trkpt lat="44.52447" lon="0.68739">
        <ele>136</ele>
        <time>2015-11-29T09:20:03Z</time>
      </trkpt>
      <trkpt lat="44.52447" lon="0.68739">
        <ele>136</ele>
        <time>2015-11-29T09:20:06Z</time>
      </trkpt>
      <trkpt lat="44.52447" lon="0.68739">
        <ele>136</ele>
        <time>2015-11-29T09:20:09Z</time>
      </trkpt>
      <trkpt lat="44.52447" lon="0.68739">
        <ele>136</ele>
        <time>2015-11-29T09:20:12Z</time>
      </trkpt>
      <trkpt lat="44.52447" lon="0.68739">
        <ele>136</ele>
        <time>2015-11-29T09:20:15Z</time>
      </trkpt>
      <trkpt lat="44.52447" lon="0.68739">
        <ele>136</ele>
        <time>2015-11-29T09:20:19Z</time>
      </trkpt>
      <trkpt lat="44.52447" lon="0.68739">
        <ele>136</ele>
        <time>2015-11-29T09:20:21Z</time>
      </trkpt>
      <trkpt lat="44.52447" lon="0.68739">
        <ele>136</ele>
        <time>2015-11-29T09:20:24Z</time>
      </trkpt>
      <trkpt lat="44.52447" lon="0.68739">
        <ele>136</ele>
        <time>2015-11-29T09:20:27Z</time>
      </trkpt>
      <trkpt lat="44.52447" lon="0.68739">
        <ele>136</ele>
        <time>2015-11-29T09:20:30Z</time>
      </trkpt>
      <trkpt lat="44.52447" lon="0.68739">
        <ele>136</ele>
        <time>2015-11-29T09:20:33Z</time>
      </trkpt>
      <trkpt lat="44.52447" lon="0.68739">
        <ele>136</ele>
        <time>2015-11-29T09:20:36Z</time>
      </trkpt>
      <trkpt lat="44.52447" lon="0.68739">
        <ele>136</ele>
        <time>2015-11-29T09:20:39Z</time>
      </trkpt>
      <trkpt lat="44.52447" lon="0.68739">
        <ele>136</ele>
        <time>2015-11-29T09:20:42Z</time>
      </trkpt>
      <trkpt lat="44.52446" lon="0.68738">
        <ele>135</ele>
        <time>2015-11-29T09:20:46Z</time>
      </trkpt>
      <trkpt lat="44.52446" lon="0.68738">
        <ele>135</ele>
        <time>2015-11-29T09:20:48Z</time>
      </trkpt>
      <trkpt lat="44.52446" lon="0.68737">
        <ele>135</ele>
        <time>2015-11-29T09:20:51Z</time>
      </trkpt>
      <trkpt lat="44.52445" lon="0.68737">
        <ele>135</ele>
        <time>2015-11-29T09:20:54Z</time>
      </trkpt>
      <trkpt lat="44.52445" lon="0.68737">
        <ele>135</ele>
        <time>2015-11-29T09:20:57Z</time>
      </trkpt>
      <trkpt lat="44.52445" lon="0.68737">
        <ele>135</ele>
        <time>2015-11-29T09:21:00Z</time>
      </trkpt>
      <trkpt lat="44.52445" lon="0.68737">
        <ele>135</ele>
        <time>2015-11-29T09:21:03Z</time>
      </trkpt>
      <trkpt lat="44.52445" lon="0.68737">
        <ele>135</ele>
        <time>2015-11-29T09:21:06Z</time>
      </trkpt>
      <trkpt lat="44.52445" lon="0.68737">
        <ele>135</ele>
        <time>2015-11-29T09:21:09Z</time>
      </trkpt>
      <trkpt lat="44.52445" lon="0.68737">
        <ele>135</ele>
        <time>2015-11-29T09:21:12Z</time>
      </trkpt>
      <trkpt lat="44.52445" lon="0.68737">
        <ele>135</ele>
        <time>2015-11-29T09:21:15Z</time>
      </trkpt>
      <trkpt lat="44.52445" lon="0.68737">
        <ele>135</ele>
        <time>2015-11-29T09:21:18Z</time>
      </trkpt>
      <trkpt lat="44.52445" lon="0.68737">
        <ele>135</ele>
        <time>2015-11-29T09:21:21Z</time>
      </trkpt>
      <trkpt lat="44.52445" lon="0.68737">
        <ele>135</ele>
        <time>2015-11-29T09:21:24Z</time>
      </trkpt>
      <trkpt lat="44.52445" lon="0.68737">
        <ele>135</ele>
        <time>2015-11-29T09:21:27Z</time>
      </trkpt>
      <trkpt lat="44.52445" lon="0.68737">
        <ele>135</ele>
        <time>2015-11-29T09:21:30Z</time>
      </trkpt>
      <trkpt lat="44.52445" lon="0.68737">
        <ele>135</ele>
        <time>2015-11-29T09:21:33Z</time>
      </trkpt>
      <trkpt lat="44.52445" lon="0.68737">
        <ele>135</ele>
        <time>2015-11-29T09:21:36Z</time>
      </trkpt>
      <trkpt lat="44.52445" lon="0.68737">
        <ele>135</ele>
        <time>2015-11-29T09:21:39Z</time>
      </trkpt>
      <trkpt lat="44.52445" lon="0.68737">
        <ele>135</ele>
        <time>2015-11-29T09:21:42Z</time>
      </trkpt>
      <trkpt lat="44.52445" lon="0.68737">
        <ele>135</ele>
        <time>2015-11-29T09:21:45Z</time>
      </trkpt>
      <trkpt lat="44.52445" lon="0.68737">
        <ele>135</ele>
        <time>2015-11-29T09:21:48Z</time>
      </trkpt>
      <trkpt lat="44.52445" lon="0.68737">
        <ele>135</ele>
        <time>2015-11-29T09:21:51Z</time>
      </trkpt>
      <trkpt lat="44.52445" lon="0.68737">
        <ele>135</ele>
        <time>2015-11-29T09:21:54Z</time>
      </trkpt>
      <trkpt lat="44.52445" lon="0.68737">
        <ele>135</ele>
        <time>2015-11-29T09:21:57Z</time>
      </trkpt>
      <trkpt lat="44.52445" lon="0.68737">
        <ele>135</ele>
        <time>2015-11-29T09:22:00Z</time>
      </trkpt>
      <trkpt lat="44.52445" lon="0.68737">
        <ele>135</ele>
        <time>2015-11-29T09:22:03Z</time>
      </trkpt>
      <trkpt lat="44.52445" lon="0.68737">
        <ele>135</ele>
        <time>2015-11-29T09:22:06Z</time>
      </trkpt>
      <trkpt lat="44.52445" lon="0.68737">
        <ele>135</ele>
        <time>2015-11-29T09:22:09Z</time>
      </trkpt>
      <trkpt lat="44.52445" lon="0.68737">
        <ele>135</ele>
        <time>2015-11-29T09:22:12Z</time>
      </trkpt>
      <trkpt lat="44.52445" lon="0.68737">
        <ele>135</ele>
        <time>2015-11-29T09:22:15Z</time>
      </trkpt>
      <trkpt lat="44.52445" lon="0.68737">
        <ele>135</ele>
        <time>2015-11-29T09:22:18Z</time>
      </trkpt>
      <trkpt lat="44.52445" lon="0.68737">
        <ele>135</ele>
        <time>2015-11-29T09:22:21Z</time>
      </trkpt>
      <trkpt lat="44.52445" lon="0.68737">
        <ele>135</ele>
        <time>2015-11-29T09:22:24Z</time>
      </trkpt>
      <trkpt lat="44.52445" lon="0.68737">
        <ele>135</ele>
        <time>2015-11-29T09:22:27Z</time>
      </trkpt>
      <trkpt lat="44.52445" lon="0.68737">
        <ele>135</ele>
        <time>2015-11-29T09:22:30Z</time>
      </trkpt>
      <trkpt lat="44.52443" lon="0.68741">
        <ele>135</ele>
        <time>2015-11-29T09:22:33Z</time>
      </trkpt>
      <trkpt lat="44.52441" lon="0.68764">
        <ele>133</ele>
        <time>2015-11-29T09:22:38Z</time>
      </trkpt>
      <trkpt lat="44.52438" lon="0.68786">
        <ele>132</ele>
        <time>2015-11-29T09:22:43Z</time>
      </trkpt>
      <trkpt lat="44.52435" lon="0.68811">
        <ele>132</ele>
        <time>2015-11-29T09:22:48Z</time>
      </trkpt>
      <trkpt lat="44.52432" lon="0.68834">
        <ele>132</ele>
        <time>2015-11-29T09:22:53Z</time>
      </trkpt>
      <trkpt lat="44.5243" lon="0.68856">
        <ele>133</ele>
        <time>2015-11-29T09:22:58Z</time>
      </trkpt>
      <trkpt lat="44.52436" lon="0.68879">
        <ele>133</ele>
        <time>2015-11-29T09:23:03Z</time>
      </trkpt>
      <trkpt lat="44.52447" lon="0.68896">
        <ele>133</ele>
        <time>2015-11-29T09:23:08Z</time>
      </trkpt>
      <trkpt lat="44.52458" lon="0.68912">
        <ele>133</ele>
        <time>2015-11-29T09:23:13Z</time>
      </trkpt>
      <trkpt lat="44.52467" lon="0.6893">
        <ele>131</ele>
        <time>2015-11-29T09:23:18Z</time>
      </trkpt>
      <trkpt lat="44.52469" lon="0.6894">
        <ele>133</ele>
        <time>2015-11-29T09:23:23Z</time>
      </trkpt>
      <trkpt lat="44.52475" lon="0.68956">
        <ele>132</ele>
        <time>2015-11-29T09:23:28Z</time>
      </trkpt>
      <trkpt lat="44.52481" lon="0.68974">
        <ele>131</ele>
        <time>2015-11-29T09:23:33Z</time>
      </trkpt>
      <trkpt lat="44.52484" lon="0.69002">
        <ele>129</ele>
        <time>2015-11-29T09:23:38Z</time>
      </trkpt>
      <trkpt lat="44.52494" lon="0.69044">
        <ele>125</ele>
        <time>2015-11-29T09:23:43Z</time>
      </trkpt>
      <trkpt lat="44.52514" lon="0.69099">
        <ele>120</ele>
        <time>2015-11-29T09:23:48Z</time>
      </trkpt>
      <trkpt lat="44.5254" lon="0.69155">
        <ele>117</ele>
        <time>2015-11-29T09:23:53Z</time>
      </trkpt>
      <trkpt lat="44.52569" lon="0.69204">
        <ele>115</ele>
        <time>2015-11-29T09:23:58Z</time>
      </trkpt>
      <trkpt lat="44.5259" lon="0.69247">
        <ele>113</ele>
        <time>2015-11-29T09:24:03Z</time>
      </trkpt>
      <trkpt lat="44.52608" lon="0.69272">
        <ele>114</ele>
        <time>2015-11-29T09:24:08Z</time>
      </trkpt>
      <trkpt lat="44.5262" lon="0.69305">
        <ele>117</ele>
        <time>2015-11-29T09:24:13Z</time>
      </trkpt>
      <trkpt lat="44.52629" lon="0.69336">
        <ele>120</ele>
        <time>2015-11-29T09:24:18Z</time>
      </trkpt>
      <trkpt lat="44.52634" lon="0.69355">
        <ele>124</ele>
        <time>2015-11-29T09:24:23Z</time>
      </trkpt>
      <trkpt lat="44.52638" lon="0.69368">
        <ele>126</ele>
        <time>2015-11-29T09:24:28Z</time>
      </trkpt>
      <trkpt lat="44.52639" lon="0.6938">
        <ele>127</ele>
        <time>2015-11-29T09:24:33Z</time>
      </trkpt>
      <trkpt lat="44.52641" lon="0.69387">
        <ele>129</ele>
        <time>2015-11-29T09:24:38Z</time>
      </trkpt>
      <trkpt lat="44.52645" lon="0.69391">
        <ele>129</ele>
        <time>2015-11-29T09:24:43Z</time>
      </trkpt>
      <trkpt lat="44.52646" lon="0.69392">
        <ele>128</ele>
        <time>2015-11-29T09:24:48Z</time>
      </trkpt>
      <trkpt lat="44.52647" lon="0.69397">
        <ele>127</ele>
        <time>2015-11-29T09:24:51Z</time>
      </trkpt>
      <trkpt lat="44.52649" lon="0.69397">
        <ele>126</ele>
        <time>2015-11-29T09:24:56Z</time>
      </trkpt>
      <trkpt lat="44.52649" lon="0.69396">
        <ele>126</ele>
        <time>2015-11-29T09:24:59Z</time>
      </trkpt>
      <trkpt lat="44.52649" lon="0.69396">
        <ele>126</ele>
        <time>2015-11-29T09:25:04Z</time>
      </trkpt>
      <trkpt lat="44.52649" lon="0.69396">
        <ele>126</ele>
        <time>2015-11-29T09:25:05Z</time>
      </trkpt>
      <trkpt lat="44.52649" lon="0.69396">
        <ele>127</ele>
        <time>2015-11-29T09:25:08Z</time>
      </trkpt>
      <trkpt lat="44.52648" lon="0.69398">
        <ele>126</ele>
        <time>2015-11-29T09:25:11Z</time>
      </trkpt>
      <trkpt lat="44.52649" lon="0.69406">
        <ele>126</ele>
        <time>2015-11-29T09:25:16Z</time>
      </trkpt>
      <trkpt lat="44.52652" lon="0.69421">
        <ele>127</ele>
        <time>2015-11-29T09:25:21Z</time>
      </trkpt>
      <trkpt lat="44.52659" lon="0.6946">
        <ele>125</ele>
        <time>2015-11-29T09:25:26Z</time>
      </trkpt>
      <trkpt lat="44.52668" lon="0.69513">
        <ele>126</ele>
        <time>2015-11-29T09:25:32Z</time>
      </trkpt>
      <trkpt lat="44.52677" lon="0.69554">
        <ele>125</ele>
        <time>2015-11-29T09:25:36Z</time>
      </trkpt>
      <trkpt lat="44.52693" lon="0.6965">
        <ele>120</ele>
        <time>2015-11-29T09:25:45Z</time>
      </trkpt>
      <trkpt lat="44.52695" lon="0.69666">
        <ele>117</ele>
        <time>2015-11-29T09:25:47Z</time>
      </trkpt>
      <trkpt lat="44.527" lon="0.69708">
        <ele>115</ele>
        <time>2015-11-29T09:25:53Z</time>
      </trkpt>
      <trkpt lat="44.5271" lon="0.69732">
        <ele>111</ele>
        <time>2015-11-29T09:25:57Z</time>
      </trkpt>
      <trkpt lat="44.52717" lon="0.69758">
        <ele>109</ele>
        <time>2015-11-29T09:26:01Z</time>
      </trkpt>
      <trkpt lat="44.52713" lon="0.69774">
        <ele>108</ele>
        <time>2015-11-29T09:26:06Z</time>
      </trkpt>
      <trkpt lat="44.52697" lon="0.69779">
        <ele>108</ele>
        <time>2015-11-29T09:26:11Z</time>
      </trkpt>
      <trkpt lat="44.52682" lon="0.69783">
        <ele>109</ele>
        <time>2015-11-29T09:26:16Z</time>
      </trkpt>
      <trkpt lat="44.52672" lon="0.69792">
        <ele>109</ele>
        <time>2015-11-29T09:26:21Z</time>
      </trkpt>
      <trkpt lat="44.52676" lon="0.69815">
        <ele>109</ele>
        <time>2015-11-29T09:26:26Z</time>
      </trkpt>
      <trkpt lat="44.52678" lon="0.69837">
        <ele>109</ele>
        <time>2015-11-29T09:26:31Z</time>
      </trkpt>
      <trkpt lat="44.52682" lon="0.69858">
        <ele>108</ele>
        <time>2015-11-29T09:26:36Z</time>
      </trkpt>
      <trkpt lat="44.52687" lon="0.69879">
        <ele>107</ele>
        <time>2015-11-29T09:26:41Z</time>
      </trkpt>
      <trkpt lat="44.52695" lon="0.699">
        <ele>107</ele>
        <time>2015-11-29T09:26:46Z</time>
      </trkpt>
      <trkpt lat="44.52701" lon="0.69923">
        <ele>107</ele>
        <time>2015-11-29T09:26:51Z</time>
      </trkpt>
      <trkpt lat="44.52704" lon="0.69948">
        <ele>108</ele>
        <time>2015-11-29T09:26:56Z</time>
      </trkpt>
      <trkpt lat="44.52703" lon="0.69973">
        <ele>109</ele>
        <time>2015-11-29T09:27:01Z</time>
      </trkpt>
      <trkpt lat="44.52701" lon="0.69998">
        <ele>109</ele>
        <time>2015-11-29T09:27:06Z</time>
      </trkpt>
      <trkpt lat="44.52699" lon="0.70021">
        <ele>109</ele>
        <time>2015-11-29T09:27:11Z</time>
      </trkpt>
      <trkpt lat="44.52697" lon="0.70043">
        <ele>111</ele>
        <time>2015-11-29T09:27:16Z</time>
      </trkpt>
      <trkpt lat="44.52694" lon="0.70066">
        <ele>112</ele>
        <time>2015-11-29T09:27:21Z</time>
      </trkpt>
      <trkpt lat="44.52692" lon="0.7009">
        <ele>112</ele>
        <time>2015-11-29T09:27:26Z</time>
      </trkpt>
      <trkpt lat="44.52689" lon="0.70114">
        <ele>114</ele>
        <time>2015-11-29T09:27:31Z</time>
      </trkpt>
      <trkpt lat="44.52687" lon="0.70136">
        <ele>115</ele>
        <time>2015-11-29T09:27:36Z</time>
      </trkpt>
      <trkpt lat="44.52686" lon="0.70152">
        <ele>117</ele>
        <time>2015-11-29T09:27:41Z</time>
      </trkpt>
      <trkpt lat="44.52687" lon="0.70166">
        <ele>117</ele>
        <time>2015-11-29T09:27:46Z</time>
      </trkpt>
      <trkpt lat="44.52694" lon="0.70179">
        <ele>119</ele>
        <time>2015-11-29T09:27:51Z</time>
      </trkpt>
      <trkpt lat="44.52703" lon="0.70191">
        <ele>121</ele>
        <time>2015-11-29T09:27:56Z</time>
      </trkpt>
      <trkpt lat="44.52709" lon="0.70207">
        <ele>123</ele>
        <time>2015-11-29T09:28:01Z</time>
      </trkpt>
      <trkpt lat="44.52714" lon="0.70221">
        <ele>125</ele>
        <time>2015-11-29T09:28:06Z</time>
      </trkpt>
      <trkpt lat="44.52704" lon="0.70226">
        <ele>125</ele>
        <time>2015-11-29T09:28:11Z</time>
      </trkpt>
      <trkpt lat="44.52693" lon="0.7023">
        <ele>125</ele>
        <time>2015-11-29T09:28:16Z</time>
      </trkpt>
      <trkpt lat="44.52671" lon="0.70234">
        <ele>124</ele>
        <time>2015-11-29T09:28:24Z</time>
      </trkpt>
      <trkpt lat="44.52666" lon="0.70236">
        <ele>124</ele>
        <time>2015-11-29T09:28:26Z</time>
      </trkpt>
      <trkpt lat="44.52655" lon="0.70237">
        <ele>124</ele>
        <time>2015-11-29T09:28:31Z</time>
      </trkpt>
      <trkpt lat="44.52642" lon="0.70239">
        <ele>124</ele>
        <time>2015-11-29T09:28:36Z</time>
      </trkpt>
      <trkpt lat="44.52629" lon="0.70241">
        <ele>125</ele>
        <time>2015-11-29T09:28:41Z</time>
      </trkpt>
      <trkpt lat="44.52615" lon="0.70244">
        <ele>126</ele>
        <time>2015-11-29T09:28:46Z</time>
      </trkpt>
      <trkpt lat="44.52602" lon="0.70247">
        <ele>125</ele>
        <time>2015-11-29T09:28:51Z</time>
      </trkpt>
      <trkpt lat="44.52588" lon="0.70246">
        <ele>125</ele>
        <time>2015-11-29T09:28:56Z</time>
      </trkpt>
      <trkpt lat="44.52575" lon="0.70246">
        <ele>125</ele>
        <time>2015-11-29T09:29:01Z</time>
      </trkpt>
      <trkpt lat="44.52561" lon="0.70246">
        <ele>127</ele>
        <time>2015-11-29T09:29:06Z</time>
      </trkpt>
      <trkpt lat="44.52547" lon="0.70244">
        <ele>128</ele>
        <time>2015-11-29T09:29:11Z</time>
      </trkpt>
      <trkpt lat="44.52533" lon="0.70242">
        <ele>130</ele>
        <time>2015-11-29T09:29:16Z</time>
      </trkpt>
      <trkpt lat="44.5252" lon="0.70238">
        <ele>132</ele>
        <time>2015-11-29T09:29:21Z</time>
      </trkpt>
      <trkpt lat="44.52508" lon="0.70233">
        <ele>135</ele>
        <time>2015-11-29T09:29:26Z</time>
      </trkpt>
      <trkpt lat="44.52491" lon="0.70229">
        <ele>134</ele>
        <time>2015-11-29T09:29:31Z</time>
      </trkpt>
      <trkpt lat="44.52476" lon="0.70228">
        <ele>137</ele>
        <time>2015-11-29T09:29:36Z</time>
      </trkpt>
      <trkpt lat="44.52454" lon="0.70227">
        <ele>134</ele>
        <time>2015-11-29T09:29:44Z</time>
      </trkpt>
      <trkpt lat="44.5245" lon="0.70226">
        <ele>133</ele>
        <time>2015-11-29T09:29:46Z</time>
      </trkpt>
      <trkpt lat="44.52439" lon="0.70232">
        <ele>131</ele>
        <time>2015-11-29T09:29:51Z</time>
      </trkpt>
      <trkpt lat="44.52426" lon="0.70237">
        <ele>128</ele>
        <time>2015-11-29T09:29:56Z</time>
      </trkpt>
      <trkpt lat="44.52404" lon="0.70245">
        <ele>128</ele>
        <time>2015-11-29T09:30:04Z</time>
      </trkpt>
      <trkpt lat="44.52395" lon="0.70243">
        <ele>130</ele>
        <time>2015-11-29T09:30:08Z</time>
      </trkpt>
      <trkpt lat="44.52378" lon="0.70242">
        <ele>132</ele>
        <time>2015-11-29T09:30:15Z</time>
      </trkpt>
      <trkpt lat="44.52376" lon="0.70241">
        <ele>133</ele>
        <time>2015-11-29T09:30:16Z</time>
      </trkpt>
      <trkpt lat="44.52365" lon="0.70237">
        <ele>135</ele>
        <time>2015-11-29T09:30:21Z</time>
      </trkpt>
      <trkpt lat="44.52353" lon="0.70239">
        <ele>134</ele>
        <time>2015-11-29T09:30:26Z</time>
      </trkpt>
      <trkpt lat="44.52342" lon="0.70237">
        <ele>136</ele>
        <time>2015-11-29T09:30:31Z</time>
      </trkpt>
      <trkpt lat="44.52331" lon="0.70243">
        <ele>136</ele>
        <time>2015-11-29T09:30:36Z</time>
      </trkpt>
      <trkpt lat="44.5232" lon="0.70247">
        <ele>138</ele>
        <time>2015-11-29T09:30:41Z</time>
      </trkpt>
      <trkpt lat="44.52312" lon="0.70248">
        <ele>141</ele>
        <time>2015-11-29T09:30:46Z</time>
      </trkpt>
      <trkpt lat="44.52299" lon="0.70251">
        <ele>144</ele>
        <time>2015-11-29T09:30:55Z</time>
      </trkpt>
      <trkpt lat="44.52298" lon="0.70252">
        <ele>144</ele>
        <time>2015-11-29T09:30:56Z</time>
      </trkpt>
      <trkpt lat="44.52287" lon="0.70255">
        <ele>144</ele>
        <time>2015-11-29T09:31:01Z</time>
      </trkpt>
      <trkpt lat="44.52272" lon="0.70273">
        <ele>141</ele>
        <time>2015-11-29T09:31:06Z</time>
      </trkpt>
      <trkpt lat="44.52261" lon="0.70279">
        <ele>142</ele>
        <time>2015-11-29T09:31:11Z</time>
      </trkpt>
      <trkpt lat="44.52249" lon="0.70284">
        <ele>143</ele>
        <time>2015-11-29T09:31:16Z</time>
      </trkpt>
      <trkpt lat="44.52236" lon="0.70289">
        <ele>143</ele>
        <time>2015-11-29T09:31:21Z</time>
      </trkpt>
      <trkpt lat="44.52224" lon="0.70296">
        <ele>142</ele>
        <time>2015-11-29T09:31:26Z</time>
      </trkpt>
      <trkpt lat="44.52212" lon="0.703">
        <ele>144</ele>
        <time>2015-11-29T09:31:31Z</time>
      </trkpt>
      <trkpt lat="44.52199" lon="0.70306">
        <ele>146</ele>
        <time>2015-11-29T09:31:37Z</time>
      </trkpt>
      <trkpt lat="44.52189" lon="0.70311">
        <ele>147</ele>
        <time>2015-11-29T09:31:42Z</time>
      </trkpt>
      <trkpt lat="44.52184" lon="0.70314">
        <ele>148</ele>
        <time>2015-11-29T09:31:46Z</time>
      </trkpt>
      <trkpt lat="44.52178" lon="0.70315">
        <ele>147</ele>
        <time>2015-11-29T09:31:51Z</time>
      </trkpt>
      <trkpt lat="44.52173" lon="0.70316">
        <ele>147</ele>
        <time>2015-11-29T09:31:55Z</time>
      </trkpt>
      <trkpt lat="44.52165" lon="0.70318">
        <ele>149</ele>
        <time>2015-11-29T09:32:00Z</time>
      </trkpt>
      <trkpt lat="44.52159" lon="0.70323">
        <ele>151</ele>
        <time>2015-11-29T09:32:04Z</time>
      </trkpt>
      <trkpt lat="44.5215" lon="0.70325">
        <ele>150</ele>
        <time>2015-11-29T09:32:09Z</time>
      </trkpt>
      <trkpt lat="44.52145" lon="0.70327">
        <ele>149</ele>
        <time>2015-11-29T09:32:13Z</time>
      </trkpt>
      <trkpt lat="44.52142" lon="0.70329">
        <ele>148</ele>
        <time>2015-11-29T09:32:17Z</time>
      </trkpt>
      <trkpt lat="44.52138" lon="0.70329">
        <ele>149</ele>
        <time>2015-11-29T09:32:22Z</time>
      </trkpt>
      <trkpt lat="44.52129" lon="0.70329">
        <ele>149</ele>
        <time>2015-11-29T09:32:31Z</time>
      </trkpt>
      <trkpt lat="44.52125" lon="0.70328">
        <ele>150</ele>
        <time>2015-11-29T09:32:35Z</time>
      </trkpt>
      <trkpt lat="44.52121" lon="0.70328">
        <ele>150</ele>
        <time>2015-11-29T09:32:39Z</time>
      </trkpt>
      <trkpt lat="44.52114" lon="0.70328">
        <ele>150</ele>
        <time>2015-11-29T09:32:45Z</time>
      </trkpt>
      <trkpt lat="44.52112" lon="0.70327">
        <ele>151</ele>
        <time>2015-11-29T09:32:47Z</time>
      </trkpt>
      <trkpt lat="44.52106" lon="0.70327">
        <ele>151</ele>
        <time>2015-11-29T09:32:52Z</time>
      </trkpt>
      <trkpt lat="44.52099" lon="0.70326">
        <ele>152</ele>
        <time>2015-11-29T09:32:57Z</time>
      </trkpt>
      <trkpt lat="44.52095" lon="0.70326">
        <ele>152</ele>
        <time>2015-11-29T09:33:02Z</time>
      </trkpt>
      <trkpt lat="44.5209" lon="0.70325">
        <ele>152</ele>
        <time>2015-11-29T09:33:07Z</time>
      </trkpt>
      <trkpt lat="44.52085" lon="0.70324">
        <ele>153</ele>
        <time>2015-11-29T09:33:12Z</time>
      </trkpt>
      <trkpt lat="44.5208" lon="0.70323">
        <ele>155</ele>
        <time>2015-11-29T09:33:17Z</time>
      </trkpt>
      <trkpt lat="44.52075" lon="0.70321">
        <ele>155</ele>
        <time>2015-11-29T09:33:22Z</time>
      </trkpt>
      <trkpt lat="44.5207" lon="0.70321">
        <ele>157</ele>
        <time>2015-11-29T09:33:27Z</time>
      </trkpt>
      <trkpt lat="44.52063" lon="0.70321">
        <ele>156</ele>
        <time>2015-11-29T09:33:33Z</time>
      </trkpt>
      <trkpt lat="44.52059" lon="0.7032">
        <ele>156</ele>
        <time>2015-11-29T09:33:37Z</time>
      </trkpt>
      <trkpt lat="44.52048" lon="0.70319">
        <ele>158</ele>
        <time>2015-11-29T09:33:46Z</time>
      </trkpt>
      <trkpt lat="44.52047" lon="0.7032">
        <ele>159</ele>
        <time>2015-11-29T09:33:47Z</time>
      </trkpt>
      <trkpt lat="44.52042" lon="0.70318">
        <ele>159</ele>
        <time>2015-11-29T09:33:52Z</time>
      </trkpt>
      <trkpt lat="44.52037" lon="0.70317">
        <ele>160</ele>
        <time>2015-11-29T09:33:57Z</time>
      </trkpt>
      <trkpt lat="44.52026" lon="0.70317">
        <ele>161</ele>
        <time>2015-11-29T09:34:05Z</time>
      </trkpt>
      <trkpt lat="44.52024" lon="0.70318">
        <ele>161</ele>
        <time>2015-11-29T09:34:07Z</time>
      </trkpt>
      <trkpt lat="44.52018" lon="0.70317">
        <ele>161</ele>
        <time>2015-11-29T09:34:12Z</time>
      </trkpt>
      <trkpt lat="44.52012" lon="0.70317">
        <ele>162</ele>
        <time>2015-11-29T09:34:17Z</time>
      </trkpt>
      <trkpt lat="44.52008" lon="0.70317">
        <ele>164</ele>
        <time>2015-11-29T09:34:23Z</time>
      </trkpt>
      <trkpt lat="44.52005" lon="0.70316">
        <ele>165</ele>
        <time>2015-11-29T09:34:27Z</time>
      </trkpt>
      <trkpt lat="44.52" lon="0.70315">
        <ele>164</ele>
        <time>2015-11-29T09:34:32Z</time>
      </trkpt>
      <trkpt lat="44.51994" lon="0.70316">
        <ele>166</ele>
        <time>2015-11-29T09:34:37Z</time>
      </trkpt>
      <trkpt lat="44.51988" lon="0.70318">
        <ele>165</ele>
        <time>2015-11-29T09:34:43Z</time>
      </trkpt>
      <trkpt lat="44.51984" lon="0.70318">
        <ele>165</ele>
        <time>2015-11-29T09:34:47Z</time>
      </trkpt>
      <trkpt lat="44.51979" lon="0.7032">
        <ele>166</ele>
        <time>2015-11-29T09:34:52Z</time>
      </trkpt>
      <trkpt lat="44.51978" lon="0.70321">
        <ele>165</ele>
        <time>2015-11-29T09:34:57Z</time>
      </trkpt>
      <trkpt lat="44.51979" lon="0.70321">
        <ele>165</ele>
        <time>2015-11-29T09:35:00Z</time>
      </trkpt>
      <trkpt lat="44.51979" lon="0.70321">
        <ele>165</ele>
        <time>2015-11-29T09:35:03Z</time>
      </trkpt>
      <trkpt lat="44.51979" lon="0.70321">
        <ele>165</ele>
        <time>2015-11-29T09:35:06Z</time>
      </trkpt>
      <trkpt lat="44.51979" lon="0.70321">
        <ele>165</ele>
        <time>2015-11-29T09:35:09Z</time>
      </trkpt>
      <trkpt lat="44.51979" lon="0.70321">
        <ele>165</ele>
        <time>2015-11-29T09:35:12Z</time>
      </trkpt>
      <trkpt lat="44.51978" lon="0.70321">
        <ele>165</ele>
        <time>2015-11-29T09:35:15Z</time>
      </trkpt>
      <trkpt lat="44.51978" lon="0.7032">
        <ele>166</ele>
        <time>2015-11-29T09:35:18Z</time>
      </trkpt>
      <trkpt lat="44.51978" lon="0.7032">
        <ele>165</ele>
        <time>2015-11-29T09:35:21Z</time>
      </trkpt>
      <trkpt lat="44.51978" lon="0.7032">
        <ele>166</ele>
        <time>2015-11-29T09:35:24Z</time>
      </trkpt>
      <trkpt lat="44.51978" lon="0.70319">
        <ele>166</ele>
        <time>2015-11-29T09:35:27Z</time>
      </trkpt>
      <trkpt lat="44.51978" lon="0.70319">
        <ele>166</ele>
        <time>2015-11-29T09:35:30Z</time>
      </trkpt>
      <trkpt lat="44.51978" lon="0.70319">
        <ele>166</ele>
        <time>2015-11-29T09:35:33Z</time>
      </trkpt>
      <trkpt lat="44.51978" lon="0.70319">
        <ele>166</ele>
        <time>2015-11-29T09:35:35Z</time>
      </trkpt>
      <trkpt lat="44.51978" lon="0.70319">
        <ele>166</ele>
        <time>2015-11-29T09:35:38Z</time>
      </trkpt>
      <trkpt lat="44.51978" lon="0.70319">
        <ele>166</ele>
        <time>2015-11-29T09:35:40Z</time>
      </trkpt>
      <trkpt lat="44.51978" lon="0.70319">
        <ele>166</ele>
        <time>2015-11-29T09:35:43Z</time>
      </trkpt>
      <trkpt lat="44.51978" lon="0.70319">
        <ele>166</ele>
        <time>2015-11-29T09:35:47Z</time>
      </trkpt>
      <trkpt lat="44.51978" lon="0.70319">
        <ele>166</ele>
        <time>2015-11-29T09:35:48Z</time>
      </trkpt>
      <trkpt lat="44.51977" lon="0.70319">
        <ele>166</ele>
        <time>2015-11-29T09:35:50Z</time>
      </trkpt>
      <trkpt lat="44.51977" lon="0.70319">
        <ele>166</ele>
        <time>2015-11-29T09:35:53Z</time>
      </trkpt>
      <trkpt lat="44.51977" lon="0.70319">
        <ele>166</ele>
        <time>2015-11-29T09:35:56Z</time>
      </trkpt>
      <trkpt lat="44.51973" lon="0.70323">
        <ele>165</ele>
        <time>2015-11-29T09:35:59Z</time>
      </trkpt>
      <trkpt lat="44.51969" lon="0.7033">
        <ele>167</ele>
        <time>2015-11-29T09:36:03Z</time>
      </trkpt>
      <trkpt lat="44.51958" lon="0.7034">
        <ele>162</ele>
        <time>2015-11-29T09:36:08Z</time>
      </trkpt>
      <trkpt lat="44.51955" lon="0.70355">
        <ele>164</ele>
        <time>2015-11-29T09:36:12Z</time>
      </trkpt>
      <trkpt lat="44.51948" lon="0.70375">
        <ele>163</ele>
        <time>2015-11-29T09:36:19Z</time>
      </trkpt>
      <trkpt lat="44.51947" lon="0.70383">
        <ele>163</ele>
        <time>2015-11-29T09:36:21Z</time>
      </trkpt>
      <trkpt lat="44.51946" lon="0.70392">
        <ele>161</ele>
        <time>2015-11-29T09:36:26Z</time>
      </trkpt>
      <trkpt lat="44.51942" lon="0.70396">
        <ele>164</ele>
        <time>2015-11-29T09:36:31Z</time>
      </trkpt>
      <trkpt lat="44.51939" lon="0.70395">
        <ele>167</ele>
        <time>2015-11-29T09:36:40Z</time>
      </trkpt>
      <trkpt lat="44.51939" lon="0.70395">
        <ele>168</ele>
        <time>2015-11-29T09:36:42Z</time>
      </trkpt>
      <trkpt lat="44.51939" lon="0.70395">
        <ele>168</ele>
        <time>2015-11-29T09:36:44Z</time>
      </trkpt>
      <trkpt lat="44.51939" lon="0.70395">
        <ele>168</ele>
        <time>2015-11-29T09:36:47Z</time>
      </trkpt>
      <trkpt lat="44.51939" lon="0.70395">
        <ele>169</ele>
        <time>2015-11-29T09:36:50Z</time>
      </trkpt>
      <trkpt lat="44.51939" lon="0.70395">
        <ele>168</ele>
        <time>2015-11-29T09:36:53Z</time>
      </trkpt>
      <trkpt lat="44.51939" lon="0.70395">
        <ele>169</ele>
        <time>2015-11-29T09:36:56Z</time>
      </trkpt>
      <trkpt lat="44.51939" lon="0.70395">
        <ele>169</ele>
        <time>2015-11-29T09:37:01Z</time>
      </trkpt>
      <trkpt lat="44.5194" lon="0.70395">
        <ele>169</ele>
        <time>2015-11-29T09:37:04Z</time>
      </trkpt>
      <trkpt lat="44.5194" lon="0.70395">
        <ele>169</ele>
        <time>2015-11-29T09:37:05Z</time>
      </trkpt>
      <trkpt lat="44.5194" lon="0.70395">
        <ele>169</ele>
        <time>2015-11-29T09:37:07Z</time>
      </trkpt>
      <trkpt lat="44.5194" lon="0.70395">
        <ele>169</ele>
        <time>2015-11-29T09:37:10Z</time>
      </trkpt>
      <trkpt lat="44.5194" lon="0.70395">
        <ele>169</ele>
        <time>2015-11-29T09:37:13Z</time>
      </trkpt>
      <trkpt lat="44.5194" lon="0.70395">
        <ele>169</ele>
        <time>2015-11-29T09:37:16Z</time>
      </trkpt>
      <trkpt lat="44.5194" lon="0.70395">
        <ele>169</ele>
        <time>2015-11-29T09:37:19Z</time>
      </trkpt>
      <trkpt lat="44.5194" lon="0.70395">
        <ele>169</ele>
        <time>2015-11-29T09:37:22Z</time>
      </trkpt>
      <trkpt lat="44.5194" lon="0.70395">
        <ele>169</ele>
        <time>2015-11-29T09:37:25Z</time>
      </trkpt>
      <trkpt lat="44.5194" lon="0.70395">
        <ele>169</ele>
        <time>2015-11-29T09:37:28Z</time>
      </trkpt>
      <trkpt lat="44.5194" lon="0.70395">
        <ele>169</ele>
        <time>2015-11-29T09:37:33Z</time>
      </trkpt>
      <trkpt lat="44.5194" lon="0.70395">
        <ele>169</ele>
        <time>2015-11-29T09:37:34Z</time>
      </trkpt>
      <trkpt lat="44.5194" lon="0.70395">
        <ele>169</ele>
        <time>2015-11-29T09:37:39Z</time>
      </trkpt>
      <trkpt lat="44.5194" lon="0.70395">
        <ele>169</ele>
        <time>2015-11-29T09:37:40Z</time>
      </trkpt>
      <trkpt lat="44.5194" lon="0.70395">
        <ele>169</ele>
        <time>2015-11-29T09:37:43Z</time>
      </trkpt>
      <trkpt lat="44.5194" lon="0.70395">
        <ele>169</ele>
        <time>2015-11-29T09:37:46Z</time>
      </trkpt>
      <trkpt lat="44.5194" lon="0.70395">
        <ele>169</ele>
        <time>2015-11-29T09:37:49Z</time>
      </trkpt>
      <trkpt lat="44.5194" lon="0.70395">
        <ele>169</ele>
        <time>2015-11-29T09:37:52Z</time>
      </trkpt>
      <trkpt lat="44.5194" lon="0.70395">
        <ele>169</ele>
        <time>2015-11-29T09:37:55Z</time>
      </trkpt>
      <trkpt lat="44.5194" lon="0.70395">
        <ele>169</ele>
        <time>2015-11-29T09:37:58Z</time>
      </trkpt>
      <trkpt lat="44.5194" lon="0.70395">
        <ele>169</ele>
        <time>2015-11-29T09:38:01Z</time>
      </trkpt>
      <trkpt lat="44.5194" lon="0.70395">
        <ele>169</ele>
        <time>2015-11-29T09:38:05Z</time>
      </trkpt>
      <trkpt lat="44.5194" lon="0.70395">
        <ele>169</ele>
        <time>2015-11-29T09:38:07Z</time>
      </trkpt>
      <trkpt lat="44.5194" lon="0.70395">
        <ele>169</ele>
        <time>2015-11-29T09:38:10Z</time>
      </trkpt>
      <trkpt lat="44.5194" lon="0.70395">
        <ele>169</ele>
        <time>2015-11-29T09:38:13Z</time>
      </trkpt>
      <trkpt lat="44.51939" lon="0.70395">
        <ele>169</ele>
        <time>2015-11-29T09:38:16Z</time>
      </trkpt>
      <trkpt lat="44.51939" lon="0.70395">
        <ele>169</ele>
        <time>2015-11-29T09:38:19Z</time>
      </trkpt>
      <trkpt lat="44.51939" lon="0.70395">
        <ele>169</ele>
        <time>2015-11-29T09:38:22Z</time>
      </trkpt>
      <trkpt lat="44.51939" lon="0.70395">
        <ele>169</ele>
        <time>2015-11-29T09:38:25Z</time>
      </trkpt>
      <trkpt lat="44.51943" lon="0.704">
        <ele>168</ele>
        <time>2015-11-29T09:38:32Z</time>
      </trkpt>
      <trkpt lat="44.51945" lon="0.70402">
        <ele>169</ele>
        <time>2015-11-29T09:38:35Z</time>
      </trkpt>
      <trkpt lat="44.51947" lon="0.704">
        <ele>169</ele>
        <time>2015-11-29T09:38:38Z</time>
      </trkpt>
      <trkpt lat="44.51952" lon="0.70383">
        <ele>167</ele>
        <time>2015-11-29T09:38:43Z</time>
      </trkpt>
      <trkpt lat="44.51963" lon="0.70357">
        <ele>168</ele>
        <time>2015-11-29T09:38:52Z</time>
      </trkpt>
      <trkpt lat="44.51965" lon="0.70354">
        <ele>168</ele>
        <time>2015-11-29T09:38:53Z</time>
      </trkpt>
      <trkpt lat="44.51971" lon="0.70338">
        <ele>163</ele>
        <time>2015-11-29T09:38:58Z</time>
      </trkpt>
      <trkpt lat="44.51965" lon="0.70323">
        <ele>165</ele>
        <time>2015-11-29T09:39:03Z</time>
      </trkpt>
      <trkpt lat="44.51952" lon="0.703">
        <ele>168</ele>
        <time>2015-11-29T09:39:10Z</time>
      </trkpt>
      <trkpt lat="44.51943" lon="0.70294">
        <ele>166</ele>
        <time>2015-11-29T09:39:13Z</time>
      </trkpt>
      <trkpt lat="44.51936" lon="0.70278">
        <ele>169</ele>
        <time>2015-11-29T09:39:19Z</time>
      </trkpt>
      <trkpt lat="44.5193" lon="0.70257">
        <ele>171</ele>
        <time>2015-11-29T09:39:26Z</time>
      </trkpt>
      <trkpt lat="44.51927" lon="0.70249">
        <ele>171</ele>
        <time>2015-11-29T09:39:30Z</time>
      </trkpt>
      <trkpt lat="44.51925" lon="0.7024">
        <ele>171</ele>
        <time>2015-11-29T09:39:34Z</time>
      </trkpt>
      <trkpt lat="44.51925" lon="0.7023">
        <ele>174</ele>
        <time>2015-11-29T09:39:38Z</time>
      </trkpt>
      <trkpt lat="44.51926" lon="0.70218">
        <ele>178</ele>
        <time>2015-11-29T09:39:43Z</time>
      </trkpt>
      <trkpt lat="44.51921" lon="0.70198">
        <ele>183</ele>
        <time>2015-11-29T09:39:52Z</time>
      </trkpt>
      <trkpt lat="44.5192" lon="0.70199">
        <ele>182</ele>
        <time>2015-11-29T09:39:55Z</time>
      </trkpt>
      <trkpt lat="44.51917" lon="0.70191">
        <ele>183</ele>
        <time>2015-11-29T09:39:58Z</time>
      </trkpt>
      <trkpt lat="44.51913" lon="0.70181">
        <ele>186</ele>
        <time>2015-11-29T09:40:03Z</time>
      </trkpt>
      <trkpt lat="44.51901" lon="0.70169">
        <ele>184</ele>
        <time>2015-11-29T09:40:09Z</time>
      </trkpt>
      <trkpt lat="44.51901" lon="0.70163">
        <ele>189</ele>
        <time>2015-11-29T09:40:14Z</time>
      </trkpt>
      <trkpt lat="44.51898" lon="0.70158">
        <ele>188</ele>
        <time>2015-11-29T09:40:18Z</time>
      </trkpt>
      <trkpt lat="44.51896" lon="0.70157">
        <ele>188</ele>
        <time>2015-11-29T09:40:25Z</time>
      </trkpt>
      <trkpt lat="44.51896" lon="0.70157">
        <ele>188</ele>
        <time>2015-11-29T09:40:26Z</time>
      </trkpt>
      <trkpt lat="44.51893" lon="0.70155">
        <ele>187</ele>
        <time>2015-11-29T09:40:30Z</time>
      </trkpt>
      <trkpt lat="44.51892" lon="0.7015">
        <ele>190</ele>
        <time>2015-11-29T09:40:34Z</time>
      </trkpt>
      <trkpt lat="44.5189" lon="0.70139">
        <ele>192</ele>
        <time>2015-11-29T09:40:39Z</time>
      </trkpt>
      <trkpt lat="44.51884" lon="0.70127">
        <ele>194</ele>
        <time>2015-11-29T09:40:47Z</time>
      </trkpt>
      <trkpt lat="44.51883" lon="0.70124">
        <ele>195</ele>
        <time>2015-11-29T09:40:49Z</time>
      </trkpt>
      <trkpt lat="44.51881" lon="0.70117">
        <ele>197</ele>
        <time>2015-11-29T09:40:54Z</time>
      </trkpt>
      <trkpt lat="44.51866" lon="0.70107">
        <ele>189</ele>
        <time>2015-11-29T09:41:03Z</time>
      </trkpt>
      <trkpt lat="44.51864" lon="0.70107">
        <ele>188</ele>
        <time>2015-11-29T09:41:04Z</time>
      </trkpt>
      <trkpt lat="44.51859" lon="0.70103">
        <ele>187</ele>
        <time>2015-11-29T09:41:09Z</time>
      </trkpt>
      <trkpt lat="44.51856" lon="0.70098">
        <ele>188</ele>
        <time>2015-11-29T09:41:14Z</time>
      </trkpt>
      <trkpt lat="44.51853" lon="0.70095">
        <ele>190</ele>
        <time>2015-11-29T09:41:20Z</time>
      </trkpt>
      <trkpt lat="44.51852" lon="0.70096">
        <ele>188</ele>
        <time>2015-11-29T09:41:24Z</time>
      </trkpt>
      <trkpt lat="44.51851" lon="0.70095">
        <ele>188</ele>
        <time>2015-11-29T09:41:28Z</time>
      </trkpt>
      <trkpt lat="44.51848" lon="0.70097">
        <ele>187</ele>
        <time>2015-11-29T09:41:31Z</time>
      </trkpt>
      <trkpt lat="44.51847" lon="0.70099">
        <ele>187</ele>
        <time>2015-11-29T09:41:36Z</time>
      </trkpt>
      <trkpt lat="44.51847" lon="0.701">
        <ele>186</ele>
        <time>2015-11-29T09:41:40Z</time>
      </trkpt>
      <trkpt lat="44.51846" lon="0.70103">
        <ele>187</ele>
        <time>2015-11-29T09:41:44Z</time>
      </trkpt>
      <trkpt lat="44.51846" lon="0.70107">
        <ele>186</ele>
        <time>2015-11-29T09:41:47Z</time>
      </trkpt>
      <trkpt lat="44.51844" lon="0.70119">
        <ele>187</ele>
        <time>2015-11-29T09:41:52Z</time>
      </trkpt>
      <trkpt lat="44.51842" lon="0.70127">
        <ele>189</ele>
        <time>2015-11-29T09:41:57Z</time>
      </trkpt>
      <trkpt lat="44.51841" lon="0.70134">
        <ele>187</ele>
        <time>2015-11-29T09:42:02Z</time>
      </trkpt>
      <trkpt lat="44.51839" lon="0.7014">
        <ele>190</ele>
        <time>2015-11-29T09:42:06Z</time>
      </trkpt>
      <trkpt lat="44.51838" lon="0.70147">
        <ele>189</ele>
        <time>2015-11-29T09:42:11Z</time>
      </trkpt>
      <trkpt lat="44.51834" lon="0.70153">
        <ele>193</ele>
        <time>2015-11-29T09:42:17Z</time>
      </trkpt>
      <trkpt lat="44.51832" lon="0.70158">
        <ele>197</ele>
        <time>2015-11-29T09:42:20Z</time>
      </trkpt>
      <trkpt lat="44.5183" lon="0.70163">
        <ele>200</ele>
        <time>2015-11-29T09:42:24Z</time>
      </trkpt>
      <trkpt lat="44.5183" lon="0.70169">
        <ele>198</ele>
        <time>2015-11-29T09:42:28Z</time>
      </trkpt>
      <trkpt lat="44.51826" lon="0.70177">
        <ele>197</ele>
        <time>2015-11-29T09:42:33Z</time>
      </trkpt>
      <trkpt lat="44.51825" lon="0.70182">
        <ele>197</ele>
        <time>2015-11-29T09:42:38Z</time>
      </trkpt>
      <trkpt lat="44.5182" lon="0.70192">
        <ele>195</ele>
        <time>2015-11-29T09:42:43Z</time>
      </trkpt>
      <trkpt lat="44.51815" lon="0.70204">
        <ele>201</ele>
        <time>2015-11-29T09:42:50Z</time>
      </trkpt>
      <trkpt lat="44.51811" lon="0.70205">
        <ele>201</ele>
        <time>2015-11-29T09:42:53Z</time>
      </trkpt>
      <trkpt lat="44.51804" lon="0.70217">
        <ele>204</ele>
        <time>2015-11-29T09:42:58Z</time>
      </trkpt>
      <trkpt lat="44.518" lon="0.70229">
        <ele>201</ele>
        <time>2015-11-29T09:43:03Z</time>
      </trkpt>
      <trkpt lat="44.51794" lon="0.70243">
        <ele>201</ele>
        <time>2015-11-29T09:43:10Z</time>
      </trkpt>
      <trkpt lat="44.51789" lon="0.70249">
        <ele>199</ele>
        <time>2015-11-29T09:43:13Z</time>
      </trkpt>
      <trkpt lat="44.51787" lon="0.70258">
        <ele>198</ele>
        <time>2015-11-29T09:43:17Z</time>
      </trkpt>
      <trkpt lat="44.5178" lon="0.70268">
        <ele>206</ele>
        <time>2015-11-29T09:43:26Z</time>
      </trkpt>
      <trkpt lat="44.51779" lon="0.7027">
        <ele>206</ele>
        <time>2015-11-29T09:43:27Z</time>
      </trkpt>
      <trkpt lat="44.51773" lon="0.70276">
        <ele>206</ele>
        <time>2015-11-29T09:43:32Z</time>
      </trkpt>
      <trkpt lat="44.51769" lon="0.70282">
        <ele>209</ele>
        <time>2015-11-29T09:43:36Z</time>
      </trkpt>
      <trkpt lat="44.51761" lon="0.70297">
        <ele>208</ele>
        <time>2015-11-29T09:43:43Z</time>
      </trkpt>
      <trkpt lat="44.51759" lon="0.70299">
        <ele>208</ele>
        <time>2015-11-29T09:43:45Z</time>
      </trkpt>
      <trkpt lat="44.51755" lon="0.70306">
        <ele>206</ele>
        <time>2015-11-29T09:43:48Z</time>
      </trkpt>
      <trkpt lat="44.5175" lon="0.70315">
        <ele>208</ele>
        <time>2015-11-29T09:43:53Z</time>
      </trkpt>
      <trkpt lat="44.51743" lon="0.7033">
        <ele>211</ele>
        <time>2015-11-29T09:43:59Z</time>
      </trkpt>
      <trkpt lat="44.51742" lon="0.70334">
        <ele>212</ele>
        <time>2015-11-29T09:44:02Z</time>
      </trkpt>
      <trkpt lat="44.51741" lon="0.70338">
        <ele>210</ele>
        <time>2015-11-29T09:44:07Z</time>
      </trkpt>
      <trkpt lat="44.5174" lon="0.70339">
        <ele>209</ele>
        <time>2015-11-29T09:44:11Z</time>
      </trkpt>
      <trkpt lat="44.51739" lon="0.70339">
        <ele>209</ele>
        <time>2015-11-29T09:44:14Z</time>
      </trkpt>
      <trkpt lat="44.51739" lon="0.70339">
        <ele>209</ele>
        <time>2015-11-29T09:44:17Z</time>
      </trkpt>
      <trkpt lat="44.51738" lon="0.70338">
        <ele>208</ele>
        <time>2015-11-29T09:44:19Z</time>
      </trkpt>
      <trkpt lat="44.51738" lon="0.70337">
        <ele>207</ele>
        <time>2015-11-29T09:44:23Z</time>
      </trkpt>
      <trkpt lat="44.51738" lon="0.70337">
        <ele>207</ele>
        <time>2015-11-29T09:44:26Z</time>
      </trkpt>
      <trkpt lat="44.51738" lon="0.70338">
        <ele>207</ele>
        <time>2015-11-29T09:44:29Z</time>
      </trkpt>
      <trkpt lat="44.51738" lon="0.70338">
        <ele>207</ele>
        <time>2015-11-29T09:44:32Z</time>
      </trkpt>
      <trkpt lat="44.51738" lon="0.70338">
        <ele>207</ele>
        <time>2015-11-29T09:44:35Z</time>
      </trkpt>
      <trkpt lat="44.51738" lon="0.70338">
        <ele>207</ele>
        <time>2015-11-29T09:44:38Z</time>
      </trkpt>
      <trkpt lat="44.51738" lon="0.70338">
        <ele>207</ele>
        <time>2015-11-29T09:44:41Z</time>
      </trkpt>
      <trkpt lat="44.51738" lon="0.70338">
        <ele>207</ele>
        <time>2015-11-29T09:44:44Z</time>
      </trkpt>
      <trkpt lat="44.51738" lon="0.70338">
        <ele>207</ele>
        <time>2015-11-29T09:44:47Z</time>
      </trkpt>
      <trkpt lat="44.51738" lon="0.70338">
        <ele>207</ele>
        <time>2015-11-29T09:44:49Z</time>
      </trkpt>
      <trkpt lat="44.51738" lon="0.70338">
        <ele>207</ele>
        <time>2015-11-29T09:44:52Z</time>
      </trkpt>
      <trkpt lat="44.51738" lon="0.70338">
        <ele>207</ele>
        <time>2015-11-29T09:44:55Z</time>
      </trkpt>
      <trkpt lat="44.51738" lon="0.70338">
        <ele>207</ele>
        <time>2015-11-29T09:44:58Z</time>
      </trkpt>
      <trkpt lat="44.51738" lon="0.70338">
        <ele>207</ele>
        <time>2015-11-29T09:45:01Z</time>
      </trkpt>
      <trkpt lat="44.51738" lon="0.70338">
        <ele>207</ele>
        <time>2015-11-29T09:45:04Z</time>
      </trkpt>
      <trkpt lat="44.51738" lon="0.70338">
        <ele>207</ele>
        <time>2015-11-29T09:45:07Z</time>
      </trkpt>
      <trkpt lat="44.51738" lon="0.70338">
        <ele>207</ele>
        <time>2015-11-29T09:45:10Z</time>
      </trkpt>
      <trkpt lat="44.51738" lon="0.70338">
        <ele>207</ele>
        <time>2015-11-29T09:45:13Z</time>
      </trkpt>
      <trkpt lat="44.51738" lon="0.70338">
        <ele>207</ele>
        <time>2015-11-29T09:45:15Z</time>
      </trkpt>
      <trkpt lat="44.51738" lon="0.70338">
        <ele>207</ele>
        <time>2015-11-29T09:45:17Z</time>
      </trkpt>
      <trkpt lat="44.51738" lon="0.70338">
        <ele>207</ele>
        <time>2015-11-29T09:45:20Z</time>
      </trkpt>
      <trkpt lat="44.51738" lon="0.70338">
        <ele>207</ele>
        <time>2015-11-29T09:45:23Z</time>
      </trkpt>
      <trkpt lat="44.51738" lon="0.70338">
        <ele>207</ele>
        <time>2015-11-29T09:45:26Z</time>
      </trkpt>
      <trkpt lat="44.51738" lon="0.70338">
        <ele>207</ele>
        <time>2015-11-29T09:45:28Z</time>
      </trkpt>
      <trkpt lat="44.51738" lon="0.70338">
        <ele>207</ele>
        <time>2015-11-29T09:45:31Z</time>
      </trkpt>
      <trkpt lat="44.51738" lon="0.70338">
        <ele>207</ele>
        <time>2015-11-29T09:45:34Z</time>
      </trkpt>
      <trkpt lat="44.51738" lon="0.70338">
        <ele>207</ele>
        <time>2015-11-29T09:45:37Z</time>
      </trkpt>
      <trkpt lat="44.51738" lon="0.70338">
        <ele>207</ele>
        <time>2015-11-29T09:45:42Z</time>
      </trkpt>
      <trkpt lat="44.51738" lon="0.70338">
        <ele>207</ele>
        <time>2015-11-29T09:45:43Z</time>
      </trkpt>
      <trkpt lat="44.51738" lon="0.70338">
        <ele>207</ele>
        <time>2015-11-29T09:45:46Z</time>
      </trkpt>
      <trkpt lat="44.51738" lon="0.70338">
        <ele>207</ele>
        <time>2015-11-29T09:45:49Z</time>
      </trkpt>
      <trkpt lat="44.51738" lon="0.70338">
        <ele>207</ele>
        <time>2015-11-29T09:45:52Z</time>
      </trkpt>
      <trkpt lat="44.51738" lon="0.70338">
        <ele>207</ele>
        <time>2015-11-29T09:45:55Z</time>
      </trkpt>
      <trkpt lat="44.51738" lon="0.70338">
        <ele>207</ele>
        <time>2015-11-29T09:45:58Z</time>
      </trkpt>
      <trkpt lat="44.51738" lon="0.70338">
        <ele>207</ele>
        <time>2015-11-29T09:46:01Z</time>
      </trkpt>
      <trkpt lat="44.51738" lon="0.70338">
        <ele>207</ele>
        <time>2015-11-29T09:46:03Z</time>
      </trkpt>
      <trkpt lat="44.51738" lon="0.70338">
        <ele>207</ele>
        <time>2015-11-29T09:46:06Z</time>
      </trkpt>
      <trkpt lat="44.51738" lon="0.70338">
        <ele>207</ele>
        <time>2015-11-29T09:46:09Z</time>
      </trkpt>
      <trkpt lat="44.51738" lon="0.70338">
        <ele>207</ele>
        <time>2015-11-29T09:46:13Z</time>
      </trkpt>
      <trkpt lat="44.51738" lon="0.70338">
        <ele>207</ele>
        <time>2015-11-29T09:46:15Z</time>
      </trkpt>
      <trkpt lat="44.51738" lon="0.70338">
        <ele>207</ele>
        <time>2015-11-29T09:46:17Z</time>
      </trkpt>
      <trkpt lat="44.51738" lon="0.70338">
        <ele>207</ele>
        <time>2015-11-29T09:46:19Z</time>
      </trkpt>
      <trkpt lat="44.51738" lon="0.70338">
        <ele>207</ele>
        <time>2015-11-29T09:46:22Z</time>
      </trkpt>
      <trkpt lat="44.51738" lon="0.70338">
        <ele>207</ele>
        <time>2015-11-29T09:46:26Z</time>
      </trkpt>
      <trkpt lat="44.51738" lon="0.70338">
        <ele>207</ele>
        <time>2015-11-29T09:46:28Z</time>
      </trkpt>
      <trkpt lat="44.51738" lon="0.70338">
        <ele>207</ele>
        <time>2015-11-29T09:46:31Z</time>
      </trkpt>
      <trkpt lat="44.51738" lon="0.70338">
        <ele>207</ele>
        <time>2015-11-29T09:46:33Z</time>
      </trkpt>
      <trkpt lat="44.51738" lon="0.70338">
        <ele>207</ele>
        <time>2015-11-29T09:46:36Z</time>
      </trkpt>
      <trkpt lat="44.51738" lon="0.70338">
        <ele>207</ele>
        <time>2015-11-29T09:46:39Z</time>
      </trkpt>
      <trkpt lat="44.51738" lon="0.70338">
        <ele>207</ele>
        <time>2015-11-29T09:46:42Z</time>
      </trkpt>
      <trkpt lat="44.51738" lon="0.70338">
        <ele>207</ele>
        <time>2015-11-29T09:46:45Z</time>
      </trkpt>
      <trkpt lat="44.51738" lon="0.70338">
        <ele>207</ele>
        <time>2015-11-29T09:46:47Z</time>
      </trkpt>
      <trkpt lat="44.51738" lon="0.70338">
        <ele>207</ele>
        <time>2015-11-29T09:46:50Z</time>
      </trkpt>
      <trkpt lat="44.51738" lon="0.70338">
        <ele>207</ele>
        <time>2015-11-29T09:46:53Z</time>
      </trkpt>
      <trkpt lat="44.51738" lon="0.70338">
        <ele>207</ele>
        <time>2015-11-29T09:46:56Z</time>
      </trkpt>
      <trkpt lat="44.51738" lon="0.70338">
        <ele>207</ele>
        <time>2015-11-29T09:46:58Z</time>
      </trkpt>
      <trkpt lat="44.51738" lon="0.70338">
        <ele>207</ele>
        <time>2015-11-29T09:47:02Z</time>
      </trkpt>
      <trkpt lat="44.51738" lon="0.70338">
        <ele>207</ele>
        <time>2015-11-29T09:47:04Z</time>
      </trkpt>
      <trkpt lat="44.51738" lon="0.70338">
        <ele>207</ele>
        <time>2015-11-29T09:47:07Z</time>
      </trkpt>
      <trkpt lat="44.51738" lon="0.70338">
        <ele>207</ele>
        <time>2015-11-29T09:47:10Z</time>
      </trkpt>
      <trkpt lat="44.51738" lon="0.70338">
        <ele>207</ele>
        <time>2015-11-29T09:47:13Z</time>
      </trkpt>
      <trkpt lat="44.51738" lon="0.70338">
        <ele>207</ele>
        <time>2015-11-29T09:47:17Z</time>
      </trkpt>
      <trkpt lat="44.51738" lon="0.70338">
        <ele>207</ele>
        <time>2015-11-29T09:47:18Z</time>
      </trkpt>
      <trkpt lat="44.51738" lon="0.70338">
        <ele>207</ele>
        <time>2015-11-29T09:47:22Z</time>
      </trkpt>
      <trkpt lat="44.51738" lon="0.70338">
        <ele>207</ele>
        <time>2015-11-29T09:47:24Z</time>
      </trkpt>
      <trkpt lat="44.51738" lon="0.70338">
        <ele>207</ele>
        <time>2015-11-29T09:47:27Z</time>
      </trkpt>
      <trkpt lat="44.51738" lon="0.70338">
        <ele>207</ele>
        <time>2015-11-29T09:47:30Z</time>
      </trkpt>
      <trkpt lat="44.51738" lon="0.70338">
        <ele>207</ele>
        <time>2015-11-29T09:47:33Z</time>
      </trkpt>
      <trkpt lat="44.51738" lon="0.70338">
        <ele>207</ele>
        <time>2015-11-29T09:47:36Z</time>
      </trkpt>
      <trkpt lat="44.51738" lon="0.70338">
        <ele>207</ele>
        <time>2015-11-29T09:47:39Z</time>
      </trkpt>
      <trkpt lat="44.51738" lon="0.70338">
        <ele>207</ele>
        <time>2015-11-29T09:47:42Z</time>
      </trkpt>
      <trkpt lat="44.51738" lon="0.70338">
        <ele>207</ele>
        <time>2015-11-29T09:47:45Z</time>
      </trkpt>
      <trkpt lat="44.51738" lon="0.70338">
        <ele>207</ele>
        <time>2015-11-29T09:47:48Z</time>
      </trkpt>
      <trkpt lat="44.51738" lon="0.70338">
        <ele>207</ele>
        <time>2015-11-29T09:47:51Z</time>
      </trkpt>
      <trkpt lat="44.51738" lon="0.70338">
        <ele>207</ele>
        <time>2015-11-29T09:47:54Z</time>
      </trkpt>
      <trkpt lat="44.51738" lon="0.70338">
        <ele>207</ele>
        <time>2015-11-29T09:47:56Z</time>
      </trkpt>
      <trkpt lat="44.51738" lon="0.70338">
        <ele>207</ele>
        <time>2015-11-29T09:47:59Z</time>
      </trkpt>
      <trkpt lat="44.51738" lon="0.70338">
        <ele>207</ele>
        <time>2015-11-29T09:48:02Z</time>
      </trkpt>
      <trkpt lat="44.51738" lon="0.70338">
        <ele>207</ele>
        <time>2015-11-29T09:48:05Z</time>
      </trkpt>
      <trkpt lat="44.51738" lon="0.70338">
        <ele>207</ele>
        <time>2015-11-29T09:48:07Z</time>
      </trkpt>
      <trkpt lat="44.51738" lon="0.70338">
        <ele>207</ele>
        <time>2015-11-29T09:48:10Z</time>
      </trkpt>
      <trkpt lat="44.51738" lon="0.70338">
        <ele>207</ele>
        <time>2015-11-29T09:48:13Z</time>
      </trkpt>
      <trkpt lat="44.51738" lon="0.70338">
        <ele>207</ele>
        <time>2015-11-29T09:48:15Z</time>
      </trkpt>
      <trkpt lat="44.51738" lon="0.70338">
        <ele>207</ele>
        <time>2015-11-29T09:48:18Z</time>
      </trkpt>
      <trkpt lat="44.51738" lon="0.70338">
        <ele>207</ele>
        <time>2015-11-29T09:48:21Z</time>
      </trkpt>
      <trkpt lat="44.51738" lon="0.70338">
        <ele>207</ele>
        <time>2015-11-29T09:48:23Z</time>
      </trkpt>
      <trkpt lat="44.51738" lon="0.70338">
        <ele>207</ele>
        <time>2015-11-29T09:48:26Z</time>
      </trkpt>
      <trkpt lat="44.51738" lon="0.70338">
        <ele>207</ele>
        <time>2015-11-29T09:48:28Z</time>
      </trkpt>
      <trkpt lat="44.51738" lon="0.70338">
        <ele>207</ele>
        <time>2015-11-29T09:48:31Z</time>
      </trkpt>
      <trkpt lat="44.51738" lon="0.70337">
        <ele>207</ele>
        <time>2015-11-29T09:48:34Z</time>
      </trkpt>
      <trkpt lat="44.51738" lon="0.70337">
        <ele>207</ele>
        <time>2015-11-29T09:48:37Z</time>
      </trkpt>
      <trkpt lat="44.51738" lon="0.70337">
        <ele>207</ele>
        <time>2015-11-29T09:48:40Z</time>
      </trkpt>
      <trkpt lat="44.51738" lon="0.70337">
        <ele>207</ele>
        <time>2015-11-29T09:48:42Z</time>
      </trkpt>
      <trkpt lat="44.51738" lon="0.70337">
        <ele>207</ele>
        <time>2015-11-29T09:48:45Z</time>
      </trkpt>
      <trkpt lat="44.51738" lon="0.70336">
        <ele>207</ele>
        <time>2015-11-29T09:48:50Z</time>
      </trkpt>
      <trkpt lat="44.51738" lon="0.70336">
        <ele>207</ele>
        <time>2015-11-29T09:48:51Z</time>
      </trkpt>
      <trkpt lat="44.51738" lon="0.70336">
        <ele>207</ele>
        <time>2015-11-29T09:48:54Z</time>
      </trkpt>
      <trkpt lat="44.51739" lon="0.70335">
        <ele>205</ele>
        <time>2015-11-29T09:48:57Z</time>
      </trkpt>
      <trkpt lat="44.51738" lon="0.70335">
        <ele>204</ele>
        <time>2015-11-29T09:49:02Z</time>
      </trkpt>
      <trkpt lat="44.51738" lon="0.70335">
        <ele>204</ele>
        <time>2015-11-29T09:49:03Z</time>
      </trkpt>
      <trkpt lat="44.51737" lon="0.70336">
        <ele>202</ele>
        <time>2015-11-29T09:49:08Z</time>
      </trkpt>
      <trkpt lat="44.51736" lon="0.70337">
        <ele>202</ele>
        <time>2015-11-29T09:49:09Z</time>
      </trkpt>
      <trkpt lat="44.51736" lon="0.70338">
        <ele>201</ele>
        <time>2015-11-29T09:49:16Z</time>
      </trkpt>
      <trkpt lat="44.51736" lon="0.70337">
        <ele>201</ele>
        <time>2015-11-29T09:49:17Z</time>
      </trkpt>
      <trkpt lat="44.51736" lon="0.70337">
        <ele>201</ele>
        <time>2015-11-29T09:49:19Z</time>
      </trkpt>
      <trkpt lat="44.51736" lon="0.70338">
        <ele>200</ele>
        <time>2015-11-29T09:49:24Z</time>
      </trkpt>
      <trkpt lat="44.51736" lon="0.70338">
        <ele>200</ele>
        <time>2015-11-29T09:49:25Z</time>
      </trkpt>
      <trkpt lat="44.51736" lon="0.70338">
        <ele>200</ele>
        <time>2015-11-29T09:49:28Z</time>
      </trkpt>
      <trkpt lat="44.51736" lon="0.70338">
        <ele>200</ele>
        <time>2015-11-29T09:49:30Z</time>
      </trkpt>
      <trkpt lat="44.51736" lon="0.70338">
        <ele>200</ele>
        <time>2015-11-29T09:49:33Z</time>
      </trkpt>
      <trkpt lat="44.51736" lon="0.70338">
        <ele>200</ele>
        <time>2015-11-29T09:49:36Z</time>
      </trkpt>
      <trkpt lat="44.51736" lon="0.70338">
        <ele>200</ele>
        <time>2015-11-29T09:49:39Z</time>
      </trkpt>
      <trkpt lat="44.51736" lon="0.70338">
        <ele>200</ele>
        <time>2015-11-29T09:49:42Z</time>
      </trkpt>
      <trkpt lat="44.51736" lon="0.70338">
        <ele>200</ele>
        <time>2015-11-29T09:49:45Z</time>
      </trkpt>
      <trkpt lat="44.51736" lon="0.70338">
        <ele>200</ele>
        <time>2015-11-29T09:49:48Z</time>
      </trkpt>
      <trkpt lat="44.51736" lon="0.70338">
        <ele>200</ele>
        <time>2015-11-29T09:49:51Z</time>
      </trkpt>
      <trkpt lat="44.51736" lon="0.70338">
        <ele>200</ele>
        <time>2015-11-29T09:49:54Z</time>
      </trkpt>
      <trkpt lat="44.51736" lon="0.70338">
        <ele>200</ele>
        <time>2015-11-29T09:49:57Z</time>
      </trkpt>
      <trkpt lat="44.51736" lon="0.70338">
        <ele>200</ele>
        <time>2015-11-29T09:49:59Z</time>
      </trkpt>
      <trkpt lat="44.51736" lon="0.70338">
        <ele>200</ele>
        <time>2015-11-29T09:50:02Z</time>
      </trkpt>
      <trkpt lat="44.51736" lon="0.70338">
        <ele>200</ele>
        <time>2015-11-29T09:50:05Z</time>
      </trkpt>
      <trkpt lat="44.51736" lon="0.70338">
        <ele>200</ele>
        <time>2015-11-29T09:50:08Z</time>
      </trkpt>
      <trkpt lat="44.51736" lon="0.70338">
        <ele>200</ele>
        <time>2015-11-29T09:50:11Z</time>
      </trkpt>
      <trkpt lat="44.51735" lon="0.70338">
        <ele>201</ele>
        <time>2015-11-29T09:50:14Z</time>
      </trkpt>
      <trkpt lat="44.51735" lon="0.70337">
        <ele>201</ele>
        <time>2015-11-29T09:50:17Z</time>
      </trkpt>
      <trkpt lat="44.51735" lon="0.70337">
        <ele>201</ele>
        <time>2015-11-29T09:50:20Z</time>
      </trkpt>
      <trkpt lat="44.51735" lon="0.70337">
        <ele>201</ele>
        <time>2015-11-29T09:50:23Z</time>
      </trkpt>
      <trkpt lat="44.51735" lon="0.70337">
        <ele>201</ele>
        <time>2015-11-29T09:50:26Z</time>
      </trkpt>
      <trkpt lat="44.51735" lon="0.70337">
        <ele>201</ele>
        <time>2015-11-29T09:50:29Z</time>
      </trkpt>
      <trkpt lat="44.51735" lon="0.70337">
        <ele>201</ele>
        <time>2015-11-29T09:50:32Z</time>
      </trkpt>
      <trkpt lat="44.51735" lon="0.70337">
        <ele>201</ele>
        <time>2015-11-29T09:50:36Z</time>
      </trkpt>
      <trkpt lat="44.51735" lon="0.70337">
        <ele>201</ele>
        <time>2015-11-29T09:50:38Z</time>
      </trkpt>
      <trkpt lat="44.51735" lon="0.70337">
        <ele>201</ele>
        <time>2015-11-29T09:50:41Z</time>
      </trkpt>
      <trkpt lat="44.51735" lon="0.70337">
        <ele>201</ele>
        <time>2015-11-29T09:50:44Z</time>
      </trkpt>
      <trkpt lat="44.51735" lon="0.70337">
        <ele>201</ele>
        <time>2015-11-29T09:50:47Z</time>
      </trkpt>
      <trkpt lat="44.51735" lon="0.70337">
        <ele>201</ele>
        <time>2015-11-29T09:50:50Z</time>
      </trkpt>
      <trkpt lat="44.51731" lon="0.70339">
        <ele>199</ele>
        <time>2015-11-29T09:50:53Z</time>
      </trkpt>
      <trkpt lat="44.51726" lon="0.70344">
        <ele>199</ele>
        <time>2015-11-29T09:50:58Z</time>
      </trkpt>
      <trkpt lat="44.51708" lon="0.70354">
        <ele>196</ele>
        <time>2015-11-29T09:51:03Z</time>
      </trkpt>
      <trkpt lat="44.51687" lon="0.70372">
        <ele>195</ele>
        <time>2015-11-29T09:51:08Z</time>
      </trkpt>
      <trkpt lat="44.5167" lon="0.70408">
        <ele>193</ele>
        <time>2015-11-29T09:51:13Z</time>
      </trkpt>
      <trkpt lat="44.51654" lon="0.70435">
        <ele>197</ele>
        <time>2015-11-29T09:51:19Z</time>
      </trkpt>
      <trkpt lat="44.51643" lon="0.70448">
        <ele>198</ele>
        <time>2015-11-29T09:51:22Z</time>
      </trkpt>
      <trkpt lat="44.51623" lon="0.70475">
        <ele>201</ele>
        <time>2015-11-29T09:51:29Z</time>
      </trkpt>
      <trkpt lat="44.51618" lon="0.70484">
        <ele>200</ele>
        <time>2015-11-29T09:51:32Z</time>
      </trkpt>
      <trkpt lat="44.51606" lon="0.70499">
        <ele>196</ele>
        <time>2015-11-29T09:51:36Z</time>
      </trkpt>
      <trkpt lat="44.51579" lon="0.70535">
        <ele>193</ele>
        <time>2015-11-29T09:51:43Z</time>
      </trkpt>
      <trkpt lat="44.51575" lon="0.70539">
        <ele>193</ele>
        <time>2015-11-29T09:51:44Z</time>
      </trkpt>
      <trkpt lat="44.51554" lon="0.7055">
        <ele>194</ele>
        <time>2015-11-29T09:51:49Z</time>
      </trkpt>
      <trkpt lat="44.51542" lon="0.70556">
        <ele>192</ele>
        <time>2015-11-29T09:51:53Z</time>
      </trkpt>
      <trkpt lat="44.51524" lon="0.70566">
        <ele>194</ele>
        <time>2015-11-29T09:51:58Z</time>
      </trkpt>
      <trkpt lat="44.51513" lon="0.70568">
        <ele>195</ele>
        <time>2015-11-29T09:52:01Z</time>
      </trkpt>
      <trkpt lat="44.51495" lon="0.70579">
        <ele>194</ele>
        <time>2015-11-29T09:52:06Z</time>
      </trkpt>
      <trkpt lat="44.51478" lon="0.70585">
        <ele>194</ele>
        <time>2015-11-29T09:52:10Z</time>
      </trkpt>
      <trkpt lat="44.51457" lon="0.70592">
        <ele>195</ele>
        <time>2015-11-29T09:52:15Z</time>
      </trkpt>
      <trkpt lat="44.51438" lon="0.70594">
        <ele>195</ele>
        <time>2015-11-29T09:52:20Z</time>
      </trkpt>
      <trkpt lat="44.51424" lon="0.70596">
        <ele>195</ele>
        <time>2015-11-29T09:52:24Z</time>
      </trkpt>
      <trkpt lat="44.51402" lon="0.70597">
        <ele>195</ele>
        <time>2015-11-29T09:52:29Z</time>
      </trkpt>
      <trkpt lat="44.51385" lon="0.70592">
        <ele>197</ele>
        <time>2015-11-29T09:52:33Z</time>
      </trkpt>
      <trkpt lat="44.51364" lon="0.70594">
        <ele>199</ele>
        <time>2015-11-29T09:52:39Z</time>
      </trkpt>
      <trkpt lat="44.51349" lon="0.70589">
        <ele>202</ele>
        <time>2015-11-29T09:52:43Z</time>
      </trkpt>
      <trkpt lat="44.51326" lon="0.70591">
        <ele>200</ele>
        <time>2015-11-29T09:52:51Z</time>
      </trkpt>
      <trkpt lat="44.51321" lon="0.7059">
        <ele>201</ele>
        <time>2015-11-29T09:52:53Z</time>
      </trkpt>
      <trkpt lat="44.51308" lon="0.70589">
        <ele>202</ele>
        <time>2015-11-29T09:52:58Z</time>
      </trkpt>
      <trkpt lat="44.51296" lon="0.70586">
        <ele>204</ele>
        <time>2015-11-29T09:53:02Z</time>
      </trkpt>
      <trkpt lat="44.51282" lon="0.70583">
        <ele>202</ele>
        <time>2015-11-29T09:53:06Z</time>
      </trkpt>
      <trkpt lat="44.51266" lon="0.7058">
        <ele>205</ele>
        <time>2015-11-29T09:53:11Z</time>
      </trkpt>
      <trkpt lat="44.51248" lon="0.70577">
        <ele>204</ele>
        <time>2015-11-29T09:53:16Z</time>
      </trkpt>
      <trkpt lat="44.51232" lon="0.70573">
        <ele>206</ele>
        <time>2015-11-29T09:53:22Z</time>
      </trkpt>
      <trkpt lat="44.51215" lon="0.7057">
        <ele>206</ele>
        <time>2015-11-29T09:53:27Z</time>
      </trkpt>
      <trkpt lat="44.51205" lon="0.70569">
        <ele>207</ele>
        <time>2015-11-29T09:53:30Z</time>
      </trkpt>
      <trkpt lat="44.5119" lon="0.70568">
        <ele>209</ele>
        <time>2015-11-29T09:53:35Z</time>
      </trkpt>
      <trkpt lat="44.51177" lon="0.70565">
        <ele>211</ele>
        <time>2015-11-29T09:53:39Z</time>
      </trkpt>
      <trkpt lat="44.51159" lon="0.70562">
        <ele>210</ele>
        <time>2015-11-29T09:53:44Z</time>
      </trkpt>
      <trkpt lat="44.51139" lon="0.7056">
        <ele>211</ele>
        <time>2015-11-29T09:53:49Z</time>
      </trkpt>
      <trkpt lat="44.51119" lon="0.70559">
        <ele>211</ele>
        <time>2015-11-29T09:53:54Z</time>
      </trkpt>
      <trkpt lat="44.51083" lon="0.70564">
        <ele>210</ele>
        <time>2015-11-29T09:54:02Z</time>
      </trkpt>
      <trkpt lat="44.51075" lon="0.70564">
        <ele>210</ele>
        <time>2015-11-29T09:54:04Z</time>
      </trkpt>
      <trkpt lat="44.51046" lon="0.70575">
        <ele>206</ele>
        <time>2015-11-29T09:54:11Z</time>
      </trkpt>
      <trkpt lat="44.51033" lon="0.7058">
        <ele>205</ele>
        <time>2015-11-29T09:54:14Z</time>
      </trkpt>
      <trkpt lat="44.51013" lon="0.70587">
        <ele>205</ele>
        <time>2015-11-29T09:54:19Z</time>
      </trkpt>
      <trkpt lat="44.51004" lon="0.70592">
        <ele>206</ele>
        <time>2015-11-29T09:54:21Z</time>
      </trkpt>
      <trkpt lat="44.50978" lon="0.70604">
        <ele>209</ele>
        <time>2015-11-29T09:54:27Z</time>
      </trkpt>
      <trkpt lat="44.5096" lon="0.70611">
        <ele>212</ele>
        <time>2015-11-29T09:54:31Z</time>
      </trkpt>
      <trkpt lat="44.50937" lon="0.70622">
        <ele>211</ele>
        <time>2015-11-29T09:54:36Z</time>
      </trkpt>
      <trkpt lat="44.50915" lon="0.70628">
        <ele>209</ele>
        <time>2015-11-29T09:54:41Z</time>
      </trkpt>
      <trkpt lat="44.50886" lon="0.7064">
        <ele>207</ele>
        <time>2015-11-29T09:54:48Z</time>
      </trkpt>
      <trkpt lat="44.50878" lon="0.70643">
        <ele>208</ele>
        <time>2015-11-29T09:54:50Z</time>
      </trkpt>
      <trkpt lat="44.50861" lon="0.70649">
        <ele>209</ele>
        <time>2015-11-29T09:54:54Z</time>
      </trkpt>
      <trkpt lat="44.50839" lon="0.70655">
        <ele>208</ele>
        <time>2015-11-29T09:54:59Z</time>
      </trkpt>
      <trkpt lat="44.50821" lon="0.70661">
        <ele>213</ele>
        <time>2015-11-29T09:55:03Z</time>
      </trkpt>
      <trkpt lat="44.50783" lon="0.70682">
        <ele>214</ele>
        <time>2015-11-29T09:55:12Z</time>
      </trkpt>
      <trkpt lat="44.50779" lon="0.70685">
        <ele>214</ele>
        <time>2015-11-29T09:55:13Z</time>
      </trkpt>
      <trkpt lat="44.50755" lon="0.70695">
        <ele>214</ele>
        <time>2015-11-29T09:55:18Z</time>
      </trkpt>
      <trkpt lat="44.50727" lon="0.70708">
        <ele>213</ele>
        <time>2015-11-29T09:55:25Z</time>
      </trkpt>
      <trkpt lat="44.50715" lon="0.70712">
        <ele>211</ele>
        <time>2015-11-29T09:55:28Z</time>
      </trkpt>
      <trkpt lat="44.50696" lon="0.70723">
        <ele>209</ele>
        <time>2015-11-29T09:55:32Z</time>
      </trkpt>
      <trkpt lat="44.50674" lon="0.70733">
        <ele>209</ele>
        <time>2015-11-29T09:55:37Z</time>
      </trkpt>
      <trkpt lat="44.50642" lon="0.70749">
        <ele>209</ele>
        <time>2015-11-29T09:55:44Z</time>
      </trkpt>
      <trkpt lat="44.50631" lon="0.70749">
        <ele>207</ele>
        <time>2015-11-29T09:55:46Z</time>
      </trkpt>
      <trkpt lat="44.50596" lon="0.70764">
        <ele>208</ele>
        <time>2015-11-29T09:55:53Z</time>
      </trkpt>
      <trkpt lat="44.50584" lon="0.70767">
        <ele>208</ele>
        <time>2015-11-29T09:55:55Z</time>
      </trkpt>
      <trkpt lat="44.50558" lon="0.7077">
        <ele>207</ele>
        <time>2015-11-29T09:56:00Z</time>
      </trkpt>
      <trkpt lat="44.5054" lon="0.70768">
        <ele>209</ele>
        <time>2015-11-29T09:56:04Z</time>
      </trkpt>
      <trkpt lat="44.50519" lon="0.70771">
        <ele>206</ele>
        <time>2015-11-29T09:56:08Z</time>
      </trkpt>
      <trkpt lat="44.50499" lon="0.70779">
        <ele>208</ele>
        <time>2015-11-29T09:56:12Z</time>
      </trkpt>
      <trkpt lat="44.5047" lon="0.70785">
        <ele>207</ele>
        <time>2015-11-29T09:56:17Z</time>
      </trkpt>
      <trkpt lat="44.50427" lon="0.70809">
        <ele>203</ele>
        <time>2015-11-29T09:56:24Z</time>
      </trkpt>
      <trkpt lat="44.5041" lon="0.70824">
        <ele>202</ele>
        <time>2015-11-29T09:56:27Z</time>
      </trkpt>
      <trkpt lat="44.50388" lon="0.70842">
        <ele>200</ele>
        <time>2015-11-29T09:56:31Z</time>
      </trkpt>
      <trkpt lat="44.50354" lon="0.70882">
        <ele>190</ele>
        <time>2015-11-29T09:56:37Z</time>
      </trkpt>
      <trkpt lat="44.50334" lon="0.70897">
        <ele>187</ele>
        <time>2015-11-29T09:56:41Z</time>
      </trkpt>
      <trkpt lat="44.503" lon="0.70952">
        <ele>180</ele>
        <time>2015-11-29T09:56:50Z</time>
      </trkpt>
      <trkpt lat="44.50295" lon="0.70959">
        <ele>181</ele>
        <time>2015-11-29T09:56:51Z</time>
      </trkpt>
      <trkpt lat="44.50277" lon="0.70982">
        <ele>182</ele>
        <time>2015-11-29T09:56:55Z</time>
      </trkpt>
      <trkpt lat="44.50262" lon="0.71003">
        <ele>182</ele>
        <time>2015-11-29T09:56:59Z</time>
      </trkpt>
      <trkpt lat="44.50238" lon="0.71031">
        <ele>179</ele>
        <time>2015-11-29T09:57:05Z</time>
      </trkpt>
      <trkpt lat="44.50195" lon="0.71059">
        <ele>170</ele>
        <time>2015-11-29T09:57:12Z</time>
      </trkpt>
      <trkpt lat="44.50173" lon="0.7107">
        <ele>167</ele>
        <time>2015-11-29T09:57:16Z</time>
      </trkpt>
      <trkpt lat="44.50168" lon="0.71071">
        <ele>166</ele>
        <time>2015-11-29T09:57:17Z</time>
      </trkpt>
      <trkpt lat="44.5014" lon="0.71072">
        <ele>161</ele>
        <time>2015-11-29T09:57:22Z</time>
      </trkpt>
      <trkpt lat="44.50114" lon="0.71075">
        <ele>161</ele>
        <time>2015-11-29T09:57:26Z</time>
      </trkpt>
      <trkpt lat="44.50055" lon="0.71071">
        <ele>159</ele>
        <time>2015-11-29T09:57:34Z</time>
      </trkpt>
      <trkpt lat="44.50034" lon="0.7107">
        <ele>158</ele>
        <time>2015-11-29T09:57:37Z</time>
      </trkpt>
      <trkpt lat="44.50008" lon="0.7107">
        <ele>157</ele>
        <time>2015-11-29T09:57:41Z</time>
      </trkpt>
      <trkpt lat="44.49978" lon="0.71074">
        <ele>156</ele>
        <time>2015-11-29T09:57:46Z</time>
      </trkpt>
      <trkpt lat="44.49953" lon="0.71074">
        <ele>156</ele>
        <time>2015-11-29T09:57:51Z</time>
      </trkpt>
      <trkpt lat="44.49926" lon="0.71078">
        <ele>153</ele>
        <time>2015-11-29T09:57:56Z</time>
      </trkpt>
      <trkpt lat="44.49908" lon="0.71067">
        <ele>150</ele>
        <time>2015-11-29T09:58:00Z</time>
      </trkpt>
      <trkpt lat="44.49886" lon="0.71057">
        <ele>152</ele>
        <time>2015-11-29T09:58:05Z</time>
      </trkpt>
      <trkpt lat="44.49856" lon="0.7104">
        <ele>152</ele>
        <time>2015-11-29T09:58:11Z</time>
      </trkpt>
      <trkpt lat="44.49829" lon="0.7102">
        <ele>155</ele>
        <time>2015-11-29T09:58:17Z</time>
      </trkpt>
      <trkpt lat="44.49814" lon="0.71008">
        <ele>154</ele>
        <time>2015-11-29T09:58:20Z</time>
      </trkpt>
      <trkpt lat="44.49782" lon="0.70983">
        <ele>154</ele>
        <time>2015-11-29T09:58:27Z</time>
      </trkpt>
      <trkpt lat="44.49767" lon="0.7097">
        <ele>152</ele>
        <time>2015-11-29T09:58:30Z</time>
      </trkpt>
      <trkpt lat="44.49736" lon="0.70949">
        <ele>151</ele>
        <time>2015-11-29T09:58:38Z</time>
      </trkpt>
      <trkpt lat="44.49727" lon="0.70943">
        <ele>150</ele>
        <time>2015-11-29T09:58:40Z</time>
      </trkpt>
      <trkpt lat="44.49712" lon="0.70932">
        <ele>152</ele>
        <time>2015-11-29T09:58:44Z</time>
      </trkpt>
      <trkpt lat="44.49688" lon="0.70915">
        <ele>154</ele>
        <time>2015-11-29T09:58:51Z</time>
      </trkpt>
      <trkpt lat="44.49668" lon="0.70901">
        <ele>151</ele>
        <time>2015-11-29T09:58:57Z</time>
      </trkpt>
      <trkpt lat="44.49646" lon="0.7089">
        <ele>151</ele>
        <time>2015-11-29T09:59:03Z</time>
      </trkpt>
      <trkpt lat="44.49642" lon="0.70888">
        <ele>151</ele>
        <time>2015-11-29T09:59:04Z</time>
      </trkpt>
      <trkpt lat="44.49606" lon="0.70864">
        <ele>148</ele>
        <time>2015-11-29T09:59:13Z</time>
      </trkpt>
      <trkpt lat="44.49602" lon="0.70861">
        <ele>149</ele>
        <time>2015-11-29T09:59:14Z</time>
      </trkpt>
      <trkpt lat="44.49571" lon="0.70839">
        <ele>150</ele>
        <time>2015-11-29T09:59:22Z</time>
      </trkpt>
      <trkpt lat="44.49565" lon="0.70836">
        <ele>151</ele>
        <time>2015-11-29T09:59:24Z</time>
      </trkpt>
      <trkpt lat="44.49546" lon="0.70825">
        <ele>151</ele>
        <time>2015-11-29T09:59:29Z</time>
      </trkpt>
      <trkpt lat="44.49531" lon="0.70802">
        <ele>156</ele>
        <time>2015-11-29T09:59:38Z</time>
      </trkpt>
      <trkpt lat="44.49528" lon="0.70797">
        <ele>157</ele>
        <time>2015-11-29T09:59:40Z</time>
      </trkpt>
      <trkpt lat="44.49523" lon="0.70785">
        <ele>156</ele>
        <time>2015-11-29T09:59:44Z</time>
      </trkpt>
      <trkpt lat="44.49513" lon="0.7077">
        <ele>157</ele>
        <time>2015-11-29T09:59:49Z</time>
      </trkpt>
      <trkpt lat="44.49491" lon="0.70746">
        <ele>158</ele>
        <time>2015-11-29T09:59:58Z</time>
      </trkpt>
      <trkpt lat="44.49488" lon="0.70743">
        <ele>158</ele>
        <time>2015-11-29T09:59:59Z</time>
      </trkpt>
      <trkpt lat="44.49467" lon="0.70718">
        <ele>154</ele>
        <time>2015-11-29T10:00:08Z</time>
      </trkpt>
      <trkpt lat="44.49465" lon="0.70714">
        <ele>155</ele>
        <time>2015-11-29T10:00:09Z</time>
      </trkpt>
      <trkpt lat="44.49453" lon="0.70698">
        <ele>156</ele>
        <time>2015-11-29T10:00:14Z</time>
      </trkpt>
      <trkpt lat="44.49426" lon="0.70663">
        <ele>148</ele>
        <time>2015-11-29T10:00:20Z</time>
      </trkpt>
      <trkpt lat="44.49411" lon="0.70643">
        <ele>141</ele>
        <time>2015-11-29T10:00:25Z</time>
      </trkpt>
      <trkpt lat="44.49397" lon="0.70616">
        <ele>136</ele>
        <time>2015-11-29T10:00:29Z</time>
      </trkpt>
      <trkpt lat="44.49375" lon="0.70578">
        <ele>131</ele>
        <time>2015-11-29T10:00:34Z</time>
      </trkpt>
      <trkpt lat="44.49349" lon="0.70535">
        <ele>126</ele>
        <time>2015-11-29T10:00:39Z</time>
      </trkpt>
      <trkpt lat="44.49323" lon="0.70492">
        <ele>125</ele>
        <time>2015-11-29T10:00:44Z</time>
      </trkpt>
      <trkpt lat="44.49304" lon="0.70444">
        <ele>123</ele>
        <time>2015-11-29T10:00:49Z</time>
      </trkpt>
      <trkpt lat="44.49292" lon="0.70393">
        <ele>122</ele>
        <time>2015-11-29T10:00:55Z</time>
      </trkpt>
      <trkpt lat="44.49286" lon="0.70365">
        <ele>122</ele>
        <time>2015-11-29T10:00:59Z</time>
      </trkpt>
      <trkpt lat="44.49275" lon="0.70314">
        <ele>118</ele>
        <time>2015-11-29T10:01:05Z</time>
      </trkpt>
      <trkpt lat="44.49266" lon="0.70276">
        <ele>117</ele>
        <time>2015-11-29T10:01:09Z</time>
      </trkpt>
      <trkpt lat="44.49255" lon="0.70231">
        <ele>117</ele>
        <time>2015-11-29T10:01:14Z</time>
      </trkpt>
      <trkpt lat="44.49238" lon="0.70166">
        <ele>119</ele>
        <time>2015-11-29T10:01:21Z</time>
      </trkpt>
      <trkpt lat="44.49236" lon="0.70104">
        <ele>113</ele>
        <time>2015-11-29T10:01:27Z</time>
      </trkpt>
      <trkpt lat="44.49233" lon="0.70081">
        <ele>111</ele>
        <time>2015-11-29T10:01:29Z</time>
      </trkpt>
      <trkpt lat="44.49198" lon="0.69998">
        <ele>102</ele>
        <time>2015-11-29T10:01:38Z</time>
      </trkpt>
      <trkpt lat="44.49195" lon="0.69991">
        <ele>102</ele>
        <time>2015-11-29T10:01:39Z</time>
      </trkpt>
      <trkpt lat="44.49175" lon="0.69959">
        <ele>99</ele>
        <time>2015-11-29T10:01:44Z</time>
      </trkpt>
      <trkpt lat="44.49153" lon="0.69938">
        <ele>99</ele>
        <time>2015-11-29T10:01:49Z</time>
      </trkpt>
      <trkpt lat="44.49133" lon="0.69917">
        <ele>99</ele>
        <time>2015-11-29T10:01:54Z</time>
      </trkpt>
      <trkpt lat="44.4912" lon="0.69904">
        <ele>98</ele>
        <time>2015-11-29T10:02:00Z</time>
      </trkpt>
      <trkpt lat="44.4911" lon="0.69906">
        <ele>97</ele>
        <time>2015-11-29T10:02:04Z</time>
      </trkpt>
      <trkpt lat="44.49096" lon="0.69908">
        <ele>96</ele>
        <time>2015-11-29T10:02:09Z</time>
      </trkpt>
      <trkpt lat="44.49077" lon="0.69913">
        <ele>92</ele>
        <time>2015-11-29T10:02:15Z</time>
      </trkpt>
      <trkpt lat="44.49061" lon="0.69917">
        <ele>93</ele>
        <time>2015-11-29T10:02:19Z</time>
      </trkpt>
      <trkpt lat="44.49045" lon="0.69922">
        <ele>91</ele>
        <time>2015-11-29T10:02:24Z</time>
      </trkpt>
      <trkpt lat="44.49027" lon="0.69929">
        <ele>89</ele>
        <time>2015-11-29T10:02:29Z</time>
      </trkpt>
      <trkpt lat="44.48995" lon="0.69941">
        <ele>88</ele>
        <time>2015-11-29T10:02:38Z</time>
      </trkpt>
      <trkpt lat="44.48992" lon="0.69942">
        <ele>88</ele>
        <time>2015-11-29T10:02:39Z</time>
      </trkpt>
      <trkpt lat="44.4897" lon="0.69949">
        <ele>87</ele>
        <time>2015-11-29T10:02:45Z</time>
      </trkpt>
      <trkpt lat="44.48948" lon="0.69955">
        <ele>85</ele>
        <time>2015-11-29T10:02:51Z</time>
      </trkpt>
      <trkpt lat="44.48935" lon="0.69957">
        <ele>84</ele>
        <time>2015-11-29T10:02:54Z</time>
      </trkpt>
      <trkpt lat="44.48916" lon="0.69961">
        <ele>83</ele>
        <time>2015-11-29T10:02:59Z</time>
      </trkpt>
      <trkpt lat="44.48893" lon="0.69964">
        <ele>83</ele>
        <time>2015-11-29T10:03:04Z</time>
      </trkpt>
      <trkpt lat="44.4887" lon="0.69969">
        <ele>83</ele>
        <time>2015-11-29T10:03:09Z</time>
      </trkpt>
      <trkpt lat="44.48837" lon="0.69978">
        <ele>84</ele>
        <time>2015-11-29T10:03:16Z</time>
      </trkpt>
      <trkpt lat="44.48824" lon="0.69983">
        <ele>85</ele>
        <time>2015-11-29T10:03:19Z</time>
      </trkpt>
      <trkpt lat="44.48804" lon="0.69991">
        <ele>85</ele>
        <time>2015-11-29T10:03:24Z</time>
      </trkpt>
      <trkpt lat="44.48784" lon="0.70003">
        <ele>84</ele>
        <time>2015-11-29T10:03:29Z</time>
      </trkpt>
      <trkpt lat="44.48767" lon="0.70015">
        <ele>85</ele>
        <time>2015-11-29T10:03:34Z</time>
      </trkpt>
      <trkpt lat="44.48753" lon="0.70022">
        <ele>87</ele>
        <time>2015-11-29T10:03:40Z</time>
      </trkpt>
      <trkpt lat="44.48744" lon="0.70026">
        <ele>89</ele>
        <time>2015-11-29T10:03:44Z</time>
      </trkpt>
      <trkpt lat="44.48739" lon="0.70016">
        <ele>87</ele>
        <time>2015-11-29T10:03:49Z</time>
      </trkpt>
      <trkpt lat="44.48751" lon="0.69977">
        <ele>85</ele>
        <time>2015-11-29T10:03:54Z</time>
      </trkpt>
      <trkpt lat="44.48764" lon="0.69938">
        <ele>86</ele>
        <time>2015-11-29T10:03:59Z</time>
      </trkpt>
      <trkpt lat="44.48774" lon="0.69904">
        <ele>88</ele>
        <time>2015-11-29T10:04:04Z</time>
      </trkpt>
      <trkpt lat="44.48781" lon="0.69879">
        <ele>91</ele>
        <time>2015-11-29T10:04:09Z</time>
      </trkpt>
      <trkpt lat="44.48787" lon="0.69855">
        <ele>92</ele>
        <time>2015-11-29T10:04:14Z</time>
      </trkpt>
      <trkpt lat="44.48793" lon="0.69833">
        <ele>93</ele>
        <time>2015-11-29T10:04:19Z</time>
      </trkpt>
      <trkpt lat="44.48799" lon="0.69812">
        <ele>94</ele>
        <time>2015-11-29T10:04:24Z</time>
      </trkpt>
      <trkpt lat="44.48804" lon="0.69792">
        <ele>95</ele>
        <time>2015-11-29T10:04:29Z</time>
      </trkpt>
      <trkpt lat="44.48811" lon="0.69762">
        <ele>96</ele>
        <time>2015-11-29T10:04:36Z</time>
      </trkpt>
      <trkpt lat="44.48814" lon="0.69748">
        <ele>97</ele>
        <time>2015-11-29T10:04:39Z</time>
      </trkpt>
      <trkpt lat="44.4882" lon="0.69729">
        <ele>96</ele>
        <time>2015-11-29T10:04:44Z</time>
      </trkpt>
      <trkpt lat="44.48829" lon="0.69698">
        <ele>97</ele>
        <time>2015-11-29T10:04:52Z</time>
      </trkpt>
      <trkpt lat="44.48833" lon="0.69681">
        <ele>97</ele>
        <time>2015-11-29T10:04:57Z</time>
      </trkpt>
      <trkpt lat="44.48834" lon="0.69673">
        <ele>96</ele>
        <time>2015-11-29T10:04:59Z</time>
      </trkpt>
      <trkpt lat="44.4884" lon="0.69663">
        <ele>97</ele>
        <time>2015-11-29T10:05:04Z</time>
      </trkpt>
      <trkpt lat="44.48834" lon="0.69647">
        <ele>99</ele>
        <time>2015-11-29T10:05:12Z</time>
      </trkpt>
      <trkpt lat="44.48829" lon="0.69639">
        <ele>98</ele>
        <time>2015-11-29T10:05:14Z</time>
      </trkpt>
      <trkpt lat="44.48809" lon="0.69616">
        <ele>95</ele>
        <time>2015-11-29T10:05:19Z</time>
      </trkpt>
      <trkpt lat="44.48794" lon="0.69594">
        <ele>94</ele>
        <time>2015-11-29T10:05:24Z</time>
      </trkpt>
      <trkpt lat="44.48781" lon="0.69566">
        <ele>92</ele>
        <time>2015-11-29T10:05:29Z</time>
      </trkpt>
      <trkpt lat="44.48765" lon="0.69537">
        <ele>92</ele>
        <time>2015-11-29T10:05:34Z</time>
      </trkpt>
      <trkpt lat="44.48759" lon="0.69526">
        <ele>90</ele>
        <time>2015-11-29T10:05:39Z</time>
      </trkpt>
      <trkpt lat="44.48754" lon="0.69515">
        <ele>90</ele>
        <time>2015-11-29T10:05:44Z</time>
      </trkpt>
      <trkpt lat="44.48747" lon="0.69503">
        <ele>90</ele>
        <time>2015-11-29T10:05:49Z</time>
      </trkpt>
      <trkpt lat="44.48741" lon="0.6948">
        <ele>90</ele>
        <time>2015-11-29T10:05:55Z</time>
      </trkpt>
      <trkpt lat="44.48737" lon="0.69455">
        <ele>90</ele>
        <time>2015-11-29T10:06:02Z</time>
      </trkpt>
      <trkpt lat="44.48736" lon="0.6945">
        <ele>91</ele>
        <time>2015-11-29T10:06:04Z</time>
      </trkpt>
      <trkpt lat="44.48729" lon="0.69437">
        <ele>94</ele>
        <time>2015-11-29T10:06:09Z</time>
      </trkpt>
      <trkpt lat="44.48716" lon="0.69427">
        <ele>96</ele>
        <time>2015-11-29T10:06:17Z</time>
      </trkpt>
      <trkpt lat="44.4871" lon="0.69422">
        <ele>99</ele>
        <time>2015-11-29T10:06:22Z</time>
      </trkpt>
      <trkpt lat="44.48708" lon="0.69421">
        <ele>100</ele>
        <time>2015-11-29T10:06:24Z</time>
      </trkpt>
      <trkpt lat="44.48702" lon="0.69417">
        <ele>99</ele>
        <time>2015-11-29T10:06:29Z</time>
      </trkpt>
      <trkpt lat="44.48697" lon="0.69414">
        <ele>101</ele>
        <time>2015-11-29T10:06:34Z</time>
      </trkpt>
      <trkpt lat="44.48691" lon="0.69407">
        <ele>104</ele>
        <time>2015-11-29T10:06:43Z</time>
      </trkpt>
      <trkpt lat="44.48689" lon="0.69406">
        <ele>105</ele>
        <time>2015-11-29T10:06:45Z</time>
      </trkpt>
      <trkpt lat="44.48687" lon="0.69403">
        <ele>107</ele>
        <time>2015-11-29T10:06:49Z</time>
      </trkpt>
      <trkpt lat="44.48686" lon="0.69403">
        <ele>108</ele>
        <time>2015-11-29T10:06:54Z</time>
      </trkpt>
      <trkpt lat="44.48686" lon="0.69403">
        <ele>108</ele>
        <time>2015-11-29T10:06:57Z</time>
      </trkpt>
      <trkpt lat="44.48686" lon="0.69403">
        <ele>108</ele>
        <time>2015-11-29T10:07:00Z</time>
      </trkpt>
      <trkpt lat="44.48686" lon="0.69403">
        <ele>107</ele>
        <time>2015-11-29T10:07:05Z</time>
      </trkpt>
      <trkpt lat="44.48685" lon="0.69402">
        <ele>106</ele>
        <time>2015-11-29T10:07:08Z</time>
      </trkpt>
      <trkpt lat="44.48684" lon="0.69402">
        <ele>106</ele>
        <time>2015-11-29T10:07:10Z</time>
      </trkpt>
      <trkpt lat="44.48682" lon="0.694">
        <ele>106</ele>
        <time>2015-11-29T10:07:12Z</time>
      </trkpt>
      <trkpt lat="44.48675" lon="0.69394">
        <ele>105</ele>
        <time>2015-11-29T10:07:21Z</time>
      </trkpt>
      <trkpt lat="44.48675" lon="0.69393">
        <ele>105</ele>
        <time>2015-11-29T10:07:22Z</time>
      </trkpt>
      <trkpt lat="44.48673" lon="0.69391">
        <ele>108</ele>
        <time>2015-11-29T10:07:29Z</time>
      </trkpt>
      <trkpt lat="44.48672" lon="0.6939">
        <ele>109</ele>
        <time>2015-11-29T10:07:32Z</time>
      </trkpt>
      <trkpt lat="44.48672" lon="0.69389">
        <ele>108</ele>
        <time>2015-11-29T10:07:35Z</time>
      </trkpt>
      <trkpt lat="44.48669" lon="0.69386">
        <ele>110</ele>
        <time>2015-11-29T10:07:38Z</time>
      </trkpt>
      <trkpt lat="44.48667" lon="0.69383">
        <ele>110</ele>
        <time>2015-11-29T10:07:43Z</time>
      </trkpt>
      <trkpt lat="44.48666" lon="0.69381">
        <ele>110</ele>
        <time>2015-11-29T10:07:48Z</time>
      </trkpt>
      <trkpt lat="44.48664" lon="0.69379">
        <ele>109</ele>
        <time>2015-11-29T10:07:53Z</time>
      </trkpt>
      <trkpt lat="44.48662" lon="0.69378">
        <ele>108</ele>
        <time>2015-11-29T10:07:58Z</time>
      </trkpt>
      <trkpt lat="44.48657" lon="0.69374">
        <ele>107</ele>
        <time>2015-11-29T10:08:03Z</time>
      </trkpt>
      <trkpt lat="44.48649" lon="0.6937">
        <ele>107</ele>
        <time>2015-11-29T10:08:08Z</time>
      </trkpt>
      <trkpt lat="44.48643" lon="0.69365">
        <ele>109</ele>
        <time>2015-11-29T10:08:13Z</time>
      </trkpt>
      <trkpt lat="44.48639" lon="0.69361">
        <ele>112</ele>
        <time>2015-11-29T10:08:18Z</time>
      </trkpt>
      <trkpt lat="44.48637" lon="0.69359">
        <ele>113</ele>
        <time>2015-11-29T10:08:23Z</time>
      </trkpt>
      <trkpt lat="44.48633" lon="0.69356">
        <ele>113</ele>
        <time>2015-11-29T10:08:28Z</time>
      </trkpt>
      <trkpt lat="44.4863" lon="0.69352">
        <ele>114</ele>
        <time>2015-11-29T10:08:33Z</time>
      </trkpt>
      <trkpt lat="44.48627" lon="0.69348">
        <ele>113</ele>
        <time>2015-11-29T10:08:38Z</time>
      </trkpt>
      <trkpt lat="44.48623" lon="0.69345">
        <ele>116</ele>
        <time>2015-11-29T10:08:43Z</time>
      </trkpt>
      <trkpt lat="44.48617" lon="0.69341">
        <ele>117</ele>
        <time>2015-11-29T10:08:48Z</time>
      </trkpt>
      <trkpt lat="44.48612" lon="0.69338">
        <ele>116</ele>
        <time>2015-11-29T10:08:53Z</time>
      </trkpt>
      <trkpt lat="44.48607" lon="0.69334">
        <ele>117</ele>
        <time>2015-11-29T10:08:58Z</time>
      </trkpt>
      <trkpt lat="44.486" lon="0.69328">
        <ele>118</ele>
        <time>2015-11-29T10:09:03Z</time>
      </trkpt>
      <trkpt lat="44.48597" lon="0.69325">
        <ele>119</ele>
        <time>2015-11-29T10:09:08Z</time>
      </trkpt>
      <trkpt lat="44.48593" lon="0.69321">
        <ele>122</ele>
        <time>2015-11-29T10:09:13Z</time>
      </trkpt>
      <trkpt lat="44.48594" lon="0.69323">
        <ele>121</ele>
        <time>2015-11-29T10:09:18Z</time>
      </trkpt>
      <trkpt lat="44.48589" lon="0.69315">
        <ele>121</ele>
        <time>2015-11-29T10:09:25Z</time>
      </trkpt>
      <trkpt lat="44.48589" lon="0.69314">
        <ele>122</ele>
        <time>2015-11-29T10:09:26Z</time>
      </trkpt>
      <trkpt lat="44.48584" lon="0.69308">
        <ele>123</ele>
        <time>2015-11-29T10:09:31Z</time>
      </trkpt>
      <trkpt lat="44.48578" lon="0.69305">
        <ele>126</ele>
        <time>2015-11-29T10:09:36Z</time>
      </trkpt>
      <trkpt lat="44.48575" lon="0.69302">
        <ele>128</ele>
        <time>2015-11-29T10:09:41Z</time>
      </trkpt>
      <trkpt lat="44.48571" lon="0.693">
        <ele>129</ele>
        <time>2015-11-29T10:09:46Z</time>
      </trkpt>
      <trkpt lat="44.48567" lon="0.69294">
        <ele>128</ele>
        <time>2015-11-29T10:09:53Z</time>
      </trkpt>
      <trkpt lat="44.48564" lon="0.69289">
        <ele>129</ele>
        <time>2015-11-29T10:09:56Z</time>
      </trkpt>
      <trkpt lat="44.48558" lon="0.69285">
        <ele>127</ele>
        <time>2015-11-29T10:10:01Z</time>
      </trkpt>
      <trkpt lat="44.48551" lon="0.69277">
        <ele>127</ele>
        <time>2015-11-29T10:10:06Z</time>
      </trkpt>
      <trkpt lat="44.48546" lon="0.69267">
        <ele>129</ele>
        <time>2015-11-29T10:10:11Z</time>
      </trkpt>
      <trkpt lat="44.48545" lon="0.69264">
        <ele>129</ele>
        <time>2015-11-29T10:10:16Z</time>
      </trkpt>
      <trkpt lat="44.48538" lon="0.69254">
        <ele>130</ele>
        <time>2015-11-29T10:10:22Z</time>
      </trkpt>
      <trkpt lat="44.48533" lon="0.69251">
        <ele>128</ele>
        <time>2015-11-29T10:10:26Z</time>
      </trkpt>
      <trkpt lat="44.48529" lon="0.69244">
        <ele>129</ele>
        <time>2015-11-29T10:10:31Z</time>
      </trkpt>
      <trkpt lat="44.48526" lon="0.69236">
        <ele>134</ele>
        <time>2015-11-29T10:10:36Z</time>
      </trkpt>
      <trkpt lat="44.48519" lon="0.69221">
        <ele>134</ele>
        <time>2015-11-29T10:10:45Z</time>
      </trkpt>
      <trkpt lat="44.48518" lon="0.69221">
        <ele>134</ele>
        <time>2015-11-29T10:10:47Z</time>
      </trkpt>
      <trkpt lat="44.48516" lon="0.6922">
        <ele>134</ele>
        <time>2015-11-29T10:10:50Z</time>
      </trkpt>
      <trkpt lat="44.4851" lon="0.69215">
        <ele>131</ele>
        <time>2015-11-29T10:10:54Z</time>
      </trkpt>
      <trkpt lat="44.48498" lon="0.69191">
        <ele>133</ele>
        <time>2015-11-29T10:11:03Z</time>
      </trkpt>
      <trkpt lat="44.48497" lon="0.69189">
        <ele>132</ele>
        <time>2015-11-29T10:11:04Z</time>
      </trkpt>
      <trkpt lat="44.48492" lon="0.69182">
        <ele>136</ele>
        <time>2015-11-29T10:11:09Z</time>
      </trkpt>
      <trkpt lat="44.48482" lon="0.69166">
        <ele>133</ele>
        <time>2015-11-29T10:11:17Z</time>
      </trkpt>
      <trkpt lat="44.4848" lon="0.69164">
        <ele>134</ele>
        <time>2015-11-29T10:11:21Z</time>
      </trkpt>
      <trkpt lat="44.48479" lon="0.69163">
        <ele>134</ele>
        <time>2015-11-29T10:11:24Z</time>
      </trkpt>
      <trkpt lat="44.48474" lon="0.69155">
        <ele>134</ele>
        <time>2015-11-29T10:11:29Z</time>
      </trkpt>
      <trkpt lat="44.48471" lon="0.69151">
        <ele>134</ele>
        <time>2015-11-29T10:11:34Z</time>
      </trkpt>
      <trkpt lat="44.48463" lon="0.69139">
        <ele>135</ele>
        <time>2015-11-29T10:11:40Z</time>
      </trkpt>
      <trkpt lat="44.48459" lon="0.69135">
        <ele>136</ele>
        <time>2015-11-29T10:11:44Z</time>
      </trkpt>
      <trkpt lat="44.48453" lon="0.69128">
        <ele>134</ele>
        <time>2015-11-29T10:11:49Z</time>
      </trkpt>
      <trkpt lat="44.48451" lon="0.69122">
        <ele>133</ele>
        <time>2015-11-29T10:11:54Z</time>
      </trkpt>
      <trkpt lat="44.48448" lon="0.69117">
        <ele>132</ele>
        <time>2015-11-29T10:11:59Z</time>
      </trkpt>
      <trkpt lat="44.48444" lon="0.6911">
        <ele>134</ele>
        <time>2015-11-29T10:12:04Z</time>
      </trkpt>
      <trkpt lat="44.48435" lon="0.69099">
        <ele>136</ele>
        <time>2015-11-29T10:12:10Z</time>
      </trkpt>
      <trkpt lat="44.48432" lon="0.69095">
        <ele>137</ele>
        <time>2015-11-29T10:12:15Z</time>
      </trkpt>
      <trkpt lat="44.48427" lon="0.69086">
        <ele>139</ele>
        <time>2015-11-29T10:12:20Z</time>
      </trkpt>
      <trkpt lat="44.48421" lon="0.69079">
        <ele>139</ele>
        <time>2015-11-29T10:12:24Z</time>
      </trkpt>
      <trkpt lat="44.48417" lon="0.69077">
        <ele>139</ele>
        <time>2015-11-29T10:12:29Z</time>
      </trkpt>
      <trkpt lat="44.48409" lon="0.69066">
        <ele>139</ele>
        <time>2015-11-29T10:12:37Z</time>
      </trkpt>
      <trkpt lat="44.48405" lon="0.69063">
        <ele>138</ele>
        <time>2015-11-29T10:12:40Z</time>
      </trkpt>
      <trkpt lat="44.48397" lon="0.69048">
        <ele>140</ele>
        <time>2015-11-29T10:12:48Z</time>
      </trkpt>
      <trkpt lat="44.48396" lon="0.69046">
        <ele>140</ele>
        <time>2015-11-29T10:12:49Z</time>
      </trkpt>
      <trkpt lat="44.48389" lon="0.69039">
        <ele>141</ele>
        <time>2015-11-29T10:12:54Z</time>
      </trkpt>
      <trkpt lat="44.48386" lon="0.69032">
        <ele>140</ele>
        <time>2015-11-29T10:12:59Z</time>
      </trkpt>
      <trkpt lat="44.48377" lon="0.69023">
        <ele>138</ele>
        <time>2015-11-29T10:13:05Z</time>
      </trkpt>
      <trkpt lat="44.48373" lon="0.69018">
        <ele>139</ele>
        <time>2015-11-29T10:13:09Z</time>
      </trkpt>
      <trkpt lat="44.48369" lon="0.6901">
        <ele>139</ele>
        <time>2015-11-29T10:13:14Z</time>
      </trkpt>
      <trkpt lat="44.48366" lon="0.69003">
        <ele>139</ele>
        <time>2015-11-29T10:13:19Z</time>
      </trkpt>
      <trkpt lat="44.48361" lon="0.68995">
        <ele>140</ele>
        <time>2015-11-29T10:13:24Z</time>
      </trkpt>
      <trkpt lat="44.48352" lon="0.6898">
        <ele>141</ele>
        <time>2015-11-29T10:13:29Z</time>
      </trkpt>
      <trkpt lat="44.48347" lon="0.6896">
        <ele>142</ele>
        <time>2015-11-29T10:13:35Z</time>
      </trkpt>
      <trkpt lat="44.48337" lon="0.68944">
        <ele>141</ele>
        <time>2015-11-29T10:13:40Z</time>
      </trkpt>
      <trkpt lat="44.48327" lon="0.68915">
        <ele>139</ele>
        <time>2015-11-29T10:13:48Z</time>
      </trkpt>
      <trkpt lat="44.48324" lon="0.68895">
        <ele>138</ele>
        <time>2015-11-29T10:13:53Z</time>
      </trkpt>
      <trkpt lat="44.48323" lon="0.68891">
        <ele>138</ele>
        <time>2015-11-29T10:13:54Z</time>
      </trkpt>
      <trkpt lat="44.48318" lon="0.68873">
        <ele>137</ele>
        <time>2015-11-29T10:13:59Z</time>
      </trkpt>
      <trkpt lat="44.48313" lon="0.68853">
        <ele>137</ele>
        <time>2015-11-29T10:14:06Z</time>
      </trkpt>
      <trkpt lat="44.48307" lon="0.68841">
        <ele>136</ele>
        <time>2015-11-29T10:14:09Z</time>
      </trkpt>
      <trkpt lat="44.48295" lon="0.68824">
        <ele>139</ele>
        <time>2015-11-29T10:14:14Z</time>
      </trkpt>
      <trkpt lat="44.48282" lon="0.68802">
        <ele>142</ele>
        <time>2015-11-29T10:14:20Z</time>
      </trkpt>
      <trkpt lat="44.48266" lon="0.6878">
        <ele>144</ele>
        <time>2015-11-29T10:14:28Z</time>
      </trkpt>
      <trkpt lat="44.48262" lon="0.68771">
        <ele>145</ele>
        <time>2015-11-29T10:14:31Z</time>
      </trkpt>
      <trkpt lat="44.48256" lon="0.68765">
        <ele>147</ele>
        <time>2015-11-29T10:14:34Z</time>
      </trkpt>
      <trkpt lat="44.48247" lon="0.68753">
        <ele>148</ele>
        <time>2015-11-29T10:14:39Z</time>
      </trkpt>
      <trkpt lat="44.48239" lon="0.68742">
        <ele>150</ele>
        <time>2015-11-29T10:14:44Z</time>
      </trkpt>
      <trkpt lat="44.48233" lon="0.68731">
        <ele>149</ele>
        <time>2015-11-29T10:14:49Z</time>
      </trkpt>
      <trkpt lat="44.48225" lon="0.68719">
        <ele>149</ele>
        <time>2015-11-29T10:14:54Z</time>
      </trkpt>
      <trkpt lat="44.48215" lon="0.68705">
        <ele>150</ele>
        <time>2015-11-29T10:14:59Z</time>
      </trkpt>
      <trkpt lat="44.48198" lon="0.68679">
        <ele>153</ele>
        <time>2015-11-29T10:15:08Z</time>
      </trkpt>
      <trkpt lat="44.48196" lon="0.68675">
        <ele>153</ele>
        <time>2015-11-29T10:15:10Z</time>
      </trkpt>
      <trkpt lat="44.48194" lon="0.68668">
        <ele>154</ele>
        <time>2015-11-29T10:15:14Z</time>
      </trkpt>
      <trkpt lat="44.48186" lon="0.68659">
        <ele>155</ele>
        <time>2015-11-29T10:15:19Z</time>
      </trkpt>
      <trkpt lat="44.48175" lon="0.68642">
        <ele>156</ele>
        <time>2015-11-29T10:15:26Z</time>
      </trkpt>
      <trkpt lat="44.48169" lon="0.68631">
        <ele>155</ele>
        <time>2015-11-29T10:15:30Z</time>
      </trkpt>
      <trkpt lat="44.48161" lon="0.68621">
        <ele>157</ele>
        <time>2015-11-29T10:15:34Z</time>
      </trkpt>
      <trkpt lat="44.48152" lon="0.68605">
        <ele>158</ele>
        <time>2015-11-29T10:15:39Z</time>
      </trkpt>
      <trkpt lat="44.4814" lon="0.68582">
        <ele>159</ele>
        <time>2015-11-29T10:15:45Z</time>
      </trkpt>
      <trkpt lat="44.48125" lon="0.68553">
        <ele>161</ele>
        <time>2015-11-29T10:15:52Z</time>
      </trkpt>
      <trkpt lat="44.48122" lon="0.68544">
        <ele>162</ele>
        <time>2015-11-29T10:15:54Z</time>
      </trkpt>
      <trkpt lat="44.48117" lon="0.68522">
        <ele>162</ele>
        <time>2015-11-29T10:15:59Z</time>
      </trkpt>
      <trkpt lat="44.4811" lon="0.68503">
        <ele>163</ele>
        <time>2015-11-29T10:16:04Z</time>
      </trkpt>
      <trkpt lat="44.48098" lon="0.68474">
        <ele>164</ele>
        <time>2015-11-29T10:16:12Z</time>
      </trkpt>
      <trkpt lat="44.48094" lon="0.68467">
        <ele>164</ele>
        <time>2015-11-29T10:16:14Z</time>
      </trkpt>
      <trkpt lat="44.4808" lon="0.68433">
        <ele>164</ele>
        <time>2015-11-29T10:16:23Z</time>
      </trkpt>
      <trkpt lat="44.48078" lon="0.6843">
        <ele>164</ele>
        <time>2015-11-29T10:16:24Z</time>
      </trkpt>
      <trkpt lat="44.48069" lon="0.68411">
        <ele>164</ele>
        <time>2015-11-29T10:16:29Z</time>
      </trkpt>
      <trkpt lat="44.48051" lon="0.68386">
        <ele>163</ele>
        <time>2015-11-29T10:16:36Z</time>
      </trkpt>
      <trkpt lat="44.48045" lon="0.68375">
        <ele>163</ele>
        <time>2015-11-29T10:16:39Z</time>
      </trkpt>
      <trkpt lat="44.48035" lon="0.68357">
        <ele>164</ele>
        <time>2015-11-29T10:16:44Z</time>
      </trkpt>
      <trkpt lat="44.48026" lon="0.68338">
        <ele>164</ele>
        <time>2015-11-29T10:16:49Z</time>
      </trkpt>
      <trkpt lat="44.48017" lon="0.68315">
        <ele>166</ele>
        <time>2015-11-29T10:16:55Z</time>
      </trkpt>
      <trkpt lat="44.48009" lon="0.68296">
        <ele>168</ele>
        <time>2015-11-29T10:17:00Z</time>
      </trkpt>
      <trkpt lat="44.48002" lon="0.6828">
        <ele>168</ele>
        <time>2015-11-29T10:17:04Z</time>
      </trkpt>
      <trkpt lat="44.47996" lon="0.68261">
        <ele>168</ele>
        <time>2015-11-29T10:17:09Z</time>
      </trkpt>
      <trkpt lat="44.47988" lon="0.68241">
        <ele>169</ele>
        <time>2015-11-29T10:17:14Z</time>
      </trkpt>
      <trkpt lat="44.47983" lon="0.68226">
        <ele>169</ele>
        <time>2015-11-29T10:17:19Z</time>
      </trkpt>
      <trkpt lat="44.47975" lon="0.68209">
        <ele>170</ele>
        <time>2015-11-29T10:17:24Z</time>
      </trkpt>
      <trkpt lat="44.47967" lon="0.68189">
        <ele>170</ele>
        <time>2015-11-29T10:17:33Z</time>
      </trkpt>
      <trkpt lat="44.47958" lon="0.6818">
        <ele>171</ele>
        <time>2015-11-29T10:17:38Z</time>
      </trkpt>
      <trkpt lat="44.47957" lon="0.68178">
        <ele>171</ele>
        <time>2015-11-29T10:17:39Z</time>
      </trkpt>
      <trkpt lat="44.47943" lon="0.68164">
        <ele>171</ele>
        <time>2015-11-29T10:17:48Z</time>
      </trkpt>
      <trkpt lat="44.47941" lon="0.68163">
        <ele>171</ele>
        <time>2015-11-29T10:17:49Z</time>
      </trkpt>
      <trkpt lat="44.47933" lon="0.68156">
        <ele>171</ele>
        <time>2015-11-29T10:17:54Z</time>
      </trkpt>
      <trkpt lat="44.47924" lon="0.68152">
        <ele>171</ele>
        <time>2015-11-29T10:17:59Z</time>
      </trkpt>
      <trkpt lat="44.47914" lon="0.68148">
        <ele>171</ele>
        <time>2015-11-29T10:18:04Z</time>
      </trkpt>
      <trkpt lat="44.479" lon="0.68145">
        <ele>170</ele>
        <time>2015-11-29T10:18:12Z</time>
      </trkpt>
      <trkpt lat="44.47896" lon="0.68144">
        <ele>170</ele>
        <time>2015-11-29T10:18:14Z</time>
      </trkpt>
      <trkpt lat="44.47886" lon="0.68148">
        <ele>170</ele>
        <time>2015-11-29T10:18:19Z</time>
      </trkpt>
      <trkpt lat="44.47876" lon="0.68151">
        <ele>171</ele>
        <time>2015-11-29T10:18:24Z</time>
      </trkpt>
      <trkpt lat="44.47862" lon="0.68151">
        <ele>171</ele>
        <time>2015-11-29T10:18:30Z</time>
      </trkpt>
      <trkpt lat="44.47854" lon="0.68152">
        <ele>174</ele>
        <time>2015-11-29T10:18:34Z</time>
      </trkpt>
      <trkpt lat="44.47842" lon="0.68153">
        <ele>175</ele>
        <time>2015-11-29T10:18:39Z</time>
      </trkpt>
      <trkpt lat="44.47823" lon="0.68157">
        <ele>175</ele>
        <time>2015-11-29T10:18:48Z</time>
      </trkpt>
      <trkpt lat="44.4782" lon="0.68158">
        <ele>175</ele>
        <time>2015-11-29T10:18:49Z</time>
      </trkpt>
      <trkpt lat="44.47808" lon="0.68162">
        <ele>175</ele>
        <time>2015-11-29T10:18:54Z</time>
      </trkpt>
      <trkpt lat="44.47798" lon="0.68167">
        <ele>177</ele>
        <time>2015-11-29T10:18:59Z</time>
      </trkpt>
      <trkpt lat="44.47783" lon="0.68177">
        <ele>179</ele>
        <time>2015-11-29T10:19:05Z</time>
      </trkpt>
      <trkpt lat="44.4777" lon="0.68187">
        <ele>179</ele>
        <time>2015-11-29T10:19:11Z</time>
      </trkpt>
      <trkpt lat="44.47764" lon="0.68188">
        <ele>180</ele>
        <time>2015-11-29T10:19:14Z</time>
      </trkpt>
      <trkpt lat="44.47764" lon="0.68178">
        <ele>178</ele>
        <time>2015-11-29T10:19:19Z</time>
      </trkpt>
      <trkpt lat="44.4778" lon="0.68143">
        <ele>180</ele>
        <time>2015-11-29T10:19:28Z</time>
      </trkpt>
      <trkpt lat="44.47786" lon="0.68122">
        <ele>183</ele>
        <time>2015-11-29T10:19:32Z</time>
      </trkpt>
      <trkpt lat="44.47789" lon="0.68113">
        <ele>184</ele>
        <time>2015-11-29T10:19:34Z</time>
      </trkpt>
      <trkpt lat="44.47797" lon="0.68093">
        <ele>185</ele>
        <time>2015-11-29T10:19:39Z</time>
      </trkpt>
      <trkpt lat="44.47806" lon="0.68072">
        <ele>186</ele>
        <time>2015-11-29T10:19:44Z</time>
      </trkpt>
      <trkpt lat="44.47812" lon="0.68058">
        <ele>188</ele>
        <time>2015-11-29T10:19:49Z</time>
      </trkpt>
      <trkpt lat="44.4782" lon="0.68046">
        <ele>192</ele>
        <time>2015-11-29T10:19:54Z</time>
      </trkpt>
      <trkpt lat="44.47826" lon="0.6803">
        <ele>193</ele>
        <time>2015-11-29T10:19:59Z</time>
      </trkpt>
      <trkpt lat="44.4783" lon="0.68014">
        <ele>190</ele>
        <time>2015-11-29T10:20:04Z</time>
      </trkpt>
      <trkpt lat="44.47833" lon="0.68001">
        <ele>188</ele>
        <time>2015-11-29T10:20:09Z</time>
      </trkpt>
      <trkpt lat="44.47837" lon="0.67986">
        <ele>185</ele>
        <time>2015-11-29T10:20:15Z</time>
      </trkpt>
      <trkpt lat="44.47837" lon="0.67972">
        <ele>185</ele>
        <time>2015-11-29T10:20:21Z</time>
      </trkpt>
      <trkpt lat="44.47834" lon="0.67961">
        <ele>180</ele>
        <time>2015-11-29T10:20:25Z</time>
      </trkpt>
      <trkpt lat="44.47828" lon="0.67932">
        <ele>175</ele>
        <time>2015-11-29T10:20:31Z</time>
      </trkpt>
      <trkpt lat="44.47814" lon="0.67923">
        <ele>172</ele>
        <time>2015-11-29T10:20:34Z</time>
      </trkpt>
      <trkpt lat="44.47789" lon="0.6791">
        <ele>172</ele>
        <time>2015-11-29T10:20:40Z</time>
      </trkpt>
      <trkpt lat="44.4778" lon="0.67899">
        <ele>173</ele>
        <time>2015-11-29T10:20:44Z</time>
      </trkpt>
      <trkpt lat="44.47763" lon="0.67886">
        <ele>174</ele>
        <time>2015-11-29T10:20:49Z</time>
      </trkpt>
      <trkpt lat="44.47736" lon="0.67867">
        <ele>173</ele>
        <time>2015-11-29T10:20:55Z</time>
      </trkpt>
      <trkpt lat="44.47728" lon="0.6785">
        <ele>169</ele>
        <time>2015-11-29T10:20:59Z</time>
      </trkpt>
      <trkpt lat="44.47713" lon="0.67817">
        <ele>164</ele>
        <time>2015-11-29T10:21:04Z</time>
      </trkpt>
      <trkpt lat="44.47691" lon="0.67783">
        <ele>158</ele>
        <time>2015-11-29T10:21:09Z</time>
      </trkpt>
      <trkpt lat="44.47668" lon="0.67747">
        <ele>153</ele>
        <time>2015-11-29T10:21:14Z</time>
      </trkpt>
      <trkpt lat="44.47653" lon="0.67714">
        <ele>150</ele>
        <time>2015-11-29T10:21:19Z</time>
      </trkpt>
      <trkpt lat="44.47639" lon="0.67655">
        <ele>161</ele>
        <time>2015-11-29T10:21:28Z</time>
      </trkpt>
      <trkpt lat="44.47637" lon="0.67656">
        <ele>157</ele>
        <time>2015-11-29T10:21:29Z</time>
      </trkpt>
      <trkpt lat="44.47636" lon="0.67657">
        <ele>149</ele>
        <time>2015-11-29T10:21:36Z</time>
      </trkpt>
      <trkpt lat="44.47634" lon="0.67656">
        <ele>148</ele>
        <time>2015-11-29T10:21:39Z</time>
      </trkpt>
      <trkpt lat="44.47631" lon="0.67655">
        <ele>145</ele>
        <time>2015-11-29T10:21:44Z</time>
      </trkpt>
      <trkpt lat="44.47629" lon="0.6765">
        <ele>146</ele>
        <time>2015-11-29T10:21:47Z</time>
      </trkpt>
      <trkpt lat="44.47626" lon="0.6763">
        <ele>148</ele>
        <time>2015-11-29T10:21:52Z</time>
      </trkpt>
      <trkpt lat="44.47622" lon="0.67619">
        <ele>144</ele>
        <time>2015-11-29T10:21:57Z</time>
      </trkpt>
      <trkpt lat="44.47618" lon="0.67601">
        <ele>141</ele>
        <time>2015-11-29T10:22:05Z</time>
      </trkpt>
      <trkpt lat="44.47616" lon="0.67596">
        <ele>141</ele>
        <time>2015-11-29T10:22:07Z</time>
      </trkpt>
      <trkpt lat="44.47611" lon="0.6758">
        <ele>140</ele>
        <time>2015-11-29T10:22:13Z</time>
      </trkpt>
      <trkpt lat="44.47607" lon="0.67565">
        <ele>139</ele>
        <time>2015-11-29T10:22:17Z</time>
      </trkpt>
      <trkpt lat="44.47598" lon="0.67527">
        <ele>138</ele>
        <time>2015-11-29T10:22:26Z</time>
      </trkpt>
      <trkpt lat="44.47596" lon="0.67523">
        <ele>137</ele>
        <time>2015-11-29T10:22:27Z</time>
      </trkpt>
      <trkpt lat="44.4758" lon="0.67494">
        <ele>135</ele>
        <time>2015-11-29T10:22:32Z</time>
      </trkpt>
      <trkpt lat="44.4756" lon="0.67459">
        <ele>132</ele>
        <time>2015-11-29T10:22:37Z</time>
      </trkpt>
      <trkpt lat="44.47546" lon="0.67431">
        <ele>132</ele>
        <time>2015-11-29T10:22:42Z</time>
      </trkpt>
      <trkpt lat="44.47533" lon="0.67405">
        <ele>132</ele>
        <time>2015-11-29T10:22:47Z</time>
      </trkpt>
      <trkpt lat="44.47513" lon="0.67369">
        <ele>132</ele>
        <time>2015-11-29T10:22:55Z</time>
      </trkpt>
      <trkpt lat="44.4751" lon="0.6736">
        <ele>131</ele>
        <time>2015-11-29T10:22:57Z</time>
      </trkpt>
      <trkpt lat="44.47502" lon="0.67337">
        <ele>127</ele>
        <time>2015-11-29T10:23:02Z</time>
      </trkpt>
      <trkpt lat="44.4749" lon="0.67312">
        <ele>127</ele>
        <time>2015-11-29T10:23:07Z</time>
      </trkpt>
      <trkpt lat="44.47474" lon="0.6728">
        <ele>127</ele>
        <time>2015-11-29T10:23:14Z</time>
      </trkpt>
      <trkpt lat="44.47468" lon="0.67274">
        <ele>127</ele>
        <time>2015-11-29T10:23:17Z</time>
      </trkpt>
      <trkpt lat="44.47458" lon="0.67263">
        <ele>125</ele>
        <time>2015-11-29T10:23:22Z</time>
      </trkpt>
      <trkpt lat="44.47459" lon="0.67255">
        <ele>124</ele>
        <time>2015-11-29T10:23:27Z</time>
      </trkpt>
      <trkpt lat="44.47459" lon="0.67254">
        <ele>125</ele>
        <time>2015-11-29T10:23:32Z</time>
      </trkpt>
      <trkpt lat="44.47459" lon="0.67254">
        <ele>125</ele>
        <time>2015-11-29T10:23:36Z</time>
      </trkpt>
      <trkpt lat="44.47461" lon="0.67252">
        <ele>125</ele>
        <time>2015-11-29T10:23:39Z</time>
      </trkpt>
      <trkpt lat="44.47462" lon="0.67247">
        <ele>126</ele>
        <time>2015-11-29T10:23:43Z</time>
      </trkpt>
      <trkpt lat="44.47465" lon="0.67236">
        <ele>126</ele>
        <time>2015-11-29T10:23:49Z</time>
      </trkpt>
      <trkpt lat="44.47465" lon="0.6723">
        <ele>128</ele>
        <time>2015-11-29T10:23:53Z</time>
      </trkpt>
      <trkpt lat="44.47465" lon="0.6722">
        <ele>129</ele>
        <time>2015-11-29T10:23:59Z</time>
      </trkpt>
      <trkpt lat="44.47465" lon="0.67218">
        <ele>129</ele>
        <time>2015-11-29T10:24:03Z</time>
      </trkpt>
      <trkpt lat="44.47465" lon="0.67218">
        <ele>130</ele>
        <time>2015-11-29T10:24:06Z</time>
      </trkpt>
      <trkpt lat="44.47464" lon="0.67215">
        <ele>130</ele>
        <time>2015-11-29T10:24:09Z</time>
      </trkpt>
      <trkpt lat="44.47456" lon="0.67215">
        <ele>129</ele>
        <time>2015-11-29T10:24:14Z</time>
      </trkpt>
      <trkpt lat="44.47451" lon="0.6721">
        <ele>131</ele>
        <time>2015-11-29T10:24:19Z</time>
      </trkpt>
      <trkpt lat="44.47452" lon="0.67201">
        <ele>133</ele>
        <time>2015-11-29T10:24:24Z</time>
      </trkpt>
      <trkpt lat="44.47456" lon="0.67197">
        <ele>135</ele>
        <time>2015-11-29T10:24:29Z</time>
      </trkpt>
      <trkpt lat="44.47459" lon="0.67192">
        <ele>138</ele>
        <time>2015-11-29T10:24:34Z</time>
      </trkpt>
      <trkpt lat="44.47466" lon="0.67182">
        <ele>138</ele>
        <time>2015-11-29T10:24:40Z</time>
      </trkpt>
      <trkpt lat="44.47465" lon="0.67175">
        <ele>137</ele>
        <time>2015-11-29T10:24:44Z</time>
      </trkpt>
      <trkpt lat="44.47461" lon="0.67166">
        <ele>137</ele>
        <time>2015-11-29T10:24:49Z</time>
      </trkpt>
      <trkpt lat="44.47462" lon="0.67157">
        <ele>138</ele>
        <time>2015-11-29T10:24:54Z</time>
      </trkpt>
      <trkpt lat="44.47464" lon="0.67152">
        <ele>138</ele>
        <time>2015-11-29T10:24:59Z</time>
      </trkpt>
      <trkpt lat="44.47458" lon="0.67147">
        <ele>138</ele>
        <time>2015-11-29T10:25:04Z</time>
      </trkpt>
      <trkpt lat="44.47455" lon="0.67144">
        <ele>139</ele>
        <time>2015-11-29T10:25:09Z</time>
      </trkpt>
      <trkpt lat="44.47455" lon="0.6714">
        <ele>139</ele>
        <time>2015-11-29T10:25:14Z</time>
      </trkpt>
      <trkpt lat="44.47465" lon="0.67128">
        <ele>140</ele>
        <time>2015-11-29T10:25:21Z</time>
      </trkpt>
      <trkpt lat="44.47467" lon="0.67124">
        <ele>142</ele>
        <time>2015-11-29T10:25:24Z</time>
      </trkpt>
      <trkpt lat="44.47472" lon="0.67113">
        <ele>142</ele>
        <time>2015-11-29T10:25:29Z</time>
      </trkpt>
      <trkpt lat="44.47477" lon="0.67103">
        <ele>147</ele>
        <time>2015-11-29T10:25:35Z</time>
      </trkpt>
      <trkpt lat="44.47478" lon="0.671">
        <ele>149</ele>
        <time>2015-11-29T10:25:39Z</time>
      </trkpt>
      <trkpt lat="44.4748" lon="0.67092">
        <ele>149</ele>
        <time>2015-11-29T10:25:44Z</time>
      </trkpt>
      <trkpt lat="44.47482" lon="0.6709">
        <ele>150</ele>
        <time>2015-11-29T10:25:49Z</time>
      </trkpt>
      <trkpt lat="44.47487" lon="0.67083">
        <ele>151</ele>
        <time>2015-11-29T10:25:58Z</time>
      </trkpt>
      <trkpt lat="44.47487" lon="0.67083">
        <ele>152</ele>
        <time>2015-11-29T10:25:59Z</time>
      </trkpt>
      <trkpt lat="44.4749" lon="0.67077">
        <ele>153</ele>
        <time>2015-11-29T10:26:04Z</time>
      </trkpt>
      <trkpt lat="44.47494" lon="0.67068">
        <ele>152</ele>
        <time>2015-11-29T10:26:09Z</time>
      </trkpt>
      <trkpt lat="44.47499" lon="0.6706">
        <ele>155</ele>
        <time>2015-11-29T10:26:15Z</time>
      </trkpt>
      <trkpt lat="44.47502" lon="0.67052">
        <ele>155</ele>
        <time>2015-11-29T10:26:19Z</time>
      </trkpt>
      <trkpt lat="44.475" lon="0.67041">
        <ele>153</ele>
        <time>2015-11-29T10:26:24Z</time>
      </trkpt>
      <trkpt lat="44.47501" lon="0.67032">
        <ele>155</ele>
        <time>2015-11-29T10:26:30Z</time>
      </trkpt>
      <trkpt lat="44.47502" lon="0.67028">
        <ele>155</ele>
        <time>2015-11-29T10:26:34Z</time>
      </trkpt>
      <trkpt lat="44.47503" lon="0.67021">
        <ele>154</ele>
        <time>2015-11-29T10:26:39Z</time>
      </trkpt>
      <trkpt lat="44.47505" lon="0.67018">
        <ele>155</ele>
        <time>2015-11-29T10:26:44Z</time>
      </trkpt>
      <trkpt lat="44.47509" lon="0.67017">
        <ele>156</ele>
        <time>2015-11-29T10:26:49Z</time>
      </trkpt>
      <trkpt lat="44.47516" lon="0.67012">
        <ele>158</ele>
        <time>2015-11-29T10:26:54Z</time>
      </trkpt>
      <trkpt lat="44.47523" lon="0.6701">
        <ele>159</ele>
        <time>2015-11-29T10:26:59Z</time>
      </trkpt>
      <trkpt lat="44.47529" lon="0.67001">
        <ele>159</ele>
        <time>2015-11-29T10:27:04Z</time>
      </trkpt>
      <trkpt lat="44.47535" lon="0.66994">
        <ele>158</ele>
        <time>2015-11-29T10:27:09Z</time>
      </trkpt>
      <trkpt lat="44.47538" lon="0.66992">
        <ele>157</ele>
        <time>2015-11-29T10:27:14Z</time>
      </trkpt>
      <trkpt lat="44.47539" lon="0.66987">
        <ele>155</ele>
        <time>2015-11-29T10:27:23Z</time>
      </trkpt>
      <trkpt lat="44.47539" lon="0.66987">
        <ele>155</ele>
        <time>2015-11-29T10:27:24Z</time>
      </trkpt>
      <trkpt lat="44.47539" lon="0.66987">
        <ele>155</ele>
        <time>2015-11-29T10:27:27Z</time>
      </trkpt>
      <trkpt lat="44.47539" lon="0.66987">
        <ele>155</ele>
        <time>2015-11-29T10:27:30Z</time>
      </trkpt>
      <trkpt lat="44.47539" lon="0.66987">
        <ele>155</ele>
        <time>2015-11-29T10:27:33Z</time>
      </trkpt>
      <trkpt lat="44.47539" lon="0.66987">
        <ele>155</ele>
        <time>2015-11-29T10:27:36Z</time>
      </trkpt>
      <trkpt lat="44.47539" lon="0.66987">
        <ele>155</ele>
        <time>2015-11-29T10:27:39Z</time>
      </trkpt>
      <trkpt lat="44.47539" lon="0.66987">
        <ele>155</ele>
        <time>2015-11-29T10:27:42Z</time>
      </trkpt>
      <trkpt lat="44.47539" lon="0.66987">
        <ele>155</ele>
        <time>2015-11-29T10:27:45Z</time>
      </trkpt>
      <trkpt lat="44.47539" lon="0.66987">
        <ele>155</ele>
        <time>2015-11-29T10:27:48Z</time>
      </trkpt>
      <trkpt lat="44.47539" lon="0.66987">
        <ele>155</ele>
        <time>2015-11-29T10:27:51Z</time>
      </trkpt>
      <trkpt lat="44.47541" lon="0.66987">
        <ele>156</ele>
        <time>2015-11-29T10:27:54Z</time>
      </trkpt>
      <trkpt lat="44.4755" lon="0.66985">
        <ele>154</ele>
        <time>2015-11-29T10:27:59Z</time>
      </trkpt>
      <trkpt lat="44.47563" lon="0.66987">
        <ele>153</ele>
        <time>2015-11-29T10:28:04Z</time>
      </trkpt>
      <trkpt lat="44.47574" lon="0.66995">
        <ele>153</ele>
        <time>2015-11-29T10:28:09Z</time>
      </trkpt>
      <trkpt lat="44.47591" lon="0.6701">
        <ele>151</ele>
        <time>2015-11-29T10:28:15Z</time>
      </trkpt>
      <trkpt lat="44.47606" lon="0.67017">
        <ele>148</ele>
        <time>2015-11-29T10:28:19Z</time>
      </trkpt>
      <trkpt lat="44.47624" lon="0.67021">
        <ele>148</ele>
        <time>2015-11-29T10:28:24Z</time>
      </trkpt>
      <trkpt lat="44.47644" lon="0.67012">
        <ele>147</ele>
        <time>2015-11-29T10:28:29Z</time>
      </trkpt>
      <trkpt lat="44.47686" lon="0.66997">
        <ele>142</ele>
        <time>2015-11-29T10:28:38Z</time>
      </trkpt>
      <trkpt lat="44.47691" lon="0.66996">
        <ele>141</ele>
        <time>2015-11-29T10:28:39Z</time>
      </trkpt>
      <trkpt lat="44.47721" lon="0.67001">
        <ele>136</ele>
        <time>2015-11-29T10:28:44Z</time>
      </trkpt>
      <trkpt lat="44.47748" lon="0.67019">
        <ele>133</ele>
        <time>2015-11-29T10:28:49Z</time>
      </trkpt>
      <trkpt lat="44.47775" lon="0.67039">
        <ele>135</ele>
        <time>2015-11-29T10:28:54Z</time>
      </trkpt>
      <trkpt lat="44.47812" lon="0.67063">
        <ele>133</ele>
        <time>2015-11-29T10:29:03Z</time>
      </trkpt>
      <trkpt lat="44.47823" lon="0.67052">
        <ele>132</ele>
        <time>2015-11-29T10:29:06Z</time>
      </trkpt>
      <trkpt lat="44.47831" lon="0.67034">
        <ele>132</ele>
        <time>2015-11-29T10:29:10Z</time>
      </trkpt>
      <trkpt lat="44.4784" lon="0.66997">
        <ele>133</ele>
        <time>2015-11-29T10:29:17Z</time>
      </trkpt>
      <trkpt lat="44.47852" lon="0.66972">
        <ele>133</ele>
        <time>2015-11-29T10:29:23Z</time>
      </trkpt>
      <trkpt lat="44.47858" lon="0.66964">
        <ele>132</ele>
        <time>2015-11-29T10:29:25Z</time>
      </trkpt>
      <trkpt lat="44.47868" lon="0.66947">
        <ele>131</ele>
        <time>2015-11-29T10:29:29Z</time>
      </trkpt>
      <trkpt lat="44.47882" lon="0.66923">
        <ele>130</ele>
        <time>2015-11-29T10:29:34Z</time>
      </trkpt>
      <trkpt lat="44.47895" lon="0.66897">
        <ele>129</ele>
        <time>2015-11-29T10:29:39Z</time>
      </trkpt>
      <trkpt lat="44.47905" lon="0.66866">
        <ele>129</ele>
        <time>2015-11-29T10:29:44Z</time>
      </trkpt>
      <trkpt lat="44.47912" lon="0.66835">
        <ele>129</ele>
        <time>2015-11-29T10:29:49Z</time>
      </trkpt>
      <trkpt lat="44.4792" lon="0.66807">
        <ele>129</ele>
        <time>2015-11-29T10:29:54Z</time>
      </trkpt>
      <trkpt lat="44.4793" lon="0.6678">
        <ele>129</ele>
        <time>2015-11-29T10:29:59Z</time>
      </trkpt>
      <trkpt lat="44.47941" lon="0.66752">
        <ele>129</ele>
        <time>2015-11-29T10:30:04Z</time>
      </trkpt>
      <trkpt lat="44.47954" lon="0.66723">
        <ele>127</ele>
        <time>2015-11-29T10:30:09Z</time>
      </trkpt>
      <trkpt lat="44.47966" lon="0.66697">
        <ele>127</ele>
        <time>2015-11-29T10:30:14Z</time>
      </trkpt>
      <trkpt lat="44.47979" lon="0.66668">
        <ele>126</ele>
        <time>2015-11-29T10:30:19Z</time>
      </trkpt>
      <trkpt lat="44.47989" lon="0.66639">
        <ele>127</ele>
        <time>2015-11-29T10:30:24Z</time>
      </trkpt>
      <trkpt lat="44.47997" lon="0.66614">
        <ele>126</ele>
        <time>2015-11-29T10:30:29Z</time>
      </trkpt>
      <trkpt lat="44.48002" lon="0.66601">
        <ele>126</ele>
        <time>2015-11-29T10:30:34Z</time>
      </trkpt>
      <trkpt lat="44.4801" lon="0.66599">
        <ele>126</ele>
        <time>2015-11-29T10:30:39Z</time>
      </trkpt>
      <trkpt lat="44.48019" lon="0.66606">
        <ele>127</ele>
        <time>2015-11-29T10:30:44Z</time>
      </trkpt>
      <trkpt lat="44.48028" lon="0.66605">
        <ele>127</ele>
        <time>2015-11-29T10:30:49Z</time>
      </trkpt>
      <trkpt lat="44.48035" lon="0.66608">
        <ele>129</ele>
        <time>2015-11-29T10:30:54Z</time>
      </trkpt>
      <trkpt lat="44.48044" lon="0.66609">
        <ele>130</ele>
        <time>2015-11-29T10:30:59Z</time>
      </trkpt>
      <trkpt lat="44.48053" lon="0.66609">
        <ele>130</ele>
        <time>2015-11-29T10:31:04Z</time>
      </trkpt>
      <trkpt lat="44.48062" lon="0.66613">
        <ele>132</ele>
        <time>2015-11-29T10:31:09Z</time>
      </trkpt>
      <trkpt lat="44.4807" lon="0.66613">
        <ele>133</ele>
        <time>2015-11-29T10:31:14Z</time>
      </trkpt>
      <trkpt lat="44.48077" lon="0.66613">
        <ele>134</ele>
        <time>2015-11-29T10:31:19Z</time>
      </trkpt>
      <trkpt lat="44.48086" lon="0.66615">
        <ele>133</ele>
        <time>2015-11-29T10:31:24Z</time>
      </trkpt>
      <trkpt lat="44.48095" lon="0.66618">
        <ele>134</ele>
        <time>2015-11-29T10:31:29Z</time>
      </trkpt>
      <trkpt lat="44.48105" lon="0.66618">
        <ele>135</ele>
        <time>2015-11-29T10:31:34Z</time>
      </trkpt>
      <trkpt lat="44.48113" lon="0.66622">
        <ele>135</ele>
        <time>2015-11-29T10:31:39Z</time>
      </trkpt>
      <trkpt lat="44.48122" lon="0.66627">
        <ele>136</ele>
        <time>2015-11-29T10:31:44Z</time>
      </trkpt>
      <trkpt lat="44.48129" lon="0.66626">
        <ele>136</ele>
        <time>2015-11-29T10:31:49Z</time>
      </trkpt>
      <trkpt lat="44.48135" lon="0.66615">
        <ele>134</ele>
        <time>2015-11-29T10:31:54Z</time>
      </trkpt>
      <trkpt lat="44.48142" lon="0.666">
        <ele>135</ele>
        <time>2015-11-29T10:32:00Z</time>
      </trkpt>
      <trkpt lat="44.48145" lon="0.66589">
        <ele>137</ele>
        <time>2015-11-29T10:32:04Z</time>
      </trkpt>
      <trkpt lat="44.4815" lon="0.66572">
        <ele>136</ele>
        <time>2015-11-29T10:32:09Z</time>
      </trkpt>
      <trkpt lat="44.48155" lon="0.66552">
        <ele>136</ele>
        <time>2015-11-29T10:32:14Z</time>
      </trkpt>
      <trkpt lat="44.48159" lon="0.6653">
        <ele>137</ele>
        <time>2015-11-29T10:32:19Z</time>
      </trkpt>
      <trkpt lat="44.48159" lon="0.66506">
        <ele>134</ele>
        <time>2015-11-29T10:32:24Z</time>
      </trkpt>
      <trkpt lat="44.4816" lon="0.66489">
        <ele>131</ele>
        <time>2015-11-29T10:32:29Z</time>
      </trkpt>
      <trkpt lat="44.4816" lon="0.66468">
        <ele>129</ele>
        <time>2015-11-29T10:32:33Z</time>
      </trkpt>
      <trkpt lat="44.48161" lon="0.66444">
        <ele>129</ele>
        <time>2015-11-29T10:32:38Z</time>
      </trkpt>
      <trkpt lat="44.48166" lon="0.66419">
        <ele>129</ele>
        <time>2015-11-29T10:32:43Z</time>
      </trkpt>
      <trkpt lat="44.48167" lon="0.66386">
        <ele>127</ele>
        <time>2015-11-29T10:32:49Z</time>
      </trkpt>
      <trkpt lat="44.48171" lon="0.66369">
        <ele>125</ele>
        <time>2015-11-29T10:32:53Z</time>
      </trkpt>
      <trkpt lat="44.48176" lon="0.66342">
        <ele>126</ele>
        <time>2015-11-29T10:32:58Z</time>
      </trkpt>
      <trkpt lat="44.48187" lon="0.66283">
        <ele>119</ele>
        <time>2015-11-29T10:33:07Z</time>
      </trkpt>
      <trkpt lat="44.48191" lon="0.66258">
        <ele>118</ele>
        <time>2015-11-29T10:33:11Z</time>
      </trkpt>
      <trkpt lat="44.48195" lon="0.66246">
        <ele>117</ele>
        <time>2015-11-29T10:33:13Z</time>
      </trkpt>
      <trkpt lat="44.48202" lon="0.66213">
        <ele>115</ele>
        <time>2015-11-29T10:33:18Z</time>
      </trkpt>
      <trkpt lat="44.48208" lon="0.66183">
        <ele>114</ele>
        <time>2015-11-29T10:33:22Z</time>
      </trkpt>
      <trkpt lat="44.4823" lon="0.66145">
        <ele>110</ele>
        <time>2015-11-29T10:33:28Z</time>
      </trkpt>
      <trkpt lat="44.48252" lon="0.66123">
        <ele>109</ele>
        <time>2015-11-29T10:33:32Z</time>
      </trkpt>
      <trkpt lat="44.48265" lon="0.6608">
        <ele>108</ele>
        <time>2015-11-29T10:33:38Z</time>
      </trkpt>
      <trkpt lat="44.48268" lon="0.66069">
        <ele>108</ele>
        <time>2015-11-29T10:33:42Z</time>
      </trkpt>
      <trkpt lat="44.48277" lon="0.66071">
        <ele>107</ele>
        <time>2015-11-29T10:33:47Z</time>
      </trkpt>
      <trkpt lat="44.4829" lon="0.66063">
        <ele>110</ele>
        <time>2015-11-29T10:33:54Z</time>
      </trkpt>
      <trkpt lat="44.48293" lon="0.6606">
        <ele>113</ele>
        <time>2015-11-29T10:33:57Z</time>
      </trkpt>
      <trkpt lat="44.48294" lon="0.66058">
        <ele>112</ele>
        <time>2015-11-29T10:34:02Z</time>
      </trkpt>
      <trkpt lat="44.48297" lon="0.66055">
        <ele>113</ele>
        <time>2015-11-29T10:34:05Z</time>
      </trkpt>
      <trkpt lat="44.48299" lon="0.66049">
        <ele>115</ele>
        <time>2015-11-29T10:34:14Z</time>
      </trkpt>
      <trkpt lat="44.48299" lon="0.66049">
        <ele>115</ele>
        <time>2015-11-29T10:34:15Z</time>
      </trkpt>
      <trkpt lat="44.48299" lon="0.66049">
        <ele>115</ele>
        <time>2015-11-29T10:34:18Z</time>
      </trkpt>
      <trkpt lat="44.483" lon="0.66051">
        <ele>116</ele>
        <time>2015-11-29T10:34:21Z</time>
      </trkpt>
      <trkpt lat="44.48305" lon="0.66053">
        <ele>117</ele>
        <time>2015-11-29T10:34:26Z</time>
      </trkpt>
      <trkpt lat="44.48315" lon="0.6605">
        <ele>119</ele>
        <time>2015-11-29T10:34:33Z</time>
      </trkpt>
      <trkpt lat="44.48319" lon="0.66048">
        <ele>119</ele>
        <time>2015-11-29T10:34:36Z</time>
      </trkpt>
      <trkpt lat="44.48326" lon="0.66043">
        <ele>120</ele>
        <time>2015-11-29T10:34:41Z</time>
      </trkpt>
      <trkpt lat="44.48333" lon="0.66041">
        <ele>120</ele>
        <time>2015-11-29T10:34:46Z</time>
      </trkpt>
      <trkpt lat="44.4834" lon="0.66037">
        <ele>121</ele>
        <time>2015-11-29T10:34:51Z</time>
      </trkpt>
      <trkpt lat="44.48352" lon="0.66029">
        <ele>118</ele>
        <time>2015-11-29T10:35:00Z</time>
      </trkpt>
      <trkpt lat="44.48352" lon="0.6603">
        <ele>118</ele>
        <time>2015-11-29T10:35:01Z</time>
      </trkpt>
      <trkpt lat="44.48361" lon="0.66027">
        <ele>117</ele>
        <time>2015-11-29T10:35:08Z</time>
      </trkpt>
      <trkpt lat="44.48363" lon="0.66031">
        <ele>119</ele>
        <time>2015-11-29T10:35:11Z</time>
      </trkpt>
      <trkpt lat="44.4837" lon="0.66026">
        <ele>124</ele>
        <time>2015-11-29T10:35:19Z</time>
      </trkpt>
      <trkpt lat="44.48371" lon="0.66025">
        <ele>125</ele>
        <time>2015-11-29T10:35:21Z</time>
      </trkpt>
      <trkpt lat="44.48376" lon="0.66022">
        <ele>125</ele>
        <time>2015-11-29T10:35:26Z</time>
      </trkpt>
      <trkpt lat="44.48379" lon="0.66022">
        <ele>127</ele>
        <time>2015-11-29T10:35:31Z</time>
      </trkpt>
      <trkpt lat="44.48381" lon="0.66023">
        <ele>129</ele>
        <time>2015-11-29T10:35:36Z</time>
      </trkpt>
      <trkpt lat="44.48386" lon="0.66023">
        <ele>129</ele>
        <time>2015-11-29T10:35:41Z</time>
      </trkpt>
      <trkpt lat="44.4839" lon="0.66022">
        <ele>131</ele>
        <time>2015-11-29T10:35:46Z</time>
      </trkpt>
      <trkpt lat="44.48393" lon="0.66026">
        <ele>132</ele>
        <time>2015-11-29T10:35:51Z</time>
      </trkpt>
      <trkpt lat="44.48399" lon="0.66028">
        <ele>134</ele>
        <time>2015-11-29T10:35:56Z</time>
      </trkpt>
      <trkpt lat="44.48401" lon="0.66027">
        <ele>132</ele>
        <time>2015-11-29T10:36:01Z</time>
      </trkpt>
      <trkpt lat="44.48412" lon="0.66038">
        <ele>128</ele>
        <time>2015-11-29T10:36:10Z</time>
      </trkpt>
      <trkpt lat="44.48414" lon="0.66042">
        <ele>130</ele>
        <time>2015-11-29T10:36:13Z</time>
      </trkpt>
      <trkpt lat="44.48419" lon="0.66048">
        <ele>130</ele>
        <time>2015-11-29T10:36:16Z</time>
      </trkpt>
      <trkpt lat="44.48423" lon="0.66053">
        <ele>130</ele>
        <time>2015-11-29T10:36:21Z</time>
      </trkpt>
      <trkpt lat="44.48428" lon="0.66058">
        <ele>130</ele>
        <time>2015-11-29T10:36:26Z</time>
      </trkpt>
      <trkpt lat="44.48433" lon="0.66063">
        <ele>131</ele>
        <time>2015-11-29T10:36:31Z</time>
      </trkpt>
      <trkpt lat="44.4844" lon="0.66072">
        <ele>130</ele>
        <time>2015-11-29T10:36:36Z</time>
      </trkpt>
      <trkpt lat="44.48453" lon="0.66081">
        <ele>128</ele>
        <time>2015-11-29T10:36:43Z</time>
      </trkpt>
      <trkpt lat="44.48457" lon="0.66084">
        <ele>129</ele>
        <time>2015-11-29T10:36:46Z</time>
      </trkpt>
      <trkpt lat="44.48462" lon="0.66089">
        <ele>128</ele>
        <time>2015-11-29T10:36:51Z</time>
      </trkpt>
      <trkpt lat="44.48477" lon="0.66096">
        <ele>133</ele>
        <time>2015-11-29T10:37:00Z</time>
      </trkpt>
      <trkpt lat="44.48479" lon="0.66096">
        <ele>133</ele>
        <time>2015-11-29T10:37:01Z</time>
      </trkpt>
      <trkpt lat="44.48486" lon="0.66102">
        <ele>133</ele>
        <time>2015-11-29T10:37:06Z</time>
      </trkpt>
      <trkpt lat="44.48498" lon="0.66109">
        <ele>135</ele>
        <time>2015-11-29T10:37:15Z</time>
      </trkpt>
      <trkpt lat="44.48502" lon="0.66111">
        <ele>135</ele>
        <time>2015-11-29T10:37:19Z</time>
      </trkpt>
      <trkpt lat="44.4851" lon="0.66114">
        <ele>134</ele>
        <time>2015-11-29T10:37:25Z</time>
      </trkpt>
      <trkpt lat="44.4851" lon="0.66115">
        <ele>135</ele>
        <time>2015-11-29T10:37:26Z</time>
      </trkpt>
      <trkpt lat="44.48516" lon="0.66119">
        <ele>135</ele>
        <time>2015-11-29T10:37:31Z</time>
      </trkpt>
      <trkpt lat="44.48521" lon="0.66123">
        <ele>135</ele>
        <time>2015-11-29T10:37:36Z</time>
      </trkpt>
      <trkpt lat="44.48527" lon="0.66126">
        <ele>137</ele>
        <time>2015-11-29T10:37:41Z</time>
      </trkpt>
      <trkpt lat="44.48532" lon="0.66129">
        <ele>136</ele>
        <time>2015-11-29T10:37:46Z</time>
      </trkpt>
      <trkpt lat="44.48538" lon="0.66132">
        <ele>137</ele>
        <time>2015-11-29T10:37:51Z</time>
      </trkpt>
      <trkpt lat="44.48542" lon="0.66135">
        <ele>139</ele>
        <time>2015-11-29T10:37:56Z</time>
      </trkpt>
      <trkpt lat="44.48549" lon="0.66139">
        <ele>140</ele>
        <time>2015-11-29T10:38:01Z</time>
      </trkpt>
      <trkpt lat="44.48554" lon="0.66143">
        <ele>141</ele>
        <time>2015-11-29T10:38:06Z</time>
      </trkpt>
      <trkpt lat="44.4856" lon="0.66149">
        <ele>142</ele>
        <time>2015-11-29T10:38:11Z</time>
      </trkpt>
      <trkpt lat="44.48566" lon="0.66152">
        <ele>143</ele>
        <time>2015-11-29T10:38:16Z</time>
      </trkpt>
      <trkpt lat="44.48573" lon="0.66153">
        <ele>143</ele>
        <time>2015-11-29T10:38:21Z</time>
      </trkpt>
      <trkpt lat="44.48579" lon="0.66152">
        <ele>145</ele>
        <time>2015-11-29T10:38:26Z</time>
      </trkpt>
      <trkpt lat="44.48587" lon="0.66148">
        <ele>145</ele>
        <time>2015-11-29T10:38:31Z</time>
      </trkpt>
      <trkpt lat="44.48597" lon="0.66143">
        <ele>145</ele>
        <time>2015-11-29T10:38:36Z</time>
      </trkpt>
      <trkpt lat="44.48607" lon="0.66143">
        <ele>144</ele>
        <time>2015-11-29T10:38:41Z</time>
      </trkpt>
      <trkpt lat="44.48612" lon="0.66146">
        <ele>145</ele>
        <time>2015-11-29T10:38:46Z</time>
      </trkpt>
      <trkpt lat="44.48618" lon="0.6615">
        <ele>143</ele>
        <time>2015-11-29T10:38:51Z</time>
      </trkpt>
      <trkpt lat="44.48619" lon="0.66157">
        <ele>143</ele>
        <time>2015-11-29T10:38:56Z</time>
      </trkpt>
      <trkpt lat="44.48616" lon="0.66168">
        <ele>145</ele>
        <time>2015-11-29T10:39:01Z</time>
      </trkpt>
      <trkpt lat="44.48615" lon="0.6618">
        <ele>146</ele>
        <time>2015-11-29T10:39:06Z</time>
      </trkpt>
      <trkpt lat="44.48614" lon="0.66195">
        <ele>148</ele>
        <time>2015-11-29T10:39:11Z</time>
      </trkpt>
      <trkpt lat="44.48612" lon="0.66209">
        <ele>149</ele>
        <time>2015-11-29T10:39:16Z</time>
      </trkpt>
      <trkpt lat="44.48612" lon="0.66224">
        <ele>151</ele>
        <time>2015-11-29T10:39:21Z</time>
      </trkpt>
      <trkpt lat="44.4861" lon="0.66238">
        <ele>152</ele>
        <time>2015-11-29T10:39:26Z</time>
      </trkpt>
      <trkpt lat="44.48613" lon="0.66253">
        <ele>152</ele>
        <time>2015-11-29T10:39:31Z</time>
      </trkpt>
      <trkpt lat="44.48615" lon="0.66267">
        <ele>152</ele>
        <time>2015-11-29T10:39:36Z</time>
      </trkpt>
      <trkpt lat="44.48617" lon="0.6628">
        <ele>152</ele>
        <time>2015-11-29T10:39:41Z</time>
      </trkpt>
      <trkpt lat="44.4862" lon="0.66294">
        <ele>153</ele>
        <time>2015-11-29T10:39:46Z</time>
      </trkpt>
      <trkpt lat="44.48624" lon="0.6631">
        <ele>153</ele>
        <time>2015-11-29T10:39:51Z</time>
      </trkpt>
      <trkpt lat="44.48626" lon="0.66326">
        <ele>152</ele>
        <time>2015-11-29T10:39:56Z</time>
      </trkpt>
      <trkpt lat="44.48629" lon="0.66345">
        <ele>150</ele>
        <time>2015-11-29T10:40:01Z</time>
      </trkpt>
      <trkpt lat="44.48631" lon="0.66376">
        <ele>149</ele>
        <time>2015-11-29T10:40:06Z</time>
      </trkpt>
      <trkpt lat="44.48631" lon="0.66417">
        <ele>148</ele>
        <time>2015-11-29T10:40:11Z</time>
      </trkpt>
      <trkpt lat="44.48633" lon="0.66461">
        <ele>149</ele>
        <time>2015-11-29T10:40:16Z</time>
      </trkpt>
      <trkpt lat="44.48644" lon="0.66524">
        <ele>150</ele>
        <time>2015-11-29T10:40:25Z</time>
      </trkpt>
      <trkpt lat="44.48645" lon="0.6653">
        <ele>151</ele>
        <time>2015-11-29T10:40:26Z</time>
      </trkpt>
      <trkpt lat="44.48649" lon="0.66551">
        <ele>151</ele>
        <time>2015-11-29T10:40:31Z</time>
      </trkpt>
      <trkpt lat="44.48652" lon="0.66572">
        <ele>150</ele>
        <time>2015-11-29T10:40:36Z</time>
      </trkpt>
      <trkpt lat="44.48655" lon="0.66592">
        <ele>150</ele>
        <time>2015-11-29T10:40:41Z</time>
      </trkpt>
      <trkpt lat="44.48659" lon="0.66613">
        <ele>151</ele>
        <time>2015-11-29T10:40:46Z</time>
      </trkpt>
      <trkpt lat="44.48662" lon="0.66634">
        <ele>150</ele>
        <time>2015-11-29T10:40:51Z</time>
      </trkpt>
      <trkpt lat="44.48664" lon="0.66654">
        <ele>150</ele>
        <time>2015-11-29T10:40:56Z</time>
      </trkpt>
      <trkpt lat="44.48667" lon="0.66671">
        <ele>150</ele>
        <time>2015-11-29T10:41:01Z</time>
      </trkpt>
      <trkpt lat="44.4867" lon="0.66692">
        <ele>150</ele>
        <time>2015-11-29T10:41:06Z</time>
      </trkpt>
      <trkpt lat="44.48675" lon="0.66714">
        <ele>152</ele>
        <time>2015-11-29T10:41:11Z</time>
      </trkpt>
      <trkpt lat="44.48682" lon="0.66734">
        <ele>153</ele>
        <time>2015-11-29T10:41:16Z</time>
      </trkpt>
      <trkpt lat="44.48687" lon="0.66755">
        <ele>154</ele>
        <time>2015-11-29T10:41:21Z</time>
      </trkpt>
      <trkpt lat="44.48693" lon="0.66771">
        <ele>156</ele>
        <time>2015-11-29T10:41:26Z</time>
      </trkpt>
      <trkpt lat="44.48696" lon="0.66786">
        <ele>157</ele>
        <time>2015-11-29T10:41:31Z</time>
      </trkpt>
      <trkpt lat="44.48701" lon="0.66799">
        <ele>158</ele>
        <time>2015-11-29T10:41:36Z</time>
      </trkpt>
      <trkpt lat="44.48706" lon="0.6681">
        <ele>158</ele>
        <time>2015-11-29T10:41:41Z</time>
      </trkpt>
      <trkpt lat="44.48708" lon="0.66821">
        <ele>159</ele>
        <time>2015-11-29T10:41:46Z</time>
      </trkpt>
      <trkpt lat="44.48715" lon="0.66832">
        <ele>160</ele>
        <time>2015-11-29T10:41:51Z</time>
      </trkpt>
      <trkpt lat="44.48724" lon="0.66836">
        <ele>160</ele>
        <time>2015-11-29T10:41:56Z</time>
      </trkpt>
      <trkpt lat="44.48734" lon="0.66838">
        <ele>161</ele>
        <time>2015-11-29T10:42:01Z</time>
      </trkpt>
      <trkpt lat="44.48746" lon="0.66842">
        <ele>160</ele>
        <time>2015-11-29T10:42:06Z</time>
      </trkpt>
      <trkpt lat="44.48758" lon="0.6685">
        <ele>160</ele>
        <time>2015-11-29T10:42:11Z</time>
      </trkpt>
      <trkpt lat="44.48773" lon="0.66844">
        <ele>159</ele>
        <time>2015-11-29T10:42:16Z</time>
      </trkpt>
      <trkpt lat="44.48788" lon="0.66837">
        <ele>160</ele>
        <time>2015-11-29T10:42:21Z</time>
      </trkpt>
      <trkpt lat="44.48803" lon="0.6683">
        <ele>159</ele>
        <time>2015-11-29T10:42:26Z</time>
      </trkpt>
      <trkpt lat="44.48819" lon="0.66817">
        <ele>157</ele>
        <time>2015-11-29T10:42:31Z</time>
      </trkpt>
      <trkpt lat="44.48832" lon="0.6681">
        <ele>157</ele>
        <time>2015-11-29T10:42:36Z</time>
      </trkpt>
      <trkpt lat="44.48846" lon="0.66805">
        <ele>157</ele>
        <time>2015-11-29T10:42:41Z</time>
      </trkpt>
      <trkpt lat="44.48859" lon="0.66804">
        <ele>157</ele>
        <time>2015-11-29T10:42:46Z</time>
      </trkpt>
      <trkpt lat="44.48874" lon="0.66809">
        <ele>156</ele>
        <time>2015-11-29T10:42:51Z</time>
      </trkpt>
      <trkpt lat="44.4889" lon="0.66817">
        <ele>156</ele>
        <time>2015-11-29T10:42:56Z</time>
      </trkpt>
      <trkpt lat="44.48905" lon="0.66821">
        <ele>156</ele>
        <time>2015-11-29T10:43:01Z</time>
      </trkpt>
      <trkpt lat="44.48917" lon="0.66823">
        <ele>157</ele>
        <time>2015-11-29T10:43:06Z</time>
      </trkpt>
      <trkpt lat="44.48919" lon="0.66826">
        <ele>158</ele>
        <time>2015-11-29T10:43:11Z</time>
      </trkpt>
      <trkpt lat="44.48919" lon="0.66825">
        <ele>156</ele>
        <time>2015-11-29T10:43:16Z</time>
      </trkpt>
      <trkpt lat="44.48919" lon="0.66823">
        <ele>157</ele>
        <time>2015-11-29T10:43:19Z</time>
      </trkpt>
      <trkpt lat="44.4892" lon="0.66822">
        <ele>156</ele>
        <time>2015-11-29T10:43:24Z</time>
      </trkpt>
      <trkpt lat="44.4892" lon="0.66823">
        <ele>156</ele>
        <time>2015-11-29T10:43:27Z</time>
      </trkpt>
      <trkpt lat="44.48919" lon="0.66822">
        <ele>156</ele>
        <time>2015-11-29T10:43:30Z</time>
      </trkpt>
      <trkpt lat="44.48919" lon="0.66824">
        <ele>157</ele>
        <time>2015-11-29T10:43:33Z</time>
      </trkpt>
      <trkpt lat="44.48919" lon="0.66825">
        <ele>157</ele>
        <time>2015-11-29T10:43:38Z</time>
      </trkpt>
      <trkpt lat="44.48919" lon="0.66826">
        <ele>157</ele>
        <time>2015-11-29T10:43:41Z</time>
      </trkpt>
      <trkpt lat="44.48919" lon="0.66826">
        <ele>157</ele>
        <time>2015-11-29T10:43:44Z</time>
      </trkpt>
      <trkpt lat="44.48919" lon="0.66826">
        <ele>157</ele>
        <time>2015-11-29T10:43:47Z</time>
      </trkpt>
      <trkpt lat="44.48919" lon="0.66826">
        <ele>157</ele>
        <time>2015-11-29T10:43:50Z</time>
      </trkpt>
      <trkpt lat="44.48919" lon="0.66826">
        <ele>157</ele>
        <time>2015-11-29T10:43:53Z</time>
      </trkpt>
      <trkpt lat="44.48919" lon="0.66826">
        <ele>157</ele>
        <time>2015-11-29T10:43:55Z</time>
      </trkpt>
      <trkpt lat="44.48919" lon="0.66826">
        <ele>157</ele>
        <time>2015-11-29T10:43:58Z</time>
      </trkpt>
      <trkpt lat="44.48919" lon="0.66826">
        <ele>157</ele>
        <time>2015-11-29T10:44:00Z</time>
      </trkpt>
      <trkpt lat="44.48919" lon="0.66826">
        <ele>157</ele>
        <time>2015-11-29T10:44:03Z</time>
      </trkpt>
      <trkpt lat="44.48919" lon="0.66826">
        <ele>157</ele>
        <time>2015-11-29T10:44:07Z</time>
      </trkpt>
      <trkpt lat="44.48919" lon="0.66826">
        <ele>157</ele>
        <time>2015-11-29T10:44:09Z</time>
      </trkpt>
      <trkpt lat="44.48919" lon="0.66826">
        <ele>157</ele>
        <time>2015-11-29T10:44:11Z</time>
      </trkpt>
      <trkpt lat="44.48919" lon="0.66826">
        <ele>157</ele>
        <time>2015-11-29T10:44:14Z</time>
      </trkpt>
      <trkpt lat="44.48919" lon="0.66826">
        <ele>157</ele>
        <time>2015-11-29T10:44:17Z</time>
      </trkpt>
      <trkpt lat="44.48919" lon="0.66826">
        <ele>157</ele>
        <time>2015-11-29T10:44:22Z</time>
      </trkpt>
      <trkpt lat="44.48919" lon="0.66826">
        <ele>157</ele>
        <time>2015-11-29T10:44:23Z</time>
      </trkpt>
      <trkpt lat="44.48919" lon="0.66826">
        <ele>157</ele>
        <time>2015-11-29T10:44:27Z</time>
      </trkpt>
      <trkpt lat="44.48919" lon="0.66826">
        <ele>157</ele>
        <time>2015-11-29T10:44:30Z</time>
      </trkpt>
      <trkpt lat="44.48919" lon="0.66826">
        <ele>158</ele>
        <time>2015-11-29T10:44:33Z</time>
      </trkpt>
      <trkpt lat="44.48919" lon="0.66826">
        <ele>158</ele>
        <time>2015-11-29T10:44:35Z</time>
      </trkpt>
      <trkpt lat="44.48919" lon="0.66827">
        <ele>159</ele>
        <time>2015-11-29T10:44:38Z</time>
      </trkpt>
      <trkpt lat="44.48919" lon="0.66827">
        <ele>159</ele>
        <time>2015-11-29T10:44:41Z</time>
      </trkpt>
      <trkpt lat="44.48919" lon="0.66828">
        <ele>158</ele>
        <time>2015-11-29T10:44:44Z</time>
      </trkpt>
      <trkpt lat="44.48919" lon="0.66829">
        <ele>158</ele>
        <time>2015-11-29T10:44:47Z</time>
      </trkpt>
      <trkpt lat="44.48919" lon="0.6683">
        <ele>159</ele>
        <time>2015-11-29T10:44:50Z</time>
      </trkpt>
      <trkpt lat="44.48919" lon="0.6683">
        <ele>159</ele>
        <time>2015-11-29T10:44:52Z</time>
      </trkpt>
      <trkpt lat="44.48922" lon="0.66833">
        <ele>160</ele>
        <time>2015-11-29T10:44:55Z</time>
      </trkpt>
      <trkpt lat="44.48929" lon="0.6684">
        <ele>163</ele>
        <time>2015-11-29T10:44:59Z</time>
      </trkpt>
      <trkpt lat="44.4894" lon="0.66836">
        <ele>161</ele>
        <time>2015-11-29T10:45:04Z</time>
      </trkpt>
      <trkpt lat="44.48955" lon="0.66833">
        <ele>161</ele>
        <time>2015-11-29T10:45:10Z</time>
      </trkpt>
      <trkpt lat="44.48961" lon="0.66831">
        <ele>161</ele>
        <time>2015-11-29T10:45:13Z</time>
      </trkpt>
      <trkpt lat="44.4897" lon="0.66828">
        <ele>164</ele>
        <time>2015-11-29T10:45:17Z</time>
      </trkpt>
      <trkpt lat="44.48985" lon="0.66827">
        <ele>166</ele>
        <time>2015-11-29T10:45:23Z</time>
      </trkpt>
      <trkpt lat="44.49" lon="0.66825">
        <ele>164</ele>
        <time>2015-11-29T10:45:29Z</time>
      </trkpt>
      <trkpt lat="44.49002" lon="0.66827">
        <ele>165</ele>
        <time>2015-11-29T10:45:30Z</time>
      </trkpt>
      <trkpt lat="44.49015" lon="0.66824">
        <ele>165</ele>
        <time>2015-11-29T10:45:35Z</time>
      </trkpt>
      <trkpt lat="44.49025" lon="0.66821">
        <ele>162</ele>
        <time>2015-11-29T10:45:39Z</time>
      </trkpt>
      <trkpt lat="44.49034" lon="0.66822">
        <ele>164</ele>
        <time>2015-11-29T10:45:43Z</time>
      </trkpt>
      <trkpt lat="44.49046" lon="0.66825">
        <ele>166</ele>
        <time>2015-11-29T10:45:48Z</time>
      </trkpt>
      <trkpt lat="44.49057" lon="0.66822">
        <ele>169</ele>
        <time>2015-11-29T10:45:54Z</time>
      </trkpt>
      <trkpt lat="44.49063" lon="0.66823">
        <ele>170</ele>
        <time>2015-11-29T10:45:57Z</time>
      </trkpt>
      <trkpt lat="44.49071" lon="0.66828">
        <ele>171</ele>
        <time>2015-11-29T10:46:02Z</time>
      </trkpt>
      <trkpt lat="44.49077" lon="0.66832">
        <ele>171</ele>
        <time>2015-11-29T10:46:07Z</time>
      </trkpt>
      <trkpt lat="44.49082" lon="0.66833">
        <ele>171</ele>
        <time>2015-11-29T10:46:11Z</time>
      </trkpt>
      <trkpt lat="44.49086" lon="0.66839">
        <ele>171</ele>
        <time>2015-11-29T10:46:16Z</time>
      </trkpt>
      <trkpt lat="44.49094" lon="0.66838">
        <ele>173</ele>
        <time>2015-11-29T10:46:24Z</time>
      </trkpt>
      <trkpt lat="44.49101" lon="0.6684">
        <ele>172</ele>
        <time>2015-11-29T10:46:29Z</time>
      </trkpt>
      <trkpt lat="44.49107" lon="0.6684">
        <ele>171</ele>
        <time>2015-11-29T10:46:34Z</time>
      </trkpt>
      <trkpt lat="44.49113" lon="0.66835">
        <ele>170</ele>
        <time>2015-11-29T10:46:39Z</time>
      </trkpt>
      <trkpt lat="44.49115" lon="0.66834">
        <ele>171</ele>
        <time>2015-11-29T10:46:40Z</time>
      </trkpt>
      <trkpt lat="44.49122" lon="0.66832">
        <ele>172</ele>
        <time>2015-11-29T10:46:46Z</time>
      </trkpt>
      <trkpt lat="44.49126" lon="0.66828">
        <ele>174</ele>
        <time>2015-11-29T10:46:50Z</time>
      </trkpt>
      <trkpt lat="44.49133" lon="0.66823">
        <ele>179</ele>
        <time>2015-11-29T10:46:56Z</time>
      </trkpt>
      <trkpt lat="44.49136" lon="0.66823">
        <ele>177</ele>
        <time>2015-11-29T10:47:00Z</time>
      </trkpt>
      <trkpt lat="44.49138" lon="0.66822">
        <ele>178</ele>
        <time>2015-11-29T10:47:03Z</time>
      </trkpt>
      <trkpt lat="44.49145" lon="0.6682">
        <ele>178</ele>
        <time>2015-11-29T10:47:08Z</time>
      </trkpt>
      <trkpt lat="44.49152" lon="0.66819">
        <ele>179</ele>
        <time>2015-11-29T10:47:13Z</time>
      </trkpt>
      <trkpt lat="44.49155" lon="0.66825">
        <ele>179</ele>
        <time>2015-11-29T10:47:18Z</time>
      </trkpt>
      <trkpt lat="44.49158" lon="0.66836">
        <ele>182</ele>
        <time>2015-11-29T10:47:24Z</time>
      </trkpt>
      <trkpt lat="44.49158" lon="0.66843">
        <ele>184</ele>
        <time>2015-11-29T10:47:28Z</time>
      </trkpt>
      <trkpt lat="44.49159" lon="0.6685">
        <ele>184</ele>
        <time>2015-11-29T10:47:33Z</time>
      </trkpt>
      <trkpt lat="44.49163" lon="0.66858">
        <ele>184</ele>
        <time>2015-11-29T10:47:38Z</time>
      </trkpt>
      <trkpt lat="44.49163" lon="0.66865">
        <ele>185</ele>
        <time>2015-11-29T10:47:47Z</time>
      </trkpt>
      <trkpt lat="44.49164" lon="0.66866">
        <ele>184</ele>
        <time>2015-11-29T10:47:50Z</time>
      </trkpt>
      <trkpt lat="44.49163" lon="0.66868">
        <ele>183</ele>
        <time>2015-11-29T10:47:52Z</time>
      </trkpt>
      <trkpt lat="44.49164" lon="0.66873">
        <ele>183</ele>
        <time>2015-11-29T10:47:56Z</time>
      </trkpt>
      <trkpt lat="44.49165" lon="0.66881">
        <ele>183</ele>
        <time>2015-11-29T10:48:02Z</time>
      </trkpt>
      <trkpt lat="44.4917" lon="0.66887">
        <ele>181</ele>
        <time>2015-11-29T10:48:06Z</time>
      </trkpt>
      <trkpt lat="44.49175" lon="0.66901">
        <ele>180</ele>
        <time>2015-11-29T10:48:14Z</time>
      </trkpt>
      <trkpt lat="44.49175" lon="0.66905">
        <ele>181</ele>
        <time>2015-11-29T10:48:17Z</time>
      </trkpt>
      <trkpt lat="44.49175" lon="0.66911">
        <ele>181</ele>
        <time>2015-11-29T10:48:22Z</time>
      </trkpt>
      <trkpt lat="44.49179" lon="0.66925">
        <ele>184</ele>
        <time>2015-11-29T10:48:27Z</time>
      </trkpt>
      <trkpt lat="44.49179" lon="0.66936">
        <ele>188</ele>
        <time>2015-11-29T10:48:34Z</time>
      </trkpt>
      <trkpt lat="44.49179" lon="0.66937">
        <ele>189</ele>
        <time>2015-11-29T10:48:35Z</time>
      </trkpt>
      <trkpt lat="44.49183" lon="0.66945">
        <ele>191</ele>
        <time>2015-11-29T10:48:40Z</time>
      </trkpt>
      <trkpt lat="44.49186" lon="0.66955">
        <ele>192</ele>
        <time>2015-11-29T10:48:48Z</time>
      </trkpt>
      <trkpt lat="44.49186" lon="0.66955">
        <ele>192</ele>
        <time>2015-11-29T10:48:49Z</time>
      </trkpt>
      <trkpt lat="44.49188" lon="0.66957">
        <ele>191</ele>
        <time>2015-11-29T10:48:52Z</time>
      </trkpt>
      <trkpt lat="44.49193" lon="0.66961">
        <ele>191</ele>
        <time>2015-11-29T10:48:57Z</time>
      </trkpt>
      <trkpt lat="44.49198" lon="0.66963">
        <ele>191</ele>
        <time>2015-11-29T10:49:02Z</time>
      </trkpt>
      <trkpt lat="44.49202" lon="0.66964">
        <ele>192</ele>
        <time>2015-11-29T10:49:06Z</time>
      </trkpt>
      <trkpt lat="44.49203" lon="0.66963">
        <ele>194</ele>
        <time>2015-11-29T10:49:11Z</time>
      </trkpt>
      <trkpt lat="44.49204" lon="0.66963">
        <ele>194</ele>
        <time>2015-11-29T10:49:13Z</time>
      </trkpt>
      <trkpt lat="44.49204" lon="0.66962">
        <ele>195</ele>
        <time>2015-11-29T10:49:16Z</time>
      </trkpt>
      <trkpt lat="44.49205" lon="0.66962">
        <ele>195</ele>
        <time>2015-11-29T10:49:19Z</time>
      </trkpt>
      <trkpt lat="44.49205" lon="0.66962">
        <ele>195</ele>
        <time>2015-11-29T10:49:21Z</time>
      </trkpt>
      <trkpt lat="44.49204" lon="0.66962">
        <ele>196</ele>
        <time>2015-11-29T10:49:26Z</time>
      </trkpt>
      <trkpt lat="44.49205" lon="0.66962">
        <ele>196</ele>
        <time>2015-11-29T10:49:27Z</time>
      </trkpt>
      <trkpt lat="44.49206" lon="0.66962">
        <ele>196</ele>
        <time>2015-11-29T10:49:32Z</time>
      </trkpt>
      <trkpt lat="44.49207" lon="0.66961">
        <ele>194</ele>
        <time>2015-11-29T10:49:35Z</time>
      </trkpt>
      <trkpt lat="44.49211" lon="0.66959">
        <ele>195</ele>
        <time>2015-11-29T10:49:38Z</time>
      </trkpt>
      <trkpt lat="44.49218" lon="0.66955">
        <ele>195</ele>
        <time>2015-11-29T10:49:43Z</time>
      </trkpt>
      <trkpt lat="44.49224" lon="0.66951">
        <ele>194</ele>
        <time>2015-11-29T10:49:48Z</time>
      </trkpt>
      <trkpt lat="44.49231" lon="0.66946">
        <ele>192</ele>
        <time>2015-11-29T10:49:53Z</time>
      </trkpt>
      <trkpt lat="44.49236" lon="0.66941">
        <ele>193</ele>
        <time>2015-11-29T10:49:58Z</time>
      </trkpt>
      <trkpt lat="44.49243" lon="0.66938">
        <ele>194</ele>
        <time>2015-11-29T10:50:03Z</time>
      </trkpt>
      <trkpt lat="44.49248" lon="0.66936">
        <ele>192</ele>
        <time>2015-11-29T10:50:08Z</time>
      </trkpt>
      <trkpt lat="44.49255" lon="0.6693">
        <ele>192</ele>
        <time>2015-11-29T10:50:12Z</time>
      </trkpt>
      <trkpt lat="44.49266" lon="0.66922">
        <ele>195</ele>
        <time>2015-11-29T10:50:20Z</time>
      </trkpt>
      <trkpt lat="44.49272" lon="0.66918">
        <ele>195</ele>
        <time>2015-11-29T10:50:24Z</time>
      </trkpt>
      <trkpt lat="44.49276" lon="0.66914">
        <ele>195</ele>
        <time>2015-11-29T10:50:27Z</time>
      </trkpt>
      <trkpt lat="44.49282" lon="0.66911">
        <ele>195</ele>
        <time>2015-11-29T10:50:32Z</time>
      </trkpt>
      <trkpt lat="44.4929" lon="0.66912">
        <ele>196</ele>
        <time>2015-11-29T10:50:37Z</time>
      </trkpt>
      <trkpt lat="44.49298" lon="0.66907">
        <ele>195</ele>
        <time>2015-11-29T10:50:42Z</time>
      </trkpt>
      <trkpt lat="44.49305" lon="0.66904">
        <ele>197</ele>
        <time>2015-11-29T10:50:47Z</time>
      </trkpt>
      <trkpt lat="44.49316" lon="0.66896">
        <ele>201</ele>
        <time>2015-11-29T10:50:55Z</time>
      </trkpt>
      <trkpt lat="44.4932" lon="0.66893">
        <ele>201</ele>
        <time>2015-11-29T10:50:57Z</time>
      </trkpt>
      <trkpt lat="44.49329" lon="0.66887">
        <ele>201</ele>
        <time>2015-11-29T10:51:02Z</time>
      </trkpt>
      <trkpt lat="44.49338" lon="0.66883">
        <ele>202</ele>
        <time>2015-11-29T10:51:07Z</time>
      </trkpt>
      <trkpt lat="44.49345" lon="0.66879">
        <ele>203</ele>
        <time>2015-11-29T10:51:12Z</time>
      </trkpt>
      <trkpt lat="44.49352" lon="0.66876">
        <ele>203</ele>
        <time>2015-11-29T10:51:17Z</time>
      </trkpt>
      <trkpt lat="44.49359" lon="0.66874">
        <ele>206</ele>
        <time>2015-11-29T10:51:22Z</time>
      </trkpt>
      <trkpt lat="44.49372" lon="0.66865">
        <ele>205</ele>
        <time>2015-11-29T10:51:29Z</time>
      </trkpt>
      <trkpt lat="44.49381" lon="0.66862">
        <ele>205</ele>
        <time>2015-11-29T10:51:32Z</time>
      </trkpt>
      <trkpt lat="44.49394" lon="0.66856">
        <ele>206</ele>
        <time>2015-11-29T10:51:37Z</time>
      </trkpt>
      <trkpt lat="44.49408" lon="0.66851">
        <ele>205</ele>
        <time>2015-11-29T10:51:42Z</time>
      </trkpt>
      <trkpt lat="44.49422" lon="0.66842">
        <ele>205</ele>
        <time>2015-11-29T10:51:47Z</time>
      </trkpt>
      <trkpt lat="44.49438" lon="0.66831">
        <ele>205</ele>
        <time>2015-11-29T10:51:52Z</time>
      </trkpt>
      <trkpt lat="44.49451" lon="0.66828">
        <ele>204</ele>
        <time>2015-11-29T10:51:57Z</time>
      </trkpt>
      <trkpt lat="44.49466" lon="0.66824">
        <ele>205</ele>
        <time>2015-11-29T10:52:04Z</time>
      </trkpt>
      <trkpt lat="44.49474" lon="0.66822">
        <ele>204</ele>
        <time>2015-11-29T10:52:07Z</time>
      </trkpt>
      <trkpt lat="44.4949" lon="0.66815">
        <ele>204</ele>
        <time>2015-11-29T10:52:12Z</time>
      </trkpt>
      <trkpt lat="44.49502" lon="0.66808">
        <ele>205</ele>
        <time>2015-11-29T10:52:17Z</time>
      </trkpt>
      <trkpt lat="44.49517" lon="0.66801">
        <ele>206</ele>
        <time>2015-11-29T10:52:22Z</time>
      </trkpt>
      <trkpt lat="44.49532" lon="0.66795">
        <ele>206</ele>
        <time>2015-11-29T10:52:27Z</time>
      </trkpt>
      <trkpt lat="44.49549" lon="0.66788">
        <ele>206</ele>
        <time>2015-11-29T10:52:32Z</time>
      </trkpt>
      <trkpt lat="44.49567" lon="0.66778">
        <ele>205</ele>
        <time>2015-11-29T10:52:37Z</time>
      </trkpt>
      <trkpt lat="44.49583" lon="0.66777">
        <ele>205</ele>
        <time>2015-11-29T10:52:42Z</time>
      </trkpt>
      <trkpt lat="44.4959" lon="0.66779">
        <ele>205</ele>
        <time>2015-11-29T10:52:47Z</time>
      </trkpt>
      <trkpt lat="44.49577" lon="0.66778">
        <ele>205</ele>
        <time>2015-11-29T10:52:53Z</time>
      </trkpt>
      <trkpt lat="44.49568" lon="0.66779">
        <ele>206</ele>
        <time>2015-11-29T10:52:57Z</time>
      </trkpt>
      <trkpt lat="44.4956" lon="0.66774">
        <ele>207</ele>
        <time>2015-11-29T10:53:02Z</time>
      </trkpt>
      <trkpt lat="44.49558" lon="0.66766">
        <ele>208</ele>
        <time>2015-11-29T10:53:07Z</time>
      </trkpt>
      <trkpt lat="44.49554" lon="0.66762">
        <ele>208</ele>
        <time>2015-11-29T10:53:12Z</time>
      </trkpt>
      <trkpt lat="44.49552" lon="0.66767">
        <ele>209</ele>
        <time>2015-11-29T10:53:17Z</time>
      </trkpt>
      <trkpt lat="44.49561" lon="0.66768">
        <ele>208</ele>
        <time>2015-11-29T10:53:22Z</time>
      </trkpt>
      <trkpt lat="44.49565" lon="0.66767">
        <ele>206</ele>
        <time>2015-11-29T10:53:28Z</time>
      </trkpt>
      <trkpt lat="44.49565" lon="0.66767">
        <ele>207</ele>
        <time>2015-11-29T10:53:32Z</time>
      </trkpt>
      <trkpt lat="44.49565" lon="0.66766">
        <ele>208</ele>
        <time>2015-11-29T10:53:35Z</time>
      </trkpt>
      <trkpt lat="44.49566" lon="0.66766">
        <ele>208</ele>
        <time>2015-11-29T10:53:38Z</time>
      </trkpt>
      <trkpt lat="44.49566" lon="0.66766">
        <ele>208</ele>
        <time>2015-11-29T10:53:41Z</time>
      </trkpt>
      <trkpt lat="44.49565" lon="0.66765">
        <ele>207</ele>
        <time>2015-11-29T10:53:44Z</time>
      </trkpt>
      <trkpt lat="44.49565" lon="0.66765">
        <ele>207</ele>
        <time>2015-11-29T10:53:47Z</time>
      </trkpt>
      <trkpt lat="44.49565" lon="0.66765">
        <ele>206</ele>
        <time>2015-11-29T10:53:50Z</time>
      </trkpt>
      <trkpt lat="44.49566" lon="0.66765">
        <ele>206</ele>
        <time>2015-11-29T10:53:53Z</time>
      </trkpt>
      <trkpt lat="44.49566" lon="0.66765">
        <ele>206</ele>
        <time>2015-11-29T10:53:56Z</time>
      </trkpt>
      <trkpt lat="44.49566" lon="0.66766">
        <ele>206</ele>
        <time>2015-11-29T10:53:59Z</time>
      </trkpt>
      <trkpt lat="44.49566" lon="0.66766">
        <ele>206</ele>
        <time>2015-11-29T10:54:02Z</time>
      </trkpt>
      <trkpt lat="44.49566" lon="0.66766">
        <ele>206</ele>
        <time>2015-11-29T10:54:04Z</time>
      </trkpt>
      <trkpt lat="44.49566" lon="0.66766">
        <ele>206</ele>
        <time>2015-11-29T10:54:07Z</time>
      </trkpt>
      <trkpt lat="44.49566" lon="0.66766">
        <ele>206</ele>
        <time>2015-11-29T10:54:10Z</time>
      </trkpt>
      <trkpt lat="44.49566" lon="0.66766">
        <ele>206</ele>
        <time>2015-11-29T10:54:15Z</time>
      </trkpt>
      <trkpt lat="44.49566" lon="0.66766">
        <ele>206</ele>
        <time>2015-11-29T10:54:16Z</time>
      </trkpt>
      <trkpt lat="44.49566" lon="0.66766">
        <ele>206</ele>
        <time>2015-11-29T10:54:20Z</time>
      </trkpt>
      <trkpt lat="44.49566" lon="0.66766">
        <ele>206</ele>
        <time>2015-11-29T10:54:22Z</time>
      </trkpt>
      <trkpt lat="44.49566" lon="0.66766">
        <ele>206</ele>
        <time>2015-11-29T10:54:25Z</time>
      </trkpt>
      <trkpt lat="44.49566" lon="0.66766">
        <ele>206</ele>
        <time>2015-11-29T10:54:28Z</time>
      </trkpt>
      <trkpt lat="44.49566" lon="0.66766">
        <ele>206</ele>
        <time>2015-11-29T10:54:31Z</time>
      </trkpt>
      <trkpt lat="44.49566" lon="0.66766">
        <ele>206</ele>
        <time>2015-11-29T10:54:34Z</time>
      </trkpt>
      <trkpt lat="44.49566" lon="0.66766">
        <ele>206</ele>
        <time>2015-11-29T10:54:37Z</time>
      </trkpt>
      <trkpt lat="44.49566" lon="0.66766">
        <ele>206</ele>
        <time>2015-11-29T10:54:40Z</time>
      </trkpt>
      <trkpt lat="44.49566" lon="0.66766">
        <ele>206</ele>
        <time>2015-11-29T10:54:43Z</time>
      </trkpt>
      <trkpt lat="44.49566" lon="0.66766">
        <ele>206</ele>
        <time>2015-11-29T10:54:46Z</time>
      </trkpt>
      <trkpt lat="44.49566" lon="0.66766">
        <ele>206</ele>
        <time>2015-11-29T10:54:48Z</time>
      </trkpt>
      <trkpt lat="44.49563" lon="0.66767">
        <ele>206</ele>
        <time>2015-11-29T10:54:51Z</time>
      </trkpt>
      <trkpt lat="44.49563" lon="0.66767">
        <ele>208</ele>
        <time>2015-11-29T10:54:56Z</time>
      </trkpt>
      <trkpt lat="44.49562" lon="0.66766">
        <ele>207</ele>
        <time>2015-11-29T10:54:59Z</time>
      </trkpt>
      <trkpt lat="44.49562" lon="0.66766">
        <ele>208</ele>
        <time>2015-11-29T10:55:01Z</time>
      </trkpt>
      <trkpt lat="44.49562" lon="0.66766">
        <ele>208</ele>
        <time>2015-11-29T10:55:04Z</time>
      </trkpt>
      <trkpt lat="44.49562" lon="0.66766">
        <ele>208</ele>
        <time>2015-11-29T10:55:07Z</time>
      </trkpt>
      <trkpt lat="44.49562" lon="0.66766">
        <ele>208</ele>
        <time>2015-11-29T10:55:11Z</time>
      </trkpt>
      <trkpt lat="44.49562" lon="0.66765">
        <ele>208</ele>
        <time>2015-11-29T10:55:14Z</time>
      </trkpt>
      <trkpt lat="44.49563" lon="0.66765">
        <ele>209</ele>
        <time>2015-11-29T10:55:16Z</time>
      </trkpt>
      <trkpt lat="44.49564" lon="0.66765">
        <ele>209</ele>
        <time>2015-11-29T10:55:19Z</time>
      </trkpt>
      <trkpt lat="44.49564" lon="0.66765">
        <ele>210</ele>
        <time>2015-11-29T10:55:22Z</time>
      </trkpt>
      <trkpt lat="44.49564" lon="0.66765">
        <ele>210</ele>
        <time>2015-11-29T10:55:25Z</time>
      </trkpt>
      <trkpt lat="44.49564" lon="0.66765">
        <ele>210</ele>
        <time>2015-11-29T10:55:28Z</time>
      </trkpt>
      <trkpt lat="44.49564" lon="0.66765">
        <ele>210</ele>
        <time>2015-11-29T10:55:31Z</time>
      </trkpt>
      <trkpt lat="44.49564" lon="0.66765">
        <ele>210</ele>
        <time>2015-11-29T10:55:34Z</time>
      </trkpt>
      <trkpt lat="44.49564" lon="0.66765">
        <ele>210</ele>
        <time>2015-11-29T10:55:37Z</time>
      </trkpt>
      <trkpt lat="44.49564" lon="0.66765">
        <ele>210</ele>
        <time>2015-11-29T10:55:40Z</time>
      </trkpt>
      <trkpt lat="44.49564" lon="0.66765">
        <ele>210</ele>
        <time>2015-11-29T10:55:43Z</time>
      </trkpt>
      <trkpt lat="44.49564" lon="0.66765">
        <ele>210</ele>
        <time>2015-11-29T10:55:46Z</time>
      </trkpt>
      <trkpt lat="44.49564" lon="0.66765">
        <ele>210</ele>
        <time>2015-11-29T10:55:50Z</time>
      </trkpt>
      <trkpt lat="44.49564" lon="0.66765">
        <ele>210</ele>
        <time>2015-11-29T10:55:51Z</time>
      </trkpt>
      <trkpt lat="44.49564" lon="0.66765">
        <ele>210</ele>
        <time>2015-11-29T10:55:54Z</time>
      </trkpt>
      <trkpt lat="44.49564" lon="0.66765">
        <ele>210</ele>
        <time>2015-11-29T10:55:57Z</time>
      </trkpt>
      <trkpt lat="44.49564" lon="0.66765">
        <ele>210</ele>
        <time>2015-11-29T10:56:00Z</time>
      </trkpt>
      <trkpt lat="44.49564" lon="0.66766">
        <ele>207</ele>
        <time>2015-11-29T10:56:03Z</time>
      </trkpt>
      <trkpt lat="44.49565" lon="0.66764">
        <ele>210</ele>
        <time>2015-11-29T10:56:06Z</time>
      </trkpt>
      <trkpt lat="44.49566" lon="0.66764">
        <ele>210</ele>
        <time>2015-11-29T10:56:11Z</time>
      </trkpt>
      <trkpt lat="44.49566" lon="0.66765">
        <ele>208</ele>
        <time>2015-11-29T10:56:13Z</time>
      </trkpt>
      <trkpt lat="44.49566" lon="0.66764">
        <ele>209</ele>
        <time>2015-11-29T10:56:20Z</time>
      </trkpt>
      <trkpt lat="44.49566" lon="0.66764">
        <ele>209</ele>
        <time>2015-11-29T10:56:21Z</time>
      </trkpt>
      <trkpt lat="44.49566" lon="0.66764">
        <ele>210</ele>
        <time>2015-11-29T10:56:25Z</time>
      </trkpt>
      <trkpt lat="44.49566" lon="0.66765">
        <ele>209</ele>
        <time>2015-11-29T10:56:27Z</time>
      </trkpt>
      <trkpt lat="44.49573" lon="0.66757">
        <ele>209</ele>
        <time>2015-11-29T10:56:33Z</time>
      </trkpt>
      <trkpt lat="44.49576" lon="0.66748">
        <ele>209</ele>
        <time>2015-11-29T10:56:36Z</time>
      </trkpt>
      <trkpt lat="44.49577" lon="0.66736">
        <ele>209</ele>
        <time>2015-11-29T10:56:40Z</time>
      </trkpt>
      <trkpt lat="44.49578" lon="0.66718">
        <ele>210</ele>
        <time>2015-11-29T10:56:45Z</time>
      </trkpt>
      <trkpt lat="44.4958" lon="0.66697">
        <ele>212</ele>
        <time>2015-11-29T10:56:50Z</time>
      </trkpt>
      <trkpt lat="44.49585" lon="0.66681">
        <ele>208</ele>
        <time>2015-11-29T10:56:55Z</time>
      </trkpt>
      <trkpt lat="44.49592" lon="0.6666">
        <ele>208</ele>
        <time>2015-11-29T10:57:00Z</time>
      </trkpt>
      <trkpt lat="44.49603" lon="0.66646">
        <ele>207</ele>
        <time>2015-11-29T10:57:05Z</time>
      </trkpt>
      <trkpt lat="44.49619" lon="0.66629">
        <ele>205</ele>
        <time>2015-11-29T10:57:10Z</time>
      </trkpt>
      <trkpt lat="44.4962" lon="0.66593">
        <ele>202</ele>
        <time>2015-11-29T10:57:15Z</time>
      </trkpt>
      <trkpt lat="44.496" lon="0.66579">
        <ele>199</ele>
        <time>2015-11-29T10:57:20Z</time>
      </trkpt>
      <trkpt lat="44.49567" lon="0.66589">
        <ele>195</ele>
        <time>2015-11-29T10:57:25Z</time>
      </trkpt>
      <trkpt lat="44.49561" lon="0.66578">
        <ele>193</ele>
        <time>2015-11-29T10:57:31Z</time>
      </trkpt>
      <trkpt lat="44.49575" lon="0.66569">
        <ele>193</ele>
        <time>2015-11-29T10:57:35Z</time>
      </trkpt>
      <trkpt lat="44.49599" lon="0.66555">
        <ele>193</ele>
        <time>2015-11-29T10:57:42Z</time>
      </trkpt>
      <trkpt lat="44.49617" lon="0.66551">
        <ele>191</ele>
        <time>2015-11-29T10:57:46Z</time>
      </trkpt>
      <trkpt lat="44.49668" lon="0.66556">
        <ele>187</ele>
        <time>2015-11-29T10:57:53Z</time>
      </trkpt>
      <trkpt lat="44.49708" lon="0.66557">
        <ele>186</ele>
        <time>2015-11-29T10:57:59Z</time>
      </trkpt>
      <trkpt lat="44.49713" lon="0.66556">
        <ele>188</ele>
        <time>2015-11-29T10:58:00Z</time>
      </trkpt>
      <trkpt lat="44.49736" lon="0.66536">
        <ele>190</ele>
        <time>2015-11-29T10:58:05Z</time>
      </trkpt>
      <trkpt lat="44.49772" lon="0.66512">
        <ele>191</ele>
        <time>2015-11-29T10:58:14Z</time>
      </trkpt>
      <trkpt lat="44.49783" lon="0.66507">
        <ele>191</ele>
        <time>2015-11-29T10:58:18Z</time>
      </trkpt>
      <trkpt lat="44.49791" lon="0.66498">
        <ele>189</ele>
        <time>2015-11-29T10:58:24Z</time>
      </trkpt>
      <trkpt lat="44.49793" lon="0.66498">
        <ele>188</ele>
        <time>2015-11-29T10:58:25Z</time>
      </trkpt>
      <trkpt lat="44.49801" lon="0.66492">
        <ele>187</ele>
        <time>2015-11-29T10:58:30Z</time>
      </trkpt>
      <trkpt lat="44.4982" lon="0.66462">
        <ele>188</ele>
        <time>2015-11-29T10:58:39Z</time>
      </trkpt>
      <trkpt lat="44.49823" lon="0.66457">
        <ele>187</ele>
        <time>2015-11-29T10:58:40Z</time>
      </trkpt>
      <trkpt lat="44.49845" lon="0.66407">
        <ele>178</ele>
        <time>2015-11-29T10:58:46Z</time>
      </trkpt>
      <trkpt lat="44.4987" lon="0.6635">
        <ele>171</ele>
        <time>2015-11-29T10:58:53Z</time>
      </trkpt>
      <trkpt lat="44.4989" lon="0.663">
        <ele>178</ele>
        <time>2015-11-29T10:58:58Z</time>
      </trkpt>
      <trkpt lat="44.49915" lon="0.66269">
        <ele>176</ele>
        <time>2015-11-29T10:59:04Z</time>
      </trkpt>
      <trkpt lat="44.49917" lon="0.66267">
        <ele>176</ele>
        <time>2015-11-29T10:59:05Z</time>
      </trkpt>
      <trkpt lat="44.49923" lon="0.66264">
        <ele>176</ele>
        <time>2015-11-29T10:59:11Z</time>
      </trkpt>
      <trkpt lat="44.49924" lon="0.66264">
        <ele>175</ele>
        <time>2015-11-29T10:59:15Z</time>
      </trkpt>
      <trkpt lat="44.49925" lon="0.66265">
        <ele>174</ele>
        <time>2015-11-29T10:59:18Z</time>
      </trkpt>
      <trkpt lat="44.49924" lon="0.66266">
        <ele>175</ele>
        <time>2015-11-29T10:59:21Z</time>
      </trkpt>
      <trkpt lat="44.49921" lon="0.6627">
        <ele>175</ele>
        <time>2015-11-29T10:59:26Z</time>
      </trkpt>
      <trkpt lat="44.49918" lon="0.66277">
        <ele>178</ele>
        <time>2015-11-29T10:59:31Z</time>
      </trkpt>
      <trkpt lat="44.49916" lon="0.66285">
        <ele>179</ele>
        <time>2015-11-29T10:59:36Z</time>
      </trkpt>
      <trkpt lat="44.49919" lon="0.66289">
        <ele>179</ele>
        <time>2015-11-29T10:59:41Z</time>
      </trkpt>
      <trkpt lat="44.49926" lon="0.6629">
        <ele>182</ele>
        <time>2015-11-29T10:59:46Z</time>
      </trkpt>
      <trkpt lat="44.49933" lon="0.66292">
        <ele>182</ele>
        <time>2015-11-29T10:59:51Z</time>
      </trkpt>
      <trkpt lat="44.49939" lon="0.66287">
        <ele>180</ele>
        <time>2015-11-29T10:59:56Z</time>
      </trkpt>
      <trkpt lat="44.49961" lon="0.66272">
        <ele>178</ele>
        <time>2015-11-29T11:00:04Z</time>
      </trkpt>
      <trkpt lat="44.49966" lon="0.66266">
        <ele>179</ele>
        <time>2015-11-29T11:00:06Z</time>
      </trkpt>
      <trkpt lat="44.49975" lon="0.66254">
        <ele>179</ele>
        <time>2015-11-29T11:00:11Z</time>
      </trkpt>
      <trkpt lat="44.49982" lon="0.66257">
        <ele>181</ele>
        <time>2015-11-29T11:00:16Z</time>
      </trkpt>
      <trkpt lat="44.49989" lon="0.66261">
        <ele>182</ele>
        <time>2015-11-29T11:00:21Z</time>
      </trkpt>
      <trkpt lat="44.49998" lon="0.66263">
        <ele>179</ele>
        <time>2015-11-29T11:00:26Z</time>
      </trkpt>
      <trkpt lat="44.50005" lon="0.66265">
        <ele>180</ele>
        <time>2015-11-29T11:00:31Z</time>
      </trkpt>
      <trkpt lat="44.50019" lon="0.66267">
        <ele>178</ele>
        <time>2015-11-29T11:00:37Z</time>
      </trkpt>
      <trkpt lat="44.50028" lon="0.66267">
        <ele>178</ele>
        <time>2015-11-29T11:00:42Z</time>
      </trkpt>
      <trkpt lat="44.50037" lon="0.66271">
        <ele>183</ele>
        <time>2015-11-29T11:00:47Z</time>
      </trkpt>
      <trkpt lat="44.50038" lon="0.66271">
        <ele>183</ele>
        <time>2015-11-29T11:00:53Z</time>
      </trkpt>
      <trkpt lat="44.5004" lon="0.66272">
        <ele>184</ele>
        <time>2015-11-29T11:00:54Z</time>
      </trkpt>
      <trkpt lat="44.50043" lon="0.66275">
        <ele>186</ele>
        <time>2015-11-29T11:00:59Z</time>
      </trkpt>
      <trkpt lat="44.50044" lon="0.66276">
        <ele>186</ele>
        <time>2015-11-29T11:01:04Z</time>
      </trkpt>
      <trkpt lat="44.50045" lon="0.66277">
        <ele>185</ele>
        <time>2015-11-29T11:01:07Z</time>
      </trkpt>
      <trkpt lat="44.50045" lon="0.66278">
        <ele>185</ele>
        <time>2015-11-29T11:01:11Z</time>
      </trkpt>
      <trkpt lat="44.50045" lon="0.66278">
        <ele>185</ele>
        <time>2015-11-29T11:01:13Z</time>
      </trkpt>
      <trkpt lat="44.50045" lon="0.66278">
        <ele>185</ele>
        <time>2015-11-29T11:01:16Z</time>
      </trkpt>
      <trkpt lat="44.50045" lon="0.66278">
        <ele>185</ele>
        <time>2015-11-29T11:01:19Z</time>
      </trkpt>
      <trkpt lat="44.50045" lon="0.66278">
        <ele>185</ele>
        <time>2015-11-29T11:01:22Z</time>
      </trkpt>
      <trkpt lat="44.50048" lon="0.66276">
        <ele>186</ele>
        <time>2015-11-29T11:01:25Z</time>
      </trkpt>
      <trkpt lat="44.50048" lon="0.66276">
        <ele>186</ele>
        <time>2015-11-29T11:01:30Z</time>
      </trkpt>
      <trkpt lat="44.50048" lon="0.66276">
        <ele>187</ele>
        <time>2015-11-29T11:01:33Z</time>
      </trkpt>
      <trkpt lat="44.50048" lon="0.66276">
        <ele>187</ele>
        <time>2015-11-29T11:01:36Z</time>
      </trkpt>
      <trkpt lat="44.50049" lon="0.66276">
        <ele>187</ele>
        <time>2015-11-29T11:01:39Z</time>
      </trkpt>
      <trkpt lat="44.50049" lon="0.66276">
        <ele>187</ele>
        <time>2015-11-29T11:01:42Z</time>
      </trkpt>
      <trkpt lat="44.50048" lon="0.66275">
        <ele>188</ele>
        <time>2015-11-29T11:01:45Z</time>
      </trkpt>
      <trkpt lat="44.50048" lon="0.66273">
        <ele>187</ele>
        <time>2015-11-29T11:01:48Z</time>
      </trkpt>
      <trkpt lat="44.50048" lon="0.66273">
        <ele>187</ele>
        <time>2015-11-29T11:01:54Z</time>
      </trkpt>
      <trkpt lat="44.50048" lon="0.66273">
        <ele>187</ele>
        <time>2015-11-29T11:01:56Z</time>
      </trkpt>
      <trkpt lat="44.50048" lon="0.66274">
        <ele>187</ele>
        <time>2015-11-29T11:01:59Z</time>
      </trkpt>
      <trkpt lat="44.50048" lon="0.66274">
        <ele>187</ele>
        <time>2015-11-29T11:02:02Z</time>
      </trkpt>
      <trkpt lat="44.50048" lon="0.66274">
        <ele>187</ele>
        <time>2015-11-29T11:02:05Z</time>
      </trkpt>
      <trkpt lat="44.50048" lon="0.66274">
        <ele>187</ele>
        <time>2015-11-29T11:02:08Z</time>
      </trkpt>
      <trkpt lat="44.50048" lon="0.66274">
        <ele>187</ele>
        <time>2015-11-29T11:02:11Z</time>
      </trkpt>
      <trkpt lat="44.50048" lon="0.66274">
        <ele>187</ele>
        <time>2015-11-29T11:02:13Z</time>
      </trkpt>
      <trkpt lat="44.50048" lon="0.66274">
        <ele>187</ele>
        <time>2015-11-29T11:02:16Z</time>
      </trkpt>
      <trkpt lat="44.50048" lon="0.66274">
        <ele>187</ele>
        <time>2015-11-29T11:02:19Z</time>
      </trkpt>
      <trkpt lat="44.50048" lon="0.66272">
        <ele>187</ele>
        <time>2015-11-29T11:02:22Z</time>
      </trkpt>
      <trkpt lat="44.50047" lon="0.66271">
        <ele>189</ele>
        <time>2015-11-29T11:02:27Z</time>
      </trkpt>
      <trkpt lat="44.50047" lon="0.6627">
        <ele>188</ele>
        <time>2015-11-29T11:02:32Z</time>
      </trkpt>
      <trkpt lat="44.50047" lon="0.6627">
        <ele>188</ele>
        <time>2015-11-29T11:02:33Z</time>
      </trkpt>
      <trkpt lat="44.50047" lon="0.6627">
        <ele>188</ele>
        <time>2015-11-29T11:02:36Z</time>
      </trkpt>
      <trkpt lat="44.50047" lon="0.6627">
        <ele>189</ele>
        <time>2015-11-29T11:02:39Z</time>
      </trkpt>
      <trkpt lat="44.50047" lon="0.66268">
        <ele>188</ele>
        <time>2015-11-29T11:02:43Z</time>
      </trkpt>
      <trkpt lat="44.50046" lon="0.66268">
        <ele>187</ele>
        <time>2015-11-29T11:02:48Z</time>
      </trkpt>
      <trkpt lat="44.50046" lon="0.66269">
        <ele>187</ele>
        <time>2015-11-29T11:02:52Z</time>
      </trkpt>
      <trkpt lat="44.50046" lon="0.66268">
        <ele>187</ele>
        <time>2015-11-29T11:02:53Z</time>
      </trkpt>
      <trkpt lat="44.50046" lon="0.66268">
        <ele>186</ele>
        <time>2015-11-29T11:02:58Z</time>
      </trkpt>
      <trkpt lat="44.50047" lon="0.66269">
        <ele>186</ele>
        <time>2015-11-29T11:03:03Z</time>
      </trkpt>
      <trkpt lat="44.50046" lon="0.66269">
        <ele>186</ele>
        <time>2015-11-29T11:03:04Z</time>
      </trkpt>
      <trkpt lat="44.50046" lon="0.66269">
        <ele>186</ele>
        <time>2015-11-29T11:03:07Z</time>
      </trkpt>
      <trkpt lat="44.50046" lon="0.6627">
        <ele>186</ele>
        <time>2015-11-29T11:03:10Z</time>
      </trkpt>
      <trkpt lat="44.50046" lon="0.6627">
        <ele>186</ele>
        <time>2015-11-29T11:03:13Z</time>
      </trkpt>
      <trkpt lat="44.50046" lon="0.6627">
        <ele>186</ele>
        <time>2015-11-29T11:03:16Z</time>
      </trkpt>
      <trkpt lat="44.50046" lon="0.6627">
        <ele>186</ele>
        <time>2015-11-29T11:03:19Z</time>
      </trkpt>
      <trkpt lat="44.50046" lon="0.6627">
        <ele>186</ele>
        <time>2015-11-29T11:03:22Z</time>
      </trkpt>
      <trkpt lat="44.50046" lon="0.6627">
        <ele>186</ele>
        <time>2015-11-29T11:03:25Z</time>
      </trkpt>
      <trkpt lat="44.50046" lon="0.6627">
        <ele>186</ele>
        <time>2015-11-29T11:03:28Z</time>
      </trkpt>
      <trkpt lat="44.50046" lon="0.6627">
        <ele>186</ele>
        <time>2015-11-29T11:03:31Z</time>
      </trkpt>
      <trkpt lat="44.50046" lon="0.6627">
        <ele>186</ele>
        <time>2015-11-29T11:03:35Z</time>
      </trkpt>
      <trkpt lat="44.50046" lon="0.6627">
        <ele>186</ele>
        <time>2015-11-29T11:03:37Z</time>
      </trkpt>
      <trkpt lat="44.50047" lon="0.6627">
        <ele>186</ele>
        <time>2015-11-29T11:03:40Z</time>
      </trkpt>
      <trkpt lat="44.50047" lon="0.6627">
        <ele>186</ele>
        <time>2015-11-29T11:03:45Z</time>
      </trkpt>
      <trkpt lat="44.50047" lon="0.6627">
        <ele>186</ele>
        <time>2015-11-29T11:03:46Z</time>
      </trkpt>
      <trkpt lat="44.50047" lon="0.6627">
        <ele>186</ele>
        <time>2015-11-29T11:03:49Z</time>
      </trkpt>
      <trkpt lat="44.50047" lon="0.6627">
        <ele>186</ele>
        <time>2015-11-29T11:03:52Z</time>
      </trkpt>
      <trkpt lat="44.50047" lon="0.6627">
        <ele>186</ele>
        <time>2015-11-29T11:03:55Z</time>
      </trkpt>
      <trkpt lat="44.50048" lon="0.6627">
        <ele>185</ele>
        <time>2015-11-29T11:03:58Z</time>
      </trkpt>
      <trkpt lat="44.50052" lon="0.66272">
        <ele>183</ele>
        <time>2015-11-29T11:04:03Z</time>
      </trkpt>
      <trkpt lat="44.50051" lon="0.66273">
        <ele>183</ele>
        <time>2015-11-29T11:04:08Z</time>
      </trkpt>
      <trkpt lat="44.50052" lon="0.66273">
        <ele>183</ele>
        <time>2015-11-29T11:04:11Z</time>
      </trkpt>
      <trkpt lat="44.50052" lon="0.66273">
        <ele>184</ele>
        <time>2015-11-29T11:04:14Z</time>
      </trkpt>
      <trkpt lat="44.50052" lon="0.66273">
        <ele>184</ele>
        <time>2015-11-29T11:04:17Z</time>
      </trkpt>
      <trkpt lat="44.50052" lon="0.66273">
        <ele>184</ele>
        <time>2015-11-29T11:04:20Z</time>
      </trkpt>
      <trkpt lat="44.50052" lon="0.66273">
        <ele>184</ele>
        <time>2015-11-29T11:04:23Z</time>
      </trkpt>
      <trkpt lat="44.50052" lon="0.66273">
        <ele>184</ele>
        <time>2015-11-29T11:04:28Z</time>
      </trkpt>
      <trkpt lat="44.50052" lon="0.66273">
        <ele>184</ele>
        <time>2015-11-29T11:04:29Z</time>
      </trkpt>
      <trkpt lat="44.50052" lon="0.66273">
        <ele>184</ele>
        <time>2015-11-29T11:04:32Z</time>
      </trkpt>
      <trkpt lat="44.50052" lon="0.66273">
        <ele>184</ele>
        <time>2015-11-29T11:04:35Z</time>
      </trkpt>
      <trkpt lat="44.50052" lon="0.66273">
        <ele>184</ele>
        <time>2015-11-29T11:04:38Z</time>
      </trkpt>
      <trkpt lat="44.50052" lon="0.66273">
        <ele>184</ele>
        <time>2015-11-29T11:04:41Z</time>
      </trkpt>
      <trkpt lat="44.50052" lon="0.66273">
        <ele>184</ele>
        <time>2015-11-29T11:04:44Z</time>
      </trkpt>
      <trkpt lat="44.50052" lon="0.66273">
        <ele>184</ele>
        <time>2015-11-29T11:04:47Z</time>
      </trkpt>
      <trkpt lat="44.50052" lon="0.66273">
        <ele>184</ele>
        <time>2015-11-29T11:04:50Z</time>
      </trkpt>
      <trkpt lat="44.50052" lon="0.66273">
        <ele>184</ele>
        <time>2015-11-29T11:04:53Z</time>
      </trkpt>
      <trkpt lat="44.50052" lon="0.66273">
        <ele>184</ele>
        <time>2015-11-29T11:04:56Z</time>
      </trkpt>
      <trkpt lat="44.50052" lon="0.66273">
        <ele>184</ele>
        <time>2015-11-29T11:04:59Z</time>
      </trkpt>
      <trkpt lat="44.50052" lon="0.66273">
        <ele>184</ele>
        <time>2015-11-29T11:05:02Z</time>
      </trkpt>
      <trkpt lat="44.50052" lon="0.66273">
        <ele>184</ele>
        <time>2015-11-29T11:05:05Z</time>
      </trkpt>
      <trkpt lat="44.50052" lon="0.66273">
        <ele>184</ele>
        <time>2015-11-29T11:05:08Z</time>
      </trkpt>
      <trkpt lat="44.50052" lon="0.66273">
        <ele>184</ele>
        <time>2015-11-29T11:05:11Z</time>
      </trkpt>
      <trkpt lat="44.50052" lon="0.66273">
        <ele>184</ele>
        <time>2015-11-29T11:05:14Z</time>
      </trkpt>
      <trkpt lat="44.50052" lon="0.66273">
        <ele>185</ele>
        <time>2015-11-29T11:05:17Z</time>
      </trkpt>
      <trkpt lat="44.50052" lon="0.66273">
        <ele>185</ele>
        <time>2015-11-29T11:05:20Z</time>
      </trkpt>
      <trkpt lat="44.50051" lon="0.66273">
        <ele>185</ele>
        <time>2015-11-29T11:05:23Z</time>
      </trkpt>
      <trkpt lat="44.50047" lon="0.66279">
        <ele>184</ele>
        <time>2015-11-29T11:05:26Z</time>
      </trkpt>
      <trkpt lat="44.50042" lon="0.66274">
        <ele>184</ele>
        <time>2015-11-29T11:05:35Z</time>
      </trkpt>
      <trkpt lat="44.50049" lon="0.66283">
        <ele>184</ele>
        <time>2015-11-29T11:05:40Z</time>
      </trkpt>
      <trkpt lat="44.50052" lon="0.6628">
        <ele>186</ele>
        <time>2015-11-29T11:05:45Z</time>
      </trkpt>
      <trkpt lat="44.50054" lon="0.66279">
        <ele>185</ele>
        <time>2015-11-29T11:05:47Z</time>
      </trkpt>
      <trkpt lat="44.50053" lon="0.66278">
        <ele>186</ele>
        <time>2015-11-29T11:05:51Z</time>
      </trkpt>
      <trkpt lat="44.50053" lon="0.66278">
        <ele>186</ele>
        <time>2015-11-29T11:05:55Z</time>
      </trkpt>
      <trkpt lat="44.50053" lon="0.66279">
        <ele>186</ele>
        <time>2015-11-29T11:05:57Z</time>
      </trkpt>
      <trkpt lat="44.50053" lon="0.66279">
        <ele>186</ele>
        <time>2015-11-29T11:06:00Z</time>
      </trkpt>
      <trkpt lat="44.50053" lon="0.66278">
        <ele>186</ele>
        <time>2015-11-29T11:06:03Z</time>
      </trkpt>
      <trkpt lat="44.50053" lon="0.66278">
        <ele>186</ele>
        <time>2015-11-29T11:06:06Z</time>
      </trkpt>
      <trkpt lat="44.50053" lon="0.66279">
        <ele>186</ele>
        <time>2015-11-29T11:06:09Z</time>
      </trkpt>
      <trkpt lat="44.50053" lon="0.66279">
        <ele>186</ele>
        <time>2015-11-29T11:06:12Z</time>
      </trkpt>
      <trkpt lat="44.50053" lon="0.66278">
        <ele>186</ele>
        <time>2015-11-29T11:06:16Z</time>
      </trkpt>
      <trkpt lat="44.50053" lon="0.66278">
        <ele>186</ele>
        <time>2015-11-29T11:06:18Z</time>
      </trkpt>
      <trkpt lat="44.50053" lon="0.66278">
        <ele>186</ele>
        <time>2015-11-29T11:06:21Z</time>
      </trkpt>
      <trkpt lat="44.50053" lon="0.66278">
        <ele>186</ele>
        <time>2015-11-29T11:06:24Z</time>
      </trkpt>
      <trkpt lat="44.50053" lon="0.66279">
        <ele>186</ele>
        <time>2015-11-29T11:06:27Z</time>
      </trkpt>
      <trkpt lat="44.50053" lon="0.66279">
        <ele>186</ele>
        <time>2015-11-29T11:06:30Z</time>
      </trkpt>
      <trkpt lat="44.50053" lon="0.66279">
        <ele>186</ele>
        <time>2015-11-29T11:06:33Z</time>
      </trkpt>
      <trkpt lat="44.50053" lon="0.66279">
        <ele>186</ele>
        <time>2015-11-29T11:06:36Z</time>
      </trkpt>
      <trkpt lat="44.50053" lon="0.66279">
        <ele>186</ele>
        <time>2015-11-29T11:06:39Z</time>
      </trkpt>
      <trkpt lat="44.50053" lon="0.66279">
        <ele>186</ele>
        <time>2015-11-29T11:06:42Z</time>
      </trkpt>
      <trkpt lat="44.50053" lon="0.66279">
        <ele>186</ele>
        <time>2015-11-29T11:06:45Z</time>
      </trkpt>
      <trkpt lat="44.50053" lon="0.66279">
        <ele>186</ele>
        <time>2015-11-29T11:06:48Z</time>
      </trkpt>
      <trkpt lat="44.50053" lon="0.66279">
        <ele>186</ele>
        <time>2015-11-29T11:06:53Z</time>
      </trkpt>
      <trkpt lat="44.50053" lon="0.66279">
        <ele>186</ele>
        <time>2015-11-29T11:06:54Z</time>
      </trkpt>
      <trkpt lat="44.50053" lon="0.66279">
        <ele>186</ele>
        <time>2015-11-29T11:06:57Z</time>
      </trkpt>
      <trkpt lat="44.50053" lon="0.66279">
        <ele>186</ele>
        <time>2015-11-29T11:07:00Z</time>
      </trkpt>
      <trkpt lat="44.50053" lon="0.66279">
        <ele>186</ele>
        <time>2015-11-29T11:07:03Z</time>
      </trkpt>
      <trkpt lat="44.50053" lon="0.66279">
        <ele>186</ele>
        <time>2015-11-29T11:07:07Z</time>
      </trkpt>
      <trkpt lat="44.50053" lon="0.66279">
        <ele>186</ele>
        <time>2015-11-29T11:07:09Z</time>
      </trkpt>
      <trkpt lat="44.50053" lon="0.66279">
        <ele>186</ele>
        <time>2015-11-29T11:07:13Z</time>
      </trkpt>
      <trkpt lat="44.50053" lon="0.66279">
        <ele>186</ele>
        <time>2015-11-29T11:07:15Z</time>
      </trkpt>
      <trkpt lat="44.50053" lon="0.66279">
        <ele>186</ele>
        <time>2015-11-29T11:07:18Z</time>
      </trkpt>
      <trkpt lat="44.50053" lon="0.66279">
        <ele>186</ele>
        <time>2015-11-29T11:07:23Z</time>
      </trkpt>
      <trkpt lat="44.50053" lon="0.66279">
        <ele>186</ele>
        <time>2015-11-29T11:07:24Z</time>
      </trkpt>
      <trkpt lat="44.50053" lon="0.66279">
        <ele>186</ele>
        <time>2015-11-29T11:07:27Z</time>
      </trkpt>
      <trkpt lat="44.50053" lon="0.66279">
        <ele>186</ele>
        <time>2015-11-29T11:07:30Z</time>
      </trkpt>
      <trkpt lat="44.50053" lon="0.66279">
        <ele>186</ele>
        <time>2015-11-29T11:07:33Z</time>
      </trkpt>
      <trkpt lat="44.50053" lon="0.66279">
        <ele>186</ele>
        <time>2015-11-29T11:07:36Z</time>
      </trkpt>
      <trkpt lat="44.50053" lon="0.66279">
        <ele>186</ele>
        <time>2015-11-29T11:07:39Z</time>
      </trkpt>
      <trkpt lat="44.50053" lon="0.66279">
        <ele>186</ele>
        <time>2015-11-29T11:07:42Z</time>
      </trkpt>
      <trkpt lat="44.50053" lon="0.66279">
        <ele>186</ele>
        <time>2015-11-29T11:07:45Z</time>
      </trkpt>
      <trkpt lat="44.50054" lon="0.6628">
        <ele>186</ele>
        <time>2015-11-29T11:07:50Z</time>
      </trkpt>
      <trkpt lat="44.50054" lon="0.6628">
        <ele>186</ele>
        <time>2015-11-29T11:07:51Z</time>
      </trkpt>
      <trkpt lat="44.50054" lon="0.6628">
        <ele>187</ele>
        <time>2015-11-29T11:07:54Z</time>
      </trkpt>
      <trkpt lat="44.50053" lon="0.66281">
        <ele>186</ele>
        <time>2015-11-29T11:07:57Z</time>
      </trkpt>
      <trkpt lat="44.50053" lon="0.66281">
        <ele>187</ele>
        <time>2015-11-29T11:08:00Z</time>
      </trkpt>
      <trkpt lat="44.50053" lon="0.66281">
        <ele>187</ele>
        <time>2015-11-29T11:08:03Z</time>
      </trkpt>
      <trkpt lat="44.50053" lon="0.66281">
        <ele>187</ele>
        <time>2015-11-29T11:08:08Z</time>
      </trkpt>
      <trkpt lat="44.50053" lon="0.66281">
        <ele>187</ele>
        <time>2015-11-29T11:08:09Z</time>
      </trkpt>
      <trkpt lat="44.50053" lon="0.66281">
        <ele>187</ele>
        <time>2015-11-29T11:08:12Z</time>
      </trkpt>
      <trkpt lat="44.50053" lon="0.66281">
        <ele>187</ele>
        <time>2015-11-29T11:08:15Z</time>
      </trkpt>
      <trkpt lat="44.50053" lon="0.66281">
        <ele>187</ele>
        <time>2015-11-29T11:08:18Z</time>
      </trkpt>
      <trkpt lat="44.50053" lon="0.66281">
        <ele>187</ele>
        <time>2015-11-29T11:08:20Z</time>
      </trkpt>
      <trkpt lat="44.50053" lon="0.66281">
        <ele>187</ele>
        <time>2015-11-29T11:08:23Z</time>
      </trkpt>
      <trkpt lat="44.50053" lon="0.6628">
        <ele>188</ele>
        <time>2015-11-29T11:08:26Z</time>
      </trkpt>
      <trkpt lat="44.50053" lon="0.66281">
        <ele>187</ele>
        <time>2015-11-29T11:08:29Z</time>
      </trkpt>
      <trkpt lat="44.50053" lon="0.66281">
        <ele>187</ele>
        <time>2015-11-29T11:08:32Z</time>
      </trkpt>
      <trkpt lat="44.50054" lon="0.6628">
        <ele>187</ele>
        <time>2015-11-29T11:08:35Z</time>
      </trkpt>
      <trkpt lat="44.50054" lon="0.6628">
        <ele>187</ele>
        <time>2015-11-29T11:08:38Z</time>
      </trkpt>
      <trkpt lat="44.50054" lon="0.6628">
        <ele>187</ele>
        <time>2015-11-29T11:08:40Z</time>
      </trkpt>
      <trkpt lat="44.50054" lon="0.6628">
        <ele>187</ele>
        <time>2015-11-29T11:08:43Z</time>
      </trkpt>
      <trkpt lat="44.50054" lon="0.6628">
        <ele>187</ele>
        <time>2015-11-29T11:08:48Z</time>
      </trkpt>
      <trkpt lat="44.50054" lon="0.6628">
        <ele>187</ele>
        <time>2015-11-29T11:08:49Z</time>
      </trkpt>
      <trkpt lat="44.50054" lon="0.6628">
        <ele>187</ele>
        <time>2015-11-29T11:08:51Z</time>
      </trkpt>
      <trkpt lat="44.50054" lon="0.6628">
        <ele>187</ele>
        <time>2015-11-29T11:08:54Z</time>
      </trkpt>
      <trkpt lat="44.50054" lon="0.6628">
        <ele>187</ele>
        <time>2015-11-29T11:08:57Z</time>
      </trkpt>
      <trkpt lat="44.50054" lon="0.6628">
        <ele>187</ele>
        <time>2015-11-29T11:09:00Z</time>
      </trkpt>
      <trkpt lat="44.50054" lon="0.6628">
        <ele>187</ele>
        <time>2015-11-29T11:09:03Z</time>
      </trkpt>
      <trkpt lat="44.50054" lon="0.6628">
        <ele>187</ele>
        <time>2015-11-29T11:09:06Z</time>
      </trkpt>
      <trkpt lat="44.50054" lon="0.6628">
        <ele>187</ele>
        <time>2015-11-29T11:09:09Z</time>
      </trkpt>
      <trkpt lat="44.50054" lon="0.6628">
        <ele>188</ele>
        <time>2015-11-29T11:09:12Z</time>
      </trkpt>
      <trkpt lat="44.50054" lon="0.6628">
        <ele>188</ele>
        <time>2015-11-29T11:09:14Z</time>
      </trkpt>
      <trkpt lat="44.50054" lon="0.6628">
        <ele>188</ele>
        <time>2015-11-29T11:09:18Z</time>
      </trkpt>
      <trkpt lat="44.50054" lon="0.6628">
        <ele>188</ele>
        <time>2015-11-29T11:09:22Z</time>
      </trkpt>
      <trkpt lat="44.50054" lon="0.6628">
        <ele>186</ele>
        <time>2015-11-29T11:09:25Z</time>
      </trkpt>
      <trkpt lat="44.50054" lon="0.6628">
        <ele>186</ele>
        <time>2015-11-29T11:09:26Z</time>
      </trkpt>
      <trkpt lat="44.50053" lon="0.6628">
        <ele>186</ele>
        <time>2015-11-29T11:09:29Z</time>
      </trkpt>
      <trkpt lat="44.50053" lon="0.66281">
        <ele>185</ele>
        <time>2015-11-29T11:09:34Z</time>
      </trkpt>
      <trkpt lat="44.50053" lon="0.6628">
        <ele>186</ele>
        <time>2015-11-29T11:09:38Z</time>
      </trkpt>
      <trkpt lat="44.50052" lon="0.6628">
        <ele>186</ele>
        <time>2015-11-29T11:09:40Z</time>
      </trkpt>
      <trkpt lat="44.50053" lon="0.6628">
        <ele>187</ele>
        <time>2015-11-29T11:09:43Z</time>
      </trkpt>
      <trkpt lat="44.50053" lon="0.6628">
        <ele>186</ele>
        <time>2015-11-29T11:09:46Z</time>
      </trkpt>
      <trkpt lat="44.50053" lon="0.66281">
        <ele>186</ele>
        <time>2015-11-29T11:09:49Z</time>
      </trkpt>
      <trkpt lat="44.50054" lon="0.66282">
        <ele>185</ele>
        <time>2015-11-29T11:09:52Z</time>
      </trkpt>
      <trkpt lat="44.50053" lon="0.66281">
        <ele>185</ele>
        <time>2015-11-29T11:09:57Z</time>
      </trkpt>
      <trkpt lat="44.50053" lon="0.6628">
        <ele>184</ele>
        <time>2015-11-29T11:10:00Z</time>
      </trkpt>
      <trkpt lat="44.50053" lon="0.6628">
        <ele>184</ele>
        <time>2015-11-29T11:10:03Z</time>
      </trkpt>
      <trkpt lat="44.50053" lon="0.6628">
        <ele>184</ele>
        <time>2015-11-29T11:10:06Z</time>
      </trkpt>
      <trkpt lat="44.50053" lon="0.6628">
        <ele>184</ele>
        <time>2015-11-29T11:10:09Z</time>
      </trkpt>
      <trkpt lat="44.50053" lon="0.6628">
        <ele>184</ele>
        <time>2015-11-29T11:10:12Z</time>
      </trkpt>
      <trkpt lat="44.50053" lon="0.6628">
        <ele>184</ele>
        <time>2015-11-29T11:10:15Z</time>
      </trkpt>
      <trkpt lat="44.50053" lon="0.6628">
        <ele>184</ele>
        <time>2015-11-29T11:10:18Z</time>
      </trkpt>
      <trkpt lat="44.50053" lon="0.6628">
        <ele>184</ele>
        <time>2015-11-29T11:10:23Z</time>
      </trkpt>
      <trkpt lat="44.50053" lon="0.6628">
        <ele>184</ele>
        <time>2015-11-29T11:10:24Z</time>
      </trkpt>
      <trkpt lat="44.50053" lon="0.6628">
        <ele>184</ele>
        <time>2015-11-29T11:10:27Z</time>
      </trkpt>
      <trkpt lat="44.50053" lon="0.6628">
        <ele>184</ele>
        <time>2015-11-29T11:10:30Z</time>
      </trkpt>
      <trkpt lat="44.50053" lon="0.6628">
        <ele>184</ele>
        <time>2015-11-29T11:10:33Z</time>
      </trkpt>
      <trkpt lat="44.50053" lon="0.6628">
        <ele>184</ele>
        <time>2015-11-29T11:10:36Z</time>
      </trkpt>
      <trkpt lat="44.50054" lon="0.6628">
        <ele>184</ele>
        <time>2015-11-29T11:10:39Z</time>
      </trkpt>
      <trkpt lat="44.50053" lon="0.66281">
        <ele>182</ele>
        <time>2015-11-29T11:10:44Z</time>
      </trkpt>
      <trkpt lat="44.50053" lon="0.66282">
        <ele>181</ele>
        <time>2015-11-29T11:10:47Z</time>
      </trkpt>
      <trkpt lat="44.50052" lon="0.66282">
        <ele>180</ele>
        <time>2015-11-29T11:10:50Z</time>
      </trkpt>
      <trkpt lat="44.50052" lon="0.66282">
        <ele>180</ele>
        <time>2015-11-29T11:10:53Z</time>
      </trkpt>
      <trkpt lat="44.50052" lon="0.66281">
        <ele>180</ele>
        <time>2015-11-29T11:10:56Z</time>
      </trkpt>
      <trkpt lat="44.50052" lon="0.66281">
        <ele>180</ele>
        <time>2015-11-29T11:10:59Z</time>
      </trkpt>
      <trkpt lat="44.50053" lon="0.66283">
        <ele>178</ele>
        <time>2015-11-29T11:11:04Z</time>
      </trkpt>
      <trkpt lat="44.50055" lon="0.66286">
        <ele>179</ele>
        <time>2015-11-29T11:11:08Z</time>
      </trkpt>
      <trkpt lat="44.50064" lon="0.6629">
        <ele>180</ele>
        <time>2015-11-29T11:11:12Z</time>
      </trkpt>
      <trkpt lat="44.5007" lon="0.66297">
        <ele>180</ele>
        <time>2015-11-29T11:11:17Z</time>
      </trkpt>
      <trkpt lat="44.50079" lon="0.66305">
        <ele>182</ele>
        <time>2015-11-29T11:11:22Z</time>
      </trkpt>
      <trkpt lat="44.50085" lon="0.66314">
        <ele>184</ele>
        <time>2015-11-29T11:11:27Z</time>
      </trkpt>
      <trkpt lat="44.50095" lon="0.66331">
        <ele>184</ele>
        <time>2015-11-29T11:11:32Z</time>
      </trkpt>
      <trkpt lat="44.50104" lon="0.66341">
        <ele>184</ele>
        <time>2015-11-29T11:11:37Z</time>
      </trkpt>
      <trkpt lat="44.50109" lon="0.66349">
        <ele>189</ele>
        <time>2015-11-29T11:11:45Z</time>
      </trkpt>
      <trkpt lat="44.50113" lon="0.66353">
        <ele>190</ele>
        <time>2015-11-29T11:11:47Z</time>
      </trkpt>
      <trkpt lat="44.50114" lon="0.66353">
        <ele>193</ele>
        <time>2015-11-29T11:11:54Z</time>
      </trkpt>
      <trkpt lat="44.50124" lon="0.66358">
        <ele>193</ele>
        <time>2015-11-29T11:11:59Z</time>
      </trkpt>
      <trkpt lat="44.50125" lon="0.66361">
        <ele>193</ele>
        <time>2015-11-29T11:12:00Z</time>
      </trkpt>
      <trkpt lat="44.50131" lon="0.66368">
        <ele>194</ele>
        <time>2015-11-29T11:12:05Z</time>
      </trkpt>
      <trkpt lat="44.50138" lon="0.66374">
        <ele>194</ele>
        <time>2015-11-29T11:12:10Z</time>
      </trkpt>
      <trkpt lat="44.50142" lon="0.66374">
        <ele>193</ele>
        <time>2015-11-29T11:12:15Z</time>
      </trkpt>
      <trkpt lat="44.50152" lon="0.66384">
        <ele>192</ele>
        <time>2015-11-29T11:12:23Z</time>
      </trkpt>
      <trkpt lat="44.50161" lon="0.66393">
        <ele>189</ele>
        <time>2015-11-29T11:12:27Z</time>
      </trkpt>
      <trkpt lat="44.50167" lon="0.66392">
        <ele>188</ele>
        <time>2015-11-29T11:12:30Z</time>
      </trkpt>
      <trkpt lat="44.50196" lon="0.66401">
        <ele>185</ele>
        <time>2015-11-29T11:12:39Z</time>
      </trkpt>
      <trkpt lat="44.502" lon="0.66401">
        <ele>179</ele>
        <time>2015-11-29T11:12:43Z</time>
      </trkpt>
      <trkpt lat="44.50206" lon="0.66406">
        <ele>179</ele>
        <time>2015-11-29T11:12:45Z</time>
      </trkpt>
      <trkpt lat="44.50221" lon="0.66403">
        <ele>180</ele>
        <time>2015-11-29T11:12:50Z</time>
      </trkpt>
      <trkpt lat="44.50245" lon="0.66409">
        <ele>181</ele>
        <time>2015-11-29T11:12:59Z</time>
      </trkpt>
      <trkpt lat="44.50247" lon="0.66409">
        <ele>182</ele>
        <time>2015-11-29T11:13:00Z</time>
      </trkpt>
      <trkpt lat="44.50261" lon="0.66414">
        <ele>181</ele>
        <time>2015-11-29T11:13:06Z</time>
      </trkpt>
      <trkpt lat="44.50278" lon="0.66418">
        <ele>184</ele>
        <time>2015-11-29T11:13:12Z</time>
      </trkpt>
      <trkpt lat="44.50295" lon="0.66424">
        <ele>187</ele>
        <time>2015-11-29T11:13:19Z</time>
      </trkpt>
      <trkpt lat="44.50296" lon="0.66425">
        <ele>188</ele>
        <time>2015-11-29T11:13:20Z</time>
      </trkpt>
      <trkpt lat="44.50313" lon="0.66427">
        <ele>190</ele>
        <time>2015-11-29T11:13:29Z</time>
      </trkpt>
      <trkpt lat="44.50317" lon="0.66428">
        <ele>192</ele>
        <time>2015-11-29T11:13:32Z</time>
      </trkpt>
      <trkpt lat="44.50323" lon="0.66427">
        <ele>192</ele>
        <time>2015-11-29T11:13:36Z</time>
      </trkpt>
      <trkpt lat="44.50332" lon="0.66421">
        <ele>191</ele>
        <time>2015-11-29T11:13:41Z</time>
      </trkpt>
      <trkpt lat="44.50337" lon="0.66421">
        <ele>192</ele>
        <time>2015-11-29T11:13:44Z</time>
      </trkpt>
      <trkpt lat="44.50344" lon="0.66414">
        <ele>194</ele>
        <time>2015-11-29T11:13:49Z</time>
      </trkpt>
      <trkpt lat="44.50353" lon="0.66416">
        <ele>196</ele>
        <time>2015-11-29T11:13:55Z</time>
      </trkpt>
      <trkpt lat="44.50359" lon="0.66412">
        <ele>197</ele>
        <time>2015-11-29T11:14:01Z</time>
      </trkpt>
      <trkpt lat="44.5036" lon="0.66417">
        <ele>197</ele>
        <time>2015-11-29T11:14:03Z</time>
      </trkpt>
      <trkpt lat="44.50367" lon="0.66415">
        <ele>199</ele>
        <time>2015-11-29T11:14:08Z</time>
      </trkpt>
      <trkpt lat="44.50375" lon="0.66411">
        <ele>198</ele>
        <time>2015-11-29T11:14:15Z</time>
      </trkpt>
      <trkpt lat="44.50377" lon="0.6641">
        <ele>198</ele>
        <time>2015-11-29T11:14:17Z</time>
      </trkpt>
      <trkpt lat="44.50384" lon="0.66403">
        <ele>198</ele>
        <time>2015-11-29T11:14:22Z</time>
      </trkpt>
      <trkpt lat="44.50387" lon="0.66401">
        <ele>197</ele>
        <time>2015-11-29T11:14:25Z</time>
      </trkpt>
      <trkpt lat="44.50396" lon="0.664">
        <ele>198</ele>
        <time>2015-11-29T11:14:33Z</time>
      </trkpt>
      <trkpt lat="44.50397" lon="0.66399">
        <ele>198</ele>
        <time>2015-11-29T11:14:34Z</time>
      </trkpt>
      <trkpt lat="44.50402" lon="0.66399">
        <ele>199</ele>
        <time>2015-11-29T11:14:38Z</time>
      </trkpt>
      <trkpt lat="44.50408" lon="0.66394">
        <ele>200</ele>
        <time>2015-11-29T11:14:43Z</time>
      </trkpt>
      <trkpt lat="44.50414" lon="0.66393">
        <ele>201</ele>
        <time>2015-11-29T11:14:48Z</time>
      </trkpt>
      <trkpt lat="44.5042" lon="0.66389">
        <ele>201</ele>
        <time>2015-11-29T11:14:53Z</time>
      </trkpt>
      <trkpt lat="44.50426" lon="0.66382">
        <ele>201</ele>
        <time>2015-11-29T11:14:58Z</time>
      </trkpt>
      <trkpt lat="44.5043" lon="0.66382">
        <ele>202</ele>
        <time>2015-11-29T11:15:03Z</time>
      </trkpt>
      <trkpt lat="44.50434" lon="0.6638">
        <ele>203</ele>
        <time>2015-11-29T11:15:08Z</time>
      </trkpt>
      <trkpt lat="44.50439" lon="0.66376">
        <ele>203</ele>
        <time>2015-11-29T11:15:13Z</time>
      </trkpt>
      <trkpt lat="44.50444" lon="0.66376">
        <ele>205</ele>
        <time>2015-11-29T11:15:18Z</time>
      </trkpt>
      <trkpt lat="44.50447" lon="0.66378">
        <ele>206</ele>
        <time>2015-11-29T11:15:23Z</time>
      </trkpt>
      <trkpt lat="44.50447" lon="0.66387">
        <ele>207</ele>
        <time>2015-11-29T11:15:28Z</time>
      </trkpt>
      <trkpt lat="44.50446" lon="0.66394">
        <ele>206</ele>
        <time>2015-11-29T11:15:33Z</time>
      </trkpt>
      <trkpt lat="44.50451" lon="0.66398">
        <ele>205</ele>
        <time>2015-11-29T11:15:38Z</time>
      </trkpt>
      <trkpt lat="44.50459" lon="0.664">
        <ele>206</ele>
        <time>2015-11-29T11:15:43Z</time>
      </trkpt>
      <trkpt lat="44.5047" lon="0.66388">
        <ele>206</ele>
        <time>2015-11-29T11:15:48Z</time>
      </trkpt>
      <trkpt lat="44.50481" lon="0.66376">
        <ele>206</ele>
        <time>2015-11-29T11:15:53Z</time>
      </trkpt>
      <trkpt lat="44.50492" lon="0.66359">
        <ele>206</ele>
        <time>2015-11-29T11:15:58Z</time>
      </trkpt>
      <trkpt lat="44.50503" lon="0.6634">
        <ele>207</ele>
        <time>2015-11-29T11:16:03Z</time>
      </trkpt>
      <trkpt lat="44.50513" lon="0.66324">
        <ele>207</ele>
        <time>2015-11-29T11:16:08Z</time>
      </trkpt>
      <trkpt lat="44.5052" lon="0.6631">
        <ele>208</ele>
        <time>2015-11-29T11:16:13Z</time>
      </trkpt>
      <trkpt lat="44.5053" lon="0.663">
        <ele>209</ele>
        <time>2015-11-29T11:16:18Z</time>
      </trkpt>
      <trkpt lat="44.50537" lon="0.66293">
        <ele>211</ele>
        <time>2015-11-29T11:16:22Z</time>
      </trkpt>
      <trkpt lat="44.50546" lon="0.66289">
        <ele>213</ele>
        <time>2015-11-29T11:16:27Z</time>
      </trkpt>
      <trkpt lat="44.50554" lon="0.66284">
        <ele>214</ele>
        <time>2015-11-29T11:16:32Z</time>
      </trkpt>
      <trkpt lat="44.50562" lon="0.66278">
        <ele>214</ele>
        <time>2015-11-29T11:16:37Z</time>
      </trkpt>
      <trkpt lat="44.50573" lon="0.66272">
        <ele>209</ele>
        <time>2015-11-29T11:16:42Z</time>
      </trkpt>
      <trkpt lat="44.50594" lon="0.66262">
        <ele>206</ele>
        <time>2015-11-29T11:16:47Z</time>
      </trkpt>
      <trkpt lat="44.50621" lon="0.66245">
        <ele>206</ele>
        <time>2015-11-29T11:16:52Z</time>
      </trkpt>
      <trkpt lat="44.50669" lon="0.66217">
        <ele>205</ele>
        <time>2015-11-29T11:17:00Z</time>
      </trkpt>
      <trkpt lat="44.50675" lon="0.66214">
        <ele>205</ele>
        <time>2015-11-29T11:17:01Z</time>
      </trkpt>
      <trkpt lat="44.50703" lon="0.662">
        <ele>204</ele>
        <time>2015-11-29T11:17:06Z</time>
      </trkpt>
      <trkpt lat="44.50733" lon="0.66188">
        <ele>203</ele>
        <time>2015-11-29T11:17:11Z</time>
      </trkpt>
      <trkpt lat="44.50764" lon="0.66181">
        <ele>201</ele>
        <time>2015-11-29T11:17:16Z</time>
      </trkpt>
      <trkpt lat="44.50793" lon="0.66175">
        <ele>200</ele>
        <time>2015-11-29T11:17:21Z</time>
      </trkpt>
      <trkpt lat="44.50823" lon="0.66176">
        <ele>198</ele>
        <time>2015-11-29T11:17:26Z</time>
      </trkpt>
      <trkpt lat="44.50851" lon="0.66188">
        <ele>199</ele>
        <time>2015-11-29T11:17:31Z</time>
      </trkpt>
      <trkpt lat="44.50878" lon="0.66204">
        <ele>200</ele>
        <time>2015-11-29T11:17:36Z</time>
      </trkpt>
      <trkpt lat="44.50902" lon="0.66218">
        <ele>200</ele>
        <time>2015-11-29T11:17:41Z</time>
      </trkpt>
      <trkpt lat="44.50926" lon="0.66232">
        <ele>199</ele>
        <time>2015-11-29T11:17:46Z</time>
      </trkpt>
      <trkpt lat="44.50947" lon="0.66246">
        <ele>202</ele>
        <time>2015-11-29T11:17:51Z</time>
      </trkpt>
      <trkpt lat="44.50968" lon="0.66259">
        <ele>201</ele>
        <time>2015-11-29T11:17:56Z</time>
      </trkpt>
      <trkpt lat="44.50987" lon="0.66269">
        <ele>201</ele>
        <time>2015-11-29T11:18:01Z</time>
      </trkpt>
      <trkpt lat="44.51009" lon="0.66282">
        <ele>199</ele>
        <time>2015-11-29T11:18:06Z</time>
      </trkpt>
      <trkpt lat="44.51029" lon="0.66295">
        <ele>199</ele>
        <time>2015-11-29T11:18:11Z</time>
      </trkpt>
      <trkpt lat="44.51047" lon="0.66307">
        <ele>200</ele>
        <time>2015-11-29T11:18:16Z</time>
      </trkpt>
      <trkpt lat="44.51063" lon="0.66316">
        <ele>200</ele>
        <time>2015-11-29T11:18:21Z</time>
      </trkpt>
      <trkpt lat="44.51079" lon="0.66326">
        <ele>199</ele>
        <time>2015-11-29T11:18:26Z</time>
      </trkpt>
      <trkpt lat="44.51088" lon="0.66333">
        <ele>200</ele>
        <time>2015-11-29T11:18:31Z</time>
      </trkpt>
      <trkpt lat="44.51091" lon="0.66333">
        <ele>200</ele>
        <time>2015-11-29T11:18:36Z</time>
      </trkpt>
      <trkpt lat="44.51091" lon="0.66333">
        <ele>201</ele>
        <time>2015-11-29T11:18:41Z</time>
      </trkpt>
      <trkpt lat="44.51091" lon="0.66334">
        <ele>201</ele>
        <time>2015-11-29T11:18:44Z</time>
      </trkpt>
      <trkpt lat="44.5109" lon="0.66335">
        <ele>202</ele>
        <time>2015-11-29T11:18:47Z</time>
      </trkpt>
      <trkpt lat="44.51091" lon="0.66334">
        <ele>201</ele>
        <time>2015-11-29T11:18:52Z</time>
      </trkpt>
      <trkpt lat="44.5109" lon="0.66334">
        <ele>202</ele>
        <time>2015-11-29T11:18:53Z</time>
      </trkpt>
      <trkpt lat="44.5109" lon="0.66334">
        <ele>203</ele>
        <time>2015-11-29T11:18:55Z</time>
      </trkpt>
      <trkpt lat="44.51092" lon="0.66335">
        <ele>204</ele>
        <time>2015-11-29T11:18:58Z</time>
      </trkpt>
      <trkpt lat="44.51099" lon="0.6634">
        <ele>202</ele>
        <time>2015-11-29T11:19:03Z</time>
      </trkpt>
      <trkpt lat="44.51104" lon="0.66349">
        <ele>200</ele>
        <time>2015-11-29T11:19:07Z</time>
      </trkpt>
      <trkpt lat="44.51127" lon="0.66379">
        <ele>203</ele>
        <time>2015-11-29T11:19:14Z</time>
      </trkpt>
      <trkpt lat="44.51139" lon="0.66391">
        <ele>204</ele>
        <time>2015-11-29T11:19:17Z</time>
      </trkpt>
      <trkpt lat="44.51153" lon="0.66412">
        <ele>204</ele>
        <time>2015-11-29T11:19:21Z</time>
      </trkpt>
      <trkpt lat="44.51171" lon="0.66434">
        <ele>205</ele>
        <time>2015-11-29T11:19:26Z</time>
      </trkpt>
      <trkpt lat="44.51189" lon="0.66463">
        <ele>204</ele>
        <time>2015-11-29T11:19:32Z</time>
      </trkpt>
      <trkpt lat="44.51201" lon="0.66482">
        <ele>204</ele>
        <time>2015-11-29T11:19:36Z</time>
      </trkpt>
      <trkpt lat="44.51213" lon="0.665">
        <ele>206</ele>
        <time>2015-11-29T11:19:40Z</time>
      </trkpt>
      <trkpt lat="44.51232" lon="0.66522">
        <ele>207</ele>
        <time>2015-11-29T11:19:45Z</time>
      </trkpt>
      <trkpt lat="44.51253" lon="0.66545">
        <ele>204</ele>
        <time>2015-11-29T11:19:50Z</time>
      </trkpt>
      <trkpt lat="44.5127" lon="0.66563">
        <ele>205</ele>
        <time>2015-11-29T11:19:54Z</time>
      </trkpt>
      <trkpt lat="44.51288" lon="0.66579">
        <ele>205</ele>
        <time>2015-11-29T11:19:58Z</time>
      </trkpt>
      <trkpt lat="44.51314" lon="0.66601">
        <ele>202</ele>
        <time>2015-11-29T11:20:03Z</time>
      </trkpt>
      <trkpt lat="44.51344" lon="0.66629">
        <ele>201</ele>
        <time>2015-11-29T11:20:09Z</time>
      </trkpt>
      <trkpt lat="44.51359" lon="0.6664">
        <ele>202</ele>
        <time>2015-11-29T11:20:12Z</time>
      </trkpt>
      <trkpt lat="44.51377" lon="0.66651">
        <ele>202</ele>
        <time>2015-11-29T11:20:16Z</time>
      </trkpt>
      <trkpt lat="44.51405" lon="0.66659">
        <ele>203</ele>
        <time>2015-11-29T11:20:22Z</time>
      </trkpt>
      <trkpt lat="44.51434" lon="0.66676">
        <ele>202</ele>
        <time>2015-11-29T11:20:28Z</time>
      </trkpt>
      <trkpt lat="44.51444" lon="0.66681">
        <ele>202</ele>
        <time>2015-11-29T11:20:30Z</time>
      </trkpt>
      <trkpt lat="44.51466" lon="0.66696">
        <ele>201</ele>
        <time>2015-11-29T11:20:34Z</time>
      </trkpt>
      <trkpt lat="44.51516" lon="0.66711">
        <ele>199</ele>
        <time>2015-11-29T11:20:42Z</time>
      </trkpt>
      <trkpt lat="44.51523" lon="0.66714">
        <ele>200</ele>
        <time>2015-11-29T11:20:43Z</time>
      </trkpt>
      <trkpt lat="44.51557" lon="0.66734">
        <ele>197</ele>
        <time>2015-11-29T11:20:48Z</time>
      </trkpt>
      <trkpt lat="44.51595" lon="0.66795">
        <ele>194</ele>
        <time>2015-11-29T11:20:56Z</time>
      </trkpt>
      <trkpt lat="44.51597" lon="0.66804">
        <ele>194</ele>
        <time>2015-11-29T11:20:57Z</time>
      </trkpt>
      <trkpt lat="44.51605" lon="0.66844">
        <ele>193</ele>
        <time>2015-11-29T11:21:02Z</time>
      </trkpt>
      <trkpt lat="44.51604" lon="0.66884">
        <ele>193</ele>
        <time>2015-11-29T11:21:07Z</time>
      </trkpt>
      <trkpt lat="44.51602" lon="0.66919">
        <ele>189</ele>
        <time>2015-11-29T11:21:11Z</time>
      </trkpt>
      <trkpt lat="44.51597" lon="0.66964">
        <ele>190</ele>
        <time>2015-11-29T11:21:16Z</time>
      </trkpt>
      <trkpt lat="44.51594" lon="0.67009">
        <ele>190</ele>
        <time>2015-11-29T11:21:21Z</time>
      </trkpt>
      <trkpt lat="44.51589" lon="0.67051">
        <ele>189</ele>
        <time>2015-11-29T11:21:26Z</time>
      </trkpt>
      <trkpt lat="44.51583" lon="0.67094">
        <ele>190</ele>
        <time>2015-11-29T11:21:31Z</time>
      </trkpt>
      <trkpt lat="44.51579" lon="0.67134">
        <ele>190</ele>
        <time>2015-11-29T11:21:35Z</time>
      </trkpt>
      <trkpt lat="44.51576" lon="0.67184">
        <ele>191</ele>
        <time>2015-11-29T11:21:40Z</time>
      </trkpt>
      <trkpt lat="44.51576" lon="0.67222">
        <ele>191</ele>
        <time>2015-11-29T11:21:44Z</time>
      </trkpt>
      <trkpt lat="44.5158" lon="0.67269">
        <ele>192</ele>
        <time>2015-11-29T11:21:49Z</time>
      </trkpt>
      <trkpt lat="44.51599" lon="0.67318">
        <ele>186</ele>
        <time>2015-11-29T11:21:54Z</time>
      </trkpt>
      <trkpt lat="44.51648" lon="0.67343">
        <ele>185</ele>
        <time>2015-11-29T11:22:01Z</time>
      </trkpt>
      <trkpt lat="44.51684" lon="0.67343">
        <ele>186</ele>
        <time>2015-11-29T11:22:06Z</time>
      </trkpt>
      <trkpt lat="44.51698" lon="0.67344">
        <ele>186</ele>
        <time>2015-11-29T11:22:08Z</time>
      </trkpt>
      <trkpt lat="44.51726" lon="0.67351">
        <ele>184</ele>
        <time>2015-11-29T11:22:12Z</time>
      </trkpt>
      <trkpt lat="44.51755" lon="0.6738">
        <ele>182</ele>
        <time>2015-11-29T11:22:17Z</time>
      </trkpt>
      <trkpt lat="44.51768" lon="0.6743">
        <ele>162</ele>
        <time>2015-11-29T11:22:23Z</time>
      </trkpt>
      <trkpt lat="44.51767" lon="0.67446">
        <ele>169</ele>
        <time>2015-11-29T11:22:25Z</time>
      </trkpt>
      <trkpt lat="44.5176" lon="0.67488">
        <ele>170</ele>
        <time>2015-11-29T11:22:30Z</time>
      </trkpt>
      <trkpt lat="44.51754" lon="0.67521">
        <ele>171</ele>
        <time>2015-11-29T11:22:34Z</time>
      </trkpt>
      <trkpt lat="44.51745" lon="0.67599">
        <ele>169</ele>
        <time>2015-11-29T11:22:43Z</time>
      </trkpt>
      <trkpt lat="44.51743" lon="0.67625">
        <ele>169</ele>
        <time>2015-11-29T11:22:46Z</time>
      </trkpt>
      <trkpt lat="44.51744" lon="0.67648">
        <ele>170</ele>
        <time>2015-11-29T11:22:49Z</time>
      </trkpt>
      <trkpt lat="44.51764" lon="0.67679">
        <ele>170</ele>
        <time>2015-11-29T11:22:54Z</time>
      </trkpt>
      <trkpt lat="44.51789" lon="0.6769">
        <ele>170</ele>
        <time>2015-11-29T11:22:58Z</time>
      </trkpt>
      <trkpt lat="44.5182" lon="0.67688">
        <ele>170</ele>
        <time>2015-11-29T11:23:03Z</time>
      </trkpt>
      <trkpt lat="44.51846" lon="0.67683">
        <ele>169</ele>
        <time>2015-11-29T11:23:07Z</time>
      </trkpt>
      <trkpt lat="44.51873" lon="0.67677">
        <ele>166</ele>
        <time>2015-11-29T11:23:11Z</time>
      </trkpt>
      <trkpt lat="44.51907" lon="0.67669">
        <ele>166</ele>
        <time>2015-11-29T11:23:16Z</time>
      </trkpt>
      <trkpt lat="44.5194" lon="0.67666">
        <ele>165</ele>
        <time>2015-11-29T11:23:21Z</time>
      </trkpt>
      <trkpt lat="44.51967" lon="0.67672">
        <ele>163</ele>
        <time>2015-11-29T11:23:25Z</time>
      </trkpt>
      <trkpt lat="44.51998" lon="0.6769">
        <ele>162</ele>
        <time>2015-11-29T11:23:30Z</time>
      </trkpt>
      <trkpt lat="44.52025" lon="0.67717">
        <ele>161</ele>
        <time>2015-11-29T11:23:35Z</time>
      </trkpt>
      <trkpt lat="44.52046" lon="0.67746">
        <ele>158</ele>
        <time>2015-11-29T11:23:40Z</time>
      </trkpt>
      <trkpt lat="44.52064" lon="0.67779">
        <ele>159</ele>
        <time>2015-11-29T11:23:45Z</time>
      </trkpt>
      <trkpt lat="44.52084" lon="0.67809">
        <ele>161</ele>
        <time>2015-11-29T11:23:51Z</time>
      </trkpt>
      <trkpt lat="44.52094" lon="0.67858">
        <ele>162</ele>
        <time>2015-11-29T11:23:58Z</time>
      </trkpt>
      <trkpt lat="44.52094" lon="0.67873">
        <ele>161</ele>
        <time>2015-11-29T11:24:00Z</time>
      </trkpt>
      <trkpt lat="44.52132" lon="0.67881">
        <ele>155</ele>
        <time>2015-11-29T11:24:08Z</time>
      </trkpt>
      <trkpt lat="44.5214" lon="0.67874">
        <ele>154</ele>
        <time>2015-11-29T11:24:09Z</time>
      </trkpt>
      <trkpt lat="44.52179" lon="0.67831">
        <ele>151</ele>
        <time>2015-11-29T11:24:14Z</time>
      </trkpt>
      <trkpt lat="44.52211" lon="0.67799">
        <ele>144</ele>
        <time>2015-11-29T11:24:18Z</time>
      </trkpt>
      <trkpt lat="44.52257" lon="0.67773">
        <ele>141</ele>
        <time>2015-11-29T11:24:23Z</time>
      </trkpt>
      <trkpt lat="44.52304" lon="0.67754">
        <ele>140</ele>
        <time>2015-11-29T11:24:28Z</time>
      </trkpt>
      <trkpt lat="44.52348" lon="0.67737">
        <ele>137</ele>
        <time>2015-11-29T11:24:33Z</time>
      </trkpt>
      <trkpt lat="44.52389" lon="0.67722">
        <ele>136</ele>
        <time>2015-11-29T11:24:38Z</time>
      </trkpt>
      <trkpt lat="44.52431" lon="0.67725">
        <ele>133</ele>
        <time>2015-11-29T11:24:43Z</time>
      </trkpt>
      <trkpt lat="44.52462" lon="0.67748">
        <ele>132</ele>
        <time>2015-11-29T11:24:47Z</time>
      </trkpt>
      <trkpt lat="44.52502" lon="0.67779">
        <ele>129</ele>
        <time>2015-11-29T11:24:52Z</time>
      </trkpt>
      <trkpt lat="44.52539" lon="0.67798">
        <ele>126</ele>
        <time>2015-11-29T11:24:56Z</time>
      </trkpt>
      <trkpt lat="44.52589" lon="0.6781">
        <ele>122</ele>
        <time>2015-11-29T11:25:01Z</time>
      </trkpt>
      <trkpt lat="44.52636" lon="0.67826">
        <ele>121</ele>
        <time>2015-11-29T11:25:06Z</time>
      </trkpt>
      <trkpt lat="44.52678" lon="0.67846">
        <ele>120</ele>
        <time>2015-11-29T11:25:11Z</time>
      </trkpt>
      <trkpt lat="44.52708" lon="0.67863">
        <ele>118</ele>
        <time>2015-11-29T11:25:15Z</time>
      </trkpt>
      <trkpt lat="44.52743" lon="0.67885">
        <ele>117</ele>
        <time>2015-11-29T11:25:20Z</time>
      </trkpt>
      <trkpt lat="44.52782" lon="0.67907">
        <ele>116</ele>
        <time>2015-11-29T11:25:25Z</time>
      </trkpt>
      <trkpt lat="44.52819" lon="0.67925">
        <ele>118</ele>
        <time>2015-11-29T11:25:30Z</time>
      </trkpt>
      <trkpt lat="44.52849" lon="0.67928">
        <ele>118</ele>
        <time>2015-11-29T11:25:35Z</time>
      </trkpt>
      <trkpt lat="44.52877" lon="0.67924">
        <ele>118</ele>
        <time>2015-11-29T11:25:40Z</time>
      </trkpt>
      <trkpt lat="44.52901" lon="0.67918">
        <ele>118</ele>
        <time>2015-11-29T11:25:44Z</time>
      </trkpt>
      <trkpt lat="44.52934" lon="0.67909">
        <ele>117</ele>
        <time>2015-11-29T11:25:49Z</time>
      </trkpt>
      <trkpt lat="44.52968" lon="0.67902">
        <ele>116</ele>
        <time>2015-11-29T11:25:54Z</time>
      </trkpt>
      <trkpt lat="44.53005" lon="0.67892">
        <ele>114</ele>
        <time>2015-11-29T11:25:59Z</time>
      </trkpt>
      <trkpt lat="44.53034" lon="0.67886">
        <ele>115</ele>
        <time>2015-11-29T11:26:03Z</time>
      </trkpt>
      <trkpt lat="44.53069" lon="0.67881">
        <ele>114</ele>
        <time>2015-11-29T11:26:08Z</time>
      </trkpt>
      <trkpt lat="44.53095" lon="0.67881">
        <ele>113</ele>
        <time>2015-11-29T11:26:12Z</time>
      </trkpt>
      <trkpt lat="44.53128" lon="0.67875">
        <ele>111</ele>
        <time>2015-11-29T11:26:17Z</time>
      </trkpt>
      <trkpt lat="44.53153" lon="0.67876">
        <ele>109</ele>
        <time>2015-11-29T11:26:21Z</time>
      </trkpt>
      <trkpt lat="44.53185" lon="0.67875">
        <ele>107</ele>
        <time>2015-11-29T11:26:26Z</time>
      </trkpt>
      <trkpt lat="44.53211" lon="0.67875">
        <ele>106</ele>
        <time>2015-11-29T11:26:30Z</time>
      </trkpt>
      <trkpt lat="44.53238" lon="0.67874">
        <ele>106</ele>
        <time>2015-11-29T11:26:34Z</time>
      </trkpt>
      <trkpt lat="44.53271" lon="0.67877">
        <ele>107</ele>
        <time>2015-11-29T11:26:39Z</time>
      </trkpt>
      <trkpt lat="44.53303" lon="0.67875">
        <ele>106</ele>
        <time>2015-11-29T11:26:44Z</time>
      </trkpt>
      <trkpt lat="44.53329" lon="0.67873">
        <ele>106</ele>
        <time>2015-11-29T11:26:48Z</time>
      </trkpt>
      <trkpt lat="44.5336" lon="0.67873">
        <ele>105</ele>
        <time>2015-11-29T11:26:53Z</time>
      </trkpt>
      <trkpt lat="44.53384" lon="0.67874">
        <ele>104</ele>
        <time>2015-11-29T11:26:57Z</time>
      </trkpt>
      <trkpt lat="44.53415" lon="0.67884">
        <ele>102</ele>
        <time>2015-11-29T11:27:02Z</time>
      </trkpt>
      <trkpt lat="44.53446" lon="0.67906">
        <ele>100</ele>
        <time>2015-11-29T11:27:07Z</time>
      </trkpt>
      <trkpt lat="44.53476" lon="0.67939">
        <ele>98</ele>
        <time>2015-11-29T11:27:12Z</time>
      </trkpt>
      <trkpt lat="44.53509" lon="0.67972">
        <ele>95</ele>
        <time>2015-11-29T11:27:17Z</time>
      </trkpt>
      <trkpt lat="44.5354" lon="0.68005">
        <ele>95</ele>
        <time>2015-11-29T11:27:22Z</time>
      </trkpt>
      <trkpt lat="44.53568" lon="0.68032">
        <ele>94</ele>
        <time>2015-11-29T11:27:27Z</time>
      </trkpt>
      <trkpt lat="44.5359" lon="0.68057">
        <ele>95</ele>
        <time>2015-11-29T11:27:32Z</time>
      </trkpt>
      <trkpt lat="44.5361" lon="0.68079">
        <ele>97</ele>
        <time>2015-11-29T11:27:37Z</time>
      </trkpt>
      <trkpt lat="44.53625" lon="0.68093">
        <ele>98</ele>
        <time>2015-11-29T11:27:42Z</time>
      </trkpt>
      <trkpt lat="44.53636" lon="0.68103">
        <ele>99</ele>
        <time>2015-11-29T11:27:47Z</time>
      </trkpt>
      <trkpt lat="44.53643" lon="0.68112">
        <ele>101</ele>
        <time>2015-11-29T11:27:51Z</time>
      </trkpt>
      <trkpt lat="44.5365" lon="0.68126">
        <ele>102</ele>
        <time>2015-11-29T11:27:57Z</time>
      </trkpt>
      <trkpt lat="44.53654" lon="0.68129">
        <ele>101</ele>
        <time>2015-11-29T11:28:00Z</time>
      </trkpt>
      <trkpt lat="44.53659" lon="0.68141">
        <ele>104</ele>
        <time>2015-11-29T11:28:05Z</time>
      </trkpt>
      <trkpt lat="44.53665" lon="0.6815">
        <ele>105</ele>
        <time>2015-11-29T11:28:10Z</time>
      </trkpt>
      <trkpt lat="44.5367" lon="0.68161">
        <ele>106</ele>
        <time>2015-11-29T11:28:15Z</time>
      </trkpt>
      <trkpt lat="44.53675" lon="0.6817">
        <ele>106</ele>
        <time>2015-11-29T11:28:20Z</time>
      </trkpt>
      <trkpt lat="44.5368" lon="0.68175">
        <ele>105</ele>
        <time>2015-11-29T11:28:25Z</time>
      </trkpt>
      <trkpt lat="44.53684" lon="0.68176">
        <ele>103</ele>
        <time>2015-11-29T11:28:30Z</time>
      </trkpt>
      <trkpt lat="44.53687" lon="0.68186">
        <ele>105</ele>
        <time>2015-11-29T11:28:36Z</time>
      </trkpt>
      <trkpt lat="44.5369" lon="0.6819">
        <ele>106</ele>
        <time>2015-11-29T11:28:41Z</time>
      </trkpt>
      <trkpt lat="44.53692" lon="0.68193">
        <ele>108</ele>
        <time>2015-11-29T11:28:43Z</time>
      </trkpt>
      <trkpt lat="44.53696" lon="0.68196">
        <ele>106</ele>
        <time>2015-11-29T11:28:49Z</time>
      </trkpt>
      <trkpt lat="44.53698" lon="0.68202">
        <ele>107</ele>
        <time>2015-11-29T11:28:54Z</time>
      </trkpt>
      <trkpt lat="44.53701" lon="0.68204">
        <ele>107</ele>
        <time>2015-11-29T11:28:57Z</time>
      </trkpt>
      <trkpt lat="44.53702" lon="0.68213">
        <ele>110</ele>
        <time>2015-11-29T11:29:03Z</time>
      </trkpt>
      <trkpt lat="44.53704" lon="0.68215">
        <ele>111</ele>
        <time>2015-11-29T11:29:06Z</time>
      </trkpt>
      <trkpt lat="44.53708" lon="0.68224">
        <ele>110</ele>
        <time>2015-11-29T11:29:14Z</time>
      </trkpt>
      <trkpt lat="44.53708" lon="0.68227">
        <ele>112</ele>
        <time>2015-11-29T11:29:16Z</time>
      </trkpt>
      <trkpt lat="44.53715" lon="0.68234">
        <ele>113</ele>
        <time>2015-11-29T11:29:25Z</time>
      </trkpt>
      <trkpt lat="44.53718" lon="0.68237">
        <ele>110</ele>
        <time>2015-11-29T11:29:30Z</time>
      </trkpt>
      <trkpt lat="44.5372" lon="0.68241">
        <ele>109</ele>
        <time>2015-11-29T11:29:34Z</time>
      </trkpt>
      <trkpt lat="44.53721" lon="0.68242">
        <ele>110</ele>
        <time>2015-11-29T11:29:35Z</time>
      </trkpt>
      <trkpt lat="44.53723" lon="0.68246">
        <ele>109</ele>
        <time>2015-11-29T11:29:39Z</time>
      </trkpt>
      <trkpt lat="44.53726" lon="0.68249">
        <ele>108</ele>
        <time>2015-11-29T11:29:43Z</time>
      </trkpt>
      <trkpt lat="44.53731" lon="0.68255">
        <ele>105</ele>
        <time>2015-11-29T11:29:50Z</time>
      </trkpt>
      <trkpt lat="44.53734" lon="0.6826">
        <ele>106</ele>
        <time>2015-11-29T11:29:53Z</time>
      </trkpt>
      <trkpt lat="44.53741" lon="0.68265">
        <ele>104</ele>
        <time>2015-11-29T11:29:59Z</time>
      </trkpt>
      <trkpt lat="44.53744" lon="0.68273">
        <ele>105</ele>
        <time>2015-11-29T11:30:05Z</time>
      </trkpt>
      <trkpt lat="44.53744" lon="0.68276">
        <ele>105</ele>
        <time>2015-11-29T11:30:08Z</time>
      </trkpt>
      <trkpt lat="44.53741" lon="0.68283">
        <ele>106</ele>
        <time>2015-11-29T11:30:12Z</time>
      </trkpt>
      <trkpt lat="44.53743" lon="0.68282">
        <ele>109</ele>
        <time>2015-11-29T11:30:17Z</time>
      </trkpt>
      <trkpt lat="44.53742" lon="0.68281">
        <ele>110</ele>
        <time>2015-11-29T11:30:20Z</time>
      </trkpt>
      <trkpt lat="44.53743" lon="0.68281">
        <ele>110</ele>
        <time>2015-11-29T11:30:23Z</time>
      </trkpt>
      <trkpt lat="44.53742" lon="0.68281">
        <ele>111</ele>
        <time>2015-11-29T11:30:26Z</time>
      </trkpt>
      <trkpt lat="44.53741" lon="0.6828">
        <ele>112</ele>
        <time>2015-11-29T11:30:28Z</time>
      </trkpt>
      <trkpt lat="44.53739" lon="0.68285">
        <ele>113</ele>
        <time>2015-11-29T11:30:32Z</time>
      </trkpt>
      <trkpt lat="44.53734" lon="0.68293">
        <ele>116</ele>
        <time>2015-11-29T11:30:37Z</time>
      </trkpt>
      <trkpt lat="44.53731" lon="0.683">
        <ele>118</ele>
        <time>2015-11-29T11:30:42Z</time>
      </trkpt>
      <trkpt lat="44.53728" lon="0.68306">
        <ele>117</ele>
        <time>2015-11-29T11:30:46Z</time>
      </trkpt>
      <trkpt lat="44.53724" lon="0.68309">
        <ele>116</ele>
        <time>2015-11-29T11:30:50Z</time>
      </trkpt>
      <trkpt lat="44.53717" lon="0.68316">
        <ele>119</ele>
        <time>2015-11-29T11:30:57Z</time>
      </trkpt>
      <trkpt lat="44.53714" lon="0.68318">
        <ele>119</ele>
        <time>2015-11-29T11:31:00Z</time>
      </trkpt>
      <trkpt lat="44.53713" lon="0.68328">
        <ele>117</ele>
        <time>2015-11-29T11:31:09Z</time>
      </trkpt>
      <trkpt lat="44.53714" lon="0.68327">
        <ele>117</ele>
        <time>2015-11-29T11:31:10Z</time>
      </trkpt>
      <trkpt lat="44.53714" lon="0.68328">
        <ele>118</ele>
        <time>2015-11-29T11:31:14Z</time>
      </trkpt>
      <trkpt lat="44.53719" lon="0.68336">
        <ele>118</ele>
        <time>2015-11-29T11:31:17Z</time>
      </trkpt>
      <trkpt lat="44.53716" lon="0.68344">
        <ele>120</ele>
        <time>2015-11-29T11:31:21Z</time>
      </trkpt>
      <trkpt lat="44.53714" lon="0.68355">
        <ele>119</ele>
        <time>2015-11-29T11:31:25Z</time>
      </trkpt>
      <trkpt lat="44.53707" lon="0.68369">
        <ele>118</ele>
        <time>2015-11-29T11:31:30Z</time>
      </trkpt>
      <trkpt lat="44.53698" lon="0.68383">
        <ele>119</ele>
        <time>2015-11-29T11:31:38Z</time>
      </trkpt>
      <trkpt lat="44.53697" lon="0.6839">
        <ele>116</ele>
        <time>2015-11-29T11:31:40Z</time>
      </trkpt>
      <trkpt lat="44.53691" lon="0.68403">
        <ele>116</ele>
        <time>2015-11-29T11:31:45Z</time>
      </trkpt>
      <trkpt lat="44.53688" lon="0.68414">
        <ele>117</ele>
        <time>2015-11-29T11:31:49Z</time>
      </trkpt>
      <trkpt lat="44.53683" lon="0.68424">
        <ele>120</ele>
        <time>2015-11-29T11:31:54Z</time>
      </trkpt>
      <trkpt lat="44.53678" lon="0.68444">
        <ele>113</ele>
        <time>2015-11-29T11:31:59Z</time>
      </trkpt>
      <trkpt lat="44.53681" lon="0.68456">
        <ele>111</ele>
        <time>2015-11-29T11:32:03Z</time>
      </trkpt>
      <trkpt lat="44.53684" lon="0.68463">
        <ele>108</ele>
        <time>2015-11-29T11:32:08Z</time>
      </trkpt>
      <trkpt lat="44.5369" lon="0.68463">
        <ele>106</ele>
        <time>2015-11-29T11:32:13Z</time>
      </trkpt>
      <trkpt lat="44.53702" lon="0.68465">
        <ele>106</ele>
        <time>2015-11-29T11:32:21Z</time>
      </trkpt>
      <trkpt lat="44.53703" lon="0.68463">
        <ele>109</ele>
        <time>2015-11-29T11:32:25Z</time>
      </trkpt>
      <trkpt lat="44.53703" lon="0.68463">
        <ele>109</ele>
        <time>2015-11-29T11:32:29Z</time>
      </trkpt>
      <trkpt lat="44.53703" lon="0.68464">
        <ele>109</ele>
        <time>2015-11-29T11:32:31Z</time>
      </trkpt>
      <trkpt lat="44.53702" lon="0.68466">
        <ele>110</ele>
        <time>2015-11-29T11:32:34Z</time>
      </trkpt>
      <trkpt lat="44.53703" lon="0.68468">
        <ele>112</ele>
        <time>2015-11-29T11:32:39Z</time>
      </trkpt>
      <trkpt lat="44.53704" lon="0.68468">
        <ele>112</ele>
        <time>2015-11-29T11:32:44Z</time>
      </trkpt>
      <trkpt lat="44.53705" lon="0.68468">
        <ele>113</ele>
        <time>2015-11-29T11:32:47Z</time>
      </trkpt>
      <trkpt lat="44.53705" lon="0.68468">
        <ele>113</ele>
        <time>2015-11-29T11:32:50Z</time>
      </trkpt>
      <trkpt lat="44.53705" lon="0.68468">
        <ele>113</ele>
        <time>2015-11-29T11:32:53Z</time>
      </trkpt>
    </trkseg>
  </trk>
</gpx>